Wetterdaten: Mittwoch, 13.06.2018
Datum Zeit Temp. A. Pool Temp. Feuchte A. Luftdruck Regen Wind Richtung Richtung Sonnenschein ET UV Solar Taupunkt Windchill Windben Empfang
13.06.2018 00:00 17,6 C 26,1 C 96 % 1004,4 hPa 0,0 l/m 2,6 km/h (1 Bft) SW 217 0 min 0,000 mm 0,0 UV-I 0 W/m 17,0 C 17,6 C 4,8 km/h (1 Bft) 95,83 %
13.06.2018 00:02 17,6 C 26,1 C 96 % 1004,5 hPa 0,0 l/m 3,2 km/h (1 Bft) SW 217 0 min 0,000 mm 0,0 UV-I 0 W/m 17,0 C 17,6 C 3,2 km/h (1 Bft) 97,56 %
13.06.2018 00:03 17,6 C 26,1 C 96 % 1004,5 hPa 0,0 l/m 3,6 km/h (1 Bft) SW 216 0 min 0,000 mm 0,0 UV-I 0 W/m 17,0 C 17,6 C 4,8 km/h (1 Bft) 96,55 %
13.06.2018 00:04 17,6 C 26,1 C 96 % 1004,5 hPa 0,0 l/m 4,2 km/h (1 Bft) SW 215 0 min 0,000 mm 0,0 UV-I 0 W/m 17,0 C 17,6 C 4,8 km/h (1 Bft) 100,00 %
13.06.2018 00:05 17,6 C 26,1 C 96 % 1004,5 hPa 0,0 l/m 3,1 km/h (1 Bft) SW 216 0 min 0,000 mm 0,0 UV-I 0 W/m 17,0 C 17,6 C 4,8 km/h (1 Bft) 91,67 %
13.06.2018 00:06 17,6 C 26,1 C 96 % 1004,5 hPa 0,0 l/m 2,3 km/h (1 Bft) SW 216 0 min 0,000 mm 0,0 UV-I 0 W/m 17,0 C 17,6 C 4,8 km/h (1 Bft) 96,15 %
13.06.2018 00:07 17,7 C 26,1 C 96 % 1004,4 hPa 0,0 l/m 3,5 km/h (1 Bft) SW 215 0 min 0,000 mm 0,0 UV-I 0 W/m 17,1 C 17,7 C 4,8 km/h (1 Bft) 95,83 %
13.06.2018 00:08 17,7 C 26,1 C 96 % 1004,4 hPa 0,0 l/m 4,1 km/h (1 Bft) SW 215 0 min 0,000 mm 0,0 UV-I 0 W/m 17,1 C 17,7 C 4,8 km/h (1 Bft) 96,55 %
13.06.2018 00:09 17,6 C 26,1 C 96 % 1004,4 hPa 0,0 l/m 3,2 km/h (1 Bft) SW 215 0 min 0,000 mm 0,0 UV-I 0 W/m 17,0 C 17,6 C 4,8 km/h (1 Bft) 95,83 %
13.06.2018 00:10 17,6 C 26,1 C 96 % 1004,4 hPa 0,0 l/m 5,0 km/h (1 Bft) SW 217 0 min 0,000 mm 0,0 UV-I 0 W/m 17,0 C 17,6 C 6,4 km/h (2 Bft) 100,00 %
13.06.2018 00:11 17,7 C 26,1 C 96 % 1004,4 hPa 0,0 l/m 3,6 km/h (1 Bft) SW 218 0 min 0,000 mm 0,0 UV-I 0 W/m 17,1 C 17,7 C 4,8 km/h (1 Bft) 95,83 %
13.06.2018 00:12 17,7 C 26,1 C 96 % 1004,5 hPa 0,0 l/m 3,8 km/h (1 Bft) SW 230 0 min 0,000 mm 0,0 UV-I 0 W/m 17,1 C 17,7 C 6,4 km/h (2 Bft) 95,65 %
13.06.2018 00:13 17,7 C 26,1 C 96 % 1004,5 hPa 0,0 l/m 3,3 km/h (1 Bft) SW 230 0 min 0,000 mm 0,0 UV-I 0 W/m 17,1 C 17,7 C 6,4 km/h (2 Bft) 100,00 %
13.06.2018 00:14 17,7 C 26,1 C 96 % 1004,5 hPa 0,0 l/m 4,4 km/h (1 Bft) W 267 0 min 0,000 mm 0,0 UV-I 0 W/m 17,1 C 17,7 C 6,4 km/h (2 Bft) 100,00 %
13.06.2018 00:15 17,7 C 26,1 C 96 % 1004,5 hPa 0,0 l/m 4,7 km/h (1 Bft) W 267 0 min 0,000 mm 0,0 UV-I 0 W/m 17,1 C 17,7 C 6,4 km/h (2 Bft) 96,30 %
13.06.2018 00:16 17,7 C 26,1 C 96 % 1004,5 hPa 0,0 l/m 4,4 km/h (1 Bft) W-SW 244 0 min 0,000 mm 0,0 UV-I 0 W/m 17,1 C 17,7 C 6,4 km/h (2 Bft) 96,55 %
13.06.2018 00:17 17,7 C 26,1 C 96 % 1004,5 hPa 0,0 l/m 5,8 km/h (2 Bft) W-SW 256 0 min 0,000 mm 0,0 UV-I 0 W/m 17,1 C 17,7 C 8,0 km/h (2 Bft) 100,00 %
13.06.2018 00:18 17,7 C 26,1 C 96 % 1004,6 hPa 0,2 l/m 7,7 km/h (2 Bft) SW 227 0 min 0,000 mm 0,0 UV-I 0 W/m 17,1 C 17,1 C 11,3 km/h (2 Bft) 95,65 %
13.06.2018 00:19 17,7 C 26,1 C 96 % 1004,6 hPa 0,0 l/m 7,2 km/h (2 Bft) SW 232 0 min 0,000 mm 0,0 UV-I 0 W/m 17,1 C 17,3 C 9,7 km/h (2 Bft) 100,00 %
13.06.2018 00:20 17,7 C 26,1 C 96 % 1004,6 hPa 0,0 l/m 4,5 km/h (1 Bft) W-SW 240 0 min 0,000 mm 0,0 UV-I 0 W/m 17,1 C 17,7 C 6,4 km/h (2 Bft) 92,31 %
13.06.2018 00:21 17,7 C 26,1 C 96 % 1004,6 hPa 0,2 l/m 6,8 km/h (2 Bft) W-SW 238 0 min 0,000 mm 0,0 UV-I 0 W/m 17,1 C 17,5 C 14,5 km/h (3 Bft) 95,83 %
13.06.2018 00:22 17,8 C 26,1 C 96 % 1004,6 hPa 0,0 l/m 9,7 km/h (2 Bft) S-SW 202 0 min 0,000 mm 0,0 UV-I 0 W/m 17,2 C 16,3 C 14,5 km/h (3 Bft) 91,67 %
13.06.2018 00:23 17,7 C 26,1 C 96 % 1004,6 hPa 0,2 l/m 5,9 km/h (2 Bft) W-SW 250 0 min 0,000 mm 0,0 UV-I 0 W/m 17,1 C 17,7 C 8,0 km/h (2 Bft) 97,56 %
13.06.2018 00:24 17,7 C 25,6 C 96 % 1004,6 hPa 0,0 l/m 10,0 km/h (2 Bft) SW 215 0 min 0,000 mm 0,0 UV-I 0 W/m 17,1 C 16,1 C 14,5 km/h (3 Bft) 100,00 %
13.06.2018 00:25 17,8 C 26,1 C 96 % 1004,6 hPa 0,0 l/m 9,1 km/h (2 Bft) SW 229 0 min 0,000 mm 0,0 UV-I 0 W/m 17,2 C 16,6 C 12,9 km/h (3 Bft) 95,83 %
13.06.2018 00:26 17,8 C 25,6 C 96 % 1004,6 hPa 0,2 l/m 9,0 km/h (2 Bft) W-SW 241 0 min 0,000 mm 0,0 UV-I 0 W/m 17,2 C 16,6 C 11,3 km/h (2 Bft) 100,00 %
13.06.2018 00:27 17,8 C 26,1 C 96 % 1004,6 hPa 0,0 l/m 9,3 km/h (2 Bft) W-SW 240 0 min 0,000 mm 0,0 UV-I 0 W/m 17,2 C 16,5 C 12,9 km/h (3 Bft) 95,65 %
13.06.2018 00:28 17,8 C 25,6 C 96 % 1004,6 hPa 0,0 l/m 6,4 km/h (2 Bft) SW 236 0 min 0,000 mm 0,0 UV-I 0 W/m 17,2 C 17,8 C 9,7 km/h (2 Bft) 100,00 %
13.06.2018 00:29 17,8 C 25,6 C 96 % 1004,7 hPa 0,0 l/m 8,4 km/h (2 Bft) W-SW 237 0 min 0,000 mm 0,0 UV-I 0 W/m 17,2 C 16,9 C 11,3 km/h (2 Bft) 96,88 %
13.06.2018 00:30 17,8 C 25,6 C 96 % 1004,6 hPa 0,0 l/m 7,8 km/h (2 Bft) SW 227 0 min 0,000 mm 0,0 UV-I 0 W/m 17,2 C 17,1 C 11,3 km/h (2 Bft) 100,00 %
13.06.2018 00:31 17,8 C 25,6 C 96 % 1004,6 hPa 0,2 l/m 6,0 km/h (2 Bft) W-SW 243 0 min 0,000 mm 0,0 UV-I 0 W/m 17,2 C 17,8 C 9,7 km/h (2 Bft) 92,86 %
13.06.2018 00:32 17,8 C 25,6 C 96 % 1004,6 hPa 0,0 l/m 6,0 km/h (2 Bft) W-SW 243 0 min 0,000 mm 0,0 UV-I 0 W/m 17,2 C 17,8 C 8,0 km/h (2 Bft) 100,00 %
13.06.2018 00:33 17,7 C 25,6 C 96 % 1004,6 hPa 0,0 l/m 7,3 km/h (2 Bft) SW 236 0 min 0,000 mm 0,0 UV-I 0 W/m 17,1 C 17,3 C 11,3 km/h (2 Bft) 95,65 %
13.06.2018 00:34 17,7 C 25,6 C 96 % 1004,6 hPa 0,2 l/m 10,0 km/h (2 Bft) SW 236 0 min 0,000 mm 0,0 UV-I 0 W/m 17,1 C 16,1 C 16,1 km/h (3 Bft) 96,30 %
13.06.2018 00:35 17,6 C 25,6 C 96 % 1004,5 hPa 0,0 l/m 8,9 km/h (2 Bft) SW 221 0 min 0,000 mm 0,0 UV-I 0 W/m 17,0 C 16,4 C 14,5 km/h (3 Bft) 100,00 %
13.06.2018 00:36 17,5 C 25,6 C 96 % 1004,6 hPa 0,2 l/m 9,4 km/h (2 Bft) SW 214 0 min 0,000 mm 0,0 UV-I 0 W/m 16,9 C 16,1 C 12,9 km/h (3 Bft) 100,00 %
13.06.2018 00:37 17,4 C 25,6 C 96 % 1004,5 hPa 0,2 l/m 8,1 km/h (2 Bft) SW 225 0 min 0,000 mm 0,0 UV-I 0 W/m 16,8 C 16,6 C 12,9 km/h (3 Bft) 100,00 %
13.06.2018 00:38 17,4 C 25,6 C 96 % 1004,6 hPa 0,0 l/m 7,6 km/h (2 Bft) SW 217 0 min 0,000 mm 0,0 UV-I 0 W/m 16,8 C 16,8 C 12,9 km/h (3 Bft) 100,00 %
13.06.2018 00:39 17,4 C 25,6 C 96 % 1004,5 hPa 0,2 l/m 8,6 km/h (2 Bft) SW 233 0 min 0,000 mm 0,0 UV-I 0 W/m 16,8 C 16,4 C 12,9 km/h (3 Bft) 100,00 %
13.06.2018 00:40 17,3 C 25,6 C 96 % 1004,5 hPa 0,2 l/m 5,5 km/h (1 Bft) SW 232 0 min 0,000 mm 0,0 UV-I 0 W/m 16,7 C 17,3 C 8,0 km/h (2 Bft) 100,00 %
13.06.2018 00:41 17,3 C 25,6 C 96 % 1004,5 hPa 0,2 l/m 5,6 km/h (1 Bft) W-SW 240 0 min 0,000 mm 0,0 UV-I 0 W/m 16,7 C 17,3 C 6,4 km/h (2 Bft) 96,55 %
13.06.2018 00:42 17,3 C 25,6 C 96 % 1004,5 hPa 0,2 l/m 4,4 km/h (1 Bft) W-SW 240 0 min 0,000 mm 0,0 UV-I 0 W/m 16,7 C 17,3 C 8,0 km/h (2 Bft) 100,00 %
13.06.2018 00:43 17,3 C 25,6 C 96 % 1004,5 hPa 0,0 l/m 5,0 km/h (1 Bft) W-SW 240 0 min 0,000 mm 0,0 UV-I 0 W/m 16,7 C 17,3 C 8,0 km/h (2 Bft) 100,00 %
13.06.2018 00:44 17,3 C 25,6 C 96 % 1004,5 hPa 0,2 l/m 6,8 km/h (2 Bft) W-SW 238 0 min 0,000 mm 0,0 UV-I 0 W/m 16,7 C 17,1 C 9,7 km/h (2 Bft) 100,00 %
13.06.2018 00:45 17,3 C 25,6 C 96 % 1004,5 hPa 0,2 l/m 5,4 km/h (1 Bft) SW 232 0 min 0,000 mm 0,0 UV-I 0 W/m 16,7 C 17,3 C 6,4 km/h (2 Bft) 100,00 %
13.06.2018 00:46 17,2 C 25,6 C 96 % 1004,4 hPa 0,0 l/m 3,8 km/h (1 Bft) W-SW 253 0 min 0,000 mm 0,0 UV-I 0 W/m 16,6 C 17,2 C 4,8 km/h (1 Bft) 100,00 %
13.06.2018 00:47 17,2 C 25,6 C 96 % 1004,4 hPa 0,2 l/m 4,1 km/h (1 Bft) SW 232 0 min 0,000 mm 0,0 UV-I 0 W/m 16,6 C 17,2 C 6,4 km/h (2 Bft) 100,00 %
13.06.2018 00:48 17,2 C 25,6 C 96 % 1004,4 hPa 0,0 l/m 4,4 km/h (1 Bft) W-SW 252 0 min 0,000 mm 0,0 UV-I 0 W/m 16,6 C 17,2 C 6,4 km/h (2 Bft) 100,00 %
13.06.2018 00:49 17,2 C 25,6 C 96 % 1004,4 hPa 0,2 l/m 3,7 km/h (1 Bft) W-SW 250 0 min 0,000 mm 0,0 UV-I 0 W/m 16,6 C 17,2 C 4,8 km/h (1 Bft) 92,59 %
13.06.2018 00:50 17,1 C 25,6 C 96 % 1004,3 hPa 0,0 l/m 2,5 km/h (1 Bft) W-SW 250 0 min 0,000 mm 0,0 UV-I 0 W/m 16,5 C 17,1 C 3,2 km/h (1 Bft) 100,00 %
13.06.2018 00:51 17,2 C 25,6 C 96 % 1004,3 hPa 0,0 l/m 1,4 km/h (1 Bft) W-SW 250 0 min 0,000 mm 0,0 UV-I 0 W/m 16,6 C 17,2 C 3,2 km/h (1 Bft) 100,00 %
13.06.2018 00:52 17,1 C 25,6 C 96 % 1004,3 hPa 0,2 l/m 1,1 km/h (1 Bft) W-SW 250 0 min 0,000 mm 0,0 UV-I 0 W/m 16,5 C 17,1 C 3,2 km/h (1 Bft) 95,65 %
13.06.2018 00:53 17,1 C 25,6 C 96 % 1004,3 hPa 0,0 l/m 2,1 km/h (1 Bft) W-SW 250 0 min 0,000 mm 0,0 UV-I 0 W/m 16,5 C 17,1 C 3,2 km/h (1 Bft) 92,59 %
13.06.2018 00:54 17,1 C 25,6 C 96 % 1004,3 hPa 0,2 l/m 0,4 km/h (0 Bft) W-SW 250 0 min 0,000 mm 0,0 UV-I 0 W/m 16,5 C 17,1 C 1,6 km/h (1 Bft) 100,00 %
13.06.2018 00:55 17,1 C 25,6 C 96 % 1004,3 hPa 0,0 l/m 0,1 km/h (0 Bft) W-SW 250 0 min 0,000 mm 0,0 UV-I 0 W/m 16,5 C 17,1 C 1,6 km/h (1 Bft) 96,30 %
13.06.2018 00:56 17,1 C 25,6 C 96 % 1004,3 hPa 0,2 l/m 0,0 km/h (0 Bft) W-SW 250 0 min 0,000 mm 0,0 UV-I 0 W/m 16,5 C 17,1 C 0,0 km/h (0 Bft) 97,67 %
13.06.2018 00:57 17,2 C 25,6 C 96 % 1004,3 hPa 0,0 l/m 0,1 km/h (0 Bft) W-SW 250 0 min 0,000 mm 0,0 UV-I 0 W/m 16,6 C 17,2 C 1,6 km/h (1 Bft) 97,37 %
13.06.2018 00:58 17,2 C 25,6 C 96 % 1004,3 hPa 0,0 l/m 0,0 km/h (0 Bft) W-SW 250 0 min 0,000 mm 0,0 UV-I 0 W/m 16,6 C 17,2 C 0,0 km/h (0 Bft) 100,00 %
13.06.2018 00:59 17,1 C 25,6 C 96 % 1004,3 hPa 0,2 l/m 0,1 km/h (0 Bft) W-SW 250 0 min 0,000 mm 0,0 UV-I 0 W/m 16,5 C 17,1 C 1,6 km/h (1 Bft) 91,67 %
13.06.2018 01:00 17,1 C 25,6 C 96 % 1004,3 hPa 0,0 l/m 0,0 km/h (0 Bft) W-SW 250 0 min 0,000 mm 0,0 UV-I 0 W/m 16,5 C 17,1 C 0,0 km/h (0 Bft) 96,15 %
13.06.2018 01:01 17,1 C 25,6 C 96 % 1004,2 hPa 0,2 l/m 0,0 km/h (0 Bft) W-SW 250 0 min 0,000 mm 0,0 UV-I 0 W/m 16,5 C 17,1 C 0,0 km/h (0 Bft) 100,00 %
13.06.2018 01:02 17,1 C 25,6 C 96 % 1004,2 hPa 0,0 l/m 0,0 km/h (0 Bft) W-SW 250 0 min 0,000 mm 0,0 UV-I 0 W/m 16,5 C 17,1 C 0,0 km/h (0 Bft) 96,15 %
13.06.2018 01:03 17,0 C 25,6 C 96 % 1004,3 hPa 0,2 l/m 0,0 km/h (0 Bft) W-SW 250 0 min 0,000 mm 0,0 UV-I 0 W/m 16,4 C 17,0 C 0,0 km/h (0 Bft) 100,00 %
13.06.2018 01:04 17,0 C 25,6 C 96 % 1004,3 hPa 0,0 l/m 0,0 km/h (0 Bft) W-SW 250 0 min 0,000 mm 0,0 UV-I 0 W/m 16,4 C 17,0 C 0,0 km/h (0 Bft) 91,67 %
13.06.2018 01:05 17,0 C 25,6 C 96 % 1004,3 hPa 0,0 l/m 0,0 km/h (0 Bft) W-SW 250 0 min 0,000 mm 0,0 UV-I 0 W/m 16,4 C 17,0 C 0,0 km/h (0 Bft) 96,15 %
13.06.2018 01:06 17,0 C 25,6 C 96 % 1004,3 hPa 0,2 l/m 0,0 km/h (0 Bft) W-SW 250 0 min 0,000 mm 0,0 UV-I 0 W/m 16,4 C 17,0 C 0,0 km/h (0 Bft) 95,83 %
13.06.2018 01:07 16,9 C 25,6 C 96 % 1004,3 hPa 0,0 l/m 0,0 km/h (0 Bft) W-SW 250 0 min 0,000 mm 0,0 UV-I 0 W/m 16,3 C 16,9 C 0,0 km/h (0 Bft) 100,00 %
13.06.2018 01:08 16,9 C 25,6 C 96 % 1004,3 hPa 0,0 l/m 0,0 km/h (0 Bft) W-SW 250 0 min 0,000 mm 0,0 UV-I 0 W/m 16,3 C 16,9 C 0,0 km/h (0 Bft) 95,83 %
13.06.2018 01:09 17,0 C 25,6 C 96 % 1004,3 hPa 0,0 l/m 0,0 km/h (0 Bft) W-SW 250 0 min 0,000 mm 0,0 UV-I 0 W/m 16,4 C 17,0 C 0,0 km/h (0 Bft) 100,00 %
13.06.2018 01:10 17,0 C 25,6 C 96 % 1004,3 hPa 0,2 l/m 0,2 km/h (0 Bft) W-SW 250 0 min 0,000 mm 0,0 UV-I 0 W/m 16,4 C 17,0 C 1,6 km/h (1 Bft) 95,83 %
13.06.2018 01:11 17,1 C 25,6 C 97 % 1004,3 hPa 0,0 l/m 0,2 km/h (0 Bft) W-SW 250 0 min 0,000 mm 0,0 UV-I 0 W/m 16,6 C 17,1 C 1,6 km/h (1 Bft) 95,65 %
13.06.2018 01:12 17,1 C 25,6 C 97 % 1004,3 hPa 0,0 l/m 1,1 km/h (1 Bft) W-SW 250 0 min 0,000 mm 0,0 UV-I 0 W/m 16,6 C 17,1 C 1,6 km/h (1 Bft) 100,00 %
13.06.2018 01:13 17,1 C 25,6 C 97 % 1004,3 hPa 0,0 l/m 1,1 km/h (1 Bft) W-SW 250 0 min 0,000 mm 0,0 UV-I 0 W/m 16,6 C 17,1 C 3,2 km/h (1 Bft) 95,65 %
13.06.2018 01:14 17,1 C 25,6 C 97 % 1004,4 hPa 0,0 l/m 1,4 km/h (1 Bft) W-SW 250 0 min 0,000 mm 0,0 UV-I 0 W/m 16,6 C 17,1 C 3,2 km/h (1 Bft) 100,00 %
13.06.2018 01:15 17,1 C 25,6 C 96 % 1004,3 hPa 0,2 l/m 1,5 km/h (1 Bft) W-SW 250 0 min 0,000 mm 0,0 UV-I 0 W/m 16,5 C 17,1 C 1,6 km/h (1 Bft) 96,15 %
13.06.2018 01:16 17,1 C 25,6 C 96 % 1004,3 hPa 0,0 l/m 0,9 km/h (0 Bft) W-SW 250 0 min 0,000 mm 0,0 UV-I 0 W/m 16,5 C 17,1 C 1,6 km/h (1 Bft) 95,83 %
13.06.2018 01:17 17,1 C 25,6 C 96 % 1004,3 hPa 0,0 l/m 0,4 km/h (0 Bft) W-SW 250 0 min 0,000 mm 0,0 UV-I 0 W/m 16,5 C 17,1 C 3,2 km/h (1 Bft) 100,00 %
13.06.2018 01:18 17,1 C 25,6 C 96 % 1004,3 hPa 0,0 l/m 2,3 km/h (1 Bft) W-SW 250 0 min 0,000 mm 0,0 UV-I 0 W/m 16,5 C 17,1 C 3,2 km/h (1 Bft) 100,00 %
13.06.2018 01:19 17,1 C 25,6 C 96 % 1004,3 hPa 0,2 l/m 1,6 km/h (1 Bft) W-SW 250 0 min 0,000 mm 0,0 UV-I 0 W/m 16,5 C 17,1 C 3,2 km/h (1 Bft) 95,83 %
13.06.2018 01:20 17,1 C 25,6 C 96 % 1004,3 hPa 0,0 l/m 1,9 km/h (1 Bft) W-SW 250 0 min 0,000 mm 0,0 UV-I 0 W/m 16,5 C 17,1 C 3,2 km/h (1 Bft) 96,15 %
13.06.2018 01:21 17,1 C 25,6 C 96 % 1004,3 hPa 0,0 l/m 1,7 km/h (1 Bft) W-SW 250 0 min 0,000 mm 0,0 UV-I 0 W/m 16,5 C 17,1 C 3,2 km/h (1 Bft) 100,00 %
13.06.2018 01:22 17,1 C 25,6 C 96 % 1004,3 hPa 0,2 l/m 1,9 km/h (1 Bft) W-SW 250 0 min 0,000 mm 0,0 UV-I 0 W/m 16,5 C 17,1 C 3,2 km/h (1 Bft) 100,00 %
13.06.2018 01:23 17,1 C 25,6 C 97 % 1004,4 hPa 0,0 l/m 1,4 km/h (1 Bft) W-SW 250 0 min 0,000 mm 0,0 UV-I 0 W/m 16,6 C 17,1 C 1,6 km/h (1 Bft) 100,00 %
13.06.2018 01:24 17,1 C 25,6 C 96 % 1004,4 hPa 0,0 l/m 2,4 km/h (1 Bft) W 263 0 min 0,000 mm 0,0 UV-I 0 W/m 16,5 C 17,1 C 4,8 km/h (1 Bft) 95,65 %
13.06.2018 01:25 17,0 C 25,6 C 96 % 1004,4 hPa 0,2 l/m 2,3 km/h (1 Bft) W 263 0 min 0,000 mm 0,0 UV-I 0 W/m 16,4 C 17,0 C 4,8 km/h (1 Bft) 100,00 %
13.06.2018 01:26 17,0 C 25,6 C 96 % 1004,4 hPa 0,0 l/m 1,5 km/h (1 Bft) W 264 0 min 0,000 mm 0,0 UV-I 0 W/m 16,4 C 17,0 C 3,2 km/h (1 Bft) 100,00 %
13.06.2018 01:27 16,9 C 25,6 C 96 % 1004,3 hPa 0,0 l/m 0,6 km/h (0 Bft) W 264 0 min 0,000 mm 0,0 UV-I 0 W/m 16,3 C 16,9 C 3,2 km/h (1 Bft) 100,00 %
13.06.2018 01:28 16,9 C 25,6 C 97 % 1004,3 hPa 0,2 l/m 0,7 km/h (0 Bft) W 265 0 min 0,000 mm 0,0 UV-I 0 W/m 16,4 C 16,9 C 3,2 km/h (1 Bft) 100,00 %
13.06.2018 01:29 16,9 C 25,6 C 96 % 1004,3 hPa 0,0 l/m 2,6 km/h (1 Bft) N-NW 337 0 min 0,000 mm 0,0 UV-I 0 W/m 16,3 C 16,9 C 6,4 km/h (2 Bft) 100,00 %
13.06.2018 01:30 16,8 C 25,6 C 96 % 1004,4 hPa 0,2 l/m 2,8 km/h (1 Bft) N-NW 327 0 min 0,000 mm 0,0 UV-I 0 W/m 16,2 C 16,8 C 4,8 km/h (1 Bft) 100,00 %
13.06.2018 01:31 16,7 C 25,6 C 96 % 1004,3 hPa 0,0 l/m 1,1 km/h (1 Bft) N-NW 327 0 min 0,000 mm 0,0 UV-I 0 W/m 16,1 C 16,7 C 1,6 km/h (1 Bft) 100,00 %
13.06.2018 01:32 16,7 C 25,6 C 96 % 1004,4 hPa 0,0 l/m 2,6 km/h (1 Bft) N 9 0 min 0,000 mm 0,0 UV-I 0 W/m 16,1 C 16,7 C 4,8 km/h (1 Bft) 100,00 %
13.06.2018 01:33 16,6 C 25,6 C 96 % 1004,3 hPa 0,2 l/m 3,0 km/h (1 Bft) N-NO 19 0 min 0,000 mm 0,0 UV-I 0 W/m 16,0 C 16,6 C 4,8 km/h (1 Bft) 83,33 %
13.06.2018 01:34 16,5 C 25,6 C 96 % 1004,4 hPa 0,0 l/m 1,2 km/h (1 Bft) N-NO 19 0 min 0,000 mm 0,0 UV-I 0 W/m 15,9 C 16,5 C 3,2 km/h (1 Bft) 100,00 %
13.06.2018 01:35 16,4 C 25,6 C 96 % 1004,4 hPa 0,0 l/m 0,7 km/h (0 Bft) N-NO 19 0 min 0,000 mm 0,0 UV-I 0 W/m 15,8 C 16,4 C 3,2 km/h (1 Bft) 100,00 %
13.06.2018 01:36 16,4 C 25,6 C 96 % 1004,4 hPa 0,2 l/m 0,0 km/h (0 Bft) N-NO 19 0 min 0,000 mm 0,0 UV-I 0 W/m 15,8 C 16,4 C 0,0 km/h (0 Bft) 100,00 %
13.06.2018 01:37 16,3 C 25,6 C 96 % 1004,4 hPa 0,0 l/m 0,1 km/h (0 Bft) N-NO 19 0 min 0,000 mm 0,0 UV-I 0 W/m 15,7 C 16,3 C 1,6 km/h (1 Bft) 100,00 %
13.06.2018 01:38 16,3 C 25,6 C 96 % 1004,3 hPa 0,0 l/m 0,0 km/h (0 Bft) N-NO 19 0 min 0,000 mm 0,0 UV-I 0 W/m 15,7 C 16,3 C 0,0 km/h (0 Bft) 100,00 %
13.06.2018 01:39 16,3 C 25,6 C 96 % 1004,3 hPa 0,0 l/m 0,0 km/h (0 Bft) N-NO 19 0 min 0,000 mm 0,0 UV-I 0 W/m 15,7 C 16,3 C 0,0 km/h (0 Bft) 100,00 %
13.06.2018 01:40 16,3 C 25,6 C 96 % 1004,3 hPa 0,0 l/m 0,0 km/h (0 Bft) N-NO 19 0 min 0,000 mm 0,0 UV-I 0 W/m 15,7 C 16,3 C 0,0 km/h (0 Bft) 95,65 %
13.06.2018 01:41 16,2 C 25,6 C 96 % 1004,3 hPa 0,0 l/m 0,0 km/h (0 Bft) N-NO 19 0 min 0,000 mm 0,0 UV-I 0 W/m 15,6 C 16,2 C 0,0 km/h (0 Bft) 95,83 %
13.06.2018 01:42 16,2 C 25,6 C 96 % 1004,3 hPa 0,2 l/m 0,0 km/h (0 Bft) N-NO 19 0 min 0,000 mm 0,0 UV-I 0 W/m 15,6 C 16,2 C 0,0 km/h (0 Bft) 100,00 %
13.06.2018 01:43 16,2 C 25,6 C 96 % 1004,3 hPa 0,0 l/m 0,5 km/h (0 Bft) W-SW 258 0 min 0,000 mm 0,0 UV-I 0 W/m 15,6 C 16,2 C 3,2 km/h (1 Bft) 100,00 %
13.06.2018 01:44 16,2 C 25,6 C 96 % 1004,3 hPa 0,0 l/m 1,7 km/h (1 Bft) W 263 0 min 0,000 mm 0,0 UV-I 0 W/m 15,6 C 16,2 C 3,2 km/h (1 Bft) 100,00 %
13.06.2018 01:45 16,2 C 25,6 C 96 % 1004,3 hPa 0,0 l/m 0,8 km/h (0 Bft) W 279 0 min 0,000 mm 0,0 UV-I 0 W/m 15,6 C 16,2 C 3,2 km/h (1 Bft) 95,65 %
13.06.2018 01:46 16,1 C 25,6 C 96 % 1004,3 hPa 0,0 l/m 0,7 km/h (0 Bft) W 279 0 min 0,000 mm 0,0 UV-I 0 W/m 15,5 C 16,1 C 1,6 km/h (1 Bft) 100,00 %
13.06.2018 01:48 16,2 C 25,6 C 96 % 1004,3 hPa 0,0 l/m 1,3 km/h (1 Bft) W 279 0 min 0,000 mm 0,0 UV-I 0 W/m 15,6 C 16,2 C 3,2 km/h (1 Bft) 100,00 %
13.06.2018 01:49 16,2 C 25,6 C 96 % 1004,3 hPa 0,0 l/m 1,3 km/h (1 Bft) W 279 0 min 0,000 mm 0,0 UV-I 0 W/m 15,6 C 16,2 C 3,2 km/h (1 Bft) 100,00 %
13.06.2018 01:50 16,1 C 25,6 C 96 % 1004,2 hPa 0,0 l/m 1,7 km/h (1 Bft) W 280 0 min 0,000 mm 0,0 UV-I 0 W/m 15,5 C 16,1 C 3,2 km/h (1 Bft) 100,00 %
13.06.2018 01:51 16,1 C 25,6 C 96 % 1004,2 hPa 0,0 l/m 0,6 km/h (0 Bft) W 280 0 min 0,000 mm 0,0 UV-I 0 W/m 15,5 C 16,1 C 1,6 km/h (1 Bft) 95,65 %
13.06.2018 01:52 16,1 C 25,6 C 96 % 1004,1 hPa 0,0 l/m 0,6 km/h (0 Bft) W-NW 296 0 min 0,000 mm 0,0 UV-I 0 W/m 15,5 C 16,1 C 3,2 km/h (1 Bft) 95,83 %
13.06.2018 01:53 16,1 C 25,6 C 96 % 1004,1 hPa 0,0 l/m 0,5 km/h (0 Bft) W-NW 296 0 min 0,000 mm 0,0 UV-I 0 W/m 15,5 C 16,1 C 3,2 km/h (1 Bft) 100,00 %
13.06.2018 01:54 16,1 C 25,6 C 96 % 1004,1 hPa 0,0 l/m 0,2 km/h (0 Bft) W-NW 296 0 min 0,000 mm 0,0 UV-I 0 W/m 15,5 C 16,1 C 1,6 km/h (1 Bft) 100,00 %
13.06.2018 01:55 16,1 C 25,6 C 96 % 1004,1 hPa 0,0 l/m 0,3 km/h (0 Bft) W-NW 296 0 min 0,000 mm 0,0 UV-I 0 W/m 15,5 C 16,1 C 1,6 km/h (1 Bft) 100,00 %
13.06.2018 01:56 16,1 C 25,6 C 96 % 1004,2 hPa 0,0 l/m 0,3 km/h (0 Bft) W-NW 296 0 min 0,000 mm 0,0 UV-I 0 W/m 15,5 C 16,1 C 1,6 km/h (1 Bft) 100,00 %
13.06.2018 01:57 16,1 C 25,6 C 96 % 1004,1 hPa 0,0 l/m 0,3 km/h (0 Bft) W-NW 296 0 min 0,000 mm 0,0 UV-I 0 W/m 15,5 C 16,1 C 1,6 km/h (1 Bft) 100,00 %
13.06.2018 01:58 16,1 C 25,6 C 96 % 1004,1 hPa 0,0 l/m 0,9 km/h (0 Bft) W-NW 294 0 min 0,000 mm 0,0 UV-I 0 W/m 15,5 C 16,1 C 3,2 km/h (1 Bft) 100,00 %
13.06.2018 01:59 16,1 C 25,6 C 96 % 1004,1 hPa 0,0 l/m 0,4 km/h (0 Bft) W-NW 295 0 min 0,000 mm 0,0 UV-I 0 W/m 15,5 C 16,1 C 1,6 km/h (1 Bft) 100,00 %
13.06.2018 02:00 16,1 C 25,6 C 96 % 1004,1 hPa 0,2 l/m 0,3 km/h (0 Bft) W-NW 295 0 min 0,000 mm 0,0 UV-I 0 W/m 15,5 C 16,1 C 1,6 km/h (1 Bft) 100,00 %
13.06.2018 02:01 16,1 C 25,6 C 96 % 1004,1 hPa 0,0 l/m 0,0 km/h (0 Bft) W-NW 295 0 min 0,000 mm 0,0 UV-I 0 W/m 15,5 C 16,1 C 0,0 km/h (0 Bft) 100,00 %
13.06.2018 02:02 16,1 C 25,6 C 96 % 1004,1 hPa 0,0 l/m 0,1 km/h (0 Bft) W-NW 295 0 min 0,000 mm 0,0 UV-I 0 W/m 15,5 C 16,1 C 1,6 km/h (1 Bft) 96,15 %
13.06.2018 02:03 16,1 C 25,6 C 96 % 1004,0 hPa 0,0 l/m 0,0 km/h (0 Bft) W-NW 295 0 min 0,000 mm 0,0 UV-I 0 W/m 15,5 C 16,1 C 0,0 km/h (0 Bft) 95,83 %
13.06.2018 02:04 16,0 C 25,6 C 96 % 1004,0 hPa 0,0 l/m 0,2 km/h (0 Bft) W-NW 295 0 min 0,000 mm 0,0 UV-I 0 W/m 15,4 C 16,0 C 1,6 km/h (1 Bft) 100,00 %
13.06.2018 02:05 15,9 C 25,6 C 96 % 1004,1 hPa 0,0 l/m 0,0 km/h (0 Bft) W-NW 295 0 min 0,000 mm 0,0 UV-I 0 W/m 15,3 C 15,9 C 0,0 km/h (0 Bft) 100,00 %
13.06.2018 02:06 16,0 C 25,6 C 97 % 1004,1 hPa 0,0 l/m 0,3 km/h (0 Bft) W-NW 295 0 min 0,000 mm 0,0 UV-I 0 W/m 15,5 C 16,0 C 1,6 km/h (1 Bft) 100,00 %
13.06.2018 02:07 16,1 C 25,6 C 97 % 1004,1 hPa 0,0 l/m 0,8 km/h (0 Bft) W-NW 294 0 min 0,000 mm 0,0 UV-I 0 W/m 15,6 C 16,1 C 3,2 km/h (1 Bft) 100,00 %
13.06.2018 02:08 16,1 C 25,6 C 97 % 1004,1 hPa 0,0 l/m 0,0 km/h (0 Bft) W-NW 294 0 min 0,000 mm 0,0 UV-I 0 W/m 15,6 C 16,1 C 0,0 km/h (0 Bft) 100,00 %
13.06.2018 02:09 16,0 C 25,6 C 97 % 1004,2 hPa 0,0 l/m 0,1 km/h (0 Bft) W-NW 294 0 min 0,000 mm 0,0 UV-I 0 W/m 15,5 C 16,0 C 1,6 km/h (1 Bft) 100,00 %
13.06.2018 02:10 15,9 C 25,6 C 97 % 1004,2 hPa 0,0 l/m 1,5 km/h (1 Bft) W-NW 294 0 min 0,000 mm 0,0 UV-I 0 W/m 15,4 C 15,9 C 3,2 km/h (1 Bft) 100,00 %
13.06.2018 02:11 15,9 C 25,6 C 97 % 1004,2 hPa 0,0 l/m 1,7 km/h (1 Bft) W-NW 294 0 min 0,000 mm 0,0 UV-I 0 W/m 15,4 C 15,9 C 3,2 km/h (1 Bft) 100,00 %
13.06.2018 02:12 16,0 C 25,6 C 97 % 1004,2 hPa 0,0 l/m 0,5 km/h (0 Bft) W-NW 294 0 min 0,000 mm 0,0 UV-I 0 W/m 15,5 C 16,0 C 1,6 km/h (1 Bft) 100,00 %
13.06.2018 02:13 16,0 C 25,6 C 97 % 1004,2 hPa 0,0 l/m 0,0 km/h (0 Bft) W-NW 294 0 min 0,000 mm 0,0 UV-I 0 W/m 15,5 C 16,0 C 0,0 km/h (0 Bft) 100,00 %
13.06.2018 02:14 15,9 C 25,6 C 97 % 1004,2 hPa 0,0 l/m 0,1 km/h (0 Bft) W-NW 294 0 min 0,000 mm 0,0 UV-I 0 W/m 15,4 C 15,9 C 1,6 km/h (1 Bft) 95,65 %
13.06.2018 02:15 15,9 C 25,6 C 97 % 1004,2 hPa 0,0 l/m 0,4 km/h (0 Bft) W-NW 294 0 min 0,000 mm 0,0 UV-I 0 W/m 15,4 C 15,9 C 3,2 km/h (1 Bft) 96,30 %
13.06.2018 02:16 16,0 C 25,6 C 97 % 1004,3 hPa 0,0 l/m 1,4 km/h (1 Bft) W-NW 294 0 min 0,000 mm 0,0 UV-I 0 W/m 15,5 C 16,0 C 3,2 km/h (1 Bft) 95,65 %
13.06.2018 02:17 15,9 C 25,6 C 97 % 1004,2 hPa 0,0 l/m 0,5 km/h (0 Bft) W-NW 294 0 min 0,000 mm 0,0 UV-I 0 W/m 15,4 C 15,9 C 1,6 km/h (1 Bft) 100,00 %
13.06.2018 02:18 15,9 C 25,6 C 97 % 1004,3 hPa 0,0 l/m 1,3 km/h (1 Bft) W-NW 294 0 min 0,000 mm 0,0 UV-I 0 W/m 15,4 C 15,9 C 3,2 km/h (1 Bft) 100,00 %
13.06.2018 02:19 15,9 C 25,6 C 97 % 1004,3 hPa 0,0 l/m 1,9 km/h (1 Bft) W-NW 294 0 min 0,000 mm 0,0 UV-I 0 W/m 15,4 C 15,9 C 3,2 km/h (1 Bft) 100,00 %
13.06.2018 02:20 15,9 C 25,6 C 97 % 1004,3 hPa 0,0 l/m 1,8 km/h (1 Bft) W-NW 294 0 min 0,000 mm 0,0 UV-I 0 W/m 15,4 C 15,9 C 3,2 km/h (1 Bft) 100,00 %
13.06.2018 02:21 15,9 C 25,6 C 97 % 1004,3 hPa 0,0 l/m 2,0 km/h (1 Bft) W-NW 294 0 min 0,000 mm 0,0 UV-I 0 W/m 15,4 C 15,9 C 3,2 km/h (1 Bft) 100,00 %
13.06.2018 02:22 15,9 C 25,6 C 97 % 1004,3 hPa 0,0 l/m 0,3 km/h (0 Bft) W-NW 294 0 min 0,000 mm 0,0 UV-I 0 W/m 15,4 C 15,9 C 1,6 km/h (1 Bft) 100,00 %
13.06.2018 02:23 16,0 C 25,6 C 97 % 1004,2 hPa 0,0 l/m 0,1 km/h (0 Bft) W-NW 294 0 min 0,000 mm 0,0 UV-I 0 W/m 15,5 C 16,0 C 1,6 km/h (1 Bft) 100,00 %
13.06.2018 02:24 16,0 C 25,6 C 97 % 1004,2 hPa 0,0 l/m 0,0 km/h (0 Bft) W-NW 294 0 min 0,000 mm 0,0 UV-I 0 W/m 15,5 C 16,0 C 0,0 km/h (0 Bft) 100,00 %
13.06.2018 02:25 16,1 C 25,6 C 97 % 1004,2 hPa 0,0 l/m 1,0 km/h (0 Bft) W-NW 294 0 min 0,000 mm 0,0 UV-I 0 W/m 15,6 C 16,1 C 3,2 km/h (1 Bft) 100,00 %
13.06.2018 02:26 16,1 C 25,6 C 96 % 1004,3 hPa 0,0 l/m 0,3 km/h (0 Bft) W-NW 294 0 min 0,000 mm 0,0 UV-I 0 W/m 15,5 C 16,1 C 1,6 km/h (1 Bft) 100,00 %
13.06.2018 02:27 16,1 C 25,6 C 96 % 1004,3 hPa 0,0 l/m 1,9 km/h (1 Bft) W-NW 294 0 min 0,000 mm 0,0 UV-I 0 W/m 15,5 C 16,1 C 3,2 km/h (1 Bft) 100,00 %
13.06.2018 02:28 16,1 C 25,6 C 96 % 1004,3 hPa 0,0 l/m 2,6 km/h (1 Bft) W-NW 294 0 min 0,000 mm 0,0 UV-I 0 W/m 15,5 C 16,1 C 3,2 km/h (1 Bft) 100,00 %
13.06.2018 02:29 16,0 C 25,6 C 96 % 1004,4 hPa 0,0 l/m 2,6 km/h (1 Bft) W-NW 294 0 min 0,000 mm 0,0 UV-I 0 W/m 15,4 C 16,0 C 4,8 km/h (1 Bft) 100,00 %
13.06.2018 02:30 15,9 C 25,6 C 96 % 1004,4 hPa 0,0 l/m 2,5 km/h (1 Bft) W-NW 294 0 min 0,000 mm 0,0 UV-I 0 W/m 15,3 C 15,9 C 3,2 km/h (1 Bft) 100,00 %
13.06.2018 02:31 15,9 C 25,6 C 96 % 1004,4 hPa 0,0 l/m 2,1 km/h (1 Bft) W-SW 249 0 min 0,000 mm 0,0 UV-I 0 W/m 15,3 C 15,9 C 4,8 km/h (1 Bft) 100,00 %
13.06.2018 02:32 16,0 C 25,6 C 96 % 1004,4 hPa 0,0 l/m 4,2 km/h (1 Bft) W-SW 251 0 min 0,000 mm 0,0 UV-I 0 W/m 15,4 C 16,0 C 6,4 km/h (2 Bft) 100,00 %
13.06.2018 02:33 15,9 C 25,6 C 96 % 1004,4 hPa 0,0 l/m 3,0 km/h (1 Bft) W-SW 251 0 min 0,000 mm 0,0 UV-I 0 W/m 15,3 C 15,9 C 3,2 km/h (1 Bft) 96,55 %
13.06.2018 02:34 16,0 C 25,6 C 96 % 1004,4 hPa 0,0 l/m 3,2 km/h (1 Bft) W-SW 237 0 min 0,000 mm 0,0 UV-I 0 W/m 15,4 C 16,0 C 4,8 km/h (1 Bft) 100,00 %
13.06.2018 02:35 16,1 C 25,6 C 96 % 1004,4 hPa 0,0 l/m 2,1 km/h (1 Bft) W-SW 237 0 min 0,000 mm 0,0 UV-I 0 W/m 15,5 C 16,1 C 3,2 km/h (1 Bft) 100,00 %
13.06.2018 02:36 16,1 C 25,6 C 96 % 1004,4 hPa 0,0 l/m 2,8 km/h (1 Bft) W-SW 238 0 min 0,000 mm 0,0 UV-I 0 W/m 15,5 C 16,1 C 4,8 km/h (1 Bft) 100,00 %
13.06.2018 02:37 16,1 C 25,6 C 96 % 1004,4 hPa 0,0 l/m 1,7 km/h (1 Bft) W-SW 238 0 min 0,000 mm 0,0 UV-I 0 W/m 15,5 C 16,1 C 3,2 km/h (1 Bft) 100,00 %
13.06.2018 02:38 16,1 C 25,6 C 96 % 1004,4 hPa 0,0 l/m 1,5 km/h (1 Bft) W-SW 238 0 min 0,000 mm 0,0 UV-I 0 W/m 15,5 C 16,1 C 1,6 km/h (1 Bft) 100,00 %
13.06.2018 02:39 16,1 C 25,6 C 96 % 1004,4 hPa 0,0 l/m 0,4 km/h (0 Bft) W-SW 238 0 min 0,000 mm 0,0 UV-I 0 W/m 15,5 C 16,1 C 1,6 km/h (1 Bft) 100,00 %
13.06.2018 02:40 16,1 C 25,6 C 96 % 1004,4 hPa 0,0 l/m 0,8 km/h (0 Bft) W-SW 238 0 min 0,000 mm 0,0 UV-I 0 W/m 15,5 C 16,1 C 3,2 km/h (1 Bft) 100,00 %
13.06.2018 02:41 16,1 C 25,6 C 96 % 1004,3 hPa 0,0 l/m 0,2 km/h (0 Bft) W-SW 238 0 min 0,000 mm 0,0 UV-I 0 W/m 15,5 C 16,1 C 1,6 km/h (1 Bft) 95,83 %
13.06.2018 02:42 16,1 C 25,6 C 96 % 1004,3 hPa 0,0 l/m 0,0 km/h (0 Bft) W-SW 238 0 min 0,000 mm 0,0 UV-I 0 W/m 15,5 C 16,1 C 0,0 km/h (0 Bft) 100,00 %
13.06.2018 02:43 16,0 C 25,6 C 96 % 1004,3 hPa 0,0 l/m 0,7 km/h (0 Bft) W-SW 238 0 min 0,000 mm 0,0 UV-I 0 W/m 15,4 C 16,0 C 1,6 km/h (1 Bft) 100,00 %
13.06.2018 02:44 16,0 C 25,6 C 96 % 1004,2 hPa 0,0 l/m 0,0 km/h (0 Bft) W-SW 238 0 min 0,000 mm 0,0 UV-I 0 W/m 15,4 C 16,0 C 0,0 km/h (0 Bft) 100,00 %
13.06.2018 02:45 15,9 C 25,6 C 96 % 1004,2 hPa 0,0 l/m 0,0 km/h (0 Bft) W-SW 238 0 min 0,000 mm 0,0 UV-I 0 W/m 15,3 C 15,9 C 0,0 km/h (0 Bft) 96,30 %
13.06.2018 02:46 15,9 C 25,6 C 96 % 1004,2 hPa 0,0 l/m 0,0 km/h (0 Bft) W-SW 238 0 min 0,000 mm 0,0 UV-I 0 W/m 15,3 C 15,9 C 0,0 km/h (0 Bft) 92,86 %
13.06.2018 02:47 15,9 C 25,6 C 97 % 1004,2 hPa 0,0 l/m 0,0 km/h (0 Bft) W-SW 238 0 min 0,000 mm 0,0 UV-I 0 W/m 15,4 C 15,9 C 0,0 km/h (0 Bft) 100,00 %
13.06.2018 02:48 15,9 C 25,6 C 97 % 1004,2 hPa 0,0 l/m 0,1 km/h (0 Bft) W-SW 238 0 min 0,000 mm 0,0 UV-I 0 W/m 15,4 C 15,9 C 1,6 km/h (1 Bft) 95,65 %
13.06.2018 02:49 15,9 C 25,6 C 97 % 1004,3 hPa 0,0 l/m 0,1 km/h (0 Bft) W-SW 238 0 min 0,000 mm 0,0 UV-I 0 W/m 15,4 C 15,9 C 1,6 km/h (1 Bft) 100,00 %
13.06.2018 02:50 16,0 C 25,6 C 97 % 1004,3 hPa 0,0 l/m 0,0 km/h (0 Bft) W-SW 238 0 min 0,000 mm 0,0 UV-I 0 W/m 15,5 C 16,0 C 0,0 km/h (0 Bft) 91,30 %
13.06.2018 02:51 16,0 C 25,6 C 97 % 1004,2 hPa 0,0 l/m 0,8 km/h (0 Bft) W-SW 238 0 min 0,000 mm 0,0 UV-I 0 W/m 15,5 C 16,0 C 3,2 km/h (1 Bft) 95,83 %
13.06.2018 02:52 16,1 C 25,6 C 97 % 1004,3 hPa 0,0 l/m 2,0 km/h (1 Bft) W-SW 238 0 min 0,000 mm 0,0 UV-I 0 W/m 15,6 C 16,1 C 3,2 km/h (1 Bft) 96,55 %
13.06.2018 02:53 16,1 C 25,6 C 97 % 1004,3 hPa 0,0 l/m 2,6 km/h (1 Bft) W-SW 238 0 min 0,000 mm 0,0 UV-I 0 W/m 15,6 C 16,1 C 4,8 km/h (1 Bft) 91,67 %
13.06.2018 02:54 16,1 C 25,6 C 97 % 1004,2 hPa 0,0 l/m 2,4 km/h (1 Bft) W-SW 238 0 min 0,000 mm 0,0 UV-I 0 W/m 15,6 C 16,1 C 3,2 km/h (1 Bft) 100,00 %
13.06.2018 02:55 16,1 C 25,6 C 97 % 1004,2 hPa 0,0 l/m 2,4 km/h (1 Bft) W-SW 238 0 min 0,000 mm 0,0 UV-I 0 W/m 15,6 C 16,1 C 3,2 km/h (1 Bft) 93,33 %
13.06.2018 02:56 16,1 C 25,6 C 97 % 1004,2 hPa 0,0 l/m 2,4 km/h (1 Bft) W 279 0 min 0,000 mm 0,0 UV-I 0 W/m 15,6 C 16,1 C 4,8 km/h (1 Bft) 100,00 %
13.06.2018 02:57 16,0 C 25,6 C 97 % 1004,2 hPa 0,0 l/m 0,1 km/h (0 Bft) W 279 0 min 0,000 mm 0,0 UV-I 0 W/m 15,5 C 16,0 C 1,6 km/h (1 Bft) 95,83 %
13.06.2018 02:58 16,0 C 25,6 C 97 % 1004,2 hPa 0,0 l/m 0,0 km/h (0 Bft) W 279 0 min 0,000 mm 0,0 UV-I 0 W/m 15,5 C 16,0 C 0,0 km/h (0 Bft) 100,00 %
13.06.2018 02:59 16,0 C 25,6 C 97 % 1004,2 hPa 0,0 l/m 0,8 km/h (0 Bft) W 279 0 min 0,000 mm 0,0 UV-I 0 W/m 15,5 C 16,0 C 3,2 km/h (1 Bft) 96,55 %
13.06.2018 03:00 16,0 C 25,6 C 97 % 1004,2 hPa 0,0 l/m 1,6 km/h (1 Bft) W 279 0 min 0,000 mm 0,0 UV-I 0 W/m 15,5 C 16,0 C 1,6 km/h (1 Bft) 100,00 %
13.06.2018 03:01 16,1 C 25,6 C 97 % 1004,2 hPa 0,0 l/m 2,7 km/h (1 Bft) W 277 0 min 0,000 mm 0,0 UV-I 0 W/m 15,6 C 16,1 C 4,8 km/h (1 Bft) 95,65 %
13.06.2018 03:02 16,1 C 25,6 C 97 % 1004,1 hPa 0,0 l/m 3,0 km/h (1 Bft) W 261 0 min 0,000 mm 0,0 UV-I 0 W/m 15,6 C 16,1 C 4,8 km/h (1 Bft) 100,00 %
13.06.2018 03:03 16,1 C 25,6 C 97 % 1004,2 hPa 0,0 l/m 4,2 km/h (1 Bft) W 261 0 min 0,000 mm 0,0 UV-I 0 W/m 15,6 C 16,1 C 4,8 km/h (1 Bft) 95,65 %
13.06.2018 03:04 16,2 C 25,6 C 97 % 1004,1 hPa 0,0 l/m 3,9 km/h (1 Bft) W 261 0 min 0,000 mm 0,0 UV-I 0 W/m 15,7 C 16,2 C 4,8 km/h (1 Bft) 91,67 %
13.06.2018 03:05 16,2 C 25,6 C 97 % 1004,2 hPa 0,0 l/m 3,8 km/h (1 Bft) W-SW 254 0 min 0,000 mm 0,0 UV-I 0 W/m 15,7 C 16,2 C 6,4 km/h (2 Bft) 100,00 %
13.06.2018 03:06 16,2 C 25,6 C 97 % 1004,2 hPa 0,0 l/m 5,0 km/h (1 Bft) W-SW 246 0 min 0,000 mm 0,0 UV-I 0 W/m 15,7 C 16,2 C 6,4 km/h (2 Bft) 91,67 %
13.06.2018 03:07 16,2 C 25,6 C 97 % 1004,1 hPa 0,0 l/m 4,8 km/h (1 Bft) W 260 0 min 0,000 mm 0,0 UV-I 0 W/m 15,7 C 16,2 C 6,4 km/h (2 Bft) 100,00 %
13.06.2018 03:08 16,2 C 25,6 C 97 % 1004,2 hPa 0,0 l/m 4,8 km/h (1 Bft) W-SW 257 0 min 0,000 mm 0,0 UV-I 0 W/m 15,7 C 16,2 C 6,4 km/h (2 Bft) 95,83 %
13.06.2018 03:09 16,2 C 25,6 C 97 % 1004,2 hPa 0,0 l/m 4,8 km/h (1 Bft) W 259 0 min 0,000 mm 0,0 UV-I 0 W/m 15,7 C 16,2 C 6,4 km/h (2 Bft) 100,00 %
13.06.2018 03:10 16,2 C 25,6 C 97 % 1004,1 hPa 0,0 l/m 4,3 km/h (1 Bft) W 274 0 min 0,000 mm 0,0 UV-I 0 W/m 15,7 C 16,2 C 6,4 km/h (2 Bft) 96,30 %
13.06.2018 03:11 16,2 C 25,6 C 97 % 1004,1 hPa 0,0 l/m 5,1 km/h (1 Bft) W-SW 252 0 min 0,000 mm 0,0 UV-I 0 W/m 15,7 C 16,2 C 8,0 km/h (2 Bft) 95,65 %
13.06.2018 03:12 16,2 C 25,6 C 97 % 1004,2 hPa 0,0 l/m 6,9 km/h (2 Bft) W 259 0 min 0,000 mm 0,0 UV-I 0 W/m 15,7 C 15,9 C 11,3 km/h (2 Bft) 100,00 %
13.06.2018 03:13 16,2 C 25,6 C 97 % 1004,1 hPa 0,0 l/m 5,7 km/h (1 Bft) W 280 0 min 0,000 mm 0,0 UV-I 0 W/m 15,7 C 16,2 C 6,4 km/h (2 Bft) 96,55 %
13.06.2018 03:14 16,3 C 25,6 C 97 % 1004,1 hPa 0,0 l/m 4,6 km/h (1 Bft) W-SW 255 0 min 0,000 mm 0,0 UV-I 0 W/m 15,8 C 16,3 C 6,4 km/h (2 Bft) 96,67 %
13.06.2018 03:15 16,3 C 25,6 C 97 % 1004,1 hPa 0,0 l/m 5,0 km/h (1 Bft) W 267 0 min 0,000 mm 0,0 UV-I 0 W/m 15,8 C 16,3 C 9,7 km/h (2 Bft) 100,00 %
13.06.2018 03:16 16,3 C 25,6 C 97 % 1004,1 hPa 0,0 l/m 4,6 km/h (1 Bft) W 281 0 min 0,000 mm 0,0 UV-I 0 W/m 15,8 C 16,3 C 6,4 km/h (2 Bft) 100,00 %
13.06.2018 03:17 16,3 C 25,6 C 97 % 1004,1 hPa 0,0 l/m 4,1 km/h (1 Bft) W 261 0 min 0,000 mm 0,0 UV-I 0 W/m 15,8 C 16,3 C 6,4 km/h (2 Bft) 95,83 %
13.06.2018 03:18 16,3 C 25,6 C 97 % 1004,1 hPa 0,0 l/m 3,4 km/h (1 Bft) W 269 0 min 0,000 mm 0,0 UV-I 0 W/m 15,8 C 16,3 C 4,8 km/h (1 Bft) 100,00 %
13.06.2018 03:19 16,3 C 25,6 C 97 % 1004,1 hPa 0,0 l/m 3,8 km/h (1 Bft) W 267 0 min 0,000 mm 0,0 UV-I 0 W/m 15,8 C 16,3 C 4,8 km/h (1 Bft) 100,00 %
13.06.2018 03:20 16,3 C 25,6 C 97 % 1004,1 hPa 0,0 l/m 4,4 km/h (1 Bft) W 281 0 min 0,000 mm 0,0 UV-I 0 W/m 15,8 C 16,3 C 6,4 km/h (2 Bft) 86,96 %
13.06.2018 03:21 16,2 C 25,6 C 97 % 1004,1 hPa 0,0 l/m 3,4 km/h (1 Bft) W 280 0 min 0,000 mm 0,0 UV-I 0 W/m 15,7 C 16,2 C 4,8 km/h (1 Bft) 100,00 %
13.06.2018 03:22 16,2 C 25,6 C 97 % 1004,1 hPa 0,0 l/m 2,3 km/h (1 Bft) W 280 0 min 0,000 mm 0,0 UV-I 0 W/m 15,7 C 16,2 C 4,8 km/h (1 Bft) 100,00 %
13.06.2018 03:23 16,2 C 25,6 C 97 % 1004,1 hPa 0,0 l/m 1,7 km/h (1 Bft) W 280 0 min 0,000 mm 0,0 UV-I 0 W/m 15,7 C 16,2 C 3,2 km/h (1 Bft) 96,30 %
13.06.2018 03:24 16,2 C 25,6 C 97 % 1004,1 hPa 0,0 l/m 1,7 km/h (1 Bft) W 280 0 min 0,000 mm 0,0 UV-I 0 W/m 15,7 C 16,2 C 3,2 km/h (1 Bft) 95,65 %
13.06.2018 03:25 16,2 C 25,6 C 97 % 1004,1 hPa 0,0 l/m 2,1 km/h (1 Bft) W 280 0 min 0,000 mm 0,0 UV-I 0 W/m 15,7 C 16,2 C 4,8 km/h (1 Bft) 100,00 %
13.06.2018 03:26 16,2 C 25,6 C 97 % 1004,1 hPa 0,0 l/m 3,9 km/h (1 Bft) W-SW 253 0 min 0,000 mm 0,0 UV-I 0 W/m 15,7 C 16,2 C 4,8 km/h (1 Bft) 100,00 %
13.06.2018 03:27 16,2 C 25,6 C 97 % 1004,1 hPa 0,0 l/m 3,3 km/h (1 Bft) W-SW 254 0 min 0,000 mm 0,0 UV-I 0 W/m 15,7 C 16,2 C 6,4 km/h (2 Bft) 96,30 %
13.06.2018 03:28 16,2 C 25,6 C 97 % 1004,1 hPa 0,0 l/m 3,0 km/h (1 Bft) W 273 0 min 0,000 mm 0,0 UV-I 0 W/m 15,7 C 16,2 C 4,8 km/h (1 Bft) 100,00 %
13.06.2018 03:29 16,2 C 25,6 C 97 % 1004,1 hPa 0,0 l/m 2,5 km/h (1 Bft) W 273 0 min 0,000 mm 0,0 UV-I 0 W/m 15,7 C 16,2 C 3,2 km/h (1 Bft) 96,55 %
13.06.2018 03:30 16,2 C 25,6 C 97 % 1004,2 hPa 0,0 l/m 4,1 km/h (1 Bft) W 274 0 min 0,000 mm 0,0 UV-I 0 W/m 15,7 C 16,2 C 8,0 km/h (2 Bft) 88,46 %
13.06.2018 03:31 16,2 C 25,6 C 97 % 1004,1 hPa 0,0 l/m 3,0 km/h (1 Bft) W-SW 257 0 min 0,000 mm 0,0 UV-I 0 W/m 15,7 C 16,2 C 4,8 km/h (1 Bft) 100,00 %
13.06.2018 03:32 16,2 C 25,6 C 97 % 1004,1 hPa 0,0 l/m 5,0 km/h (1 Bft) W-SW 249 0 min 0,000 mm 0,0 UV-I 0 W/m 15,7 C 16,2 C 9,7 km/h (2 Bft) 96,15 %
13.06.2018 03:33 16,2 C 25,6 C 97 % 1004,1 hPa 0,0 l/m 5,1 km/h (1 Bft) W 273 0 min 0,000 mm 0,0 UV-I 0 W/m 15,7 C 16,2 C 11,3 km/h (2 Bft) 100,00 %
13.06.2018 03:34 16,2 C 25,6 C 97 % 1004,0 hPa 0,0 l/m 4,4 km/h (1 Bft) W 261 0 min 0,000 mm 0,0 UV-I 0 W/m 15,7 C 16,2 C 9,7 km/h (2 Bft) 96,15 %
13.06.2018 03:35 16,2 C 25,6 C 97 % 1004,0 hPa 0,0 l/m 1,9 km/h (1 Bft) W 263 0 min 0,000 mm 0,0 UV-I 0 W/m 15,7 C 16,2 C 3,2 km/h (1 Bft) 96,30 %
13.06.2018 03:36 16,2 C 25,6 C 97 % 1003,9 hPa 0,0 l/m 1,4 km/h (1 Bft) W 263 0 min 0,000 mm 0,0 UV-I 0 W/m 15,7 C 16,2 C 3,2 km/h (1 Bft) 95,65 %
13.06.2018 03:37 16,2 C 25,6 C 97 % 1003,9 hPa 0,0 l/m 1,7 km/h (1 Bft) W 263 0 min 0,000 mm 0,0 UV-I 0 W/m 15,7 C 16,2 C 3,2 km/h (1 Bft) 95,83 %
13.06.2018 03:38 16,2 C 25,6 C 97 % 1003,9 hPa 0,0 l/m 2,1 km/h (1 Bft) W 263 0 min 0,000 mm 0,0 UV-I 0 W/m 15,7 C 16,2 C 3,2 km/h (1 Bft) 100,00 %
13.06.2018 03:39 16,2 C 25,6 C 97 % 1003,8 hPa 0,0 l/m 0,2 km/h (0 Bft) W 268 0 min 0,000 mm 0,0 UV-I 0 W/m 15,7 C 16,2 C 1,6 km/h (1 Bft) 96,88 %
13.06.2018 03:40 16,2 C 25,6 C 97 % 1003,8 hPa 0,0 l/m 0,0 km/h (0 Bft) W 268 0 min 0,000 mm 0,0 UV-I 0 W/m 15,7 C 16,2 C 0,0 km/h (0 Bft) 100,00 %
13.06.2018 03:41 16,2 C 25,6 C 97 % 1003,9 hPa 0,0 l/m 1,7 km/h (1 Bft) W 269 0 min 0,000 mm 0,0 UV-I 0 W/m 15,7 C 16,2 C 3,2 km/h (1 Bft) 95,65 %
13.06.2018 03:42 16,2 C 25,6 C 97 % 1003,9 hPa 0,0 l/m 1,0 km/h (0 Bft) W 270 0 min 0,000 mm 0,0 UV-I 0 W/m 15,7 C 16,2 C 4,8 km/h (1 Bft) 100,00 %
13.06.2018 03:43 16,2 C 25,6 C 97 % 1003,9 hPa 0,0 l/m 1,2 km/h (1 Bft) W 270 0 min 0,000 mm 0,0 UV-I 0 W/m 15,7 C 16,2 C 3,2 km/h (1 Bft) 91,30 %
13.06.2018 03:44 16,2 C 25,6 C 97 % 1004,0 hPa 0,0 l/m 3,1 km/h (1 Bft) W 268 0 min 0,000 mm 0,0 UV-I 0 W/m 15,7 C 16,2 C 4,8 km/h (1 Bft) 96,30 %
13.06.2018 03:45 16,1 C 25,6 C 97 % 1004,0 hPa 0,0 l/m 3,0 km/h (1 Bft) W 273 0 min 0,000 mm 0,0 UV-I 0 W/m 15,6 C 16,1 C 4,8 km/h (1 Bft) 100,00 %
13.06.2018 03:46 16,1 C 25,6 C 97 % 1003,9 hPa 0,0 l/m 1,3 km/h (1 Bft) W 272 0 min 0,000 mm 0,0 UV-I 0 W/m 15,6 C 16,1 C 3,2 km/h (1 Bft) 96,67 %
13.06.2018 03:47 16,1 C 25,6 C 97 % 1004,0 hPa 0,0 l/m 4,0 km/h (1 Bft) W 271 0 min 0,000 mm 0,0 UV-I 0 W/m 15,6 C 16,1 C 4,8 km/h (1 Bft) 95,65 %
13.06.2018 03:48 16,1 C 25,6 C 97 % 1004,0 hPa 0,0 l/m 1,0 km/h (0 Bft) W 272 0 min 0,000 mm 0,0 UV-I 0 W/m 15,6 C 16,1 C 3,2 km/h (1 Bft) 95,83 %
13.06.2018 03:49 16,2 C 25,6 C 97 % 1003,9 hPa 0,0 l/m 2,4 km/h (1 Bft) W 271 0 min 0,000 mm 0,0 UV-I 0 W/m 15,7 C 16,2 C 4,8 km/h (1 Bft) 100,00 %
13.06.2018 03:50 16,1 C 25,6 C 97 % 1003,9 hPa 0,0 l/m 3,8 km/h (1 Bft) W 271 0 min 0,000 mm 0,0 UV-I 0 W/m 15,6 C 16,1 C 4,8 km/h (1 Bft) 96,30 %
13.06.2018 03:51 16,1 C 25,6 C 97 % 1003,9 hPa 0,0 l/m 2,4 km/h (1 Bft) W 271 0 min 0,000 mm 0,0 UV-I 0 W/m 15,6 C 16,1 C 3,2 km/h (1 Bft) 100,00 %
13.06.2018 03:52 16,1 C 25,6 C 97 % 1003,9 hPa 0,0 l/m 0,3 km/h (0 Bft) W 271 0 min 0,000 mm 0,0 UV-I 0 W/m 15,6 C 16,1 C 1,6 km/h (1 Bft) 95,83 %
13.06.2018 03:53 16,1 C 25,6 C 97 % 1003,8 hPa 0,0 l/m 1,6 km/h (1 Bft) W 272 0 min 0,000 mm 0,0 UV-I 0 W/m 15,6 C 16,1 C 3,2 km/h (1 Bft) 100,00 %
13.06.2018 03:54 16,1 C 25,6 C 97 % 1003,8 hPa 0,0 l/m 3,2 km/h (1 Bft) W 263 0 min 0,000 mm 0,0 UV-I 0 W/m 15,6 C 16,1 C 4,8 km/h (1 Bft) 95,83 %
13.06.2018 03:55 16,1 C 25,6 C 97 % 1003,8 hPa 0,0 l/m 3,3 km/h (1 Bft) W 263 0 min 0,000 mm 0,0 UV-I 0 W/m 15,6 C 16,1 C 4,8 km/h (1 Bft) 100,00 %
13.06.2018 03:56 16,1 C 25,6 C 97 % 1003,8 hPa 0,0 l/m 1,1 km/h (1 Bft) W 263 0 min 0,000 mm 0,0 UV-I 0 W/m 15,6 C 16,1 C 3,2 km/h (1 Bft) 96,15 %
13.06.2018 03:57 16,1 C 25,6 C 97 % 1003,8 hPa 0,0 l/m 0,2 km/h (0 Bft) W 263 0 min 0,000 mm 0,0 UV-I 0 W/m 15,6 C 16,1 C 1,6 km/h (1 Bft) 96,15 %
13.06.2018 03:58 16,0 C 25,6 C 97 % 1003,8 hPa 0,0 l/m 1,8 km/h (1 Bft) W 263 0 min 0,000 mm 0,0 UV-I 0 W/m 15,5 C 16,0 C 3,2 km/h (1 Bft) 92,59 %
13.06.2018 03:59 16,1 C 25,6 C 97 % 1003,7 hPa 0,0 l/m 1,7 km/h (1 Bft) W 263 0 min 0,000 mm 0,0 UV-I 0 W/m 15,6 C 16,1 C 3,2 km/h (1 Bft) 95,65 %
13.06.2018 04:00 16,1 C 25,6 C 97 % 1003,7 hPa 0,0 l/m 1,1 km/h (1 Bft) W 263 0 min 0,000 mm 0,0 UV-I 0 W/m 15,6 C 16,1 C 1,6 km/h (1 Bft) 100,00 %
13.06.2018 04:01 16,1 C 25,6 C 97 % 1003,8 hPa 0,0 l/m 2,6 km/h (1 Bft) W-NW 293 0 min 0,000 mm 0,0 UV-I 0 W/m 15,6 C 16,1 C 4,8 km/h (1 Bft) 100,00 %
13.06.2018 04:02 16,1 C 25,6 C 97 % 1003,7 hPa 0,0 l/m 1,0 km/h (0 Bft) W-NW 293 0 min 0,000 mm 0,0 UV-I 0 W/m 15,6 C 16,1 C 3,2 km/h (1 Bft) 100,00 %
13.06.2018 04:03 16,0 C 25,6 C 97 % 1003,7 hPa 0,0 l/m 1,1 km/h (1 Bft) W-NW 293 0 min 0,000 mm 0,0 UV-I 0 W/m 15,5 C 16,0 C 3,2 km/h (1 Bft) 95,83 %
13.06.2018 04:04 16,0 C 25,6 C 97 % 1003,7 hPa 0,0 l/m 0,0 km/h (0 Bft) W-NW 293 0 min 0,000 mm 0,0 UV-I 0 W/m 15,5 C 16,0 C 0,0 km/h (0 Bft) 100,00 %
13.06.2018 04:05 16,0 C 25,6 C 97 % 1003,7 hPa 0,0 l/m 0,0 km/h (0 Bft) W-NW 293 0 min 0,000 mm 0,0 UV-I 0 W/m 15,5 C 16,0 C 0,0 km/h (0 Bft) 95,83 %
13.06.2018 04:06 16,0 C 25,6 C 97 % 1003,7 hPa 0,0 l/m 0,0 km/h (0 Bft) W-NW 293 0 min 0,000 mm 0,0 UV-I 0 W/m 15,5 C 16,0 C 0,0 km/h (0 Bft) 100,00 %
13.06.2018 04:07 16,0 C 25,6 C 97 % 1003,8 hPa 0,0 l/m 1,3 km/h (1 Bft) W-NW 293 0 min 0,000 mm 0,0 UV-I 0 W/m 15,5 C 16,0 C 3,2 km/h (1 Bft) 95,83 %
13.06.2018 04:08 16,1 C 25,6 C 97 % 1003,7 hPa 0,0 l/m 3,5 km/h (1 Bft) W-NW 294 0 min 0,000 mm 0,0 UV-I 0 W/m 15,6 C 16,1 C 4,8 km/h (1 Bft) 100,00 %
13.06.2018 04:09 16,0 C 25,6 C 97 % 1003,7 hPa 0,0 l/m 2,3 km/h (1 Bft) W-NW 293 0 min 0,000 mm 0,0 UV-I 0 W/m 15,5 C 16,0 C 3,2 km/h (1 Bft) 96,67 %
13.06.2018 04:10 16,0 C 25,6 C 97 % 1003,7 hPa 0,0 l/m 1,1 km/h (1 Bft) W-NW 293 0 min 0,000 mm 0,0 UV-I 0 W/m 15,5 C 16,0 C 1,6 km/h (1 Bft) 95,65 %
13.06.2018 04:11 16,0 C 25,6 C 97 % 1003,7 hPa 0,0 l/m 1,0 km/h (0 Bft) W-NW 293 0 min 0,000 mm 0,0 UV-I 0 W/m 15,5 C 16,0 C 1,6 km/h (1 Bft) 100,00 %
13.06.2018 04:12 16,0 C 25,6 C 97 % 1003,7 hPa 0,0 l/m 0,1 km/h (0 Bft) W-NW 293 0 min 0,000 mm 0,0 UV-I 0 W/m 15,5 C 16,0 C 1,6 km/h (1 Bft) 95,83 %
13.06.2018 04:13 16,0 C 25,6 C 97 % 1003,8 hPa 0,0 l/m 1,2 km/h (1 Bft) W 275 0 min 0,000 mm 0,0 UV-I 0 W/m 15,5 C 16,0 C 3,2 km/h (1 Bft) 100,00 %
13.06.2018 04:14 16,0 C 25,6 C 97 % 1003,7 hPa 0,0 l/m 1,1 km/h (1 Bft) W 275 0 min 0,000 mm 0,0 UV-I 0 W/m 15,5 C 16,0 C 3,2 km/h (1 Bft) 95,65 %
13.06.2018 04:15 16,0 C 25,6 C 97 % 1003,8 hPa 0,0 l/m 2,0 km/h (1 Bft) W 275 0 min 0,000 mm 0,0 UV-I 0 W/m 15,5 C 16,0 C 3,2 km/h (1 Bft) 100,00 %
13.06.2018 04:16 16,0 C 25,6 C 97 % 1003,8 hPa 0,0 l/m 2,3 km/h (1 Bft) W 273 0 min 0,000 mm 0,0 UV-I 0 W/m 15,5 C 16,0 C 3,2 km/h (1 Bft) 100,00 %
13.06.2018 04:17 16,0 C 25,6 C 97 % 1003,9 hPa 0,0 l/m 2,4 km/h (1 Bft) W 269 0 min 0,000 mm 0,0 UV-I 0 W/m 15,5 C 16,0 C 3,2 km/h (1 Bft) 100,00 %
13.06.2018 04:18 15,9 C 25,6 C 97 % 1003,9 hPa 0,0 l/m 2,0 km/h (1 Bft) W-NW 295 0 min 0,000 mm 0,0 UV-I 0 W/m 15,4 C 15,9 C 4,8 km/h (1 Bft) 96,30 %
13.06.2018 04:19 15,9 C 25,6 C 97 % 1003,8 hPa 0,0 l/m 2,7 km/h (1 Bft) W-NW 302 0 min 0,000 mm 0,0 UV-I 0 W/m 15,4 C 15,9 C 4,8 km/h (1 Bft) 100,00 %
13.06.2018 04:20 15,9 C 25,6 C 97 % 1003,9 hPa 0,0 l/m 1,7 km/h (1 Bft) W-NW 302 0 min 0,000 mm 0,0 UV-I 0 W/m 15,4 C 15,9 C 3,2 km/h (1 Bft) 95,83 %
13.06.2018 04:21 15,9 C 25,6 C 97 % 1003,9 hPa 0,0 l/m 3,3 km/h (1 Bft) W 269 0 min 0,000 mm 0,0 UV-I 0 W/m 15,4 C 15,9 C 6,4 km/h (2 Bft) 95,65 %
13.06.2018 04:22 15,9 C 25,0 C 97 % 1003,9 hPa 0,0 l/m 1,2 km/h (1 Bft) W 269 0 min 0,000 mm 0,0 UV-I 0 W/m 15,4 C 15,9 C 3,2 km/h (1 Bft) 95,83 %
13.06.2018 04:23 15,9 C 25,0 C 97 % 1003,8 hPa 0,0 l/m 2,3 km/h (1 Bft) W 268 0 min 0,000 mm 0,0 UV-I 0 W/m 15,4 C 15,9 C 4,8 km/h (1 Bft) 96,15 %
13.06.2018 04:24 15,9 C 25,0 C 97 % 1003,8 hPa 0,0 l/m 3,6 km/h (1 Bft) W 268 0 min 0,000 mm 0,0 UV-I 0 W/m 15,4 C 15,9 C 4,8 km/h (1 Bft) 96,30 %
13.06.2018 04:25 15,9 C 25,0 C 97 % 1003,9 hPa 0,0 l/m 2,9 km/h (1 Bft) W 269 0 min 0,000 mm 0,0 UV-I 0 W/m 15,4 C 15,9 C 3,2 km/h (1 Bft) 94,12 %
13.06.2018 04:26 15,9 C 25,0 C 97 % 1003,9 hPa 0,0 l/m 3,7 km/h (1 Bft) W 275 0 min 0,000 mm 0,0 UV-I 0 W/m 15,4 C 15,9 C 4,8 km/h (1 Bft) 100,00 %
13.06.2018 04:27 15,9 C 25,0 C 97 % 1003,8 hPa 0,0 l/m 0,4 km/h (0 Bft) W 275 0 min 0,000 mm 0,0 UV-I 0 W/m 15,4 C 15,9 C 1,6 km/h (1 Bft) 95,65 %
13.06.2018 04:28 15,9 C 25,0 C 97 % 1003,8 hPa 0,0 l/m 0,5 km/h (0 Bft) W 275 0 min 0,000 mm 0,0 UV-I 0 W/m 15,4 C 15,9 C 1,6 km/h (1 Bft) 100,00 %
13.06.2018 04:29 15,9 C 25,0 C 97 % 1003,8 hPa 0,0 l/m 3,1 km/h (1 Bft) W 275 0 min 0,000 mm 0,0 UV-I 0 W/m 15,4 C 15,9 C 4,8 km/h (1 Bft) 100,00 %
13.06.2018 04:30 15,9 C 25,0 C 97 % 1003,9 hPa 0,0 l/m 3,0 km/h (1 Bft) W 274 0 min 0,000 mm 0,0 UV-I 0 W/m 15,4 C 15,9 C 4,8 km/h (1 Bft) 100,00 %
13.06.2018 04:31 15,9 C 25,0 C 97 % 1003,9 hPa 0,0 l/m 3,3 km/h (1 Bft) W 267 0 min 0,000 mm 0,0 UV-I 0 W/m 15,4 C 15,9 C 4,8 km/h (1 Bft) 100,00 %
13.06.2018 04:32 15,8 C 25,0 C 97 % 1003,9 hPa 0,0 l/m 2,8 km/h (1 Bft) W 268 0 min 0,000 mm 0,0 UV-I 0 W/m 15,3 C 15,8 C 4,8 km/h (1 Bft) 100,00 %
13.06.2018 04:33 15,9 C 25,0 C 97 % 1003,9 hPa 0,0 l/m 4,7 km/h (1 Bft) W-SW 251 0 min 0,000 mm 0,0 UV-I 0 W/m 15,4 C 15,9 C 6,4 km/h (2 Bft) 100,00 %
13.06.2018 04:34 15,9 C 25,0 C 97 % 1003,9 hPa 0,0 l/m 2,9 km/h (1 Bft) W 259 0 min 0,000 mm 0,0 UV-I 0 W/m 15,4 C 15,9 C 3,2 km/h (1 Bft) 100,00 %
13.06.2018 04:35 15,9 C 25,0 C 97 % 1003,9 hPa 0,0 l/m 4,4 km/h (1 Bft) W 263 0 min 0,000 mm 0,0 UV-I 0 W/m 15,4 C 15,9 C 6,4 km/h (2 Bft) 95,65 %
13.06.2018 04:36 15,9 C 25,0 C 97 % 1003,9 hPa 0,0 l/m 4,0 km/h (1 Bft) W 267 0 min 0,000 mm 0,0 UV-I 0 W/m 15,4 C 15,9 C 4,8 km/h (1 Bft) 100,00 %
13.06.2018 04:37 16,0 C 25,0 C 97 % 1003,9 hPa 0,0 l/m 4,5 km/h (1 Bft) S-SW 208 0 min 0,000 mm 0,0 UV-I 0 W/m 15,5 C 16,0 C 6,4 km/h (2 Bft) 100,00 %
13.06.2018 04:38 15,9 C 25,0 C 97 % 1003,9 hPa 0,0 l/m 3,2 km/h (1 Bft) W 273 0 min 0,000 mm 0,0 UV-I 0 W/m 15,4 C 15,9 C 4,8 km/h (1 Bft) 91,30 %
13.06.2018 04:39 15,9 C 25,0 C 97 % 1003,9 hPa 0,0 l/m 3,0 km/h (1 Bft) W 273 0 min 0,000 mm 0,0 UV-I 0 W/m 15,4 C 15,9 C 4,8 km/h (1 Bft) 100,00 %
13.06.2018 04:40 16,0 C 25,0 C 97 % 1003,9 hPa 0,0 l/m 1,7 km/h (1 Bft) W 270 0 min 0,000 mm 0,0 UV-I 0 W/m 15,5 C 16,0 C 3,2 km/h (1 Bft) 100,00 %
13.06.2018 04:41 16,0 C 25,0 C 97 % 1003,9 hPa 0,0 l/m 3,6 km/h (1 Bft) W-SW 254 0 min 0,000 mm 0,0 UV-I 0 W/m 15,5 C 16,0 C 4,8 km/h (1 Bft) 100,00 %
13.06.2018 04:42 16,1 C 25,0 C 97 % 1003,9 hPa 0,0 l/m 3,3 km/h (1 Bft) W-SW 257 0 min 0,000 mm 0,0 UV-I 0 W/m 15,6 C 16,1 C 6,4 km/h (2 Bft) 100,00 %
13.06.2018 04:43 16,0 C 25,0 C 97 % 1003,9 hPa 0,0 l/m 2,4 km/h (1 Bft) W 259 0 min 0,000 mm 0,0 UV-I 0 W/m 15,5 C 16,0 C 3,2 km/h (1 Bft) 91,67 %
13.06.2018 04:44 16,0 C 25,0 C 97 % 1003,9 hPa 0,0 l/m 3,1 km/h (1 Bft) W 263 0 min 0,000 mm 0,0 UV-I 0 W/m 15,5 C 16,0 C 6,4 km/h (2 Bft) 100,00 %
13.06.2018 04:45 16,0 C 25,0 C 97 % 1003,9 hPa 0,0 l/m 2,4 km/h (1 Bft) W 264 0 min 0,000 mm 0,0 UV-I 0 W/m 15,5 C 16,0 C 3,2 km/h (1 Bft) 95,83 %
13.06.2018 04:46 16,0 C 25,0 C 97 % 1003,9 hPa 0,0 l/m 1,7 km/h (1 Bft) W 264 0 min 0,000 mm 0,0 UV-I 0 W/m 15,5 C 16,0 C 3,2 km/h (1 Bft) 96,15 %
13.06.2018 04:47 16,0 C 25,0 C 97 % 1003,9 hPa 0,0 l/m 2,8 km/h (1 Bft) W 264 0 min 0,000 mm 0,0 UV-I 0 W/m 15,5 C 16,0 C 3,2 km/h (1 Bft) 100,00 %
13.06.2018 04:48 16,0 C 25,0 C 97 % 1003,9 hPa 0,0 l/m 2,9 km/h (1 Bft) W 262 0 min 0,000 mm 0,0 UV-I 0 W/m 15,5 C 16,0 C 4,8 km/h (1 Bft) 96,55 %
13.06.2018 04:49 16,0 C 25,0 C 97 % 1004,0 hPa 0,0 l/m 2,1 km/h (1 Bft) W 263 0 min 0,000 mm 0,0 UV-I 0 W/m 15,5 C 16,0 C 3,2 km/h (1 Bft) 100,00 %
13.06.2018 04:50 15,9 C 25,0 C 97 % 1003,9 hPa 0,0 l/m 2,0 km/h (1 Bft) W 265 0 min 0,000 mm 0,0 UV-I 0 W/m 15,4 C 15,9 C 4,8 km/h (1 Bft) 95,65 %
13.06.2018 04:51 16,0 C 25,0 C 97 % 1004,0 hPa 0,0 l/m 3,2 km/h (1 Bft) W 261 0 min 0,000 mm 0,0 UV-I 0 W/m 15,5 C 16,0 C 4,8 km/h (1 Bft) 100,00 %
13.06.2018 04:52 16,0 C 25,0 C 97 % 1004,0 hPa 0,0 l/m 3,8 km/h (1 Bft) W 259 0 min 0,000 mm 0,0 UV-I 0 W/m 15,5 C 16,0 C 4,8 km/h (1 Bft) 92,59 %
13.06.2018 04:53 15,9 C 25,0 C 97 % 1003,9 hPa 0,0 l/m 2,1 km/h (1 Bft) W 259 0 min 0,000 mm 0,0 UV-I 0 W/m 15,4 C 15,9 C 3,2 km/h (1 Bft) 96,15 %
13.06.2018 04:54 16,0 C 25,0 C 97 % 1003,9 hPa 0,0 l/m 0,2 km/h (0 Bft) W 259 0 min 0,000 mm 0,0 UV-I 0 W/m 15,5 C 16,0 C 1,6 km/h (1 Bft) 100,00 %
13.06.2018 04:55 16,0 C 25,0 C 97 % 1003,9 hPa 0,0 l/m 1,4 km/h (1 Bft) W 259 0 min 0,000 mm 0,0 UV-I 0 W/m 15,5 C 16,0 C 3,2 km/h (1 Bft) 100,00 %
13.06.2018 04:56 16,0 C 25,0 C 97 % 1004,0 hPa 0,0 l/m 1,7 km/h (1 Bft) W 259 0 min 0,000 mm 0,0 UV-I 0 W/m 15,5 C 16,0 C 3,2 km/h (1 Bft) 86,67 %
13.06.2018 04:57 16,0 C 25,0 C 97 % 1004,0 hPa 0,0 l/m 2,0 km/h (1 Bft) W 259 0 min 0,000 mm 0,0 UV-I 0 W/m 15,5 C 16,0 C 3,2 km/h (1 Bft) 97,56 %
13.06.2018 04:58 16,1 C 25,0 C 97 % 1004,0 hPa 0,0 l/m 2,3 km/h (1 Bft) W 259 0 min 0,000 mm 0,0 UV-I 0 W/m 15,6 C 16,1 C 3,2 km/h (1 Bft) 100,00 %
13.06.2018 04:59 16,0 C 25,0 C 97 % 1004,0 hPa 0,0 l/m 1,2 km/h (1 Bft) W 259 0 min 0,000 mm 0,0 UV-I 0 W/m 15,5 C 16,0 C 1,6 km/h (1 Bft) 96,15 %
13.06.2018 05:00 16,1 C 25,0 C 97 % 1004,0 hPa 0,0 l/m 2,1 km/h (1 Bft) W 259 0 min 0,000 mm 0,0 UV-I 0 W/m 15,6 C 16,1 C 4,8 km/h (1 Bft) 91,67 %
13.06.2018 05:01 16,1 C 25,0 C 97 % 1004,0 hPa 0,0 l/m 2,8 km/h (1 Bft) SW 224 0 min 0,000 mm 0,0 UV-I 0 W/m 15,6 C 16,1 C 4,8 km/h (1 Bft) 100,00 %
13.06.2018 05:02 16,1 C 25,0 C 97 % 1004,0 hPa 0,0 l/m 3,9 km/h (1 Bft) SW 224 0 min 0,000 mm 0,0 UV-I 0 W/m 15,6 C 16,1 C 6,4 km/h (2 Bft) 100,00 %
13.06.2018 05:03 16,1 C 25,0 C 97 % 1004,0 hPa 0,0 l/m 4,0 km/h (1 Bft) SW 224 0 min 0,000 mm 0,0 UV-I 0 W/m 15,6 C 16,1 C 6,4 km/h (2 Bft) 95,65 %
13.06.2018 05:04 16,0 C 25,0 C 97 % 1004,0 hPa 0,0 l/m 4,2 km/h (1 Bft) SW 224 0 min 0,000 mm 0,0 UV-I 0 W/m 15,5 C 16,0 C 6,4 km/h (2 Bft) 96,30 %
13.06.2018 05:05 16,0 C 25,0 C 97 % 1004,0 hPa 0,0 l/m 3,2 km/h (1 Bft) SW 224 0 min 0,000 mm 0,0 UV-I 0 W/m 15,5 C 16,0 C 4,8 km/h (1 Bft) 100,00 %
13.06.2018 05:06 16,1 C 25,0 C 97 % 1004,0 hPa 0,0 l/m 2,4 km/h (1 Bft) SW 224 0 min 0,000 mm 0,0 UV-I 0 W/m 15,6 C 16,1 C 4,8 km/h (1 Bft) 95,83 %
13.06.2018 05:07 16,1 C 25,0 C 97 % 1004,0 hPa 0,0 l/m 4,3 km/h (1 Bft) SW 223 0 min 0,000 mm 0,0 UV-I 0 W/m 15,6 C 16,1 C 6,4 km/h (2 Bft) 100,00 %
13.06.2018 05:08 16,2 C 25,0 C 97 % 1004,0 hPa 0,0 l/m 3,3 km/h (1 Bft) SW 224 0 min 0,000 mm 0,0 UV-I 0 W/m 15,7 C 16,2 C 4,8 km/h (1 Bft) 95,83 %
13.06.2018 05:09 16,1 C 25,0 C 97 % 1004,0 hPa 0,0 l/m 3,5 km/h (1 Bft) SW 223 0 min 0,000 mm 0,0 UV-I 0 W/m 15,6 C 16,1 C 6,4 km/h (2 Bft) 100,00 %
13.06.2018 05:10 16,1 C 25,0 C 97 % 1004,0 hPa 0,0 l/m 4,3 km/h (1 Bft) SW 226 0 min 0,000 mm 0,0 UV-I 0 W/m 15,6 C 16,1 C 6,4 km/h (2 Bft) 92,31 %
13.06.2018 05:11 16,1 C 25,0 C 97 % 1004,0 hPa 0,0 l/m 3,6 km/h (1 Bft) SW 219 0 min 0,000 mm 0,0 UV-I 0 W/m 15,6 C 16,1 C 4,8 km/h (1 Bft) 100,00 %
13.06.2018 05:12 16,1 C 25,0 C 97 % 1004,0 hPa 0,0 l/m 4,8 km/h (1 Bft) SW 220 0 min 0,000 mm 0,0 UV-I 0 W/m 15,6 C 16,1 C 6,4 km/h (2 Bft) 96,15 %
13.06.2018 05:13 16,1 C 25,0 C 97 % 1004,0 hPa 0,0 l/m 5,5 km/h (1 Bft) SW 225 0 min 0,000 mm 0,0 UV-I 5 W/m 15,6 C 16,1 C 8,0 km/h (2 Bft) 95,83 %
13.06.2018 05:14 16,1 C 25,0 C 97 % 1004,0 hPa 0,0 l/m 5,1 km/h (1 Bft) SW 217 0 min 0,000 mm 0,0 UV-I 5 W/m 15,6 C 16,1 C 8,0 km/h (2 Bft) 100,00 %
13.06.2018 05:15 16,1 C 25,0 C 97 % 1004,0 hPa 0,0 l/m 5,6 km/h (1 Bft) SW 221 0 min 0,000 mm 0,0 UV-I 5 W/m 15,6 C 16,1 C 8,0 km/h (2 Bft) 96,30 %
13.06.2018 05:16 16,1 C 25,0 C 97 % 1004,0 hPa 0,0 l/m 5,3 km/h (1 Bft) SW 229 0 min 0,000 mm 0,0 UV-I 5 W/m 15,6 C 16,1 C 8,0 km/h (2 Bft) 100,00 %
13.06.2018 05:17 16,1 C 25,0 C 97 % 1004,0 hPa 0,0 l/m 4,8 km/h (1 Bft) SW 223 0 min 0,000 mm 0,0 UV-I 5 W/m 15,6 C 16,1 C 6,4 km/h (2 Bft) 95,83 %
13.06.2018 05:18 16,1 C 25,0 C 97 % 1003,9 hPa 0,0 l/m 3,2 km/h (1 Bft) SW 224 0 min 0,000 mm 0,0 UV-I 7 W/m 15,6 C 16,1 C 4,8 km/h (1 Bft) 100,00 %
13.06.2018 05:19 16,1 C 25,0 C 97 % 1003,9 hPa 0,0 l/m 4,4 km/h (1 Bft) W-SW 243 0 min 0,000 mm 0,0 UV-I 7 W/m 15,6 C 16,1 C 6,4 km/h (2 Bft) 100,00 %
13.06.2018 05:20 16,1 C 25,0 C 97 % 1004,0 hPa 0,0 l/m 3,5 km/h (1 Bft) W-SW 248 0 min 0,000 mm 0,0 UV-I 7 W/m 15,6 C 16,1 C 6,4 km/h (2 Bft) 100,00 %
13.06.2018 05:21 16,1 C 25,0 C 97 % 1003,9 hPa 0,0 l/m 6,1 km/h (2 Bft) SW 227 0 min 0,000 mm 0,0 UV-I 7 W/m 15,6 C 16,1 C 8,0 km/h (2 Bft) 100,00 %
13.06.2018 05:22 16,1 C 25,0 C 97 % 1003,9 hPa 0,0 l/m 2,7 km/h (1 Bft) SW 227 0 min 0,000 mm 0,0 UV-I 7 W/m 15,6 C 16,1 C 4,8 km/h (1 Bft) 100,00 %
13.06.2018 05:23 16,2 C 25,0 C 97 % 1003,9 hPa 0,0 l/m 2,5 km/h (1 Bft) SW 228 0 min 0,000 mm 0,0 UV-I 7 W/m 15,7 C 16,2 C 3,2 km/h (1 Bft) 100,00 %
13.06.2018 05:24 16,2 C 25,0 C 97 % 1003,9 hPa 0,2 l/m 3,0 km/h (1 Bft) SW 228 0 min 0,000 mm 0,0 UV-I 7 W/m 15,7 C 16,2 C 4,8 km/h (1 Bft) 97,56 %
13.06.2018 05:25 16,2 C 25,0 C 97 % 1003,9 hPa 0,0 l/m 4,8 km/h (1 Bft) W 264 0 min 0,000 mm 0,0 UV-I 9 W/m 15,7 C 16,2 C 8,0 km/h (2 Bft) 96,30 %
13.06.2018 05:26 16,2 C 25,0 C 97 % 1003,9 hPa 0,0 l/m 3,4 km/h (1 Bft) W 264 0 min 0,000 mm 0,0 UV-I 9 W/m 15,7 C 16,2 C 4,8 km/h (1 Bft) 95,65 %
13.06.2018 05:27 16,2 C 25,0 C 97 % 1003,9 hPa 0,0 l/m 4,5 km/h (1 Bft) SW 235 0 min 0,000 mm 0,0 UV-I 9 W/m 15,7 C 16,2 C 6,4 km/h (2 Bft) 100,00 %
13.06.2018 05:28 16,2 C 25,0 C 97 % 1003,9 hPa 0,0 l/m 4,4 km/h (1 Bft) W-SW 250 0 min 0,000 mm 0,0 UV-I 9 W/m 15,7 C 16,2 C 8,0 km/h (2 Bft) 100,00 %
13.06.2018 05:29 16,2 C 25,0 C 97 % 1003,9 hPa 0,0 l/m 4,5 km/h (1 Bft) SW 223 0 min 0,000 mm 0,0 UV-I 9 W/m 15,7 C 16,2 C 6,4 km/h (2 Bft) 100,00 %
13.06.2018 05:30 16,2 C 25,0 C 97 % 1003,9 hPa 0,0 l/m 3,1 km/h (1 Bft) W-SW 246 0 min 0,000 mm 0,0 UV-I 9 W/m 15,7 C 16,2 C 4,8 km/h (1 Bft) 100,00 %
13.06.2018 05:31 16,2 C 25,0 C 97 % 1003,9 hPa 0,0 l/m 2,1 km/h (1 Bft) W-SW 245 0 min 0,000 mm 0,0 UV-I 11 W/m 15,7 C 16,2 C 3,2 km/h (1 Bft) 100,00 %
13.06.2018 05:32 16,2 C 25,0 C 97 % 1003,9 hPa 0,0 l/m 4,2 km/h (1 Bft) W 271 0 min 0,000 mm 0,0 UV-I 11 W/m 15,7 C 16,2 C 6,4 km/h (2 Bft) 100,00 %
13.06.2018 05:33 16,2 C 25,0 C 97 % 1003,9 hPa 0,0 l/m 3,2 km/h (1 Bft) W-SW 251 0 min 0,000 mm 0,0 UV-I 11 W/m 15,7 C 16,2 C 4,8 km/h (1 Bft) 100,00 %
13.06.2018 05:34 16,2 C 25,0 C 97 % 1003,9 hPa 0,0 l/m 3,0 km/h (1 Bft) W-SW 257 0 min 0,000 mm 0,0 UV-I 11 W/m 15,7 C 16,2 C 4,8 km/h (1 Bft) 100,00 %
13.06.2018 05:35 16,2 C 25,0 C 97 % 1003,9 hPa 0,0 l/m 3,6 km/h (1 Bft) W-SW 257 0 min 0,000 mm 0,0 UV-I 12 W/m 15,7 C 16,2 C 4,8 km/h (1 Bft) 95,65 %
13.06.2018 05:36 16,2 C 25,0 C 97 % 1003,9 hPa 0,0 l/m 4,4 km/h (1 Bft) W 265 0 min 0,000 mm 0,0 UV-I 12 W/m 15,7 C 16,2 C 6,4 km/h (2 Bft) 100,00 %
13.06.2018 05:37 16,2 C 25,0 C 97 % 1003,9 hPa 0,0 l/m 5,4 km/h (1 Bft) W-SW 253 0 min 0,000 mm 0,0 UV-I 14 W/m 15,7 C 16,2 C 6,4 km/h (2 Bft) 100,00 %
13.06.2018 05:38 16,2 C 25,0 C 97 % 1003,9 hPa 0,0 l/m 2,4 km/h (1 Bft) W-SW 257 0 min 0,000 mm 0,0 UV-I 14 W/m 15,7 C 16,2 C 3,2 km/h (1 Bft) 100,00 %
13.06.2018 05:39 16,2 C 25,0 C 97 % 1003,9 hPa 0,0 l/m 4,9 km/h (1 Bft) W-SW 251 0 min 0,000 mm 0,0 UV-I 15 W/m 15,7 C 16,2 C 8,0 km/h (2 Bft) 95,65 %
13.06.2018 05:40 16,2 C 25,0 C 97 % 1003,9 hPa 0,0 l/m 4,9 km/h (1 Bft) W-SW 256 0 min 0,000 mm 0,0 UV-I 16 W/m 15,7 C 16,2 C 8,0 km/h (2 Bft) 100,00 %
13.06.2018 05:41 16,2 C 25,0 C 97 % 1003,9 hPa 0,0 l/m 2,7 km/h (1 Bft) W-SW 256 0 min 0,000 mm 0,0 UV-I 18 W/m 15,7 C 16,2 C 4,8 km/h (1 Bft) 100,00 %
13.06.2018 05:42 16,2 C 25,0 C 97 % 1003,9 hPa 0,0 l/m 4,0 km/h (1 Bft) W-SW 257 0 min 0,000 mm 0,0 UV-I 19 W/m 15,7 C 16,2 C 4,8 km/h (1 Bft) 100,00 %
13.06.2018 05:43 16,2 C 25,0 C 97 % 1003,9 hPa 0,0 l/m 3,8 km/h (1 Bft) W-SW 244 0 min 0,000 mm 0,0 UV-I 21 W/m 15,7 C 16,2 C 6,4 km/h (2 Bft) 96,15 %
13.06.2018 05:44 16,2 C 25,0 C 97 % 1003,9 hPa 0,0 l/m 3,6 km/h (1 Bft) W-SW 246 0 min 0,000 mm 0,0 UV-I 22 W/m 15,7 C 16,2 C 4,8 km/h (1 Bft) 100,00 %
13.06.2018 05:45 16,2 C 25,0 C 97 % 1003,9 hPa 0,0 l/m 2,4 km/h (1 Bft) W-SW 246 0 min 0,000 mm 0,0 UV-I 23 W/m 15,7 C 16,2 C 4,8 km/h (1 Bft) 100,00 %
13.06.2018 05:46 16,2 C 25,0 C 97 % 1003,9 hPa 0,0 l/m 3,8 km/h (1 Bft) W 261 0 min 0,000 mm 0,0 UV-I 25 W/m 15,7 C 16,2 C 4,8 km/h (1 Bft) 100,00 %
13.06.2018 05:47 16,2 C 25,0 C 97 % 1003,9 hPa 0,0 l/m 4,7 km/h (1 Bft) W 265 0 min 0,000 mm 0,0 UV-I 25 W/m 15,7 C 16,2 C 6,4 km/h (2 Bft) 100,00 %
13.06.2018 05:48 16,3 C 25,0 C 97 % 1003,9 hPa 0,0 l/m 3,4 km/h (1 Bft) W 265 0 min 0,000 mm 0,0 UV-I 26 W/m 15,8 C 16,3 C 4,8 km/h (1 Bft) 100,00 %
13.06.2018 05:49 16,3 C 25,0 C 97 % 1003,8 hPa 0,0 l/m 5,8 km/h (2 Bft) W 267 0 min 0,000 mm 0,0 UV-I 27 W/m 15,8 C 16,3 C 8,0 km/h (2 Bft) 100,00 %
13.06.2018 05:50 16,2 C 25,0 C 97 % 1003,8 hPa 0,0 l/m 4,6 km/h (1 Bft) W 263 0 min 0,000 mm 0,0 UV-I 29 W/m 15,7 C 16,2 C 6,4 km/h (2 Bft) 100,00 %
13.06.2018 05:51 16,2 C 25,0 C 97 % 1003,8 hPa 0,0 l/m 4,9 km/h (1 Bft) W 262 0 min 0,000 mm 0,0 UV-I 31 W/m 15,7 C 16,2 C 8,0 km/h (2 Bft) 100,00 %
13.06.2018 05:52 16,2 C 25,0 C 97 % 1003,8 hPa 0,0 l/m 4,6 km/h (1 Bft) W-SW 250 0 min 0,000 mm 0,0 UV-I 32 W/m 15,7 C 16,2 C 6,4 km/h (2 Bft) 100,00 %
13.06.2018 05:53 16,2 C 25,0 C 97 % 1003,8 hPa 0,0 l/m 4,8 km/h (1 Bft) W 259 0 min 0,000 mm 0,0 UV-I 33 W/m 15,7 C 16,2 C 8,0 km/h (2 Bft) 98,16 %
13.06.2018 05:54 16,2 C 25,0 C 97 % 1003,8 hPa 0,0 l/m 6,9 km/h (2 Bft) W 260 0 min 0,000 mm 0,0 UV-I 35 W/m 15,7 C 15,9 C 11,3 km/h (2 Bft) 100,00 %
13.06.2018 05:55 16,3 C 25,0 C 97 % 1003,8 hPa 0,0 l/m 5,6 km/h (1 Bft) W-SW 254 0 min 0,000 mm 0,0 UV-I 36 W/m 15,8 C 16,3 C 8,0 km/h (2 Bft) 100,00 %
13.06.2018 05:56 16,3 C 25,0 C 97 % 1003,8 hPa 0,0 l/m 4,4 km/h (1 Bft) W 270 0 min 0,000 mm 0,0 UV-I 38 W/m 15,8 C 16,3 C 6,4 km/h (2 Bft) 100,00 %
13.06.2018 05:57 16,3 C 25,0 C 97 % 1003,8 hPa 0,0 l/m 5,3 km/h (1 Bft) W-SW 257 0 min 0,000 mm 0,0 UV-I 39 W/m 15,8 C 16,3 C 6,4 km/h (2 Bft) 100,00 %
13.06.2018 05:58 16,3 C 25,0 C 97 % 1003,8 hPa 0,0 l/m 4,8 km/h (1 Bft) W-SW 248 0 min 0,000 mm 0,0 UV-I 39 W/m 15,8 C 16,3 C 6,4 km/h (2 Bft) 100,00 %
13.06.2018 05:59 16,3 C 25,0 C 97 % 1003,8 hPa 0,0 l/m 4,2 km/h (1 Bft) W-NW 286 0 min 0,000 mm 0,0 UV-I 40 W/m 15,8 C 16,3 C 6,4 km/h (2 Bft) 100,00 %
13.06.2018 06:00 16,3 C 25,0 C 97 % 1003,8 hPa 0,0 l/m 2,2 km/h (1 Bft) W-NW 287 0 min 0,000 mm 0,0 UV-I 42 W/m 15,8 C 16,3 C 3,2 km/h (1 Bft) 100,00 %
13.06.2018 06:01 16,3 C 25,0 C 97 % 1003,7 hPa 0,0 l/m 2,5 km/h (1 Bft) W-NW 285 0 min 0,000 mm 0,0 UV-I 42 W/m 15,8 C 16,3 C 6,4 km/h (2 Bft) 100,00 %
13.06.2018 06:02 16,3 C 25,0 C 97 % 1003,8 hPa 0,0 l/m 1,9 km/h (1 Bft) W-NW 288 0 min 0,000 mm 0,0 UV-I 43 W/m 15,8 C 16,3 C 4,8 km/h (1 Bft) 100,00 %
13.06.2018 06:03 16,3 C 25,0 C 97 % 1003,8 hPa 0,0 l/m 0,5 km/h (0 Bft) W-NW 288 0 min 0,000 mm 0,0 UV-I 45 W/m 15,8 C 16,3 C 1,6 km/h (1 Bft) 100,00 %
13.06.2018 06:04 16,4 C 25,0 C 97 % 1003,8 hPa 0,0 l/m 0,8 km/h (0 Bft) W-NW 288 0 min 0,000 mm 0,0 UV-I 46 W/m 15,9 C 16,4 C 3,2 km/h (1 Bft) 100,00 %
13.06.2018 06:05 16,4 C 25,0 C 97 % 1003,7 hPa 0,0 l/m 1,9 km/h (1 Bft) W-NW 288 0 min 0,000 mm 0,0 UV-I 47 W/m 15,9 C 16,4 C 3,2 km/h (1 Bft) 100,00 %
13.06.2018 06:06 16,4 C 25,0 C 97 % 1003,7 hPa 0,0 l/m 1,6 km/h (1 Bft) W-NW 288 0 min 0,000 mm 0,0 UV-I 48 W/m 15,9 C 16,4 C 3,2 km/h (1 Bft) 100,00 %
13.06.2018 06:07 16,4 C 25,0 C 97 % 1003,8 hPa 0,0 l/m 0,8 km/h (0 Bft) W-NW 288 0 min 0,000 mm 0,0 UV-I 49 W/m 15,9 C 16,4 C 1,6 km/h (1 Bft) 96,55 %
13.06.2018 06:08 16,4 C 25,0 C 97 % 1003,8 hPa 0,0 l/m 1,5 km/h (1 Bft) W-NW 288 0 min 0,000 mm 0,0 UV-I 50 W/m 15,9 C 16,4 C 3,2 km/h (1 Bft) 100,00 %
13.06.2018 06:09 16,4 C 25,0 C 97 % 1003,8 hPa 0,0 l/m 2,9 km/h (1 Bft) W-NW 287 0 min 0,000 mm 0,0 UV-I 51 W/m 15,9 C 16,4 C 4,8 km/h (1 Bft) 100,00 %
13.06.2018 06:10 16,4 C 25,0 C 97 % 1003,8 hPa 0,0 l/m 4,3 km/h (1 Bft) W-SW 255 0 min 0,000 mm 0,0 UV-I 51 W/m 15,9 C 16,4 C 6,4 km/h (2 Bft) 100,00 %
13.06.2018 06:11 16,5 C 25,0 C 97 % 1003,7 hPa 0,0 l/m 4,6 km/h (1 Bft) W 261 0 min 0,000 mm 0,0 UV-I 51 W/m 16,0 C 16,5 C 6,4 km/h (2 Bft) 95,65 %
13.06.2018 06:12 16,4 C 25,0 C 97 % 1003,7 hPa 0,0 l/m 3,3 km/h (1 Bft) W-SW 250 0 min 0,000 mm 0,0 UV-I 50 W/m 15,9 C 16,4 C 4,8 km/h (1 Bft) 100,00 %
13.06.2018 06:13 16,4 C 25,0 C 97 % 1003,8 hPa 0,0 l/m 3,6 km/h (1 Bft) W-SW 253 0 min 0,000 mm 0,0 UV-I 48 W/m 15,9 C 16,4 C 6,4 km/h (2 Bft) 100,00 %
13.06.2018 06:14 16,4 C 25,0 C 97 % 1003,7 hPa 0,0 l/m 5,0 km/h (1 Bft) W-SW 248 0 min 0,000 mm 0,0 UV-I 44 W/m 15,9 C 16,4 C 6,4 km/h (2 Bft) 100,00 %
13.06.2018 06:15 16,3 C 25,0 C 97 % 1003,7 hPa 0,0 l/m 4,9 km/h (1 Bft) W 275 0 min 0,000 mm 0,0 UV-I 38 W/m 15,8 C 16,3 C 6,4 km/h (2 Bft) 100,00 %
13.06.2018 06:16 16,3 C 25,0 C 97 % 1003,7 hPa 0,0 l/m 2,7 km/h (1 Bft) W 275 0 min 0,000 mm 0,0 UV-I 33 W/m 15,8 C 16,3 C 4,8 km/h (1 Bft) 100,00 %
13.06.2018 06:17 16,3 C 25,0 C 97 % 1003,7 hPa 0,0 l/m 2,5 km/h (1 Bft) W 275 0 min 0,000 mm 0,0 UV-I 30 W/m 15,8 C 16,3 C 3,2 km/h (1 Bft) 100,00 %
13.06.2018 06:18 16,4 C 25,0 C 97 % 1003,7 hPa 0,0 l/m 2,3 km/h (1 Bft) W 273 0 min 0,000 mm 0,0 UV-I 28 W/m 15,9 C 16,4 C 4,8 km/h (1 Bft) 100,00 %
13.06.2018 06:19 16,4 C 25,0 C 97 % 1003,7 hPa 0,0 l/m 2,1 km/h (1 Bft) W 273 0 min 0,000 mm 0,0 UV-I 26 W/m 15,9 C 16,4 C 3,2 km/h (1 Bft) 100,00 %
13.06.2018 06:20 16,4 C 25,0 C 97 % 1003,7 hPa 0,0 l/m 1,8 km/h (1 Bft) W 273 0 min 0,000 mm 0,0 UV-I 26 W/m 15,9 C 16,4 C 4,8 km/h (1 Bft) 100,00 %
13.06.2018 06:21 16,4 C 25,0 C 97 % 1003,6 hPa 0,0 l/m 2,1 km/h (1 Bft) W 273 0 min 0,000 mm 0,0 UV-I 26 W/m 15,9 C 16,4 C 3,2 km/h (1 Bft) 100,00 %
13.06.2018 06:22 16,4 C 25,0 C 97 % 1003,6 hPa 0,0 l/m 3,0 km/h (1 Bft) W-NW 286 0 min 0,000 mm 0,0 UV-I 28 W/m 15,9 C 16,4 C 4,8 km/h (1 Bft) 100,00 %
13.06.2018 06:23 16,4 C 25,0 C 97 % 1003,6 hPa 0,0 l/m 3,9 km/h (1 Bft) W 269 0 min 0,000 mm 0,0 UV-I 30 W/m 15,9 C 16,4 C 6,4 km/h (2 Bft) 100,00 %
13.06.2018 06:24 16,3 C 25,0 C 97 % 1003,6 hPa 0,0 l/m 3,6 km/h (1 Bft) W-NW 283 0 min 0,000 mm 0,0 UV-I 30 W/m 15,8 C 16,3 C 4,8 km/h (1 Bft) 100,00 %
13.06.2018 06:25 16,3 C 25,0 C 97 % 1003,6 hPa 0,0 l/m 4,2 km/h (1 Bft) W 273 0 min 0,000 mm 0,0 UV-I 30 W/m 15,8 C 16,3 C 6,4 km/h (2 Bft) 100,00 %
13.06.2018 06:26 16,3 C 25,0 C 97 % 1003,6 hPa 0,0 l/m 2,9 km/h (1 Bft) W-NW 292 0 min 0,000 mm 0,0 UV-I 31 W/m 15,8 C 16,3 C 4,8 km/h (1 Bft) 100,00 %
13.06.2018 06:27 16,3 C 25,0 C 97 % 1003,6 hPa 0,0 l/m 3,1 km/h (1 Bft) W 262 0 min 0,000 mm 0,0 UV-I 33 W/m 15,8 C 16,3 C 4,8 km/h (1 Bft) 95,83 %
13.06.2018 06:28 16,3 C 25,0 C 97 % 1003,6 hPa 0,0 l/m 4,2 km/h (1 Bft) W 264 0 min 0,000 mm 0,0 UV-I 33 W/m 15,8 C 16,3 C 4,8 km/h (1 Bft) 100,00 %
13.06.2018 06:29 16,3 C 25,0 C 97 % 1003,6 hPa 0,0 l/m 1,6 km/h (1 Bft) W-NW 296 0 min 0,000 mm 0,0 UV-I 35 W/m 15,8 C 16,3 C 3,2 km/h (1 Bft) 100,00 %
13.06.2018 06:30 16,3 C 25,0 C 97 % 1003,6 hPa 0,0 l/m 2,1 km/h (1 Bft) W-NW 295 0 min 0,000 mm 0,0 UV-I 36 W/m 15,8 C 16,3 C 3,2 km/h (1 Bft) 95,65 %
13.06.2018 06:31 16,3 C 25,0 C 97 % 1003,6 hPa 0,0 l/m 0,0 km/h (0 Bft) W-NW 295 0 min 0,000 mm 0,0 UV-I 38 W/m 15,8 C 16,3 C 0,0 km/h (0 Bft) 95,83 %
13.06.2018 06:32 16,3 C 25,0 C 97 % 1003,6 hPa 0,0 l/m 0,5 km/h (0 Bft) W-NW 296 0 min 0,000 mm 0,0 UV-I 39 W/m 15,8 C 16,3 C 1,6 km/h (1 Bft) 100,00 %
13.06.2018 06:33 16,3 C 25,0 C 97 % 1003,7 hPa 0,0 l/m 0,2 km/h (0 Bft) W-NW 296 0 min 0,000 mm 0,0 UV-I 40 W/m 15,8 C 16,3 C 1,6 km/h (1 Bft) 100,00 %
13.06.2018 06:34 16,3 C 25,0 C 97 % 1003,7 hPa 0,0 l/m 0,0 km/h (0 Bft) W-NW 296 0 min 0,000 mm 0,0 UV-I 42 W/m 15,8 C 16,3 C 0,0 km/h (0 Bft) 100,00 %
13.06.2018 06:35 16,4 C 25,0 C 97 % 1003,6 hPa 0,0 l/m 0,5 km/h (0 Bft) W-NW 296 0 min 0,000 mm 0,0 UV-I 45 W/m 15,9 C 16,4 C 1,6 km/h (1 Bft) 100,00 %
13.06.2018 06:36 16,3 C 25,0 C 97 % 1003,7 hPa 0,0 l/m 0,3 km/h (0 Bft) W-NW 296 0 min 0,000 mm 0,0 UV-I 46 W/m 15,8 C 16,3 C 1,6 km/h (1 Bft) 100,00 %
13.06.2018 06:37 16,3 C 25,0 C 97 % 1003,7 hPa 0,0 l/m 0,3 km/h (0 Bft) W-NW 296 0 min 0,000 mm 0,0 UV-I 47 W/m 15,8 C 16,3 C 3,2 km/h (1 Bft) 100,00 %
13.06.2018 06:38 16,3 C 25,0 C 97 % 1003,7 hPa 0,0 l/m 0,3 km/h (0 Bft) W-NW 296 0 min 0,000 mm 0,0 UV-I 48 W/m 15,8 C 16,3 C 3,2 km/h (1 Bft) 100,00 %
13.06.2018 06:39 16,3 C 25,0 C 97 % 1003,7 hPa 0,0 l/m 0,1 km/h (0 Bft) W-NW 296 0 min 0,000 mm 0,0 UV-I 49 W/m 15,8 C 16,3 C 1,6 km/h (1 Bft) 100,00 %
13.06.2018 06:40 16,4 C 25,0 C 97 % 1003,7 hPa 0,0 l/m 0,3 km/h (0 Bft) W-NW 296 0 min 0,000 mm 0,0 UV-I 49 W/m 15,9 C 16,4 C 1,6 km/h (1 Bft) 100,00 %
13.06.2018 06:41 16,4 C 25,0 C 97 % 1003,7 hPa 0,0 l/m 0,3 km/h (0 Bft) W-NW 296 0 min 0,000 mm 0,0 UV-I 47 W/m 15,9 C 16,4 C 3,2 km/h (1 Bft) 87,50 %
13.06.2018 06:42 16,4 C 25,0 C 97 % 1003,8 hPa 0,0 l/m 0,6 km/h (0 Bft) W-NW 296 0 min 0,000 mm 0,0 UV-I 46 W/m 15,9 C 16,4 C 1,6 km/h (1 Bft) 100,00 %
13.06.2018 06:44 16,4 C 25,0 C 97 % 1003,7 hPa 0,0 l/m 0,1 km/h (0 Bft) W-NW 296 0 min 0,000 mm 0,0 UV-I 42 W/m 15,9 C 16,4 C 1,6 km/h (1 Bft) 97,44 %
13.06.2018 06:45 16,4 C 25,0 C 97 % 1003,7 hPa 0,0 l/m 0,4 km/h (0 Bft) W-NW 296 0 min 0,000 mm 0,0 UV-I 39 W/m 15,9 C 16,4 C 1,6 km/h (1 Bft) 95,65 %
13.06.2018 06:46 16,4 C 25,0 C 97 % 1003,7 hPa 0,0 l/m 0,9 km/h (0 Bft) W-NW 296 0 min 0,000 mm 0,0 UV-I 39 W/m 15,9 C 16,4 C 3,2 km/h (1 Bft) 100,00 %
13.06.2018 06:47 16,4 C 25,0 C 97 % 1003,7 hPa 0,0 l/m 0,0 km/h (0 Bft) W-NW 296 0 min 0,000 mm 0,0 UV-I 39 W/m 15,9 C 16,4 C 0,0 km/h (0 Bft) 93,10 %
13.06.2018 06:49 16,4 C 25,0 C 97 % 1003,7 hPa 0,0 l/m 0,0 km/h (0 Bft) W-NW 296 0 min 0,000 mm 0,0 UV-I 38 W/m 15,9 C 16,4 C 1,6 km/h (1 Bft) 97,37 %
13.06.2018 06:50 16,4 C 25,0 C 97 % 1003,7 hPa 0,0 l/m 0,0 km/h (0 Bft) W-NW 296 0 min 0,000 mm 0,0 UV-I 40 W/m 15,9 C 16,4 C 0,0 km/h (0 Bft) 95,83 %
13.06.2018 06:51 16,4 C 25,0 C 97 % 1003,7 hPa 0,0 l/m 0,1 km/h (0 Bft) W-NW 296 0 min 0,000 mm 0,0 UV-I 40 W/m 15,9 C 16,4 C 1,6 km/h (1 Bft) 100,00 %
13.06.2018 06:52 16,4 C 25,0 C 97 % 1003,7 hPa 0,0 l/m 0,3 km/h (0 Bft) W-NW 296 0 min 0,000 mm 0,0 UV-I 40 W/m 15,9 C 16,4 C 1,6 km/h (1 Bft) 95,83 %
13.06.2018 06:53 16,4 C 25,0 C 97 % 1003,7 hPa 0,0 l/m 0,0 km/h (0 Bft) W-NW 296 0 min 0,000 mm 0,0 UV-I 38 W/m 15,9 C 16,4 C 0,0 km/h (0 Bft) 100,00 %
13.06.2018 06:54 16,4 C 25,0 C 97 % 1003,7 hPa 0,0 l/m 1,7 km/h (1 Bft) N 5 0 min 0,000 mm 0,0 UV-I 38 W/m 15,9 C 16,4 C 4,8 km/h (1 Bft) 95,83 %
13.06.2018 06:55 16,4 C 25,0 C 97 % 1003,7 hPa 0,0 l/m 1,3 km/h (1 Bft) N 5 0 min 0,000 mm 0,0 UV-I 42 W/m 15,9 C 16,4 C 3,2 km/h (1 Bft) 100,00 %
13.06.2018 06:56 16,4 C 25,0 C 97 % 1003,7 hPa 0,0 l/m 1,5 km/h (1 Bft) N 5 0 min 0,000 mm 0,0 UV-I 46 W/m 15,9 C 16,4 C 3,2 km/h (1 Bft) 95,83 %
13.06.2018 06:58 16,5 C 25,0 C 97 % 1003,6 hPa 0,0 l/m 2,1 km/h (1 Bft) N 5 0 min 0,000 mm 0,0 UV-I 57 W/m 16,0 C 16,5 C 4,8 km/h (1 Bft) 98,00 %
13.06.2018 06:59 16,6 C 25,0 C 97 % 1003,6 hPa 0,0 l/m 1,1 km/h (1 Bft) N 5 0 min 0,000 mm 0,0 UV-I 66 W/m 16,1 C 16,6 C 3,2 km/h (1 Bft) 95,65 %
13.06.2018 07:00 16,5 C 25,0 C 97 % 1003,6 hPa 0,0 l/m 3,7 km/h (1 Bft) N-NW 331 0 min 0,025 mm 0,0 UV-I 67 W/m 16,0 C 16,5 C 6,4 km/h (2 Bft) 91,67 %
13.06.2018 07:02 16,4 C 25,0 C 97 % 1003,7 hPa 0,0 l/m 4,1 km/h (1 Bft) N-NO 14 0 min 0,000 mm 0,0 UV-I 68 W/m 15,9 C 16,4 C 6,4 km/h (2 Bft) 97,73 %
13.06.2018 07:03 16,4 C 25,0 C 97 % 1003,7 hPa 0,0 l/m 3,2 km/h (1 Bft) N-NO 18 0 min 0,000 mm 0,0 UV-I 62 W/m 15,9 C 16,4 C 4,8 km/h (1 Bft) 96,30 %
13.06.2018 07:04 16,4 C 25,0 C 97 % 1003,7 hPa 0,0 l/m 2,3 km/h (1 Bft) N-NO 18 0 min 0,000 mm 0,0 UV-I 56 W/m 15,9 C 16,4 C 3,2 km/h (1 Bft) 95,65 %
13.06.2018 07:05 16,4 C 25,0 C 97 % 1003,7 hPa 0,0 l/m 0,6 km/h (0 Bft) N-NO 18 0 min 0,000 mm 0,0 UV-I 53 W/m 15,9 C 16,4 C 1,6 km/h (1 Bft) 100,00 %
13.06.2018 07:06 16,4 C 25,0 C 97 % 1003,7 hPa 0,0 l/m 0,0 km/h (0 Bft) N-NO 18 0 min 0,000 mm 0,0 UV-I 51 W/m 15,9 C 16,4 C 0,0 km/h (0 Bft) 92,86 %
13.06.2018 07:07 16,4 C 25,0 C 97 % 1003,7 hPa 0,0 l/m 3,9 km/h (1 Bft) N-NW 342 0 min 0,000 mm 0,0 UV-I 48 W/m 15,9 C 16,4 C 6,4 km/h (2 Bft) 100,00 %
13.06.2018 07:08 16,4 C 25,0 C 97 % 1003,7 hPa 0,0 l/m 3,9 km/h (1 Bft) N-NO 21 0 min 0,000 mm 0,0 UV-I 49 W/m 15,9 C 16,4 C 6,4 km/h (2 Bft) 96,15 %
13.06.2018 07:09 16,5 C 25,0 C 97 % 1003,7 hPa 0,0 l/m 1,7 km/h (1 Bft) N-NO 21 0 min 0,000 mm 0,0 UV-I 47 W/m 16,0 C 16,5 C 3,2 km/h (1 Bft) 100,00 %
13.06.2018 07:10 16,4 C 25,0 C 97 % 1003,7 hPa 0,0 l/m 1,9 km/h (1 Bft) N-NW 332 0 min 0,000 mm 0,0 UV-I 47 W/m 15,9 C 16,4 C 3,2 km/h (1 Bft) 91,30 %
13.06.2018 07:11 16,4 C 25,0 C 97 % 1003,7 hPa 0,0 l/m 0,8 km/h (0 Bft) N-NW 333 0 min 0,000 mm 0,0 UV-I 48 W/m 15,9 C 16,4 C 1,6 km/h (1 Bft) 100,00 %
13.06.2018 07:12 16,5 C 25,0 C 97 % 1003,7 hPa 0,0 l/m 3,0 km/h (1 Bft) N-NO 15 0 min 0,000 mm 0,0 UV-I 56 W/m 16,0 C 16,5 C 6,4 km/h (2 Bft) 96,15 %
13.06.2018 07:13 16,4 C 25,0 C 97 % 1003,6 hPa 0,0 l/m 3,8 km/h (1 Bft) N-NO 15 0 min 0,000 mm 0,0 UV-I 66 W/m 15,9 C 16,4 C 6,4 km/h (2 Bft) 95,83 %
13.06.2018 07:14 16,4 C 25,0 C 97 % 1003,7 hPa 0,0 l/m 3,8 km/h (1 Bft) N 11 0 min 0,000 mm 0,0 UV-I 77 W/m 15,9 C 16,4 C 6,4 km/h (2 Bft) 100,00 %
13.06.2018 07:15 16,4 C 25,0 C 97 % 1003,6 hPa 0,0 l/m 2,5 km/h (1 Bft) N-NO 13 0 min 0,000 mm 0,0 UV-I 92 W/m 15,9 C 16,4 C 4,8 km/h (1 Bft) 95,83 %
13.06.2018 07:16 16,4 C 25,0 C 97 % 1003,6 hPa 0,0 l/m 3,8 km/h (1 Bft) N-NO 29 0 min 0,000 mm 0,0 UV-I 105 W/m 15,9 C 16,4 C 4,8 km/h (1 Bft) 95,65 %
13.06.2018 07:17 16,4 C 25,0 C 97 % 1003,7 hPa 0,0 l/m 3,6 km/h (1 Bft) NO 35 0 min 0,000 mm 0,0 UV-I 112 W/m 15,9 C 16,4 C 4,8 km/h (1 Bft) 91,67 %
13.06.2018 07:18 16,4 C 25,0 C 97 % 1003,6 hPa 0,0 l/m 2,7 km/h (1 Bft) N 9 0 min 0,000 mm 0,0 UV-I 129 W/m 15,9 C 16,4 C 3,2 km/h (1 Bft) 100,00 %
13.06.2018 07:19 16,4 C 25,0 C 97 % 1003,7 hPa 0,0 l/m 2,2 km/h (1 Bft) N-NO 19 0 min 0,000 mm 0,0 UV-I 141 W/m 15,9 C 16,4 C 4,8 km/h (1 Bft) 97,50 %
13.06.2018 07:20 16,4 C 25,0 C 97 % 1003,7 hPa 0,0 l/m 4,9 km/h (1 Bft) N 360 0 min 0,000 mm 0,0 UV-I 156 W/m 15,9 C 16,4 C 6,4 km/h (2 Bft) 96,15 %
13.06.2018 07:21 16,4 C 25,0 C 97 % 1003,7 hPa 0,0 l/m 2,8 km/h (1 Bft) N 355 0 min 0,000 mm 0,0 UV-I 179 W/m 15,9 C 16,4 C 4,8 km/h (1 Bft) 100,00 %
13.06.2018 07:22 16,4 C 25,0 C 97 % 1003,7 hPa 0,0 l/m 4,3 km/h (1 Bft) N-NW 340 1 min 0,000 mm 0,0 UV-I 204 W/m 15,9 C 16,4 C 6,4 km/h (2 Bft) 100,00 %
13.06.2018 07:23 16,4 C 25,0 C 97 % 1003,7 hPa 0,0 l/m 3,7 km/h (1 Bft) N 9 1 min 0,000 mm 0,5 UV-I 226 W/m 15,9 C 16,4 C 4,8 km/h (1 Bft) 93,10 %
13.06.2018 07:24 16,4 C 25,0 C 97 % 1003,7 hPa 0,0 l/m 4,5 km/h (1 Bft) N-NO 17 1 min 0,000 mm 0,5 UV-I 230 W/m 15,9 C 16,4 C 6,4 km/h (2 Bft) 95,83 %
13.06.2018 07:25 16,4 C 25,0 C 97 % 1003,7 hPa 0,0 l/m 3,9 km/h (1 Bft) NO 49 1 min 0,000 mm 0,5 UV-I 223 W/m 15,9 C 16,4 C 4,8 km/h (1 Bft) 100,00 %
13.06.2018 07:26 16,5 C 25,0 C 97 % 1003,7 hPa 0,0 l/m 2,9 km/h (1 Bft) N-NO 16 1 min 0,000 mm 0,5 UV-I 214 W/m 16,0 C 16,5 C 4,8 km/h (1 Bft) 95,83 %
13.06.2018 07:28 16,7 C 25,0 C 97 % 1003,7 hPa 0,0 l/m 4,1 km/h (1 Bft) NO 39 2 min 0,000 mm 0,4 UV-I 200 W/m 16,2 C 16,7 C 6,4 km/h (2 Bft) 94,00 %
13.06.2018 07:29 16,7 C 25,0 C 97 % 1003,7 hPa 0,0 l/m 2,0 km/h (1 Bft) N 11 0 min 0,000 mm 0,0 UV-I 189 W/m 16,2 C 16,7 C 4,8 km/h (1 Bft) 100,00 %
13.06.2018 07:30 16,7 C 25,0 C 97 % 1003,7 hPa 0,0 l/m 3,9 km/h (1 Bft) N-NO 22 0 min 0,000 mm 0,0 UV-I 167 W/m 16,2 C 16,7 C 6,4 km/h (2 Bft) 96,67 %
13.06.2018 07:31 16,6 C 25,0 C 97 % 1003,8 hPa 0,0 l/m 4,3 km/h (1 Bft) NO 36 0 min 0,000 mm 0,0 UV-I 158 W/m 16,1 C 16,6 C 6,4 km/h (2 Bft) 96,55 %
13.06.2018 07:32 16,6 C 25,0 C 97 % 1003,7 hPa 0,0 l/m 2,1 km/h (1 Bft) N 10 0 min 0,000 mm 0,0 UV-I 151 W/m 16,1 C 16,6 C 4,8 km/h (1 Bft) 100,00 %
13.06.2018 07:34 16,6 C 25,0 C 97 % 1003,8 hPa 0,0 l/m 2,9 km/h (1 Bft) NO 41 0 min 0,000 mm 0,0 UV-I 123 W/m 16,1 C 16,6 C 6,4 km/h (2 Bft) 98,00 %
13.06.2018 07:35 16,7 C 25,0 C 97 % 1003,8 hPa 0,0 l/m 4,3 km/h (1 Bft) N 355 0 min 0,000 mm 0,0 UV-I 112 W/m 16,2 C 16,7 C 8,0 km/h (2 Bft) 96,15 %
13.06.2018 07:36 16,7 C 25,0 C 97 % 1003,8 hPa 0,0 l/m 5,1 km/h (1 Bft) N 11 0 min 0,000 mm 0,0 UV-I 110 W/m 16,2 C 16,7 C 8,0 km/h (2 Bft) 100,00 %
13.06.2018 07:37 16,6 C 25,0 C 97 % 1003,8 hPa 0,0 l/m 8,0 km/h (2 Bft) N 5 0 min 0,000 mm 0,0 UV-I 109 W/m 16,1 C 15,8 C 12,9 km/h (3 Bft) 95,65 %
13.06.2018 07:39 16,6 C 25,0 C 96 % 1003,8 hPa 0,0 l/m 5,1 km/h (1 Bft) N-NO 24 0 min 0,000 mm 0,0 UV-I 123 W/m 16,0 C 16,6 C 8,0 km/h (2 Bft) 97,44 %
13.06.2018 07:40 16,6 C 25,0 C 96 % 1003,8 hPa 0,0 l/m 7,5 km/h (2 Bft) N 355 0 min 0,000 mm 0,0 UV-I 128 W/m 16,0 C 16,0 C 12,9 km/h (3 Bft) 100,00 %
13.06.2018 07:41 16,6 C 25,0 C 96 % 1003,8 hPa 0,0 l/m 6,8 km/h (2 Bft) N 355 0 min 0,000 mm 0,0 UV-I 138 W/m 16,0 C 16,4 C 8,0 km/h (2 Bft) 95,24 %
13.06.2018 07:42 16,5 C 25,0 C 96 % 1003,8 hPa 0,0 l/m 6,3 km/h (2 Bft) N-NO 15 0 min 0,000 mm 0,2 UV-I 146 W/m 15,9 C 16,5 C 8,0 km/h (2 Bft) 100,00 %
13.06.2018 07:43 16,4 C 25,0 C 96 % 1003,8 hPa 0,0 l/m 9,1 km/h (2 Bft) N-NW 339 0 min 0,000 mm 0,5 UV-I 156 W/m 15,8 C 15,1 C 11,3 km/h (2 Bft) 96,30 %
13.06.2018 07:44 16,4 C 25,0 C 96 % 1003,8 hPa 0,0 l/m 7,2 km/h (2 Bft) N-NO 17 0 min 0,000 mm 0,5 UV-I 158 W/m 15,8 C 16,0 C 9,7 km/h (2 Bft) 95,65 %
13.06.2018 07:45 16,5 C 25,0 C 96 % 1003,9 hPa 0,0 l/m 8,8 km/h (2 Bft) N 5 0 min 0,000 mm 0,5 UV-I 162 W/m 15,9 C 15,3 C 11,3 km/h (2 Bft) 100,00 %
13.06.2018 07:46 16,6 C 25,0 C 96 % 1003,8 hPa 0,0 l/m 9,6 km/h (2 Bft) N-NO 19 0 min 0,000 mm 0,5 UV-I 162 W/m 16,0 C 15,1 C 11,3 km/h (2 Bft) 95,65 %
13.06.2018 07:47 16,6 C 25,0 C 96 % 1003,8 hPa 0,0 l/m 10,4 km/h (2 Bft) N-NO 28 0 min 0,000 mm 0,5 UV-I 160 W/m 16,0 C 14,7 C 12,9 km/h (3 Bft) 100,00 %
13.06.2018 07:48 16,6 C 25,0 C 96 % 1003,8 hPa 0,0 l/m 5,1 km/h (1 Bft) N-NW 346 0 min 0,000 mm 0,5 UV-I 160 W/m 16,0 C 16,6 C 8,0 km/h (2 Bft) 96,15 %
13.06.2018 07:49 16,6 C 25,0 C 96 % 1003,8 hPa 0,0 l/m 6,4 km/h (2 Bft) N-NW 332 0 min 0,000 mm 0,2 UV-I 153 W/m 16,0 C 16,6 C 9,7 km/h (2 Bft) 100,00 %
13.06.2018 07:50 16,7 C 25,0 C 96 % 1003,8 hPa 0,0 l/m 5,6 km/h (1 Bft) N-NO 23 0 min 0,000 mm 0,0 UV-I 142 W/m 16,1 C 16,7 C 8,0 km/h (2 Bft) 92,86 %
13.06.2018 07:51 16,7 C 25,0 C 96 % 1003,8 hPa 0,0 l/m 7,1 km/h (2 Bft) N-NO 16 0 min 0,000 mm 0,0 UV-I 139 W/m 16,1 C 16,3 C 11,3 km/h (2 Bft) 100,00 %
13.06.2018 07:52 16,6 C 25,0 C 96 % 1003,8 hPa 0,0 l/m 6,9 km/h (2 Bft) N 355 0 min 0,000 mm 0,0 UV-I 132 W/m 16,0 C 16,3 C 9,7 km/h (2 Bft) 96,15 %
13.06.2018 07:53 16,6 C 25,0 C 96 % 1003,8 hPa 0,0 l/m 7,8 km/h (2 Bft) N-NW 338 0 min 0,000 mm 0,0 UV-I 133 W/m 16,0 C 15,9 C 12,9 km/h (3 Bft) 100,00 %
13.06.2018 07:54 16,6 C 25,0 C 96 % 1003,8 hPa 0,0 l/m 5,7 km/h (1 Bft) N-NO 33 0 min 0,000 mm 0,0 UV-I 132 W/m 16,0 C 16,6 C 8,0 km/h (2 Bft) 96,55 %
13.06.2018 07:55 16,6 C 25,0 C 96 % 1003,8 hPa 0,0 l/m 6,1 km/h (2 Bft) N 5 0 min 0,000 mm 0,0 UV-I 129 W/m 16,0 C 16,6 C 8,0 km/h (2 Bft) 100,00 %
13.06.2018 07:56 16,6 C 25,0 C 96 % 1003,8 hPa 0,0 l/m 3,9 km/h (1 Bft) N 9 0 min 0,000 mm 0,0 UV-I 125 W/m 16,0 C 16,6 C 4,8 km/h (1 Bft) 96,30 %
13.06.2018 07:57 16,5 C 25,0 C 96 % 1003,8 hPa 0,0 l/m 5,2 km/h (1 Bft) NW 319 0 min 0,000 mm 0,0 UV-I 124 W/m 15,9 C 16,5 C 8,0 km/h (2 Bft) 93,10 %
13.06.2018 07:58 16,6 C 25,0 C 96 % 1003,8 hPa 0,0 l/m 4,8 km/h (1 Bft) N-NO 18 0 min 0,000 mm 0,0 UV-I 123 W/m 16,0 C 16,6 C 6,4 km/h (2 Bft) 100,00 %
13.06.2018 07:59 16,6 C 25,0 C 96 % 1003,8 hPa 0,0 l/m 5,6 km/h (1 Bft) N-NW 343 0 min 0,000 mm 0,0 UV-I 125 W/m 16,0 C 16,6 C 6,4 km/h (2 Bft) 95,83 %
13.06.2018 08:00 16,6 C 25,0 C 96 % 1003,7 hPa 0,0 l/m 4,6 km/h (1 Bft) N-NW 346 0 min 0,077 mm 0,0 UV-I 128 W/m 16,0 C 16,6 C 6,4 km/h (2 Bft) 100,00 %
13.06.2018 08:01 16,6 C 25,0 C 96 % 1003,7 hPa 0,0 l/m 5,3 km/h (1 Bft) NO 34 0 min 0,000 mm 0,0 UV-I 130 W/m 16,0 C 16,6 C 6,4 km/h (2 Bft) 91,67 %
13.06.2018 08:02 16,6 C 25,0 C 96 % 1003,8 hPa 0,0 l/m 5,6 km/h (1 Bft) N-NO 32 0 min 0,000 mm 0,4 UV-I 134 W/m 16,0 C 16,6 C 6,4 km/h (2 Bft) 100,00 %
13.06.2018 08:04 16,8 C 25,0 C 96 % 1003,8 hPa 0,0 l/m 5,8 km/h (2 Bft) NO 38 0 min 0,000 mm 0,5 UV-I 134 W/m 16,2 C 16,8 C 8,0 km/h (2 Bft) 96,23 %
13.06.2018 08:05 16,8 C 25,0 C 96 % 1003,8 hPa 0,0 l/m 4,8 km/h (1 Bft) N-NO 23 0 min 0,000 mm 0,2 UV-I 127 W/m 16,2 C 16,8 C 6,4 km/h (2 Bft) 100,00 %
13.06.2018 08:06 16,7 C 25,0 C 96 % 1003,8 hPa 0,0 l/m 4,8 km/h (1 Bft) NW 317 0 min 0,000 mm 0,0 UV-I 126 W/m 16,1 C 16,7 C 6,4 km/h (2 Bft) 95,83 %
13.06.2018 08:07 16,7 C 25,0 C 96 % 1003,8 hPa 0,0 l/m 4,4 km/h (1 Bft) N-NO 24 0 min 0,000 mm 0,3 UV-I 137 W/m 16,1 C 16,7 C 4,8 km/h (1 Bft) 100,00 %
13.06.2018 08:08 16,7 C 25,0 C 96 % 1003,8 hPa 0,0 l/m 4,5 km/h (1 Bft) N-NO 19 0 min 0,000 mm 0,6 UV-I 163 W/m 16,1 C 16,7 C 6,4 km/h (2 Bft) 96,30 %
13.06.2018 08:09 16,6 C 25,0 C 96 % 1003,7 hPa 0,0 l/m 6,8 km/h (2 Bft) N 9 0 min 0,000 mm 0,6 UV-I 170 W/m 16,0 C 16,4 C 11,3 km/h (2 Bft) 100,00 %
13.06.2018 08:10 16,6 C 25,0 C 96 % 1003,7 hPa 0,0 l/m 5,6 km/h (1 Bft) N-NO 17 0 min 0,000 mm 0,6 UV-I 180 W/m 16,0 C 16,6 C 8,0 km/h (2 Bft) 95,65 %
13.06.2018 08:11 16,6 C 25,0 C 96 % 1003,8 hPa 0,0 l/m 9,7 km/h (2 Bft) N-NO 17 0 min 0,000 mm 0,6 UV-I 195 W/m 16,0 C 15,0 C 17,7 km/h (3 Bft) 100,00 %
13.06.2018 08:12 16,6 C 25,0 C 96 % 1003,8 hPa 0,0 l/m 8,9 km/h (2 Bft) N-NW 339 0 min 0,000 mm 0,7 UV-I 215 W/m 16,0 C 15,4 C 12,9 km/h (3 Bft) 95,83 %
13.06.2018 08:14 16,6 C 25,0 C 96 % 1003,8 hPa 0,0 l/m 8,3 km/h (2 Bft) N 355 0 min 0,000 mm 0,7 UV-I 218 W/m 16,0 C 15,6 C 12,9 km/h (3 Bft) 97,87 %
13.06.2018 08:15 16,6 C 25,0 C 96 % 1003,8 hPa 0,0 l/m 6,2 km/h (2 Bft) N-NO 14 0 min 0,000 mm 0,6 UV-I 200 W/m 16,0 C 16,6 C 8,0 km/h (2 Bft) 96,15 %
13.06.2018 08:16 16,7 C 25,0 C 96 % 1003,8 hPa 0,0 l/m 6,8 km/h (2 Bft) N 10 0 min 0,000 mm 0,6 UV-I 182 W/m 16,1 C 16,5 C 12,9 km/h (3 Bft) 100,00 %
13.06.2018 08:17 16,7 C 25,0 C 95 % 1003,8 hPa 0,0 l/m 5,5 km/h (1 Bft) N-NO 12 0 min 0,000 mm 0,5 UV-I 172 W/m 15,9 C 16,7 C 8,0 km/h (2 Bft) 95,83 %
13.06.2018 08:18 16,7 C 25,0 C 95 % 1003,8 hPa 0,0 l/m 6,5 km/h (2 Bft) N-NW 344 0 min 0,000 mm 0,5 UV-I 172 W/m 15,9 C 16,7 C 9,7 km/h (2 Bft) 96,15 %
13.06.2018 08:19 16,7 C 25,0 C 95 % 1003,8 hPa 0,0 l/m 9,0 km/h (2 Bft) N-NO 23 0 min 0,000 mm 0,5 UV-I 161 W/m 15,9 C 15,4 C 12,9 km/h (3 Bft) 95,83 %
13.06.2018 08:20 16,7 C 25,0 C 95 % 1003,8 hPa 0,0 l/m 8,7 km/h (2 Bft) N 355 0 min 0,000 mm 0,5 UV-I 140 W/m 15,9 C 15,6 C 12,9 km/h (3 Bft) 100,00 %
13.06.2018 08:21 16,7 C 25,0 C 95 % 1003,8 hPa 0,0 l/m 7,2 km/h (2 Bft) N-NO 14 0 min 0,000 mm 0,0 UV-I 131 W/m 15,9 C 16,3 C 9,7 km/h (2 Bft) 93,33 %
13.06.2018 08:22 16,6 C 25,0 C 95 % 1003,8 hPa 0,0 l/m 9,6 km/h (2 Bft) N-NW 338 0 min 0,000 mm 0,0 UV-I 120 W/m 15,8 C 15,1 C 12,9 km/h (3 Bft) 100,00 %
13.06.2018 08:24 16,6 C 25,0 C 95 % 1003,8 hPa 0,0 l/m 8,6 km/h (2 Bft) N-NW 342 0 min 0,000 mm 0,2 UV-I 125 W/m 15,8 C 15,5 C 14,5 km/h (3 Bft) 100,00 %
13.06.2018 08:25 16,6 C 25,0 C 95 % 1003,8 hPa 0,0 l/m 6,1 km/h (2 Bft) N-NO 21 0 min 0,000 mm 0,5 UV-I 134 W/m 15,8 C 16,6 C 8,0 km/h (2 Bft) 100,00 %
13.06.2018 08:26 16,6 C 25,0 C 95 % 1003,9 hPa 0,0 l/m 6,1 km/h (2 Bft) N 5 0 min 0,000 mm 0,5 UV-I 125 W/m 15,8 C 16,6 C 8,0 km/h (2 Bft) 95,65 %
13.06.2018 08:27 16,6 C 25,0 C 95 % 1003,9 hPa 0,0 l/m 7,6 km/h (2 Bft) N-NW 338 0 min 0,000 mm 0,4 UV-I 124 W/m 15,8 C 16,0 C 9,7 km/h (2 Bft) 100,00 %
13.06.2018 08:28 16,6 C 25,0 C 96 % 1003,9 hPa 0,0 l/m 6,5 km/h (2 Bft) N-NW 346 0 min 0,000 mm 0,0 UV-I 115 W/m 16,0 C 16,6 C 12,9 km/h (3 Bft) 100,00 %
13.06.2018 08:29 16,5 C 25,0 C 95 % 1003,9 hPa 0,0 l/m 10,5 km/h (2 Bft) N-NO 16 0 min 0,000 mm 0,0 UV-I 107 W/m 15,7 C 14,6 C 14,5 km/h (3 Bft) 100,00 %
13.06.2018 08:30 16,5 C 25,0 C 95 % 1003,8 hPa 0,0 l/m 5,9 km/h (2 Bft) N 5 0 min 0,000 mm 0,0 UV-I 105 W/m 15,7 C 16,5 C 9,7 km/h (2 Bft) 100,00 %
13.06.2018 08:31 16,5 C 25,0 C 96 % 1003,8 hPa 0,0 l/m 4,2 km/h (1 Bft) N-NO 28 0 min 0,000 mm 0,0 UV-I 97 W/m 15,9 C 16,5 C 6,4 km/h (2 Bft) 100,00 %
13.06.2018 08:32 16,6 C 25,0 C 96 % 1003,9 hPa 0,0 l/m 4,3 km/h (1 Bft) N-NO 19 0 min 0,000 mm 0,0 UV-I 85 W/m 16,0 C 16,6 C 8,0 km/h (2 Bft) 95,65 %
13.06.2018 08:33 16,6 C 25,0 C 96 % 1003,9 hPa 0,0 l/m 5,6 km/h (1 Bft) N-NW 339 0 min 0,000 mm 0,0 UV-I 80 W/m 16,0 C 16,6 C 8,0 km/h (2 Bft) 100,00 %
13.06.2018 08:34 16,5 C 25,0 C 96 % 1003,9 hPa 0,0 l/m 7,3 km/h (2 Bft) N-NW 348 0 min 0,000 mm 0,0 UV-I 71 W/m 15,9 C 16,0 C 12,9 km/h (3 Bft) 100,00 %
13.06.2018 08:35 16,4 C 25,0 C 95 % 1003,9 hPa 0,0 l/m 7,0 km/h (2 Bft) N 9 0 min 0,000 mm 0,0 UV-I 71 W/m 15,6 C 16,1 C 14,5 km/h (3 Bft) 98,08 %
13.06.2018 08:36 16,4 C 25,0 C 95 % 1003,9 hPa 0,0 l/m 4,8 km/h (1 Bft) N-NO 27 0 min 0,000 mm 0,0 UV-I 70 W/m 15,6 C 16,4 C 8,0 km/h (2 Bft) 100,00 %
13.06.2018 08:37 16,4 C 25,0 C 95 % 1003,9 hPa 0,0 l/m 8,3 km/h (2 Bft) N-NW 348 0 min 0,000 mm 0,0 UV-I 64 W/m 15,6 C 15,4 C 12,9 km/h (3 Bft) 100,00 %
13.06.2018 08:38 16,4 C 25,0 C 95 % 1003,9 hPa 0,0 l/m 8,9 km/h (2 Bft) N 355 0 min 0,000 mm 0,0 UV-I 66 W/m 15,6 C 15,1 C 12,9 km/h (3 Bft) 100,00 %
13.06.2018 08:39 16,4 C 25,0 C 95 % 1004,0 hPa 0,0 l/m 7,7 km/h (2 Bft) NO 40 0 min 0,000 mm 0,0 UV-I 65 W/m 15,6 C 15,7 C 11,3 km/h (2 Bft) 92,86 %
13.06.2018 08:40 16,4 C 25,0 C 95 % 1004,0 hPa 0,0 l/m 9,3 km/h (2 Bft) N-NO 19 0 min 0,000 mm 0,0 UV-I 65 W/m 15,6 C 15,0 C 12,9 km/h (3 Bft) 96,30 %
13.06.2018 08:41 16,3 C 25,0 C 95 % 1004,0 hPa 0,0 l/m 6,1 km/h (2 Bft) N-NO 24 0 min 0,000 mm 0,0 UV-I 62 W/m 15,5 C 16,3 C 8,0 km/h (2 Bft) 100,00 %
13.06.2018 08:42 16,3 C 25,0 C 95 % 1004,0 hPa 0,0 l/m 6,3 km/h (2 Bft) N 355 0 min 0,000 mm 0,0 UV-I 57 W/m 15,5 C 16,3 C 8,0 km/h (2 Bft) 100,00 %
13.06.2018 08:43 16,3 C 25,0 C 95 % 1003,9 hPa 0,0 l/m 6,4 km/h (2 Bft) N-NO 28 0 min 0,000 mm 0,0 UV-I 56 W/m 15,5 C 16,3 C 8,0 km/h (2 Bft) 95,65 %
13.06.2018 08:44 16,2 C 25,0 C 95 % 1003,9 hPa 0,0 l/m 5,9 km/h (2 Bft) NO 39 0 min 0,000 mm 0,0 UV-I 58 W/m 15,4 C 16,2 C 8,0 km/h (2 Bft) 100,00 %
13.06.2018 08:45 16,2 C 25,0 C 96 % 1003,9 hPa 0,0 l/m 5,8 km/h (2 Bft) N-NO 25 0 min 0,000 mm 0,0 UV-I 66 W/m 15,6 C 16,2 C 8,0 km/h (2 Bft) 92,86 %
13.06.2018 08:46 16,2 C 25,0 C 96 % 1003,9 hPa 0,0 l/m 7,5 km/h (2 Bft) NW 323 0 min 0,000 mm 0,0 UV-I 72 W/m 15,6 C 15,6 C 9,7 km/h (2 Bft) 100,00 %
13.06.2018 08:48 16,3 C 25,0 C 96 % 1003,9 hPa 0,0 l/m 5,5 km/h (1 Bft) N-NO 33 0 min 0,000 mm 0,0 UV-I 71 W/m 15,7 C 16,3 C 8,0 km/h (2 Bft) 97,73 %
13.06.2018 08:49 16,3 C 25,0 C 96 % 1003,9 hPa 0,0 l/m 6,2 km/h (2 Bft) N 9 0 min 0,000 mm 0,0 UV-I 66 W/m 15,7 C 16,3 C 9,7 km/h (2 Bft) 96,15 %
13.06.2018 08:50 16,2 C 25,0 C 96 % 1003,9 hPa 0,0 l/m 6,6 km/h (2 Bft) N 350 0 min 0,000 mm 0,0 UV-I 73 W/m 15,6 C 16,1 C 11,3 km/h (2 Bft) 95,83 %
13.06.2018 08:51 16,2 C 25,0 C 96 % 1004,0 hPa 0,0 l/m 7,7 km/h (2 Bft) N 351 0 min 0,000 mm 0,0 UV-I 71 W/m 15,6 C 15,5 C 14,5 km/h (3 Bft) 100,00 %
13.06.2018 08:52 16,2 C 25,0 C 96 % 1003,9 hPa 0,0 l/m 8,4 km/h (2 Bft) N 5 0 min 0,000 mm 0,0 UV-I 76 W/m 15,6 C 15,2 C 12,9 km/h (3 Bft) 96,30 %
13.06.2018 08:53 16,2 C 25,0 C 96 % 1003,9 hPa 0,0 l/m 11,9 km/h (2 Bft) N 355 0 min 0,000 mm 0,0 UV-I 78 W/m 15,6 C 13,7 C 14,5 km/h (3 Bft) 100,00 %
13.06.2018 08:54 16,2 C 25,0 C 96 % 1003,9 hPa 0,0 l/m 11,9 km/h (2 Bft) N-NO 19 0 min 0,000 mm 0,0 UV-I 82 W/m 15,6 C 13,7 C 16,1 km/h (3 Bft) 96,55 %
13.06.2018 08:55 16,2 C 25,0 C 96 % 1003,9 hPa 0,0 l/m 11,3 km/h (2 Bft) N-NO 25 0 min 0,000 mm 0,0 UV-I 79 W/m 15,6 C 13,9 C 14,5 km/h (3 Bft) 100,00 %
13.06.2018 08:56 16,2 C 25,0 C 96 % 1003,9 hPa 0,0 l/m 7,2 km/h (2 Bft) N 355 0 min 0,000 mm 0,0 UV-I 83 W/m 15,6 C 15,8 C 9,7 km/h (2 Bft) 96,15 %
13.06.2018 08:57 16,2 C 25,0 C 96 % 1003,9 hPa 0,0 l/m 6,0 km/h (2 Bft) N 11 0 min 0,000 mm 0,0 UV-I 86 W/m 15,6 C 16,2 C 8,0 km/h (2 Bft) 95,83 %
13.06.2018 08:58 16,2 C 25,0 C 96 % 1003,9 hPa 0,0 l/m 10,0 km/h (2 Bft) N-NO 22 0 min 0,000 mm 0,0 UV-I 82 W/m 15,6 C 14,4 C 14,5 km/h (3 Bft) 100,00 %
13.06.2018 08:59 16,2 C 25,0 C 96 % 1003,9 hPa 0,0 l/m 8,7 km/h (2 Bft) N-NW 340 0 min 0,000 mm 0,0 UV-I 72 W/m 15,6 C 15,0 C 11,3 km/h (2 Bft) 100,00 %
13.06.2018 09:00 16,2 C 25,0 C 96 % 1003,9 hPa 0,0 l/m 6,4 km/h (2 Bft) N 5 0 min 0,050 mm 0,0 UV-I 69 W/m 15,6 C 16,2 C 11,3 km/h (2 Bft) 96,15 %
13.06.2018 09:01 16,2 C 25,0 C 96 % 1003,9 hPa 0,0 l/m 11,6 km/h (2 Bft) N 5 0 min 0,000 mm 0,0 UV-I 74 W/m 15,6 C 13,8 C 14,5 km/h (3 Bft) 96,30 %
13.06.2018 09:02 16,2 C 25,0 C 96 % 1004,0 hPa 0,0 l/m 8,7 km/h (2 Bft) N-NO 28 0 min 0,000 mm 0,0 UV-I 73 W/m 15,6 C 15,0 C 12,9 km/h (3 Bft) 95,65 %
13.06.2018 09:03 16,2 C 25,0 C 96 % 1004,0 hPa 0,0 l/m 9,3 km/h (2 Bft) N-NW 333 0 min 0,000 mm 0,0 UV-I 72 W/m 15,6 C 14,7 C 12,9 km/h (3 Bft) 96,30 %
13.06.2018 09:04 16,2 C 25,0 C 96 % 1004,0 hPa 0,0 l/m 9,6 km/h (2 Bft) N-NO 29 0 min 0,000 mm 0,0 UV-I 72 W/m 15,6 C 14,6 C 14,5 km/h (3 Bft) 95,65 %
13.06.2018 09:05 16,2 C 25,0 C 96 % 1004,0 hPa 0,0 l/m 11,2 km/h (2 Bft) N 355 0 min 0,000 mm 0,0 UV-I 69 W/m 15,6 C 14,0 C 14,5 km/h (3 Bft) 91,67 %
13.06.2018 09:06 16,1 C 25,0 C 96 % 1004,0 hPa 0,0 l/m 10,8 km/h (2 Bft) N-NW 345 0 min 0,000 mm 0,0 UV-I 73 W/m 15,5 C 14,0 C 16,1 km/h (3 Bft) 97,14 %
13.06.2018 09:07 16,1 C 25,0 C 96 % 1003,9 hPa 0,0 l/m 11,2 km/h (2 Bft) N 11 0 min 0,000 mm 0,0 UV-I 66 W/m 15,5 C 13,8 C 16,1 km/h (3 Bft) 100,00 %
13.06.2018 09:08 16,1 C 25,0 C 96 % 1003,9 hPa 0,0 l/m 9,9 km/h (2 Bft) N-NO 20 0 min 0,000 mm 0,0 UV-I 56 W/m 15,5 C 14,4 C 12,9 km/h (3 Bft) 91,30 %
13.06.2018 09:09 16,1 C 25,0 C 96 % 1003,9 hPa 0,0 l/m 6,8 km/h (2 Bft) N 5 0 min 0,000 mm 0,0 UV-I 55 W/m 15,5 C 15,9 C 11,3 km/h (2 Bft) 100,00 %
13.06.2018 09:10 16,0 C 25,0 C 96 % 1004,0 hPa 0,0 l/m 8,2 km/h (2 Bft) N 350 0 min 0,000 mm 0,0 UV-I 57 W/m 15,4 C 15,1 C 9,7 km/h (2 Bft) 95,65 %
13.06.2018 09:11 16,0 C 25,0 C 96 % 1004,0 hPa 0,0 l/m 12,3 km/h (3 Bft) N 350 0 min 0,000 mm 0,0 UV-I 58 W/m 15,4 C 13,3 C 17,7 km/h (3 Bft) 100,00 %
13.06.2018 09:12 15,9 C 25,0 C 96 % 1004,0 hPa 0,0 l/m 8,5 km/h (2 Bft) W-NW 301 0 min 0,000 mm 0,0 UV-I 69 W/m 15,3 C 14,8 C 12,9 km/h (3 Bft) 96,30 %
13.06.2018 09:13 15,9 C 25,0 C 96 % 1004,0 hPa 0,0 l/m 9,9 km/h (2 Bft) N-NO 12 0 min 0,000 mm 0,0 UV-I 70 W/m 15,3 C 14,2 C 17,7 km/h (3 Bft) 100,00 %
13.06.2018 09:14 15,9 C 25,0 C 96 % 1004,1 hPa 0,0 l/m 5,8 km/h (2 Bft) N-NW 341 0 min 0,000 mm 0,0 UV-I 74 W/m 15,3 C 15,9 C 8,0 km/h (2 Bft) 100,00 %
13.06.2018 09:15 15,9 C 25,0 C 96 % 1004,0 hPa 0,0 l/m 8,5 km/h (2 Bft) N 11 0 min 0,000 mm 0,0 UV-I 74 W/m 15,3 C 14,8 C 16,1 km/h (3 Bft) 100,00 %
13.06.2018 09:16 15,9 C 25,0 C 96 % 1004,1 hPa 0,0 l/m 12,5 km/h (3 Bft) N-NW 339 0 min 0,000 mm 0,0 UV-I 73 W/m 15,3 C 13,1 C 17,7 km/h (3 Bft) 100,00 %
13.06.2018 09:18 15,8 C 25,0 C 96 % 1004,1 hPa 0,0 l/m 11,0 km/h (2 Bft) N 5 0 min 0,000 mm 0,0 UV-I 70 W/m 15,2 C 13,6 C 17,7 km/h (3 Bft) 96,23 %
13.06.2018 09:19 15,8 C 25,0 C 96 % 1004,0 hPa 0,0 l/m 12,3 km/h (3 Bft) N 11 0 min 0,000 mm 0,0 UV-I 69 W/m 15,2 C 13,1 C 20,9 km/h (4 Bft) 90,91 %
13.06.2018 09:20 15,7 C 25,0 C 96 % 1004,0 hPa 0,0 l/m 11,2 km/h (2 Bft) N 9 0 min 0,000 mm 0,0 UV-I 66 W/m 15,1 C 13,4 C 14,5 km/h (3 Bft) 100,00 %
13.06.2018 09:21 15,7 C 25,0 C 96 % 1004,1 hPa 0,0 l/m 13,2 km/h (3 Bft) N-NO 15 0 min 0,000 mm 0,0 UV-I 63 W/m 15,1 C 12,6 C 17,7 km/h (3 Bft) 100,00 %
13.06.2018 09:22 15,7 C 25,0 C 96 % 1004,1 hPa 0,0 l/m 12,5 km/h (3 Bft) N 11 0 min 0,000 mm 0,0 UV-I 62 W/m 15,1 C 12,9 C 17,7 km/h (3 Bft) 100,00 %
13.06.2018 09:23 15,7 C 25,0 C 96 % 1004,1 hPa 0,0 l/m 10,7 km/h (2 Bft) N-NO 26 0 min 0,000 mm 0,0 UV-I 63 W/m 15,1 C 13,6 C 12,9 km/h (3 Bft) 100,00 %
13.06.2018 09:24 15,6 C 25,0 C 96 % 1004,1 hPa 0,0 l/m 9,8 km/h (2 Bft) NO 36 0 min 0,000 mm 0,0 UV-I 62 W/m 15,0 C 13,9 C 14,5 km/h (3 Bft) 100,00 %
13.06.2018 09:25 15,6 C 25,0 C 96 % 1004,1 hPa 0,0 l/m 14,1 km/h (3 Bft) N 11 0 min 0,000 mm 0,0 UV-I 60 W/m 15,0 C 12,2 C 19,3 km/h (3 Bft) 100,00 %
13.06.2018 09:26 15,6 C 25,0 C 96 % 1004,1 hPa 0,0 l/m 16,8 km/h (3 Bft) N-NO 26 0 min 0,000 mm 0,0 UV-I 61 W/m 15,0 C 11,4 C 20,9 km/h (4 Bft) 100,00 %
13.06.2018 09:27 15,6 C 25,0 C 96 % 1004,1 hPa 0,0 l/m 11,9 km/h (2 Bft) N-NW 340 0 min 0,000 mm 0,0 UV-I 63 W/m 15,0 C 13,0 C 14,5 km/h (3 Bft) 100,00 %
13.06.2018 09:28 15,6 C 25,0 C 96 % 1004,1 hPa 0,0 l/m 11,9 km/h (2 Bft) N-NO 26 0 min 0,000 mm 0,0 UV-I 68 W/m 15,0 C 13,0 C 16,1 km/h (3 Bft) 100,00 %
13.06.2018 09:29 15,6 C 25,0 C 96 % 1004,1 hPa 0,0 l/m 10,9 km/h (2 Bft) N-NO 25 0 min 0,000 mm 0,0 UV-I 67 W/m 15,0 C 13,4 C 14,5 km/h (3 Bft) 100,00 %
13.06.2018 09:30 15,6 C 25,0 C 96 % 1004,1 hPa 0,0 l/m 10,2 km/h (2 Bft) N 360 0 min 0,000 mm 0,0 UV-I 67 W/m 15,0 C 13,7 C 12,9 km/h (3 Bft) 100,00 %
13.06.2018 09:31 15,5 C 25,0 C 96 % 1004,2 hPa 0,0 l/m 13,3 km/h (3 Bft) NO 38 0 min 0,000 mm 0,0 UV-I 66 W/m 14,9 C 12,4 C 17,7 km/h (3 Bft) 100,00 %
13.06.2018 09:32 15,5 C 25,0 C 96 % 1004,2 hPa 0,0 l/m 14,1 km/h (3 Bft) N-NO 19 0 min 0,000 mm 0,0 UV-I 66 W/m 14,9 C 12,1 C 17,7 km/h (3 Bft) 100,00 %
13.06.2018 09:33 15,5 C 25,0 C 96 % 1004,2 hPa 0,0 l/m 11,3 km/h (2 Bft) N-NO 22 0 min 0,000 mm 0,0 UV-I 69 W/m 14,9 C 13,1 C 16,1 km/h (3 Bft) 100,00 %
13.06.2018 09:34 15,4 C 25,0 C 96 % 1004,2 hPa 0,0 l/m 14,2 km/h (3 Bft) N-NW 336 0 min 0,000 mm 0,0 UV-I 70 W/m 14,8 C 11,9 C 19,3 km/h (3 Bft) 100,00 %
13.06.2018 09:35 15,4 C 25,0 C 96 % 1004,2 hPa 0,0 l/m 12,4 km/h (3 Bft) N 355 0 min 0,000 mm 0,0 UV-I 70 W/m 14,8 C 12,6 C 22,5 km/h (4 Bft) 100,00 %
13.06.2018 09:36 15,4 C 25,0 C 96 % 1004,2 hPa 0,0 l/m 18,5 km/h (3 Bft) N-NO 13 0 min 0,000 mm 0,0 UV-I 70 W/m 14,8 C 10,7 C 22,5 km/h (4 Bft) 100,00 %
13.06.2018 09:37 15,4 C 25,0 C 96 % 1004,2 hPa 0,0 l/m 14,8 km/h (3 Bft) N 11 0 min 0,000 mm 0,1 UV-I 74 W/m 14,8 C 11,7 C 20,9 km/h (4 Bft) 100,00 %
13.06.2018 09:38 15,3 C 25,0 C 96 % 1004,2 hPa 0,0 l/m 15,9 km/h (3 Bft) N 350 0 min 0,000 mm 0,5 UV-I 82 W/m 14,7 C 11,3 C 20,9 km/h (4 Bft) 100,00 %
13.06.2018 09:39 15,3 C 25,0 C 95 % 1004,2 hPa 0,0 l/m 10,3 km/h (2 Bft) N-NO 15 0 min 0,000 mm 0,5 UV-I 85 W/m 14,5 C 13,3 C 16,1 km/h (3 Bft) 100,00 %
13.06.2018 09:40 15,3 C 25,0 C 95 % 1004,2 hPa 0,0 l/m 9,6 km/h (2 Bft) N 9 0 min 0,000 mm 0,5 UV-I 87 W/m 14,5 C 13,6 C 12,9 km/h (3 Bft) 100,00 %
13.06.2018 09:41 15,3 C 25,0 C 96 % 1004,2 hPa 0,0 l/m 10,1 km/h (2 Bft) N-NO 30 0 min 0,000 mm 0,5 UV-I 90 W/m 14,7 C 13,4 C 16,1 km/h (3 Bft) 100,00 %
13.06.2018 09:42 15,3 C 25,0 C 96 % 1004,2 hPa 0,0 l/m 12,3 km/h (3 Bft) N 11 0 min 0,000 mm 0,5 UV-I 91 W/m 14,7 C 12,5 C 16,1 km/h (3 Bft) 100,00 %
13.06.2018 09:43 15,3 C 25,0 C 96 % 1004,3 hPa 0,0 l/m 10,8 km/h (2 Bft) N-NO 28 0 min 0,000 mm 0,5 UV-I 89 W/m 14,7 C 13,1 C 16,1 km/h (3 Bft) 100,00 %
13.06.2018 09:44 15,3 C 25,0 C 96 % 1004,3 hPa 0,0 l/m 13,9 km/h (3 Bft) N-NO 13 0 min 0,000 mm 0,5 UV-I 87 W/m 14,7 C 11,9 C 17,7 km/h (3 Bft) 100,00 %
13.06.2018 09:45 15,4 C 25,0 C 96 % 1004,3 hPa 0,0 l/m 12,6 km/h (3 Bft) N-NO 17 0 min 0,000 mm 0,5 UV-I 86 W/m 14,8 C 12,5 C 16,1 km/h (3 Bft) 96,30 %
13.06.2018 09:46 15,3 C 25,0 C 95 % 1004,3 hPa 0,0 l/m 10,5 km/h (2 Bft) N-NO 23 0 min 0,000 mm 0,2 UV-I 82 W/m 14,5 C 13,2 C 12,9 km/h (3 Bft) 100,00 %
13.06.2018 09:47 15,3 C 25,0 C 95 % 1004,3 hPa 0,0 l/m 10,9 km/h (2 Bft) N 11 0 min 0,000 mm 0,4 UV-I 81 W/m 14,5 C 13,1 C 19,3 km/h (3 Bft) 100,00 %
13.06.2018 09:48 15,3 C 25,0 C 95 % 1004,3 hPa 0,0 l/m 11,3 km/h (2 Bft) N 11 0 min 0,000 mm 0,5 UV-I 92 W/m 14,5 C 12,9 C 16,1 km/h (3 Bft) 100,00 %
13.06.2018 09:49 15,3 C 25,0 C 95 % 1004,3 hPa 0,0 l/m 8,1 km/h (2 Bft) N 5 0 min 0,000 mm 0,6 UV-I 99 W/m 14,5 C 14,4 C 14,5 km/h (3 Bft) 100,00 %
13.06.2018 09:50 15,3 C 25,0 C 95 % 1004,3 hPa 0,0 l/m 8,5 km/h (2 Bft) N-NO 17 0 min 0,000 mm 0,6 UV-I 103 W/m 14,5 C 14,2 C 17,7 km/h (3 Bft) 100,00 %
13.06.2018 09:51 15,4 C 25,0 C 96 % 1004,3 hPa 0,0 l/m 17,4 km/h (3 Bft) N-NO 18 0 min 0,000 mm 0,6 UV-I 105 W/m 14,8 C 11,0 C 22,5 km/h (4 Bft) 100,00 %
13.06.2018 09:52 15,3 C 25,0 C 95 % 1004,3 hPa 0,0 l/m 16,4 km/h (3 Bft) NO 34 0 min 0,000 mm 0,6 UV-I 108 W/m 14,5 C 11,1 C 20,9 km/h (4 Bft) 100,00 %
13.06.2018 09:53 15,3 C 25,0 C 95 % 1004,3 hPa 0,0 l/m 18,3 km/h (3 Bft) N-NO 15 0 min 0,000 mm 0,7 UV-I 113 W/m 14,5 C 10,6 C 22,5 km/h (4 Bft) 96,15 %
13.06.2018 09:54 15,3 C 25,0 C 95 % 1004,4 hPa 0,0 l/m 12,8 km/h (3 Bft) N 10 0 min 0,000 mm 0,7 UV-I 116 W/m 14,5 C 12,3 C 17,7 km/h (3 Bft) 100,00 %
13.06.2018 09:55 15,3 C 25,0 C 95 % 1004,4 hPa 0,0 l/m 10,0 km/h (2 Bft) N-NO 32 0 min 0,000 mm 0,7 UV-I 119 W/m 14,5 C 13,4 C 12,9 km/h (3 Bft) 100,00 %
13.06.2018 09:56 15,3 C 25,0 C 95 % 1004,4 hPa 0,0 l/m 12,0 km/h (2 Bft) N-NO 28 0 min 0,000 mm 0,7 UV-I 123 W/m 14,5 C 12,6 C 16,1 km/h (3 Bft) 100,00 %
13.06.2018 09:57 15,3 C 25,0 C 95 % 1004,4 hPa 0,0 l/m 14,7 km/h (3 Bft) N 5 0 min 0,000 mm 0,7 UV-I 127 W/m 14,5 C 11,7 C 19,3 km/h (3 Bft) 100,00 %
13.06.2018 09:58 15,3 C 25,0 C 95 % 1004,4 hPa 0,0 l/m 14,1 km/h (3 Bft) N-NO 20 0 min 0,000 mm 0,8 UV-I 131 W/m 14,5 C 11,9 C 17,7 km/h (3 Bft) 100,00 %
13.06.2018 09:59 15,4 C 25,0 C 96 % 1004,4 hPa 0,0 l/m 18,0 km/h (3 Bft) N-NO 18 0 min 0,000 mm 0,8 UV-I 135 W/m 14,8 C 10,8 C 20,9 km/h (4 Bft) 100,00 %
13.06.2018 10:00 15,4 C 25,0 C 96 % 1004,4 hPa 0,0 l/m 13,5 km/h (3 Bft) N-NO 21 0 min 0,051 mm 0,8 UV-I 140 W/m 14,8 C 12,2 C 17,7 km/h (3 Bft) 100,00 %
13.06.2018 10:01 15,4 C 25,0 C 96 % 1004,4 hPa 0,0 l/m 13,8 km/h (3 Bft) N-NO 31 0 min 0,000 mm 0,8 UV-I 146 W/m 14,8 C 12,1 C 17,7 km/h (3 Bft) 100,00 %
13.06.2018 10:02 15,4 C 25,0 C 96 % 1004,4 hPa 0,0 l/m 13,7 km/h (3 Bft) N-NO 13 0 min 0,000 mm 0,9 UV-I 149 W/m 14,8 C 12,1 C 17,7 km/h (3 Bft) 100,00 %
13.06.2018 10:03 15,4 C 25,0 C 96 % 1004,4 hPa 0,0 l/m 11,5 km/h (2 Bft) N-NO 32 0 min 0,000 mm 0,9 UV-I 148 W/m 14,8 C 12,9 C 14,5 km/h (3 Bft) 100,00 %
13.06.2018 10:04 15,5 C 25,0 C 96 % 1004,4 hPa 0,0 l/m 10,2 km/h (2 Bft) N 5 0 min 0,000 mm 0,8 UV-I 145 W/m 14,9 C 13,6 C 14,5 km/h (3 Bft) 100,00 %
13.06.2018 10:05 15,6 C 25,0 C 96 % 1004,4 hPa 0,0 l/m 9,7 km/h (2 Bft) N-NW 348 0 min 0,000 mm 0,9 UV-I 144 W/m 15,0 C 13,9 C 14,5 km/h (3 Bft) 100,00 %
13.06.2018 10:06 15,6 C 25,0 C 96 % 1004,4 hPa 0,0 l/m 11,7 km/h (2 Bft) N-NO 24 0 min 0,000 mm 0,9 UV-I 141 W/m 15,0 C 13,1 C 16,1 km/h (3 Bft) 100,00 %
13.06.2018 10:07 15,6 C 25,0 C 96 % 1004,4 hPa 0,0 l/m 10,0 km/h (2 Bft) N-NO 21 0 min 0,000 mm 0,8 UV-I 137 W/m 15,0 C 13,8 C 14,5 km/h (3 Bft) 95,65 %
13.06.2018 10:08 15,6 C 25,0 C 96 % 1004,4 hPa 0,0 l/m 8,9 km/h (2 Bft) N 9 0 min 0,000 mm 0,8 UV-I 133 W/m 15,0 C 14,3 C 12,9 km/h (3 Bft) 100,00 %
13.06.2018 10:09 15,6 C 25,0 C 96 % 1004,4 hPa 0,0 l/m 9,3 km/h (2 Bft) N 11 0 min 0,000 mm 0,8 UV-I 129 W/m 15,0 C 14,1 C 14,5 km/h (3 Bft) 100,00 %
13.06.2018 10:10 15,6 C 25,0 C 96 % 1004,4 hPa 0,0 l/m 8,0 km/h (2 Bft) N-NO 17 0 min 0,000 mm 0,7 UV-I 116 W/m 15,0 C 14,7 C 11,3 km/h (2 Bft) 100,00 %
13.06.2018 10:11 15,6 C 25,0 C 96 % 1004,4 hPa 0,0 l/m 8,7 km/h (2 Bft) N 9 0 min 0,000 mm 0,7 UV-I 113 W/m 15,0 C 14,4 C 16,1 km/h (3 Bft) 100,00 %
13.06.2018 10:12 15,6 C 25,0 C 96 % 1004,4 hPa 0,0 l/m 12,4 km/h (3 Bft) N 360 0 min 0,000 mm 0,7 UV-I 113 W/m 15,0 C 12,8 C 17,7 km/h (3 Bft) 100,00 %
13.06.2018 10:13 15,6 C 25,0 C 96 % 1004,5 hPa 0,0 l/m 9,3 km/h (2 Bft) N 5 0 min 0,000 mm 0,8 UV-I 124 W/m 15,0 C 14,1 C 12,9 km/h (3 Bft) 100,00 %
13.06.2018 10:14 15,7 C 25,0 C 96 % 1004,5 hPa 0,0 l/m 10,8 km/h (2 Bft) N-NO 31 0 min 0,000 mm 0,8 UV-I 122 W/m 15,1 C 13,6 C 14,5 km/h (3 Bft) 100,00 %
13.06.2018 10:15 15,7 C 25,0 C 96 % 1004,4 hPa 0,0 l/m 10,8 km/h (2 Bft) N-NO 26 0 min 0,000 mm 0,8 UV-I 118 W/m 15,1 C 13,6 C 14,5 km/h (3 Bft) 100,00 %
13.06.2018 10:16 15,6 C 25,0 C 96 % 1004,4 hPa 0,0 l/m 9,1 km/h (2 Bft) N 355 0 min 0,000 mm 0,7 UV-I 114 W/m 15,0 C 14,2 C 12,9 km/h (3 Bft) 100,00 %
13.06.2018 10:17 15,6 C 25,0 C 96 % 1004,5 hPa 0,0 l/m 11,9 km/h (2 Bft) N 355 0 min 0,000 mm 0,7 UV-I 108 W/m 15,0 C 13,0 C 17,7 km/h (3 Bft) 100,00 %
13.06.2018 10:18 15,6 C 25,0 C 96 % 1004,5 hPa 0,0 l/m 14,7 km/h (3 Bft) N-NO 15 0 min 0,000 mm 0,7 UV-I 112 W/m 15,0 C 12,0 C 17,7 km/h (3 Bft) 92,86 %
13.06.2018 10:19 15,6 C 25,0 C 96 % 1004,4 hPa 0,0 l/m 10,5 km/h (2 Bft) N-NO 30 0 min 0,000 mm 0,7 UV-I 108 W/m 15,0 C 13,6 C 14,5 km/h (3 Bft) 100,00 %
13.06.2018 10:20 15,6 C 25,0 C 96 % 1004,5 hPa 0,0 l/m 8,1 km/h (2 Bft) N-NO 19 0 min 0,000 mm 0,7 UV-I 102 W/m 15,0 C 14,7 C 11,3 km/h (2 Bft) 100,00 %
13.06.2018 10:21 15,6 C 25,0 C 96 % 1004,5 hPa 0,0 l/m 15,9 km/h (3 Bft) N-NO 32 0 min 0,000 mm 0,6 UV-I 100 W/m 15,0 C 11,6 C 20,9 km/h (4 Bft) 100,00 %
13.06.2018 10:23 15,4 C 25,0 C 95 % 1004,5 hPa 0,0 l/m 14,3 km/h (3 Bft) N 5 0 min 0,000 mm 0,6 UV-I 91 W/m 14,6 C 11,9 C 20,9 km/h (4 Bft) 100,00 %
13.06.2018 10:24 15,4 C 25,0 C 95 % 1004,5 hPa 0,0 l/m 13,2 km/h (3 Bft) N 5 0 min 0,000 mm 0,6 UV-I 93 W/m 14,6 C 12,3 C 19,3 km/h (3 Bft) 100,00 %
13.06.2018 10:25 15,5 C 25,0 C 96 % 1004,5 hPa 0,0 l/m 16,3 km/h (3 Bft) N 351 0 min 0,000 mm 0,6 UV-I 97 W/m 14,9 C 11,4 C 22,5 km/h (4 Bft) 100,00 %
13.06.2018 10:26 15,4 C 25,0 C 96 % 1004,5 hPa 0,0 l/m 14,9 km/h (3 Bft) N-NO 23 0 min 0,000 mm 0,6 UV-I 93 W/m 14,8 C 11,7 C 17,7 km/h (3 Bft) 100,00 %
13.06.2018 10:27 15,4 C 25,0 C 95 % 1004,5 hPa 0,0 l/m 15,5 km/h (3 Bft) N 5 0 min 0,000 mm 0,6 UV-I 93 W/m 14,6 C 11,5 C 17,7 km/h (3 Bft) 100,00 %
13.06.2018 10:28 15,4 C 25,0 C 95 % 1004,5 hPa 0,0 l/m 10,9 km/h (2 Bft) N-NW 346 0 min 0,000 mm 0,6 UV-I 92 W/m 14,6 C 13,2 C 14,5 km/h (3 Bft) 100,00 %
13.06.2018 10:29 15,4 C 25,0 C 95 % 1004,6 hPa 0,0 l/m 9,4 km/h (2 Bft) N-NO 15 0 min 0,000 mm 0,7 UV-I 100 W/m 14,6 C 13,8 C 14,5 km/h (3 Bft) 100,00 %
13.06.2018 10:30 15,4 C 25,0 C 95 % 1004,6 hPa 0,0 l/m 9,5 km/h (2 Bft) N-NO 16 0 min 0,000 mm 0,7 UV-I 100 W/m 14,6 C 13,8 C 16,1 km/h (3 Bft) 100,00 %
13.06.2018 10:31 15,4 C 25,0 C 95 % 1004,6 hPa 0,0 l/m 14,9 km/h (3 Bft) N 11 0 min 0,000 mm 0,7 UV-I 107 W/m 14,6 C 11,7 C 17,7 km/h (3 Bft) 100,00 %
13.06.2018 10:32 15,4 C 25,0 C 95 % 1004,6 hPa 0,0 l/m 13,0 km/h (3 Bft) N 355 0 min 0,000 mm 0,8 UV-I 113 W/m 14,6 C 12,4 C 16,1 km/h (3 Bft) 100,00 %
13.06.2018 10:33 15,4 C 25,0 C 95 % 1004,6 hPa 0,0 l/m 9,8 km/h (2 Bft) N 11 0 min 0,000 mm 0,7 UV-I 110 W/m 14,6 C 13,6 C 14,5 km/h (3 Bft) 95,65 %
13.06.2018 10:34 15,4 C 25,0 C 95 % 1004,6 hPa 0,0 l/m 8,5 km/h (2 Bft) N-NO 31 0 min 0,000 mm 0,6 UV-I 98 W/m 14,6 C 14,3 C 11,3 km/h (2 Bft) 95,83 %
13.06.2018 10:35 15,4 C 25,0 C 95 % 1004,6 hPa 0,0 l/m 10,7 km/h (2 Bft) N 351 0 min 0,000 mm 0,6 UV-I 90 W/m 14,6 C 13,3 C 14,5 km/h (3 Bft) 100,00 %
13.06.2018 10:36 15,4 C 25,0 C 95 % 1004,7 hPa 0,0 l/m 6,6 km/h (2 Bft) NO 47 0 min 0,000 mm 0,6 UV-I 86 W/m 14,6 C 15,3 C 9,7 km/h (2 Bft) 95,83 %
13.06.2018 10:37 15,4 C 25,0 C 95 % 1004,7 hPa 0,0 l/m 5,5 km/h (1 Bft) NO 38 0 min 0,000 mm 0,5 UV-I 78 W/m 14,6 C 15,4 C 8,0 km/h (2 Bft) 100,00 %
13.06.2018 10:38 15,5 C 25,0 C 96 % 1004,7 hPa 0,0 l/m 9,1 km/h (2 Bft) N-NO 31 0 min 0,000 mm 0,5 UV-I 79 W/m 14,9 C 14,1 C 12,9 km/h (3 Bft) 96,30 %
13.06.2018 10:39 15,5 C 25,0 C 95 % 1004,7 hPa 0,0 l/m 10,7 km/h (2 Bft) NO 48 0 min 0,000 mm 0,6 UV-I 86 W/m 14,7 C 13,4 C 14,5 km/h (3 Bft) 100,00 %
13.06.2018 10:40 15,4 C 25,0 C 95 % 1004,7 hPa 0,0 l/m 11,7 km/h (2 Bft) N-NO 14 0 min 0,000 mm 0,6 UV-I 86 W/m 14,6 C 12,8 C 16,1 km/h (3 Bft) 96,97 %
13.06.2018 10:41 15,4 C 25,0 C 95 % 1004,7 hPa 0,0 l/m 13,0 km/h (3 Bft) N-NW 336 0 min 0,000 mm 0,5 UV-I 82 W/m 14,6 C 12,4 C 14,5 km/h (3 Bft) 96,15 %
13.06.2018 10:42 15,4 C 25,0 C 95 % 1004,7 hPa 0,0 l/m 8,5 km/h (2 Bft) N 11 0 min 0,000 mm 0,5 UV-I 80 W/m 14,6 C 14,3 C 11,3 km/h (2 Bft) 100,00 %
13.06.2018 10:43 15,4 C 25,0 C 95 % 1004,7 hPa 0,0 l/m 8,8 km/h (2 Bft) N-NO 19 0 min 0,000 mm 0,5 UV-I 79 W/m 14,6 C 14,1 C 12,9 km/h (3 Bft) 96,15 %
13.06.2018 10:44 15,4 C 25,0 C 95 % 1004,7 hPa 0,0 l/m 6,6 km/h (2 Bft) N-NO 26 0 min 0,000 mm 0,5 UV-I 77 W/m 14,6 C 15,3 C 11,3 km/h (2 Bft) 100,00 %
13.06.2018 10:45 15,4 C 25,0 C 95 % 1004,7 hPa 0,0 l/m 10,5 km/h (2 Bft) N 355 0 min 0,000 mm 0,5 UV-I 76 W/m 14,6 C 13,3 C 12,9 km/h (3 Bft) 95,65 %
13.06.2018 10:46 15,4 C 25,0 C 95 % 1004,7 hPa 0,0 l/m 8,7 km/h (2 Bft) N-NW 343 0 min 0,000 mm 0,5 UV-I 81 W/m 14,6 C 14,2 C 11,3 km/h (2 Bft) 100,00 %
13.06.2018 10:47 15,4 C 25,0 C 96 % 1004,7 hPa 0,0 l/m 8,5 km/h (2 Bft) N 11 0 min 0,000 mm 0,5 UV-I 78 W/m 14,8 C 14,3 C 12,9 km/h (3 Bft) 96,15 %
13.06.2018 10:48 15,4 C 25,0 C 95 % 1004,7 hPa 0,0 l/m 9,7 km/h (2 Bft) N-NO 32 0 min 0,000 mm 0,0 UV-I 69 W/m 14,6 C 13,7 C 14,5 km/h (3 Bft) 100,00 %
13.06.2018 10:49 15,3 C 25,0 C 95 % 1004,7 hPa 0,0 l/m 9,7 km/h (2 Bft) N 11 0 min 0,000 mm 0,2 UV-I 72 W/m 14,5 C 13,6 C 14,5 km/h (3 Bft) 96,15 %
13.06.2018 10:50 15,3 C 25,0 C 95 % 1004,7 hPa 0,0 l/m 6,8 km/h (2 Bft) N 360 0 min 0,000 mm 0,5 UV-I 77 W/m 14,5 C 15,1 C 11,3 km/h (2 Bft) 96,30 %
13.06.2018 10:51 15,3 C 25,0 C 95 % 1004,7 hPa 0,0 l/m 10,6 km/h (2 Bft) N-NO 22 0 min 0,000 mm 0,5 UV-I 77 W/m 14,5 C 13,2 C 16,1 km/h (3 Bft) 100,00 %
13.06.2018 10:52 15,3 C 25,0 C 95 % 1004,7 hPa 0,0 l/m 8,5 km/h (2 Bft) N-NW 347 0 min 0,000 mm 0,5 UV-I 81 W/m 14,5 C 14,2 C 12,9 km/h (3 Bft) 92,31 %
13.06.2018 10:53 15,2 C 25,0 C 95 % 1004,7 hPa 0,0 l/m 6,6 km/h (2 Bft) N-NO 15 0 min 0,000 mm 0,6 UV-I 84 W/m 14,4 C 15,1 C 9,7 km/h (2 Bft) 100,00 %
13.06.2018 10:54 15,2 C 25,0 C 95 % 1004,7 hPa 0,0 l/m 8,6 km/h (2 Bft) N 360 0 min 0,000 mm 0,6 UV-I 80 W/m 14,4 C 14,0 C 12,9 km/h (3 Bft) 88,46 %
13.06.2018 10:55 15,2 C 25,0 C 95 % 1004,7 hPa 0,0 l/m 10,4 km/h (2 Bft) N-NO 13 0 min 0,000 mm 0,5 UV-I 80 W/m 14,4 C 13,2 C 16,1 km/h (3 Bft) 100,00 %
13.06.2018 10:56 15,2 C 25,0 C 95 % 1004,7 hPa 0,0 l/m 9,2 km/h (2 Bft) NW 317 0 min 0,000 mm 0,5 UV-I 80 W/m 14,4 C 13,7 C 12,9 km/h (3 Bft) 96,15 %
13.06.2018 10:57 15,3 C 25,0 C 95 % 1004,8 hPa 0,0 l/m 7,2 km/h (2 Bft) N 11 0 min 0,000 mm 0,5 UV-I 81 W/m 14,5 C 14,9 C 9,7 km/h (2 Bft) 96,30 %
13.06.2018 10:58 15,3 C 25,0 C 95 % 1004,7 hPa 0,0 l/m 6,1 km/h (2 Bft) N-NW 335 0 min 0,000 mm 0,6 UV-I 87 W/m 14,5 C 15,3 C 9,7 km/h (2 Bft) 100,00 %
13.06.2018 10:59 15,2 C 25,0 C 95 % 1004,7 hPa 0,0 l/m 7,3 km/h (2 Bft) N 10 0 min 0,000 mm 0,6 UV-I 94 W/m 14,4 C 14,7 C 12,9 km/h (3 Bft) 95,83 %
13.06.2018 11:00 15,2 C 25,0 C 95 % 1004,7 hPa 0,0 l/m 7,2 km/h (2 Bft) N 11 0 min 0,000 mm 0,6 UV-I 96 W/m 14,4 C 14,8 C 9,7 km/h (2 Bft) 100,00 %
13.06.2018 11:01 15,2 C 25,0 C 95 % 1004,7 hPa 0,0 l/m 5,6 km/h (1 Bft) NO 35 0 min 0,051 mm 0,6 UV-I 97 W/m 14,4 C 15,2 C 8,0 km/h (2 Bft) 95,83 %
13.06.2018 11:02 15,2 C 25,0 C 95 % 1004,7 hPa 0,0 l/m 9,5 km/h (2 Bft) N 9 0 min 0,000 mm 0,6 UV-I 96 W/m 14,4 C 13,6 C 14,5 km/h (3 Bft) 100,00 %
13.06.2018 11:03 15,2 C 25,0 C 95 % 1004,7 hPa 0,0 l/m 8,3 km/h (2 Bft) N-NW 330 0 min 0,000 mm 0,6 UV-I 95 W/m 14,4 C 14,2 C 14,5 km/h (3 Bft) 96,30 %
13.06.2018 11:04 15,2 C 25,0 C 95 % 1004,7 hPa 0,0 l/m 4,7 km/h (1 Bft) N 9 0 min 0,000 mm 0,6 UV-I 91 W/m 14,4 C 15,2 C 6,4 km/h (2 Bft) 100,00 %
13.06.2018 11:05 15,2 C 25,0 C 95 % 1004,8 hPa 0,0 l/m 6,4 km/h (2 Bft) N-NO 15 0 min 0,000 mm 0,6 UV-I 97 W/m 14,4 C 15,2 C 11,3 km/h (2 Bft) 96,55 %
13.06.2018 11:06 15,2 C 25,0 C 95 % 1004,8 hPa 0,0 l/m 5,4 km/h (1 Bft) N-NW 331 0 min 0,000 mm 0,7 UV-I 106 W/m 14,4 C 15,2 C 6,4 km/h (2 Bft) 100,00 %
13.06.2018 11:07 15,3 C 25,0 C 96 % 1004,8 hPa 0,0 l/m 6,3 km/h (2 Bft) N-NW 335 0 min 0,000 mm 0,8 UV-I 108 W/m 14,7 C 15,3 C 8,0 km/h (2 Bft) 100,00 %
13.06.2018 11:08 15,2 C 25,0 C 96 % 1004,8 hPa 0,0 l/m 5,8 km/h (2 Bft) N 351 0 min 0,000 mm 0,7 UV-I 103 W/m 14,6 C 15,2 C 8,0 km/h (2 Bft) 100,00 %
13.06.2018 11:09 15,2 C 24,4 C 96 % 1004,8 hPa 0,0 l/m 9,9 km/h (2 Bft) N-NW 328 0 min 0,000 mm 0,7 UV-I 105 W/m 14,6 C 13,4 C 14,5 km/h (3 Bft) 95,65 %
13.06.2018 11:10 15,2 C 24,4 C 95 % 1004,9 hPa 0,0 l/m 9,8 km/h (2 Bft) N-NO 15 0 min 0,000 mm 0,7 UV-I 105 W/m 14,4 C 13,4 C 14,5 km/h (3 Bft) 100,00 %
13.06.2018 11:11 15,2 C 24,4 C 95 % 1004,9 hPa 0,0 l/m 10,5 km/h (2 Bft) N 5 0 min 0,000 mm 0,7 UV-I 109 W/m 14,4 C 13,1 C 14,5 km/h (3 Bft) 100,00 %
13.06.2018 11:12 15,2 C 24,4 C 95 % 1004,9 hPa 0,0 l/m 14,4 km/h (3 Bft) N-NO 32 0 min 0,000 mm 0,8 UV-I 114 W/m 14,4 C 11,6 C 17,7 km/h (3 Bft) 100,00 %
13.06.2018 11:13 15,2 C 24,4 C 95 % 1004,9 hPa 0,0 l/m 9,5 km/h (2 Bft) N-NO 22 0 min 0,000 mm 0,8 UV-I 115 W/m 14,4 C 13,6 C 17,7 km/h (3 Bft) 96,15 %
13.06.2018 11:14 15,2 C 24,4 C 95 % 1004,9 hPa 0,0 l/m 9,8 km/h (2 Bft) N-NO 23 0 min 0,000 mm 0,8 UV-I 113 W/m 14,4 C 13,4 C 14,5 km/h (3 Bft) 95,83 %
13.06.2018 11:15 15,2 C 24,4 C 95 % 1005,0 hPa 0,2 l/m 9,6 km/h (2 Bft) N-NW 346 0 min 0,000 mm 0,8 UV-I 111 W/m 14,4 C 13,5 C 14,5 km/h (3 Bft) 100,00 %
13.06.2018 11:16 15,2 C 24,4 C 95 % 1005,0 hPa 0,0 l/m 7,8 km/h (2 Bft) N-NO 17 0 min 0,000 mm 0,8 UV-I 110 W/m 14,4 C 14,4 C 11,3 km/h (2 Bft) 100,00 %
13.06.2018 11:18 15,2 C 24,4 C 95 % 1005,0 hPa 0,0 l/m 9,4 km/h (2 Bft) N-NO 14 0 min 0,000 mm 0,8 UV-I 117 W/m 14,4 C 13,6 C 14,5 km/h (3 Bft) 96,43 %
13.06.2018 11:19 15,2 C 24,4 C 95 % 1005,0 hPa 0,0 l/m 8,1 km/h (2 Bft) N-NW 336 0 min 0,000 mm 0,9 UV-I 127 W/m 14,4 C 14,3 C 12,9 km/h (3 Bft) 100,00 %
13.06.2018 11:20 15,2 C 24,4 C 95 % 1005,0 hPa 0,0 l/m 9,6 km/h (2 Bft) N-NO 15 0 min 0,000 mm 0,9 UV-I 128 W/m 14,4 C 13,5 C 14,5 km/h (3 Bft) 95,83 %
13.06.2018 11:21 15,2 C 24,4 C 95 % 1005,0 hPa 0,0 l/m 5,9 km/h (2 Bft) N-NO 14 0 min 0,000 mm 0,9 UV-I 128 W/m 14,4 C 15,2 C 8,0 km/h (2 Bft) 100,00 %
13.06.2018 11:22 15,3 C 24,4 C 95 % 1005,0 hPa 0,2 l/m 6,8 km/h (2 Bft) N 10 0 min 0,000 mm 1,0 UV-I 134 W/m 14,5 C 15,1 C 11,3 km/h (2 Bft) 96,30 %
13.06.2018 11:23 15,3 C 24,4 C 95 % 1005,0 hPa 0,0 l/m 8,9 km/h (2 Bft) N-NO 22 0 min 0,000 mm 1,0 UV-I 134 W/m 14,5 C 14,0 C 12,9 km/h (3 Bft) 96,15 %
13.06.2018 11:24 15,3 C 24,4 C 95 % 1005,0 hPa 0,0 l/m 9,5 km/h (2 Bft) N-NO 13 0 min 0,000 mm 1,0 UV-I 136 W/m 14,5 C 13,7 C 11,3 km/h (2 Bft) 96,30 %
13.06.2018 11:25 15,3 C 24,4 C 95 % 1005,0 hPa 0,2 l/m 6,9 km/h (2 Bft) N 9 0 min 0,000 mm 1,0 UV-I 143 W/m 14,5 C 15,0 C 9,7 km/h (2 Bft) 100,00 %
13.06.2018 11:26 15,3 C 24,4 C 95 % 1005,0 hPa 0,0 l/m 7,7 km/h (2 Bft) N 10 0 min 0,000 mm 1,0 UV-I 141 W/m 14,5 C 14,6 C 14,5 km/h (3 Bft) 92,31 %
13.06.2018 11:28 15,2 C 24,4 C 95 % 1004,9 hPa 0,2 l/m 10,5 km/h (2 Bft) N-NO 13 0 min 0,000 mm 1,0 UV-I 136 W/m 14,4 C 13,1 C 16,1 km/h (3 Bft) 98,11 %
13.06.2018 11:29 15,2 C 24,4 C 95 % 1004,9 hPa 0,2 l/m 9,5 km/h (2 Bft) N-NO 33 0 min 0,000 mm 1,0 UV-I 135 W/m 14,4 C 13,6 C 12,9 km/h (3 Bft) 93,33 %
13.06.2018 11:30 15,2 C 24,4 C 95 % 1005,0 hPa 0,0 l/m 7,7 km/h (2 Bft) N 9 0 min 0,000 mm 1,0 UV-I 133 W/m 14,4 C 14,5 C 12,9 km/h (3 Bft) 100,00 %
13.06.2018 11:31 15,3 C 24,4 C 95 % 1005,0 hPa 0,0 l/m 9,8 km/h (2 Bft) N-NO 26 0 min 0,000 mm 0,8 UV-I 120 W/m 14,5 C 13,5 C 14,5 km/h (3 Bft) 96,30 %
13.06.2018 11:32 15,3 C 24,4 C 95 % 1005,0 hPa 0,0 l/m 9,2 km/h (2 Bft) N-NO 13 0 min 0,000 mm 0,9 UV-I 119 W/m 14,5 C 13,8 C 12,9 km/h (3 Bft) 95,65 %
13.06.2018 11:33 15,3 C 24,4 C 95 % 1005,0 hPa 0,0 l/m 8,2 km/h (2 Bft) N 355 0 min 0,000 mm 0,9 UV-I 123 W/m 14,5 C 14,3 C 11,3 km/h (2 Bft) 95,83 %
13.06.2018 11:34 15,3 C 24,4 C 95 % 1005,0 hPa 0,2 l/m 7,9 km/h (2 Bft) N 9 0 min 0,000 mm 0,9 UV-I 119 W/m 14,5 C 14,5 C 11,3 km/h (2 Bft) 100,00 %
13.06.2018 11:35 15,3 C 24,4 C 95 % 1005,1 hPa 0,0 l/m 5,9 km/h (2 Bft) NO 40 0 min 0,000 mm 0,9 UV-I 118 W/m 14,5 C 15,3 C 8,0 km/h (2 Bft) 95,83 %
13.06.2018 11:36 15,3 C 24,4 C 95 % 1005,1 hPa 0,0 l/m 8,4 km/h (2 Bft) N 9 0 min 0,000 mm 0,9 UV-I 121 W/m 14,5 C 14,2 C 11,3 km/h (2 Bft) 100,00 %
13.06.2018 11:37 15,3 C 24,4 C 95 % 1005,1 hPa 0,0 l/m 7,1 km/h (2 Bft) N 9 0 min 0,000 mm 0,9 UV-I 121 W/m 14,5 C 14,9 C 12,9 km/h (3 Bft) 96,67 %
13.06.2018 11:38 15,3 C 24,4 C 95 % 1005,0 hPa 0,2 l/m 7,5 km/h (2 Bft) N-NO 15 0 min 0,000 mm 0,9 UV-I 124 W/m 14,5 C 14,7 C 12,9 km/h (3 Bft) 100,00 %
13.06.2018 11:39 15,3 C 24,4 C 95 % 1005,0 hPa 0,0 l/m 6,8 km/h (2 Bft) N-NO 25 0 min 0,000 mm 0,9 UV-I 118 W/m 14,5 C 15,1 C 8,0 km/h (2 Bft) 95,83 %
13.06.2018 11:40 15,3 C 24,4 C 95 % 1005,0 hPa 0,0 l/m 7,4 km/h (2 Bft) N-NO 20 0 min 0,000 mm 0,9 UV-I 118 W/m 14,5 C 14,7 C 11,3 km/h (2 Bft) 96,15 %
13.06.2018 11:41 15,3 C 24,4 C 96 % 1005,1 hPa 0,0 l/m 5,4 km/h (1 Bft) N-NO 31 0 min 0,000 mm 0,9 UV-I 121 W/m 14,7 C 15,3 C 8,0 km/h (2 Bft) 100,00 %
13.06.2018 11:42 15,3 C 24,4 C 96 % 1005,1 hPa 0,0 l/m 8,4 km/h (2 Bft) N 5 0 min 0,000 mm 0,9 UV-I 119 W/m 14,7 C 14,2 C 11,3 km/h (2 Bft) 95,65 %
13.06.2018 11:43 15,3 C 24,4 C 95 % 1005,1 hPa 0,2 l/m 5,5 km/h (1 Bft) N-NO 21 0 min 0,000 mm 0,9 UV-I 115 W/m 14,5 C 15,3 C 8,0 km/h (2 Bft) 100,00 %
13.06.2018 11:44 15,3 C 24,4 C 95 % 1005,1 hPa 0,0 l/m 6,1 km/h (2 Bft) N-NO 24 0 min 0,000 mm 0,8 UV-I 111 W/m 14,5 C 15,3 C 8,0 km/h (2 Bft) 93,33 %
13.06.2018 11:45 15,3 C 24,4 C 95 % 1005,1 hPa 0,0 l/m 11,9 km/h (2 Bft) N-NO 13 0 min 0,000 mm 0,8 UV-I 109 W/m 14,5 C 12,7 C 14,5 km/h (3 Bft) 100,00 %
13.06.2018 11:46 15,3 C 24,4 C 95 % 1005,1 hPa 0,0 l/m 9,7 km/h (2 Bft) N 360 0 min 0,000 mm 0,7 UV-I 108 W/m 14,5 C 13,6 C 16,1 km/h (3 Bft) 96,15 %
13.06.2018 11:47 15,2 C 24,4 C 95 % 1005,1 hPa 0,2 l/m 9,3 km/h (2 Bft) N 360 0 min 0,000 mm 0,9 UV-I 116 W/m 14,4 C 13,7 C 14,5 km/h (3 Bft) 100,00 %
13.06.2018 11:48 15,3 C 24,4 C 95 % 1005,1 hPa 0,0 l/m 9,9 km/h (2 Bft) N-NW 329 0 min 0,000 mm 0,9 UV-I 116 W/m 14,5 C 13,5 C 12,9 km/h (3 Bft) 96,30 %
13.06.2018 11:49 15,2 C 24,4 C 95 % 1005,1 hPa 0,0 l/m 7,5 km/h (2 Bft) N 350 0 min 0,000 mm 0,8 UV-I 111 W/m 14,4 C 14,6 C 9,7 km/h (2 Bft) 100,00 %
13.06.2018 11:50 15,2 C 24,4 C 95 % 1005,1 hPa 0,0 l/m 4,9 km/h (1 Bft) N-NW 333 0 min 0,000 mm 0,7 UV-I 98 W/m 14,4 C 15,2 C 12,9 km/h (3 Bft) 91,67 %
13.06.2018 11:51 15,3 C 24,4 C 95 % 1005,1 hPa 0,2 l/m 7,3 km/h (2 Bft) N-NW 347 0 min 0,000 mm 0,7 UV-I 97 W/m 14,5 C 14,8 C 9,7 km/h (2 Bft) 96,15 %
13.06.2018 11:52 15,2 C 24,4 C 95 % 1005,1 hPa 0,0 l/m 6,6 km/h (2 Bft) N-NW 341 0 min 0,000 mm 0,8 UV-I 105 W/m 14,4 C 15,1 C 9,7 km/h (2 Bft) 100,00 %
13.06.2018 11:53 15,2 C 24,4 C 95 % 1005,1 hPa 0,0 l/m 9,0 km/h (2 Bft) N-NO 21 0 min 0,000 mm 0,8 UV-I 111 W/m 14,4 C 13,8 C 12,9 km/h (3 Bft) 96,15 %
13.06.2018 11:54 15,2 C 24,4 C 95 % 1005,1 hPa 0,0 l/m 6,2 km/h (2 Bft) N 355 0 min 0,000 mm 0,9 UV-I 119 W/m 14,4 C 15,2 C 9,7 km/h (2 Bft) 100,00 %
13.06.2018 11:55 15,2 C 24,4 C 95 % 1005,1 hPa 0,0 l/m 7,5 km/h (2 Bft) N 360 0 min 0,000 mm 0,9 UV-I 118 W/m 14,4 C 14,6 C 12,9 km/h (3 Bft) 95,65 %
13.06.2018 11:56 15,3 C 24,4 C 95 % 1005,2 hPa 0,0 l/m 6,9 km/h (2 Bft) N 349 0 min 0,000 mm 0,9 UV-I 120 W/m 14,5 C 15,0 C 9,7 km/h (2 Bft) 100,00 %
13.06.2018 11:58 15,3 C 24,4 C 95 % 1005,2 hPa 0,0 l/m 8,0 km/h (2 Bft) N 350 0 min 0,000 mm 1,0 UV-I 132 W/m 14,5 C 14,4 C 12,9 km/h (3 Bft) 97,56 %
13.06.2018 11:59 15,3 C 24,4 C 95 % 1005,2 hPa 0,0 l/m 6,4 km/h (2 Bft) N-NO 18 0 min 0,000 mm 1,0 UV-I 133 W/m 14,5 C 15,3 C 11,3 km/h (2 Bft) 96,15 %
13.06.2018 12:00 15,3 C 24,4 C 95 % 1005,2 hPa 0,0 l/m 8,3 km/h (2 Bft) N 5 0 min 0,000 mm 1,0 UV-I 128 W/m 14,5 C 14,3 C 12,9 km/h (3 Bft) 95,83 %
13.06.2018 12:01 15,3 C 24,4 C 95 % 1005,2 hPa 0,0 l/m 7,5 km/h (2 Bft) NW 325 0 min 0,076 mm 0,8 UV-I 115 W/m 14,5 C 14,7 C 12,9 km/h (3 Bft) 100,00 %
13.06.2018 12:02 15,2 C 24,4 C 95 % 1005,2 hPa 0,0 l/m 6,6 km/h (2 Bft) N 9 0 min 0,000 mm 0,7 UV-I 104 W/m 14,4 C 15,1 C 9,7 km/h (2 Bft) 95,83 %
13.06.2018 12:03 15,3 C 24,4 C 95 % 1005,3 hPa 0,0 l/m 5,9 km/h (2 Bft) N-NW 344 0 min 0,000 mm 0,7 UV-I 102 W/m 14,5 C 15,3 C 8,0 km/h (2 Bft) 95,83 %
13.06.2018 12:04 15,3 C 24,4 C 95 % 1005,3 hPa 0,2 l/m 6,1 km/h (2 Bft) N-NO 22 0 min 0,000 mm 0,8 UV-I 113 W/m 14,5 C 15,3 C 8,0 km/h (2 Bft) 96,15 %
13.06.2018 12:05 15,2 C 24,4 C 95 % 1005,2 hPa 0,0 l/m 5,3 km/h (1 Bft) N 5 0 min 0,000 mm 0,8 UV-I 115 W/m 14,4 C 15,2 C 6,4 km/h (2 Bft) 100,00 %
13.06.2018 12:06 15,2 C 24,4 C 95 % 1005,2 hPa 0,0 l/m 6,5 km/h (2 Bft) N-NO 13 0 min 0,000 mm 0,9 UV-I 116 W/m 14,4 C 15,2 C 9,7 km/h (2 Bft) 95,65 %
13.06.2018 12:07 15,2 C 24,4 C 95 % 1005,3 hPa 0,0 l/m 8,1 km/h (2 Bft) N-NO 25 0 min 0,000 mm 1,0 UV-I 132 W/m 14,4 C 14,3 C 12,9 km/h (3 Bft) 100,00 %
13.06.2018 12:08 15,2 C 24,4 C 95 % 1005,4 hPa 0,0 l/m 8,3 km/h (2 Bft) N-NO 18 0 min 0,000 mm 0,9 UV-I 121 W/m 14,4 C 14,2 C 16,1 km/h (3 Bft) 96,15 %
13.06.2018 12:09 15,2 C 24,4 C 95 % 1005,4 hPa 0,0 l/m 9,9 km/h (2 Bft) N-NW 338 0 min 0,000 mm 0,9 UV-I 125 W/m 14,4 C 13,4 C 14,5 km/h (3 Bft) 100,00 %
13.06.2018 12:10 15,2 C 24,4 C 95 % 1005,4 hPa 0,0 l/m 11,3 km/h (2 Bft) NO 36 0 min 0,000 mm 1,1 UV-I 145 W/m 14,4 C 12,8 C 17,7 km/h (3 Bft) 90,91 %
13.06.2018 12:11 15,2 C 24,4 C 95 % 1005,4 hPa 0,0 l/m 11,0 km/h (2 Bft) N 11 0 min 0,000 mm 1,3 UV-I 169 W/m 14,4 C 12,9 C 14,5 km/h (3 Bft) 100,00 %
13.06.2018 12:12 15,2 C 24,4 C 95 % 1005,4 hPa 0,0 l/m 7,8 km/h (2 Bft) N 9 0 min 0,000 mm 1,4 UV-I 179 W/m 14,4 C 14,4 C 9,7 km/h (2 Bft) 93,10 %
13.06.2018 12:13 15,2 C 24,4 C 95 % 1005,3 hPa 0,0 l/m 8,3 km/h (2 Bft) N 351 0 min 0,000 mm 1,4 UV-I 183 W/m 14,4 C 14,2 C 12,9 km/h (3 Bft) 96,30 %
13.06.2018 12:14 15,2 C 24,4 C 95 % 1005,4 hPa 0,0 l/m 9,7 km/h (2 Bft) N-NO 19 0 min 0,000 mm 1,4 UV-I 188 W/m 14,4 C 13,5 C 12,9 km/h (3 Bft) 94,12 %
13.06.2018 12:15 15,2 C 24,4 C 95 % 1005,3 hPa 0,0 l/m 8,1 km/h (2 Bft) N-NO 19 0 min 0,000 mm 1,4 UV-I 178 W/m 14,4 C 14,3 C 12,9 km/h (3 Bft) 95,83 %
13.06.2018 12:16 15,3 C 24,4 C 95 % 1005,4 hPa 0,0 l/m 8,4 km/h (2 Bft) N-NO 17 0 min 0,000 mm 1,3 UV-I 174 W/m 14,5 C 14,2 C 12,9 km/h (3 Bft) 96,15 %
13.06.2018 12:17 15,3 C 24,4 C 95 % 1005,4 hPa 0,0 l/m 8,2 km/h (2 Bft) N-NO 15 0 min 0,000 mm 1,3 UV-I 182 W/m 14,5 C 14,3 C 12,9 km/h (3 Bft) 100,00 %
13.06.2018 12:18 15,3 C 24,4 C 95 % 1005,4 hPa 0,0 l/m 7,8 km/h (2 Bft) N-NO 28 0 min 0,000 mm 1,3 UV-I 180 W/m 14,5 C 14,5 C 14,5 km/h (3 Bft) 95,65 %
13.06.2018 12:19 15,3 C 24,4 C 95 % 1005,4 hPa 0,0 l/m 6,8 km/h (2 Bft) N-NO 15 0 min 0,000 mm 1,2 UV-I 163 W/m 14,5 C 15,1 C 11,3 km/h (2 Bft) 100,00 %
13.06.2018 12:20 15,4 C 24,4 C 95 % 1005,4 hPa 0,0 l/m 7,3 km/h (2 Bft) NW 307 0 min 0,000 mm 1,3 UV-I 175 W/m 14,6 C 14,9 C 14,5 km/h (3 Bft) 95,65 %
13.06.2018 12:21 15,3 C 24,4 C 95 % 1005,4 hPa 0,0 l/m 7,9 km/h (2 Bft) N-NO 28 0 min 0,000 mm 1,5 UV-I 194 W/m 14,5 C 14,5 C 11,3 km/h (2 Bft) 100,00 %
13.06.2018 12:22 15,3 C 24,4 C 95 % 1005,4 hPa 0,0 l/m 13,9 km/h (3 Bft) N-NO 22 0 min 0,000 mm 1,5 UV-I 201 W/m 14,5 C 11,9 C 16,1 km/h (3 Bft) 100,00 %
13.06.2018 12:23 15,3 C 24,4 C 95 % 1005,4 hPa 0,0 l/m 10,5 km/h (2 Bft) N-NO 19 0 min 0,000 mm 1,6 UV-I 206 W/m 14,5 C 13,2 C 14,5 km/h (3 Bft) 100,00 %
13.06.2018 12:24 15,3 C 24,4 C 95 % 1005,4 hPa 0,0 l/m 9,7 km/h (2 Bft) N 355 0 min 0,000 mm 1,6 UV-I 208 W/m 14,5 C 13,6 C 14,5 km/h (3 Bft) 100,00 %
13.06.2018 12:25 15,3 C 24,4 C 95 % 1005,4 hPa 0,2 l/m 10,7 km/h (2 Bft) N 11 0 min 0,000 mm 1,7 UV-I 215 W/m 14,5 C 13,1 C 14,5 km/h (3 Bft) 100,00 %
13.06.2018 12:26 15,3 C 24,4 C 95 % 1005,4 hPa 0,0 l/m 7,7 km/h (2 Bft) NO 35 0 min 0,000 mm 1,7 UV-I 226 W/m 14,5 C 14,6 C 9,7 km/h (2 Bft) 100,00 %
13.06.2018 12:28 15,3 C 24,4 C 95 % 1005,5 hPa 0,0 l/m 6,6 km/h (2 Bft) N-NO 17 0 min 0,000 mm 1,8 UV-I 237 W/m 14,5 C 15,2 C 11,3 km/h (2 Bft) 97,78 %
13.06.2018 12:29 15,4 C 24,4 C 95 % 1005,5 hPa 0,0 l/m 7,7 km/h (2 Bft) N 351 0 min 0,000 mm 1,8 UV-I 235 W/m 14,6 C 14,7 C 11,3 km/h (2 Bft) 94,12 %
13.06.2018 12:30 15,4 C 24,4 C 95 % 1005,5 hPa 0,0 l/m 7,4 km/h (2 Bft) N 9 0 min 0,000 mm 1,7 UV-I 229 W/m 14,6 C 14,8 C 9,7 km/h (2 Bft) 100,00 %
13.06.2018 12:31 15,4 C 24,4 C 95 % 1005,5 hPa 0,0 l/m 5,9 km/h (2 Bft) N 360 0 min 0,000 mm 1,6 UV-I 216 W/m 14,6 C 15,4 C 9,7 km/h (2 Bft) 95,65 %
13.06.2018 12:32 15,4 C 24,4 C 95 % 1005,4 hPa 0,0 l/m 9,1 km/h (2 Bft) N-NO 32 0 min 0,000 mm 1,6 UV-I 216 W/m 14,6 C 14,0 C 16,1 km/h (3 Bft) 100,00 %
13.06.2018 12:33 15,4 C 24,4 C 95 % 1005,5 hPa 0,0 l/m 7,7 km/h (2 Bft) N 9 0 min 0,000 mm 1,7 UV-I 225 W/m 14,6 C 14,7 C 12,9 km/h (3 Bft) 95,65 %
13.06.2018 12:34 15,4 C 24,4 C 95 % 1005,5 hPa 0,0 l/m 10,1 km/h (2 Bft) N-NW 342 0 min 0,000 mm 1,7 UV-I 229 W/m 14,6 C 13,5 C 14,5 km/h (3 Bft) 96,30 %
13.06.2018 12:35 15,4 C 24,4 C 95 % 1005,5 hPa 0,0 l/m 14,4 km/h (3 Bft) N-NO 15 0 min 0,000 mm 1,8 UV-I 230 W/m 14,6 C 11,9 C 20,9 km/h (4 Bft) 100,00 %
13.06.2018 12:36 15,3 C 24,4 C 95 % 1005,4 hPa 0,0 l/m 7,2 km/h (2 Bft) N 355 0 min 0,000 mm 1,7 UV-I 228 W/m 14,5 C 14,9 C 9,7 km/h (2 Bft) 96,67 %
13.06.2018 12:38 15,3 C 24,4 C 95 % 1005,5 hPa 0,0 l/m 9,8 km/h (2 Bft) N 9 0 min 0,000 mm 1,7 UV-I 228 W/m 14,5 C 13,5 C 14,5 km/h (3 Bft) 98,00 %
13.06.2018 12:39 15,3 C 24,4 C 95 % 1005,5 hPa 0,0 l/m 11,6 km/h (2 Bft) N 351 0 min 0,000 mm 1,8 UV-I 230 W/m 14,5 C 12,8 C 19,3 km/h (3 Bft) 100,00 %
13.06.2018 12:40 15,3 C 24,4 C 95 % 1005,5 hPa 0,0 l/m 12,5 km/h (3 Bft) N 5 0 min 0,000 mm 1,8 UV-I 233 W/m 14,5 C 12,4 C 19,3 km/h (3 Bft) 91,67 %
13.06.2018 12:41 15,2 C 24,4 C 94 % 1005,5 hPa 0,0 l/m 6,9 km/h (2 Bft) N-NO 19 0 min 0,000 mm 1,8 UV-I 230 W/m 14,2 C 14,9 C 9,7 km/h (2 Bft) 100,00 %
13.06.2018 12:42 15,2 C 24,4 C 94 % 1005,5 hPa 0,0 l/m 8,5 km/h (2 Bft) N-NO 27 0 min 0,000 mm 1,7 UV-I 222 W/m 14,2 C 14,1 C 14,5 km/h (3 Bft) 97,73 %
13.06.2018 12:43 15,2 C 24,4 C 94 % 1005,6 hPa 0,0 l/m 7,3 km/h (2 Bft) W-NW 299 0 min 0,000 mm 1,7 UV-I 218 W/m 14,2 C 14,7 C 14,5 km/h (3 Bft) 95,65 %
13.06.2018 12:44 15,2 C 24,4 C 94 % 1005,6 hPa 0,0 l/m 10,8 km/h (2 Bft) N 10 0 min 0,000 mm 1,6 UV-I 212 W/m 14,2 C 13,0 C 14,5 km/h (3 Bft) 100,00 %
13.06.2018 12:45 15,2 C 24,4 C 94 % 1005,6 hPa 0,0 l/m 6,3 km/h (2 Bft) N-NW 340 0 min 0,000 mm 1,6 UV-I 205 W/m 14,2 C 15,2 C 9,7 km/h (2 Bft) 93,33 %
13.06.2018 12:46 15,2 C 24,4 C 94 % 1005,6 hPa 0,0 l/m 7,3 km/h (2 Bft) NW 311 0 min 0,000 mm 1,6 UV-I 203 W/m 14,2 C 14,7 C 16,1 km/h (3 Bft) 100,00 %
13.06.2018 12:47 15,2 C 24,4 C 94 % 1005,6 hPa 0,0 l/m 10,3 km/h (2 Bft) N 355 0 min 0,000 mm 1,5 UV-I 198 W/m 14,2 C 13,2 C 17,7 km/h (3 Bft) 96,30 %
13.06.2018 12:48 15,2 C 24,4 C 94 % 1005,6 hPa 0,0 l/m 12,3 km/h (3 Bft) N-NO 24 0 min 0,000 mm 1,5 UV-I 191 W/m 14,2 C 12,4 C 19,3 km/h (3 Bft) 100,00 %
13.06.2018 12:49 15,2 C 24,4 C 94 % 1005,6 hPa 0,0 l/m 13,7 km/h (3 Bft) N 355 0 min 0,000 mm 1,4 UV-I 182 W/m 14,2 C 11,9 C 17,7 km/h (3 Bft) 96,30 %
13.06.2018 12:50 15,2 C 24,4 C 94 % 1005,6 hPa 0,2 l/m 9,3 km/h (2 Bft) N-NW 334 0 min 0,000 mm 1,3 UV-I 175 W/m 14,2 C 13,7 C 14,5 km/h (3 Bft) 100,00 %
13.06.2018 12:51 15,1 C 24,4 C 94 % 1005,6 hPa 0,0 l/m 14,1 km/h (3 Bft) N-NW 337 0 min 0,000 mm 1,3 UV-I 177 W/m 14,1 C 11,6 C 17,7 km/h (3 Bft) 96,30 %
13.06.2018 12:52 15,1 C 24,4 C 93 % 1005,6 hPa 0,0 l/m 15,2 km/h (3 Bft) N 5 0 min 0,000 mm 1,4 UV-I 177 W/m 14,0 C 11,2 C 17,7 km/h (3 Bft) 95,65 %
13.06.2018 12:53 15,1 C 24,4 C 93 % 1005,6 hPa 0,0 l/m 9,7 km/h (2 Bft) N-NO 26 0 min 0,000 mm 1,3 UV-I 171 W/m 14,0 C 13,4 C 12,9 km/h (3 Bft) 100,00 %
13.06.2018 12:54 15,1 C 24,4 C 94 % 1005,6 hPa 0,0 l/m 12,7 km/h (3 Bft) N-NO 17 0 min 0,000 mm 1,3 UV-I 166 W/m 14,1 C 12,1 C 14,5 km/h (3 Bft) 96,15 %
13.06.2018 12:55 15,0 C 24,4 C 93 % 1005,7 hPa 0,0 l/m 9,4 km/h (2 Bft) N 349 0 min 0,000 mm 1,2 UV-I 161 W/m 13,9 C 13,4 C 14,5 km/h (3 Bft) 100,00 %
13.06.2018 12:56 15,1 C 24,4 C 94 % 1005,7 hPa 0,0 l/m 5,4 km/h (1 Bft) N-NO 24 0 min 0,000 mm 1,2 UV-I 155 W/m 14,1 C 15,1 C 6,4 km/h (2 Bft) 95,65 %
13.06.2018 12:57 15,1 C 24,4 C 94 % 1005,7 hPa 0,0 l/m 7,0 km/h (2 Bft) N-NO 17 0 min 0,000 mm 1,2 UV-I 151 W/m 14,1 C 14,8 C 14,5 km/h (3 Bft) 100,00 %
13.06.2018 12:58 15,1 C 24,4 C 94 % 1005,7 hPa 0,0 l/m 5,1 km/h (1 Bft) N-NW 332 0 min 0,000 mm 1,1 UV-I 147 W/m 14,1 C 15,1 C 8,0 km/h (2 Bft) 92,31 %
13.06.2018 12:59 15,1 C 24,4 C 94 % 1005,7 hPa 0,0 l/m 9,4 km/h (2 Bft) N 11 0 min 0,000 mm 1,1 UV-I 146 W/m 14,1 C 13,5 C 16,1 km/h (3 Bft) 100,00 %
13.06.2018 13:00 15,1 C 24,4 C 94 % 1005,8 hPa 0,0 l/m 8,6 km/h (2 Bft) N-NO 23 0 min 0,102 mm 1,1 UV-I 148 W/m 14,1 C 13,9 C 12,9 km/h (3 Bft) 95,65 %
13.06.2018 13:01 15,1 C 24,4 C 94 % 1005,8 hPa 0,0 l/m 5,2 km/h (1 Bft) N-NO 24 0 min 0,000 mm 1,1 UV-I 147 W/m 14,1 C 15,1 C 6,4 km/h (2 Bft) 100,00 %
13.06.2018 13:02 15,2 C 24,4 C 94 % 1005,8 hPa 0,0 l/m 4,5 km/h (1 Bft) N-NW 333 0 min 0,000 mm 1,1 UV-I 141 W/m 14,2 C 15,2 C 6,4 km/h (2 Bft) 95,65 %
13.06.2018 13:03 15,1 C 24,4 C 94 % 1005,8 hPa 0,0 l/m 4,7 km/h (1 Bft) N-NO 23 0 min 0,000 mm 1,0 UV-I 134 W/m 14,1 C 15,1 C 8,0 km/h (2 Bft) 96,30 %
13.06.2018 13:04 15,1 C 24,4 C 94 % 1005,9 hPa 0,0 l/m 6,2 km/h (2 Bft) NW 304 0 min 0,000 mm 1,0 UV-I 131 W/m 14,1 C 15,1 C 8,0 km/h (2 Bft) 95,65 %
13.06.2018 13:05 15,1 C 24,4 C 94 % 1005,9 hPa 0,0 l/m 4,6 km/h (1 Bft) N-NW 330 0 min 0,000 mm 1,0 UV-I 130 W/m 14,1 C 15,1 C 6,4 km/h (2 Bft) 100,00 %
13.06.2018 13:06 15,2 C 24,4 C 94 % 1005,9 hPa 0,0 l/m 4,4 km/h (1 Bft) N-NO 19 0 min 0,000 mm 1,0 UV-I 130 W/m 14,2 C 15,2 C 6,4 km/h (2 Bft) 100,00 %
13.06.2018 13:07 15,2 C 24,4 C 94 % 1005,9 hPa 0,0 l/m 6,5 km/h (2 Bft) N 350 0 min 0,000 mm 0,9 UV-I 125 W/m 14,2 C 15,2 C 9,7 km/h (2 Bft) 100,00 %
13.06.2018 13:08 15,2 C 24,4 C 94 % 1005,9 hPa 0,0 l/m 5,5 km/h (1 Bft) N-NW 331 0 min 0,000 mm 0,9 UV-I 123 W/m 14,2 C 15,2 C 9,7 km/h (2 Bft) 100,00 %
13.06.2018 13:09 15,1 C 24,4 C 94 % 1005,9 hPa 0,0 l/m 5,9 km/h (2 Bft) N 360 0 min 0,000 mm 0,9 UV-I 126 W/m 14,1 C 15,1 C 6,4 km/h (2 Bft) 100,00 %
13.06.2018 13:10 15,1 C 24,4 C 94 % 1005,9 hPa 0,0 l/m 10,3 km/h (2 Bft) N 5 0 min 0,000 mm 0,9 UV-I 128 W/m 14,1 C 13,1 C 16,1 km/h (3 Bft) 100,00 %
13.06.2018 13:11 15,1 C 24,4 C 94 % 1005,9 hPa 0,0 l/m 10,3 km/h (2 Bft) N-NO 19 0 min 0,000 mm 0,9 UV-I 127 W/m 14,1 C 13,1 C 16,1 km/h (3 Bft) 100,00 %
13.06.2018 13:12 15,1 C 24,4 C 94 % 1005,9 hPa 0,0 l/m 8,0 km/h (2 Bft) N-NO 15 0 min 0,000 mm 0,9 UV-I 120 W/m 14,1 C 14,2 C 11,3 km/h (2 Bft) 100,00 %
13.06.2018 13:13 15,1 C 24,4 C 94 % 1005,9 hPa 0,0 l/m 6,3 km/h (2 Bft) N 350 0 min 0,000 mm 0,8 UV-I 112 W/m 14,1 C 15,1 C 9,7 km/h (2 Bft) 100,00 %
13.06.2018 13:14 15,1 C 24,4 C 94 % 1005,9 hPa 0,0 l/m 7,2 km/h (2 Bft) N 350 0 min 0,000 mm 0,9 UV-I 118 W/m 14,1 C 14,6 C 14,5 km/h (3 Bft) 100,00 %
13.06.2018 13:15 15,1 C 24,4 C 94 % 1006,0 hPa 0,0 l/m 6,0 km/h (2 Bft) N-NW 338 0 min 0,000 mm 0,9 UV-I 125 W/m 14,1 C 15,1 C 8,0 km/h (2 Bft) 100,00 %
13.06.2018 13:16 15,0 C 24,4 C 94 % 1006,0 hPa 0,0 l/m 5,9 km/h (2 Bft) N 9 0 min 0,000 mm 0,9 UV-I 119 W/m 14,0 C 15,0 C 8,0 km/h (2 Bft) 100,00 %
13.06.2018 13:17 15,1 C 24,4 C 94 % 1006,0 hPa 0,0 l/m 4,7 km/h (1 Bft) N-NO 26 0 min 0,000 mm 0,8 UV-I 113 W/m 14,1 C 15,1 C 6,4 km/h (2 Bft) 100,00 %
13.06.2018 13:18 15,1 C 24,4 C 94 % 1006,0 hPa 0,0 l/m 6,7 km/h (2 Bft) N-NO 24 0 min 0,000 mm 0,8 UV-I 111 W/m 14,1 C 14,9 C 8,0 km/h (2 Bft) 100,00 %
13.06.2018 13:19 15,1 C 24,4 C 94 % 1006,0 hPa 0,0 l/m 8,0 km/h (2 Bft) N-NW 336 0 min 0,000 mm 0,8 UV-I 109 W/m 14,1 C 14,2 C 14,5 km/h (3 Bft) 100,00 %
13.06.2018 13:20 15,1 C 24,4 C 94 % 1006,1 hPa 0,0 l/m 7,1 km/h (2 Bft) N 355 0 min 0,000 mm 0,8 UV-I 106 W/m 14,1 C 14,7 C 12,9 km/h (3 Bft) 100,00 %
13.06.2018 13:21 15,1 C 24,4 C 94 % 1006,1 hPa 0,0 l/m 6,7 km/h (2 Bft) N-NO 22 0 min 0,000 mm 0,8 UV-I 106 W/m 14,1 C 14,9 C 9,7 km/h (2 Bft) 100,00 %
13.06.2018 13:22 15,1 C 24,4 C 94 % 1006,1 hPa 0,0 l/m 6,4 km/h (2 Bft) NO 42 0 min 0,000 mm 0,8 UV-I 105 W/m 14,1 C 15,1 C 11,3 km/h (2 Bft) 98,15 %
13.06.2018 13:23 15,0 C 24,4 C 94 % 1006,1 hPa 0,0 l/m 8,1 km/h (2 Bft) N 351 0 min 0,000 mm 0,7 UV-I 100 W/m 14,0 C 14,0 C 11,3 km/h (2 Bft) 100,00 %
13.06.2018 13:24 14,9 C 24,4 C 94 % 1006,1 hPa 0,0 l/m 12,2 km/h (2 Bft) N 5 0 min 0,000 mm 0,7 UV-I 99 W/m 13,9 C 12,1 C 14,5 km/h (3 Bft) 100,00 %
13.06.2018 13:25 14,9 C 24,4 C 94 % 1006,1 hPa 0,0 l/m 8,3 km/h (2 Bft) N 11 0 min 0,000 mm 0,7 UV-I 94 W/m 13,9 C 13,8 C 12,9 km/h (3 Bft) 100,00 %
13.06.2018 13:26 14,9 C 24,4 C 94 % 1006,1 hPa 0,0 l/m 4,5 km/h (1 Bft) N 351 0 min 0,000 mm 0,6 UV-I 87 W/m 13,9 C 14,9 C 6,4 km/h (2 Bft) 100,00 %
13.06.2018 13:27 14,9 C 24,4 C 94 % 1006,2 hPa 0,0 l/m 6,5 km/h (2 Bft) N-NW 342 0 min 0,000 mm 0,6 UV-I 83 W/m 13,9 C 14,9 C 8,0 km/h (2 Bft) 95,83 %
13.06.2018 13:28 14,9 C 24,4 C 94 % 1006,1 hPa 0,0 l/m 6,3 km/h (2 Bft) N-NO 26 0 min 0,000 mm 0,6 UV-I 83 W/m 13,9 C 14,9 C 8,0 km/h (2 Bft) 100,00 %
13.06.2018 13:29 14,9 C 24,4 C 94 % 1006,1 hPa 0,0 l/m 7,2 km/h (2 Bft) N-NO 17 0 min 0,000 mm 0,6 UV-I 84 W/m 13,9 C 14,4 C 11,3 km/h (2 Bft) 100,00 %
13.06.2018 13:30 14,9 C 24,4 C 94 % 1006,1 hPa 0,0 l/m 10,5 km/h (2 Bft) N-NO 25 0 min 0,000 mm 0,6 UV-I 84 W/m 13,9 C 12,8 C 17,7 km/h (3 Bft) 91,30 %
13.06.2018 13:31 14,9 C 24,4 C 94 % 1006,1 hPa 0,0 l/m 7,4 km/h (2 Bft) N-NO 14 0 min 0,000 mm 0,6 UV-I 78 W/m 13,9 C 14,3 C 12,9 km/h (3 Bft) 100,00 %
13.06.2018 13:32 14,9 C 24,4 C 94 % 1006,1 hPa 0,0 l/m 10,9 km/h (2 Bft) NW 326 0 min 0,000 mm 0,6 UV-I 77 W/m 13,9 C 12,6 C 16,1 km/h (3 Bft) 100,00 %
13.06.2018 13:33 14,8 C 24,4 C 94 % 1006,2 hPa 0,0 l/m 7,2 km/h (2 Bft) N-NW 347 0 min 0,000 mm 0,5 UV-I 72 W/m 13,8 C 14,3 C 9,7 km/h (2 Bft) 100,00 %
13.06.2018 13:34 14,9 C 24,4 C 94 % 1006,2 hPa 0,0 l/m 7,4 km/h (2 Bft) N 360 0 min 0,000 mm 0,5 UV-I 67 W/m 13,9 C 14,3 C 11,3 km/h (2 Bft) 100,00 %
13.06.2018 13:35 14,8 C 24,4 C 94 % 1006,2 hPa 0,0 l/m 9,4 km/h (2 Bft) N-NW 343 0 min 0,000 mm 0,5 UV-I 69 W/m 13,8 C 13,2 C 14,5 km/h (3 Bft) 100,00 %
13.06.2018 13:36 14,9 C 24,4 C 94 % 1006,2 hPa 0,0 l/m 6,4 km/h (2 Bft) N 355 0 min 0,000 mm 0,5 UV-I 69 W/m 13,9 C 14,9 C 8,0 km/h (2 Bft) 92,86 %
13.06.2018 13:37 14,8 C 24,4 C 94 % 1006,2 hPa 0,0 l/m 5,8 km/h (2 Bft) N 9 0 min 0,000 mm 0,5 UV-I 69 W/m 13,8 C 14,8 C 11,3 km/h (2 Bft) 100,00 %
13.06.2018 13:38 14,8 C 24,4 C 94 % 1006,2 hPa 0,0 l/m 6,7 km/h (2 Bft) NO 44 0 min 0,000 mm 0,5 UV-I 69 W/m 13,8 C 14,6 C 8,0 km/h (2 Bft) 100,00 %
13.06.2018 13:39 14,8 C 24,4 C 94 % 1006,2 hPa 0,0 l/m 6,3 km/h (2 Bft) N-NO 27 0 min 0,000 mm 0,5 UV-I 71 W/m 13,8 C 14,8 C 8,0 km/h (2 Bft) 100,00 %
13.06.2018 13:40 14,8 C 24,4 C 95 % 1006,2 hPa 0,0 l/m 5,7 km/h (1 Bft) NW 316 0 min 0,000 mm 0,5 UV-I 75 W/m 14,0 C 14,8 C 9,7 km/h (2 Bft) 100,00 %
13.06.2018 13:41 14,8 C 24,4 C 94 % 1006,2 hPa 0,0 l/m 4,8 km/h (1 Bft) N 9 0 min 0,000 mm 0,6 UV-I 80 W/m 13,8 C 14,8 C 9,7 km/h (2 Bft) 100,00 %
13.06.2018 13:42 14,8 C 24,4 C 94 % 1006,2 hPa 0,0 l/m 6,0 km/h (2 Bft) NO 40 0 min 0,000 mm 0,6 UV-I 84 W/m 13,8 C 14,8 C 8,0 km/h (2 Bft) 95,83 %
13.06.2018 13:43 14,8 C 24,4 C 95 % 1006,3 hPa 0,0 l/m 4,6 km/h (1 Bft) N-NW 338 0 min 0,000 mm 0,6 UV-I 86 W/m 14,0 C 14,8 C 8,0 km/h (2 Bft) 100,00 %
13.06.2018 13:44 14,8 C 24,4 C 95 % 1006,3 hPa 0,0 l/m 9,7 km/h (2 Bft) S 190 0 min 0,000 mm 0,6 UV-I 88 W/m 14,0 C 13,0 C 17,7 km/h (3 Bft) 100,00 %
13.06.2018 13:45 14,8 C 24,4 C 95 % 1006,3 hPa 0,0 l/m 9,2 km/h (2 Bft) N 5 0 min 0,000 mm 0,7 UV-I 92 W/m 14,0 C 13,3 C 16,1 km/h (3 Bft) 100,00 %
13.06.2018 13:46 14,8 C 24,4 C 94 % 1006,4 hPa 0,0 l/m 7,4 km/h (2 Bft) N-NW 342 0 min 0,000 mm 0,7 UV-I 93 W/m 13,8 C 14,2 C 16,1 km/h (3 Bft) 100,00 %
13.06.2018 13:48 14,8 C 24,4 C 95 % 1006,3 hPa 0,2 l/m 4,6 km/h (1 Bft) N-NO 12 0 min 0,000 mm 0,7 UV-I 94 W/m 14,0 C 14,8 C 8,0 km/h (2 Bft) 97,37 %
13.06.2018 13:49 14,8 C 24,4 C 95 % 1006,3 hPa 0,0 l/m 5,5 km/h (1 Bft) NW 321 0 min 0,000 mm 0,7 UV-I 95 W/m 14,0 C 14,8 C 8,0 km/h (2 Bft) 100,00 %
13.06.2018 13:50 14,7 C 24,4 C 95 % 1006,4 hPa 0,0 l/m 6,2 km/h (2 Bft) N-NO 20 0 min 0,000 mm 0,7 UV-I 95 W/m 13,9 C 14,7 C 11,3 km/h (2 Bft) 100,00 %
13.06.2018 13:51 14,7 C 24,4 C 95 % 1006,4 hPa 0,0 l/m 5,9 km/h (2 Bft) W-NW 295 0 min 0,000 mm 0,7 UV-I 94 W/m 13,9 C 14,7 C 9,7 km/h (2 Bft) 100,00 %
13.06.2018 13:52 14,7 C 24,4 C 95 % 1006,4 hPa 0,0 l/m 4,4 km/h (1 Bft) N-NW 336 0 min 0,000 mm 0,7 UV-I 94 W/m 13,9 C 14,7 C 8,0 km/h (2 Bft) 100,00 %
13.06.2018 13:53 14,7 C 24,4 C 95 % 1006,4 hPa 0,0 l/m 2,4 km/h (1 Bft) N-NO 32 0 min 0,000 mm 0,7 UV-I 97 W/m 13,9 C 14,7 C 4,8 km/h (1 Bft) 100,00 %
13.06.2018 13:54 14,7 C 24,4 C 95 % 1006,4 hPa 0,0 l/m 6,2 km/h (2 Bft) N-NO 26 0 min 0,000 mm 0,7 UV-I 97 W/m 13,9 C 14,7 C 8,0 km/h (2 Bft) 100,00 %
13.06.2018 13:55 14,7 C 24,4 C 95 % 1006,4 hPa 0,2 l/m 12,1 km/h (2 Bft) N-NW 330 0 min 0,000 mm 0,7 UV-I 99 W/m 13,9 C 11,9 C 16,1 km/h (3 Bft) 100,00 %
13.06.2018 13:56 14,7 C 24,4 C 95 % 1006,4 hPa 0,0 l/m 4,0 km/h (1 Bft) N 11 0 min 0,000 mm 0,7 UV-I 102 W/m 13,9 C 14,7 C 12,9 km/h (3 Bft) 100,00 %
13.06.2018 13:58 14,8 C 24,4 C 95 % 1006,4 hPa 0,0 l/m 2,2 km/h (1 Bft) N-NW 343 0 min 0,000 mm 0,8 UV-I 105 W/m 14,0 C 14,8 C 4,8 km/h (1 Bft) 100,00 %
13.06.2018 13:59 14,8 C 24,4 C 96 % 1006,4 hPa 0,0 l/m 1,8 km/h (1 Bft) N-NW 344 0 min 0,000 mm 0,8 UV-I 111 W/m 14,2 C 14,8 C 3,2 km/h (1 Bft) 98,22 %
13.06.2018 14:00 14,8 C 24,4 C 96 % 1006,4 hPa 0,0 l/m 3,0 km/h (1 Bft) W-NW 302 0 min 0,000 mm 0,8 UV-I 110 W/m 14,2 C 14,8 C 4,8 km/h (1 Bft) 100,00 %
13.06.2018 14:02 15,1 C 24,4 C 96 % 1006,4 hPa 0,0 l/m 1,0 km/h (0 Bft) SO 132 0 min 0,051 mm 0,8 UV-I 114 W/m 14,5 C 15,1 C 3,2 km/h (1 Bft) 100,00 %
13.06.2018 14:03 15,1 C 24,4 C 96 % 1006,4 hPa 0,0 l/m 2,0 km/h (1 Bft) O-NO 71 0 min 0,000 mm 0,8 UV-I 114 W/m 14,5 C 15,1 C 3,2 km/h (1 Bft) 100,00 %
13.06.2018 14:04 15,0 C 24,4 C 96 % 1006,5 hPa 0,0 l/m 2,3 km/h (1 Bft) N-NO 16 0 min 0,000 mm 0,8 UV-I 112 W/m 14,4 C 15,0 C 4,8 km/h (1 Bft) 100,00 %
13.06.2018 14:05 14,9 C 24,4 C 96 % 1006,5 hPa 0,2 l/m 3,7 km/h (1 Bft) N-NO 15 0 min 0,000 mm 0,8 UV-I 107 W/m 14,3 C 14,9 C 6,4 km/h (2 Bft) 100,00 %
13.06.2018 14:06 14,9 C 24,4 C 96 % 1006,5 hPa 0,0 l/m 2,9 km/h (1 Bft) N-NO 13 0 min 0,000 mm 0,8 UV-I 107 W/m 14,3 C 14,9 C 4,8 km/h (1 Bft) 100,00 %
13.06.2018 14:07 14,8 C 24,4 C 96 % 1006,5 hPa 0,0 l/m 7,2 km/h (2 Bft) N-NW 345 0 min 0,000 mm 0,8 UV-I 107 W/m 14,2 C 14,3 C 12,9 km/h (3 Bft) 100,00 %
13.06.2018 14:08 14,8 C 24,4 C 96 % 1006,6 hPa 0,0 l/m 6,0 km/h (2 Bft) W-NW 303 0 min 0,000 mm 0,8 UV-I 106 W/m 14,2 C 14,8 C 9,7 km/h (2 Bft) 100,00 %
13.06.2018 14:09 14,8 C 24,4 C 96 % 1006,6 hPa 0,0 l/m 3,1 km/h (1 Bft) W-NW 283 0 min 0,000 mm 0,7 UV-I 103 W/m 14,2 C 14,8 C 4,8 km/h (1 Bft) 100,00 %
13.06.2018 14:10 14,8 C 24,4 C 96 % 1006,6 hPa 0,0 l/m 0,3 km/h (0 Bft) W-NW 284 0 min 0,000 mm 0,7 UV-I 98 W/m 14,2 C 14,8 C 1,6 km/h (1 Bft) 100,00 %
13.06.2018 14:11 14,8 C 24,4 C 96 % 1006,6 hPa 0,0 l/m 2,7 km/h (1 Bft) W-NW 283 0 min 0,000 mm 0,7 UV-I 95 W/m 14,2 C 14,8 C 4,8 km/h (1 Bft) 96,67 %
13.06.2018 14:13 14,9 C 24,4 C 96 % 1006,6 hPa 0,0 l/m 2,0 km/h (1 Bft) NO 34 0 min 0,000 mm 0,7 UV-I 91 W/m 14,3 C 14,9 C 4,8 km/h (1 Bft) 97,73 %
13.06.2018 14:14 14,9 C 24,4 C 96 % 1006,6 hPa 0,2 l/m 2,1 km/h (1 Bft) NO 34 0 min 0,000 mm 0,6 UV-I 88 W/m 14,3 C 14,9 C 3,2 km/h (1 Bft) 100,00 %
13.06.2018 14:15 14,8 C 24,4 C 96 % 1006,6 hPa 0,0 l/m 4,0 km/h (1 Bft) N-NW 336 0 min 0,000 mm 0,6 UV-I 84 W/m 14,2 C 14,8 C 6,4 km/h (2 Bft) 95,83 %
13.06.2018 14:16 14,8 C 24,4 C 96 % 1006,6 hPa 0,0 l/m 1,2 km/h (1 Bft) N-NW 336 0 min 0,000 mm 0,6 UV-I 80 W/m 14,2 C 14,8 C 3,2 km/h (1 Bft) 100,00 %
13.06.2018 14:17 14,8 C 24,4 C 96 % 1006,7 hPa 0,0 l/m 0,6 km/h (0 Bft) N-NW 336 0 min 0,000 mm 0,6 UV-I 79 W/m 14,2 C 14,8 C 3,2 km/h (1 Bft) 100,00 %
13.06.2018 14:18 14,9 C 24,4 C 96 % 1006,7 hPa 0,0 l/m 2,8 km/h (1 Bft) N-NW 336 0 min 0,000 mm 0,6 UV-I 80 W/m 14,3 C 14,9 C 6,4 km/h (2 Bft) 100,00 %
13.06.2018 14:19 14,8 C 24,4 C 96 % 1006,6 hPa 0,0 l/m 2,9 km/h (1 Bft) W-NW 298 0 min 0,000 mm 0,6 UV-I 78 W/m 14,2 C 14,8 C 4,8 km/h (1 Bft) 100,00 %
13.06.2018 14:20 14,9 C 24,4 C 96 % 1006,7 hPa 0,0 l/m 2,7 km/h (1 Bft) W-NW 298 0 min 0,000 mm 0,5 UV-I 77 W/m 14,3 C 14,9 C 4,8 km/h (1 Bft) 100,00 %
13.06.2018 14:21 14,9 C 24,4 C 96 % 1006,7 hPa 0,0 l/m 3,1 km/h (1 Bft) NW 326 0 min 0,000 mm 0,5 UV-I 76 W/m 14,3 C 14,9 C 4,8 km/h (1 Bft) 96,15 %
13.06.2018 14:22 14,9 C 24,4 C 96 % 1006,7 hPa 0,0 l/m 3,0 km/h (1 Bft) W 270 0 min 0,000 mm 0,6 UV-I 80 W/m 14,3 C 14,9 C 4,8 km/h (1 Bft) 96,30 %
13.06.2018 14:23 15,0 C 24,4 C 96 % 1006,7 hPa 0,0 l/m 1,6 km/h (1 Bft) W-SW 241 0 min 0,000 mm 0,6 UV-I 83 W/m 14,4 C 15,0 C 3,2 km/h (1 Bft) 100,00 %
13.06.2018 14:24 15,0 C 24,4 C 96 % 1006,7 hPa 0,0 l/m 2,0 km/h (1 Bft) W-SW 242 0 min 0,000 mm 0,6 UV-I 84 W/m 14,4 C 15,0 C 3,2 km/h (1 Bft) 95,83 %
13.06.2018 14:25 15,0 C 24,4 C 96 % 1006,7 hPa 0,0 l/m 0,3 km/h (0 Bft) W-SW 242 0 min 0,000 mm 0,6 UV-I 83 W/m 14,4 C 15,0 C 1,6 km/h (1 Bft) 96,15 %
13.06.2018 14:26 14,9 C 24,4 C 96 % 1006,8 hPa 0,0 l/m 0,1 km/h (0 Bft) W-SW 242 0 min 0,000 mm 0,6 UV-I 83 W/m 14,3 C 14,9 C 1,6 km/h (1 Bft) 96,30 %
13.06.2018 14:28 15,1 C 24,4 C 96 % 1006,7 hPa 0,0 l/m 0,8 km/h (0 Bft) N-NW 338 0 min 0,000 mm 0,6 UV-I 84 W/m 14,5 C 15,1 C 6,4 km/h (2 Bft) 94,00 %
13.06.2018 14:29 15,0 C 24,4 C 96 % 1006,7 hPa 0,0 l/m 4,6 km/h (1 Bft) W 261 0 min 0,000 mm 0,6 UV-I 85 W/m 14,4 C 15,0 C 6,4 km/h (2 Bft) 81,82 %
13.06.2018 14:30 15,0 C 24,4 C 96 % 1006,8 hPa 0,0 l/m 2,7 km/h (1 Bft) S-SW 197 0 min 0,000 mm 0,6 UV-I 88 W/m 14,4 C 15,0 C 4,8 km/h (1 Bft) 100,00 %
13.06.2018 14:31 15,1 C 24,4 C 96 % 1006,8 hPa 0,0 l/m 3,0 km/h (1 Bft) N 5 0 min 0,000 mm 0,6 UV-I 88 W/m 14,5 C 15,1 C 4,8 km/h (1 Bft) 95,65 %
13.06.2018 14:33 15,0 C 24,4 C 96 % 1006,8 hPa 0,0 l/m 3,4 km/h (1 Bft) N 11 0 min 0,000 mm 0,6 UV-I 90 W/m 14,4 C 15,0 C 11,3 km/h (2 Bft) 96,00 %
13.06.2018 14:34 15,0 C 24,4 C 96 % 1006,8 hPa 0,0 l/m 4,4 km/h (1 Bft) W-SW 254 0 min 0,000 mm 0,6 UV-I 90 W/m 14,4 C 15,0 C 8,0 km/h (2 Bft) 96,30 %
13.06.2018 14:35 15,0 C 24,4 C 96 % 1006,8 hPa 0,0 l/m 2,1 km/h (1 Bft) W-NW 288 0 min 0,000 mm 0,6 UV-I 92 W/m 14,4 C 15,0 C 3,2 km/h (1 Bft) 100,00 %
13.06.2018 14:36 14,9 C 24,4 C 96 % 1006,8 hPa 0,0 l/m 3,4 km/h (1 Bft) W 259 0 min 0,000 mm 0,6 UV-I 93 W/m 14,3 C 14,9 C 6,4 km/h (2 Bft) 100,00 %
13.06.2018 14:37 14,9 C 24,4 C 96 % 1006,8 hPa 0,0 l/m 2,0 km/h (1 Bft) NW 308 0 min 0,000 mm 0,7 UV-I 95 W/m 14,3 C 14,9 C 8,0 km/h (2 Bft) 92,59 %
13.06.2018 14:38 14,9 C 24,4 C 96 % 1006,8 hPa 0,0 l/m 3,5 km/h (1 Bft) NO 37 0 min 0,000 mm 0,7 UV-I 97 W/m 14,3 C 14,9 C 6,4 km/h (2 Bft) 96,15 %
13.06.2018 14:39 14,8 C 24,4 C 96 % 1006,8 hPa 0,0 l/m 4,2 km/h (1 Bft) NW 304 0 min 0,000 mm 0,7 UV-I 99 W/m 14,2 C 14,8 C 6,4 km/h (2 Bft) 95,83 %
13.06.2018 14:40 14,8 C 24,4 C 96 % 1006,8 hPa 0,0 l/m 2,6 km/h (1 Bft) W-SW 248 0 min 0,000 mm 0,7 UV-I 102 W/m 14,2 C 14,8 C 4,8 km/h (1 Bft) 96,15 %
13.06.2018 14:41 14,9 C 24,4 C 96 % 1006,8 hPa 0,0 l/m 3,4 km/h (1 Bft) O 100 0 min 0,000 mm 0,7 UV-I 100 W/m 14,3 C 14,9 C 6,4 km/h (2 Bft) 100,00 %
13.06.2018 14:42 14,9 C 24,4 C 96 % 1006,9 hPa 0,0 l/m 1,7 km/h (1 Bft) O 98 0 min 0,000 mm 0,7 UV-I 102 W/m 14,3 C 14,9 C 3,2 km/h (1 Bft) 95,65 %
13.06.2018 14:43 14,9 C 24,4 C 96 % 1006,9 hPa 0,0 l/m 3,8 km/h (1 Bft) W-NW 296 0 min 0,000 mm 0,7 UV-I 102 W/m 14,3 C 14,9 C 4,8 km/h (1 Bft) 95,83 %
13.06.2018 14:44 14,9 C 24,4 C 96 % 1006,9 hPa 0,0 l/m 4,6 km/h (1 Bft) N-NW 329 0 min 0,000 mm 0,7 UV-I 102 W/m 14,3 C 14,9 C 12,9 km/h (3 Bft) 100,00 %
13.06.2018 14:45 14,8 C 24,4 C 96 % 1006,8 hPa 0,2 l/m 4,6 km/h (1 Bft) N-NO 14 0 min 0,000 mm 0,7 UV-I 100 W/m 14,2 C 14,8 C 9,7 km/h (2 Bft) 91,67 %
13.06.2018 14:46 14,8 C 24,4 C 96 % 1006,9 hPa 0,0 l/m 1,6 km/h (1 Bft) N 5 0 min 0,000 mm 0,7 UV-I 102 W/m 14,2 C 14,8 C 3,2 km/h (1 Bft) 100,00 %
13.06.2018 14:48 14,8 C 24,4 C 96 % 1006,9 hPa 0,0 l/m 3,6 km/h (1 Bft) NW 323 0 min 0,000 mm 0,7 UV-I 103 W/m 14,2 C 14,8 C 11,3 km/h (2 Bft) 96,61 %
13.06.2018 14:49 14,8 C 24,4 C 95 % 1006,9 hPa 0,0 l/m 5,6 km/h (1 Bft) N-NW 328 0 min 0,000 mm 0,7 UV-I 105 W/m 14,0 C 14,8 C 8,0 km/h (2 Bft) 91,67 %
13.06.2018 14:50 14,8 C 24,4 C 95 % 1006,9 hPa 0,0 l/m 5,8 km/h (2 Bft) W-NW 303 0 min 0,000 mm 0,7 UV-I 104 W/m 14,0 C 14,8 C 8,0 km/h (2 Bft) 100,00 %
13.06.2018 14:51 14,8 C 24,4 C 95 % 1006,9 hPa 0,0 l/m 5,7 km/h (1 Bft) NO 38 0 min 0,000 mm 0,7 UV-I 104 W/m 14,0 C 14,8 C 8,0 km/h (2 Bft) 95,83 %
13.06.2018 14:52 14,8 C 24,4 C 95 % 1006,9 hPa 0,0 l/m 5,6 km/h (1 Bft) N 351 0 min 0,000 mm 0,7 UV-I 104 W/m 14,0 C 14,8 C 9,7 km/h (2 Bft) 96,15 %
13.06.2018 14:53 14,8 C 24,4 C 95 % 1007,0 hPa 0,2 l/m 6,4 km/h (2 Bft) N-NW 344 0 min 0,000 mm 0,7 UV-I 104 W/m 14,0 C 14,8 C 12,9 km/h (3 Bft) 100,00 %
13.06.2018 14:54 14,8 C 24,4 C 95 % 1007,0 hPa 0,0 l/m 6,9 km/h (2 Bft) N-NO 30 0 min 0,000 mm 0,7 UV-I 107 W/m 14,0 C 14,5 C 11,3 km/h (2 Bft) 100,00 %
13.06.2018 14:55 14,8 C 24,4 C 95 % 1006,9 hPa 0,0 l/m 8,1 km/h (2 Bft) NW 321 0 min 0,000 mm 0,7 UV-I 111 W/m 14,0 C 13,8 C 12,9 km/h (3 Bft) 96,15 %
13.06.2018 14:56 14,7 C 24,4 C 95 % 1007,0 hPa 0,0 l/m 6,6 km/h (2 Bft) SW 229 0 min 0,000 mm 0,8 UV-I 115 W/m 13,9 C 14,6 C 9,7 km/h (2 Bft) 100,00 %
13.06.2018 14:58 14,7 C 24,4 C 95 % 1007,0 hPa 0,0 l/m 5,9 km/h (2 Bft) N 350 0 min 0,000 mm 0,8 UV-I 119 W/m 13,9 C 14,7 C 12,9 km/h (3 Bft) 97,92 %
13.06.2018 14:59 14,7 C 24,4 C 95 % 1007,0 hPa 0,0 l/m 4,9 km/h (1 Bft) N-NO 28 0 min 0,000 mm 0,8 UV-I 123 W/m 13,9 C 14,7 C 6,4 km/h (2 Bft) 100,00 %
13.06.2018 15:00 14,7 C 24,4 C 95 % 1007,1 hPa 0,0 l/m 4,6 km/h (1 Bft) N 355 0 min 0,050 mm 0,8 UV-I 122 W/m 13,9 C 14,7 C 8,0 km/h (2 Bft) 95,83 %
13.06.2018 15:01 14,8 C 24,4 C 96 % 1007,0 hPa 0,0 l/m 1,5 km/h (1 Bft) N 355 0 min 0,000 mm 0,8 UV-I 116 W/m 14,2 C 14,8 C 4,8 km/h (1 Bft) 100,00 %
13.06.2018 15:02 14,8 C 24,4 C 96 % 1007,1 hPa 0,0 l/m 1,7 km/h (1 Bft) N 355 0 min 0,000 mm 0,7 UV-I 107 W/m 14,2 C 14,8 C 3,2 km/h (1 Bft) 100,00 %
13.06.2018 15:03 14,8 C 24,4 C 96 % 1007,1 hPa 0,0 l/m 0,5 km/h (0 Bft) W 265 0 min 0,000 mm 0,6 UV-I 99 W/m 14,2 C 14,8 C 3,2 km/h (1 Bft) 100,00 %
13.06.2018 15:04 14,8 C 24,4 C 96 % 1007,1 hPa 0,0 l/m 4,7 km/h (1 Bft) N 11 0 min 0,000 mm 0,6 UV-I 91 W/m 14,2 C 14,8 C 8,0 km/h (2 Bft) 100,00 %
13.06.2018 15:05 14,8 C 24,4 C 96 % 1007,1 hPa 0,2 l/m 2,3 km/h (1 Bft) N-NO 14 0 min 0,000 mm 0,6 UV-I 90 W/m 14,2 C 14,8 C 4,8 km/h (1 Bft) 95,65 %
13.06.2018 15:06 14,8 C 24,4 C 96 % 1007,2 hPa 0,0 l/m 0,7 km/h (0 Bft) N 5 0 min 0,000 mm 0,6 UV-I 90 W/m 14,2 C 14,8 C 1,6 km/h (1 Bft) 100,00 %
13.06.2018 15:08 14,8 C 24,4 C 96 % 1007,2 hPa 0,0 l/m 2,2 km/h (1 Bft) W-NW 296 0 min 0,000 mm 0,6 UV-I 91 W/m 14,2 C 14,8 C 3,2 km/h (1 Bft) 98,11 %
13.06.2018 15:09 14,7 C 24,4 C 96 % 1007,2 hPa 0,0 l/m 6,4 km/h (2 Bft) NW 322 0 min 0,000 mm 0,6 UV-I 91 W/m 14,1 C 14,7 C 9,7 km/h (2 Bft) 92,86 %
13.06.2018 15:10 14,7 C 24,4 C 96 % 1007,2 hPa 0,2 l/m 3,6 km/h (1 Bft) N-NO 26 0 min 0,000 mm 0,6 UV-I 91 W/m 14,1 C 14,7 C 4,8 km/h (1 Bft) 100,00 %
13.06.2018 15:11 14,8 C 24,4 C 96 % 1007,3 hPa 0,0 l/m 2,3 km/h (1 Bft) W-NW 290 0 min 0,000 mm 0,6 UV-I 89 W/m 14,2 C 14,8 C 3,2 km/h (1 Bft) 96,55 %
13.06.2018 15:12 14,8 C 24,4 C 96 % 1007,3 hPa 0,0 l/m 0,7 km/h (0 Bft) NW 313 0 min 0,000 mm 0,6 UV-I 88 W/m 14,2 C 14,8 C 1,6 km/h (1 Bft) 95,83 %
13.06.2018 15:13 14,8 C 24,4 C 96 % 1007,3 hPa 0,0 l/m 2,8 km/h (1 Bft) SW 226 0 min 0,000 mm 0,6 UV-I 87 W/m 14,2 C 14,8 C 4,8 km/h (1 Bft) 100,00 %
13.06.2018 15:14 14,8 C 24,4 C 96 % 1007,3 hPa 0,0 l/m 4,5 km/h (1 Bft) W-NW 298 0 min 0,000 mm 0,5 UV-I 84 W/m 14,2 C 14,8 C 8,0 km/h (2 Bft) 95,83 %
13.06.2018 15:15 14,8 C 24,4 C 96 % 1007,3 hPa 0,2 l/m 4,8 km/h (1 Bft) N 5 0 min 0,000 mm 0,5 UV-I 84 W/m 14,2 C 14,8 C 9,7 km/h (2 Bft) 100,00 %
13.06.2018 15:16 14,8 C 24,4 C 96 % 1007,4 hPa 0,0 l/m 1,9 km/h (1 Bft) N 355 0 min 0,000 mm 0,5 UV-I 83 W/m 14,2 C 14,8 C 4,8 km/h (1 Bft) 92,86 %
13.06.2018 15:17 14,7 C 24,4 C 96 % 1007,3 hPa 0,0 l/m 2,3 km/h (1 Bft) N 355 0 min 0,000 mm 0,5 UV-I 83 W/m 14,1 C 14,7 C 4,8 km/h (1 Bft) 100,00 %
13.06.2018 15:18 14,7 C 24,4 C 96 % 1007,3 hPa 0,2 l/m 2,6 km/h (1 Bft) NW 304 0 min 0,000 mm 0,5 UV-I 84 W/m 14,1 C 14,7 C 8,0 km/h (2 Bft) 95,65 %
13.06.2018 15:19 14,7 C 24,4 C 96 % 1007,4 hPa 0,0 l/m 3,0 km/h (1 Bft) N 5 0 min 0,000 mm 0,5 UV-I 89 W/m 14,1 C 14,7 C 4,8 km/h (1 Bft) 95,83 %
13.06.2018 15:20 14,7 C 24,4 C 96 % 1007,4 hPa 0,0 l/m 2,7 km/h (1 Bft) N 355 0 min 0,000 mm 0,6 UV-I 91 W/m 14,1 C 14,7 C 6,4 km/h (2 Bft) 95,65 %
13.06.2018 15:21 14,8 C 24,4 C 96 % 1007,4 hPa 0,2 l/m 0,6 km/h (0 Bft) N 11 0 min 0,000 mm 0,6 UV-I 88 W/m 14,2 C 14,8 C 1,6 km/h (1 Bft) 100,00 %
13.06.2018 15:23 14,7 C 24,4 C 96 % 1007,4 hPa 0,0 l/m 2,5 km/h (1 Bft) NW 315 0 min 0,000 mm 0,6 UV-I 87 W/m 14,1 C 14,7 C 11,3 km/h (2 Bft) 96,43 %
13.06.2018 15:24 14,7 C 24,4 C 96 % 1007,4 hPa 0,0 l/m 3,3 km/h (1 Bft) NW 317 0 min 0,000 mm 0,5 UV-I 85 W/m 14,1 C 14,7 C 4,8 km/h (1 Bft) 100,00 %
13.06.2018 15:25 14,7 C 24,4 C 96 % 1007,4 hPa 0,0 l/m 2,6 km/h (1 Bft) W-NW 284 0 min 0,000 mm 0,5 UV-I 80 W/m 14,1 C 14,7 C 4,8 km/h (1 Bft) 93,33 %
13.06.2018 15:26 14,7 C 24,4 C 96 % 1007,4 hPa 0,2 l/m 2,1 km/h (1 Bft) N 355 0 min 0,000 mm 0,5 UV-I 79 W/m 14,1 C 14,7 C 8,0 km/h (2 Bft) 95,65 %
13.06.2018 15:28 14,7 C 24,4 C 96 % 1007,4 hPa 0,0 l/m 4,1 km/h (1 Bft) N-NO 13 0 min 0,000 mm 0,5 UV-I 79 W/m 14,1 C 14,7 C 9,7 km/h (2 Bft) 96,00 %
13.06.2018 15:29 14,8 C 24,4 C 96 % 1007,4 hPa 0,0 l/m 2,9 km/h (1 Bft) N-NW 348 0 min 0,000 mm 0,5 UV-I 82 W/m 14,2 C 14,8 C 4,8 km/h (1 Bft) 95,83 %
13.06.2018 15:30 14,8 C 24,4 C 96 % 1007,4 hPa 0,2 l/m 3,1 km/h (1 Bft) N 350 0 min 0,000 mm 0,5 UV-I 84 W/m 14,2 C 14,8 C 4,8 km/h (1 Bft) 95,65 %
13.06.2018 15:31 14,7 C 24,4 C 96 % 1007,4 hPa 0,0 l/m 1,9 km/h (1 Bft) N-NW 347 0 min 0,000 mm 0,5 UV-I 85 W/m 14,1 C 14,7 C 3,2 km/h (1 Bft) 95,83 %
13.06.2018 15:32 14,7 C 24,4 C 96 % 1007,4 hPa 0,0 l/m 3,0 km/h (1 Bft) N-NW 334 0 min 0,000 mm 0,5 UV-I 86 W/m 14,1 C 14,7 C 4,8 km/h (1 Bft) 91,30 %
13.06.2018 15:33 14,7 C 24,4 C 96 % 1007,4 hPa 0,0 l/m 4,1 km/h (1 Bft) N-NW 331 0 min 0,000 mm 0,5 UV-I 86 W/m 14,1 C 14,7 C 6,4 km/h (2 Bft) 100,00 %
13.06.2018 15:34 14,8 C 24,4 C 96 % 1007,5 hPa 0,0 l/m 3,1 km/h (1 Bft) N 5 0 min 0,000 mm 0,5 UV-I 84 W/m 14,2 C 14,8 C 4,8 km/h (1 Bft) 100,00 %
13.06.2018 15:35 14,7 C 24,4 C 96 % 1007,5 hPa 0,2 l/m 1,8 km/h (1 Bft) N 5 0 min 0,000 mm 0,5 UV-I 84 W/m 14,1 C 14,7 C 4,8 km/h (1 Bft) 92,31 %
13.06.2018 15:36 14,8 C 24,4 C 96 % 1007,5 hPa 0,0 l/m 2,4 km/h (1 Bft) N-NW 331 0 min 0,000 mm 0,5 UV-I 84 W/m 14,2 C 14,8 C 8,0 km/h (2 Bft) 95,83 %
13.06.2018 15:37 14,8 C 24,4 C 96 % 1007,4 hPa 0,0 l/m 2,5 km/h (1 Bft) N-NW 333 0 min 0,000 mm 0,5 UV-I 83 W/m 14,2 C 14,8 C 4,8 km/h (1 Bft) 100,00 %
13.06.2018 15:38 14,8 C 24,4 C 96 % 1007,5 hPa 0,0 l/m 2,1 km/h (1 Bft) N 360 0 min 0,000 mm 0,5 UV-I 83 W/m 14,2 C 14,8 C 4,8 km/h (1 Bft) 95,83 %
13.06.2018 15:39 14,8 C 24,4 C 96 % 1007,5 hPa 0,0 l/m 2,4 km/h (1 Bft) N 11 0 min 0,000 mm 0,5 UV-I 81 W/m 14,2 C 14,8 C 4,8 km/h (1 Bft) 100,00 %
13.06.2018 15:40 14,8 C 24,4 C 96 % 1007,5 hPa 0,2 l/m 0,1 km/h (0 Bft) N 11 0 min 0,000 mm 0,5 UV-I 78 W/m 14,2 C 14,8 C 1,6 km/h (1 Bft) 96,97 %
13.06.2018 15:41 14,8 C 24,4 C 96 % 1007,5 hPa 0,0 l/m 1,2 km/h (1 Bft) N 11 0 min 0,000 mm 0,5 UV-I 77 W/m 14,2 C 14,8 C 3,2 km/h (1 Bft) 100,00 %
13.06.2018 15:42 14,9 C 24,4 C 96 % 1007,5 hPa 0,0 l/m 2,5 km/h (1 Bft) W-NW 300 0 min 0,000 mm 0,5 UV-I 76 W/m 14,3 C 14,9 C 4,8 km/h (1 Bft) 95,83 %
13.06.2018 15:43 14,9 C 24,4 C 96 % 1007,5 hPa 0,0 l/m 0,8 km/h (0 Bft) W-NW 300 0 min 0,000 mm 0,5 UV-I 77 W/m 14,3 C 14,9 C 1,6 km/h (1 Bft) 100,00 %
13.06.2018 15:44 14,9 C 24,4 C 96 % 1007,5 hPa 0,0 l/m 0,1 km/h (0 Bft) W-NW 300 0 min 0,000 mm 0,5 UV-I 80 W/m 14,3 C 14,9 C 1,6 km/h (1 Bft) 96,30 %
13.06.2018 15:45 14,9 C 24,4 C 96 % 1007,5 hPa 0,2 l/m 2,8 km/h (1 Bft) NW 326 0 min 0,000 mm 0,5 UV-I 83 W/m 14,3 C 14,9 C 4,8 km/h (1 Bft) 100,00 %
13.06.2018 15:46 14,9 C 24,4 C 96 % 1007,5 hPa 0,0 l/m 1,9 km/h (1 Bft) NW 326 0 min 0,000 mm 0,5 UV-I 85 W/m 14,3 C 14,9 C 3,2 km/h (1 Bft) 91,67 %
13.06.2018 15:48 15,0 C 24,4 C 96 % 1007,5 hPa 0,0 l/m 1,7 km/h (1 Bft) N-NW 327 0 min 0,000 mm 0,6 UV-I 98 W/m 14,4 C 15,0 C 3,2 km/h (1 Bft) 98,00 %
13.06.2018 15:49 15,0 C 24,4 C 96 % 1007,5 hPa 0,0 l/m 1,8 km/h (1 Bft) N-NW 327 0 min 0,000 mm 0,7 UV-I 107 W/m 14,4 C 15,0 C 3,2 km/h (1 Bft) 95,65 %
13.06.2018 15:50 15,0 C 24,4 C 96 % 1007,5 hPa 0,0 l/m 0,4 km/h (0 Bft) N-NW 327 0 min 0,000 mm 0,7 UV-I 107 W/m 14,4 C 15,0 C 1,6 km/h (1 Bft) 96,30 %
13.06.2018 15:51 15,1 C 24,4 C 96 % 1007,5 hPa 0,2 l/m 1,0 km/h (0 Bft) N-NW 327 0 min 0,000 mm 0,6 UV-I 102 W/m 14,5 C 15,1 C 4,8 km/h (1 Bft) 96,15 %
13.06.2018 15:52 15,1 C 24,4 C 96 % 1007,5 hPa 0,0 l/m 3,2 km/h (1 Bft) W 280 0 min 0,000 mm 0,6 UV-I 92 W/m 14,5 C 15,1 C 4,8 km/h (1 Bft) 95,83 %
13.06.2018 15:53 15,1 C 24,4 C 96 % 1007,4 hPa 0,0 l/m 1,7 km/h (1 Bft) W 281 0 min 0,000 mm 0,5 UV-I 85 W/m 14,5 C 15,1 C 3,2 km/h (1 Bft) 95,65 %
13.06.2018 15:54 15,0 C 24,4 C 96 % 1007,5 hPa 0,0 l/m 1,0 km/h (0 Bft) W 281 0 min 0,000 mm 0,5 UV-I 83 W/m 14,4 C 15,0 C 1,6 km/h (1 Bft) 100,00 %
13.06.2018 15:55 15,0 C 24,4 C 96 % 1007,5 hPa 0,0 l/m 1,0 km/h (0 Bft) W 279 0 min 0,000 mm 0,5 UV-I 90 W/m 14,4 C 15,0 C 1,6 km/h (1 Bft) 93,33 %
13.06.2018 15:56 15,0 C 24,4 C 96 % 1007,5 hPa 0,0 l/m 1,2 km/h (1 Bft) W 279 0 min 0,000 mm 0,5 UV-I 85 W/m 14,4 C 15,0 C 3,2 km/h (1 Bft) 100,00 %
13.06.2018 15:58 15,0 C 24,4 C 96 % 1007,5 hPa 0,0 l/m 3,4 km/h (1 Bft) W 277 0 min 0,000 mm 0,0 UV-I 71 W/m 14,4 C 15,0 C 4,8 km/h (1 Bft) 96,00 %
13.06.2018 15:59 15,0 C 24,4 C 96 % 1007,5 hPa 0,0 l/m 2,5 km/h (1 Bft) SW 227 0 min 0,000 mm 0,0 UV-I 62 W/m 14,4 C 15,0 C 3,2 km/h (1 Bft) 100,00 %
13.06.2018 16:00 15,1 C 24,4 C 96 % 1007,4 hPa 0,2 l/m 4,8 km/h (1 Bft) W-NW 284 0 min 0,051 mm 0,0 UV-I 48 W/m 14,5 C 15,1 C 9,7 km/h (2 Bft) 98,08 %
13.06.2018 16:02 15,1 C 24,4 C 96 % 1007,4 hPa 0,0 l/m 2,2 km/h (1 Bft) NW 314 0 min 0,000 mm 0,0 UV-I 38 W/m 14,5 C 15,1 C 4,8 km/h (1 Bft) 95,52 %
13.06.2018 16:03 15,0 C 24,4 C 96 % 1007,5 hPa 0,0 l/m 0,5 km/h (0 Bft) NW 314 0 min 0,000 mm 0,0 UV-I 35 W/m 14,4 C 15,0 C 3,2 km/h (1 Bft) 100,00 %
13.06.2018 16:04 15,1 C 24,4 C 96 % 1007,5 hPa 0,0 l/m 1,1 km/h (1 Bft) NW 313 0 min 0,000 mm 0,0 UV-I 34 W/m 14,5 C 15,1 C 3,2 km/h (1 Bft) 96,15 %
13.06.2018 16:05 15,1 C 24,4 C 96 % 1007,5 hPa 0,0 l/m 4,1 km/h (1 Bft) NW 325 0 min 0,000 mm 0,0 UV-I 36 W/m 14,5 C 15,1 C 6,4 km/h (2 Bft) 93,33 %
13.06.2018 16:06 15,0 C 24,4 C 96 % 1007,6 hPa 0,2 l/m 3,4 km/h (1 Bft) NO 42 0 min 0,000 mm 0,0 UV-I 42 W/m 14,4 C 15,0 C 4,8 km/h (1 Bft) 96,15 %
13.06.2018 16:07 14,8 C 24,4 C 96 % 1007,6 hPa 0,0 l/m 7,4 km/h (2 Bft) N 10 0 min 0,000 mm 0,0 UV-I 46 W/m 14,2 C 14,2 C 11,3 km/h (2 Bft) 100,00 %
13.06.2018 16:08 14,8 C 24,4 C 96 % 1007,6 hPa 0,0 l/m 7,4 km/h (2 Bft) N 350 0 min 0,000 mm 0,0 UV-I 47 W/m 14,2 C 14,2 C 11,3 km/h (2 Bft) 100,00 %
13.06.2018 16:09 14,7 C 24,4 C 96 % 1007,6 hPa 0,0 l/m 6,7 km/h (2 Bft) N 11 0 min 0,000 mm 0,0 UV-I 52 W/m 14,1 C 14,5 C 11,3 km/h (2 Bft) 100,00 %
13.06.2018 16:10 14,6 C 24,4 C 96 % 1007,6 hPa 0,0 l/m 6,7 km/h (2 Bft) O-NO 57 0 min 0,000 mm 0,0 UV-I 56 W/m 14,0 C 14,4 C 12,9 km/h (3 Bft) 100,00 %
13.06.2018 16:11 14,6 C 24,4 C 96 % 1007,6 hPa 0,0 l/m 4,5 km/h (1 Bft) N-NW 344 0 min 0,000 mm 0,0 UV-I 63 W/m 14,0 C 14,6 C 6,4 km/h (2 Bft) 100,00 %
13.06.2018 16:12 14,6 C 24,4 C 96 % 1007,7 hPa 0,2 l/m 5,2 km/h (1 Bft) N 355 0 min 0,000 mm 0,0 UV-I 69 W/m 14,0 C 14,6 C 8,0 km/h (2 Bft) 100,00 %
13.06.2018 16:13 14,6 C 24,4 C 96 % 1007,6 hPa 0,0 l/m 3,9 km/h (1 Bft) N-NO 30 0 min 0,000 mm 0,0 UV-I 73 W/m 14,0 C 14,6 C 8,0 km/h (2 Bft) 100,00 %
13.06.2018 16:14 14,5 C 24,4 C 96 % 1007,7 hPa 0,0 l/m 4,4 km/h (1 Bft) N 9 0 min 0,000 mm 0,0 UV-I 78 W/m 13,9 C 14,5 C 8,0 km/h (2 Bft) 95,83 %
13.06.2018 16:15 14,5 C 24,4 C 96 % 1007,7 hPa 0,0 l/m 7,6 km/h (2 Bft) N 11 0 min 0,000 mm 0,5 UV-I 82 W/m 13,9 C 13,8 C 14,5 km/h (3 Bft) 100,00 %
13.06.2018 16:16 14,5 C 24,4 C 96 % 1007,7 hPa 0,0 l/m 7,6 km/h (2 Bft) NW 309 0 min 0,000 mm 0,5 UV-I 84 W/m 13,9 C 13,8 C 12,9 km/h (3 Bft) 100,00 %
13.06.2018 16:17 14,4 C 24,4 C 96 % 1007,7 hPa 0,2 l/m 7,3 km/h (2 Bft) N-NO 20 0 min 0,000 mm 0,5 UV-I 87 W/m 13,8 C 13,9 C 12,9 km/h (3 Bft) 100,00 %
13.06.2018 16:18 14,4 C 24,4 C 96 % 1007,7 hPa 0,0 l/m 10,9 km/h (2 Bft) N 9 0 min 0,000 mm 0,5 UV-I 89 W/m 13,8 C 12,0 C 14,5 km/h (3 Bft) 100,00 %
13.06.2018 16:19 14,4 C 24,4 C 96 % 1007,7 hPa 0,0 l/m 5,5 km/h (1 Bft) N-NW 342 0 min 0,000 mm 0,5 UV-I 90 W/m 13,8 C 14,4 C 8,0 km/h (2 Bft) 95,65 %
13.06.2018 16:20 14,4 C 24,4 C 96 % 1007,7 hPa 0,2 l/m 7,5 km/h (2 Bft) N-NO 21 0 min 0,000 mm 0,5 UV-I 90 W/m 13,8 C 13,8 C 9,7 km/h (2 Bft) 96,30 %
13.06.2018 16:21 14,4 C 24,4 C 96 % 1007,7 hPa 0,0 l/m 7,9 km/h (2 Bft) N-NO 18 0 min 0,000 mm 0,5 UV-I 91 W/m 13,8 C 13,5 C 12,9 km/h (3 Bft) 100,00 %
13.06.2018 16:22 14,5 C 24,4 C 96 % 1007,8 hPa 0,0 l/m 4,7 km/h (1 Bft) N-NO 19 0 min 0,000 mm 0,5 UV-I 94 W/m 13,9 C 14,5 C 8,0 km/h (2 Bft) 96,67 %
13.06.2018 16:23 14,5 C 24,4 C 96 % 1007,8 hPa 0,0 l/m 3,5 km/h (1 Bft) W-NW 303 0 min 0,000 mm 0,5 UV-I 96 W/m 13,9 C 14,5 C 4,8 km/h (1 Bft) 100,00 %
13.06.2018 16:24 14,5 C 24,4 C 96 % 1007,8 hPa 0,0 l/m 2,4 km/h (1 Bft) N-NW 340 0 min 0,000 mm 0,6 UV-I 99 W/m 13,9 C 14,5 C 6,4 km/h (2 Bft) 96,30 %
13.06.2018 16:25 14,5 C 24,4 C 96 % 1007,8 hPa 0,0 l/m 3,4 km/h (1 Bft) N-NW 334 0 min 0,000 mm 0,6 UV-I 102 W/m 13,9 C 14,5 C 4,8 km/h (1 Bft) 96,55 %
13.06.2018 16:26 14,6 C 24,4 C 96 % 1007,8 hPa 0,0 l/m 3,0 km/h (1 Bft) N 355 0 min 0,000 mm 0,6 UV-I 104 W/m 14,0 C 14,6 C 3,2 km/h (1 Bft) 95,83 %
13.06.2018 16:27 14,6 C 24,4 C 96 % 1007,8 hPa 0,2 l/m 5,1 km/h (1 Bft) N-NW 344 0 min 0,000 mm 0,6 UV-I 104 W/m 14,0 C 14,6 C 8,0 km/h (2 Bft) 96,15 %
13.06.2018 16:28 14,6 C 24,4 C 96 % 1007,8 hPa 0,0 l/m 4,5 km/h (1 Bft) N 9 0 min 0,000 mm 0,6 UV-I 107 W/m 14,0 C 14,6 C 6,4 km/h (2 Bft) 100,00 %
13.06.2018 16:29 14,6 C 24,4 C 96 % 1007,9 hPa 0,0 l/m 3,2 km/h (1 Bft) N-NW 341 0 min 0,000 mm 0,6 UV-I 110 W/m 14,0 C 14,6 C 4,8 km/h (1 Bft) 100,00 %
13.06.2018 16:30 14,6 C 24,4 C 96 % 1007,8 hPa 0,0 l/m 6,0 km/h (2 Bft) N 9 0 min 0,000 mm 0,6 UV-I 112 W/m 14,0 C 14,6 C 12,9 km/h (3 Bft) 96,15 %
13.06.2018 16:31 14,6 C 24,4 C 96 % 1007,9 hPa 0,0 l/m 6,0 km/h (2 Bft) N-NW 330 0 min 0,000 mm 0,6 UV-I 114 W/m 14,0 C 14,6 C 8,0 km/h (2 Bft) 96,30 %
13.06.2018 16:32 14,6 C 24,4 C 96 % 1007,9 hPa 0,0 l/m 4,4 km/h (1 Bft) N-NO 22 0 min 0,000 mm 0,6 UV-I 116 W/m 14,0 C 14,6 C 6,4 km/h (2 Bft) 91,30 %
13.06.2018 16:33 14,7 C 24,4 C 96 % 1007,9 hPa 0,0 l/m 4,2 km/h (1 Bft) NW 317 0 min 0,000 mm 0,6 UV-I 114 W/m 14,1 C 14,7 C 6,4 km/h (2 Bft) 96,30 %
13.06.2018 16:34 14,7 C 24,4 C 96 % 1007,9 hPa 0,2 l/m 3,8 km/h (1 Bft) NO 35 0 min 0,000 mm 0,6 UV-I 112 W/m 14,1 C 14,7 C 6,4 km/h (2 Bft) 100,00 %
13.06.2018 16:35 14,7 C 24,4 C 96 % 1007,9 hPa 0,0 l/m 3,1 km/h (1 Bft) W-NW 289 0 min 0,000 mm 0,6 UV-I 109 W/m 14,1 C 14,7 C 8,0 km/h (2 Bft) 91,67 %
13.06.2018 16:36 14,7 C 24,4 C 96 % 1007,9 hPa 0,0 l/m 1,5 km/h (1 Bft) W-NW 290 0 min 0,000 mm 0,6 UV-I 106 W/m 14,1 C 14,7 C 3,2 km/h (1 Bft) 100,00 %
13.06.2018 16:37 14,7 C 24,4 C 96 % 1007,9 hPa 0,0 l/m 0,7 km/h (0 Bft) W-NW 290 0 min 0,000 mm 0,5 UV-I 102 W/m 14,1 C 14,7 C 1,6 km/h (1 Bft) 96,30 %
13.06.2018 16:38 14,8 C 24,4 C 96 % 1007,9 hPa 0,0 l/m 1,5 km/h (1 Bft) N 360 0 min 0,000 mm 0,5 UV-I 96 W/m 14,2 C 14,8 C 4,8 km/h (1 Bft) 95,65 %
13.06.2018 16:39 14,8 C 24,4 C 96 % 1008,0 hPa 0,2 l/m 1,9 km/h (1 Bft) N 355 0 min 0,000 mm 0,5 UV-I 91 W/m 14,2 C 14,8 C 4,8 km/h (1 Bft) 100,00 %
13.06.2018 16:40 14,8 C 24,4 C 96 % 1008,0 hPa 0,0 l/m 1,7 km/h (1 Bft) N 11 0 min 0,000 mm 0,5 UV-I 89 W/m 14,2 C 14,8 C 3,2 km/h (1 Bft) 95,65 %
13.06.2018 16:41 14,8 C 24,4 C 96 % 1007,9 hPa 0,0 l/m 0,9 km/h (0 Bft) N 11 0 min 0,000 mm 0,5 UV-I 88 W/m 14,2 C 14,8 C 1,6 km/h (1 Bft) 96,30 %
13.06.2018 16:42 14,8 C 24,4 C 96 % 1007,9 hPa 0,0 l/m 4,2 km/h (1 Bft) NW 318 0 min 0,000 mm 0,5 UV-I 88 W/m 14,2 C 14,8 C 8,0 km/h (2 Bft) 95,65 %
13.06.2018 16:43 14,7 C 24,4 C 96 % 1007,9 hPa 0,0 l/m 8,5 km/h (2 Bft) N-NW 346 0 min 0,000 mm 0,5 UV-I 90 W/m 14,1 C 13,5 C 12,9 km/h (3 Bft) 98,05 %
13.06.2018 16:44 14,7 C 24,4 C 96 % 1007,9 hPa 0,2 l/m 4,4 km/h (1 Bft) W 267 0 min 0,000 mm 0,5 UV-I 92 W/m 14,1 C 14,7 C 6,4 km/h (2 Bft) 97,73 %
13.06.2018 16:45 14,7 C 24,4 C 96 % 1008,0 hPa 0,0 l/m 1,6 km/h (1 Bft) W-NW 299 0 min 0,000 mm 0,5 UV-I 94 W/m 14,1 C 14,7 C 3,2 km/h (1 Bft) 95,83 %
13.06.2018 16:46 14,7 C 24,4 C 96 % 1007,9 hPa 0,0 l/m 2,0 km/h (1 Bft) N 355 0 min 0,000 mm 0,5 UV-I 96 W/m 14,1 C 14,7 C 4,8 km/h (1 Bft) 100,00 %
13.06.2018 16:48 14,6 C 24,4 C 96 % 1007,9 hPa 0,0 l/m 3,3 km/h (1 Bft) W-NW 298 0 min 0,000 mm 0,5 UV-I 97 W/m 14,0 C 14,6 C 6,4 km/h (2 Bft) 98,00 %
13.06.2018 16:49 14,7 C 24,4 C 96 % 1007,9 hPa 0,0 l/m 2,3 km/h (1 Bft) W 266 0 min 0,000 mm 0,5 UV-I 98 W/m 14,1 C 14,7 C 4,8 km/h (1 Bft) 91,67 %
13.06.2018 16:50 14,7 C 24,4 C 96 % 1008,0 hPa 0,0 l/m 0,1 km/h (0 Bft) W 266 0 min 0,000 mm 0,5 UV-I 98 W/m 14,1 C 14,7 C 1,6 km/h (1 Bft) 100,00 %
13.06.2018 16:51 14,7 C 24,4 C 96 % 1008,0 hPa 0,2 l/m 1,9 km/h (1 Bft) W 267 0 min 0,000 mm 0,5 UV-I 99 W/m 14,1 C 14,7 C 3,2 km/h (1 Bft) 88,24 %
13.06.2018 16:52 14,7 C 24,4 C 96 % 1008,0 hPa 0,0 l/m 4,6 km/h (1 Bft) N-NO 23 0 min 0,000 mm 0,5 UV-I 100 W/m 14,1 C 14,7 C 8,0 km/h (2 Bft) 100,00 %
13.06.2018 16:53 14,7 C 24,4 C 96 % 1008,0 hPa 0,0 l/m 2,3 km/h (1 Bft) N-NO 32 0 min 0,000 mm 0,5 UV-I 100 W/m 14,1 C 14,7 C 4,8 km/h (1 Bft) 100,00 %
13.06.2018 16:54 14,8 C 24,4 C 96 % 1008,0 hPa 0,0 l/m 0,4 km/h (0 Bft) N-NO 33 0 min 0,000 mm 0,5 UV-I 100 W/m 14,2 C 14,8 C 3,2 km/h (1 Bft) 100,00 %
13.06.2018 16:55 14,8 C 24,4 C 97 % 1008,0 hPa 0,0 l/m 0,7 km/h (0 Bft) NO 34 0 min 0,000 mm 0,5 UV-I 100 W/m 14,3 C 14,8 C 1,6 km/h (1 Bft) 100,00 %
13.06.2018 16:56 14,7 C 24,4 C 96 % 1008,1 hPa 0,0 l/m 1,7 km/h (1 Bft) N-NO 33 0 min 0,000 mm 0,5 UV-I 103 W/m 14,1 C 14,7 C 3,2 km/h (1 Bft) 95,83 %
13.06.2018 16:57 14,7 C 23,9 C 96 % 1008,1 hPa 0,0 l/m 1,4 km/h (1 Bft) W-NW 292 0 min 0,000 mm 0,5 UV-I 104 W/m 14,1 C 14,7 C 3,2 km/h (1 Bft) 100,00 %
13.06.2018 16:58 14,7 C 24,4 C 96 % 1008,1 hPa 0,0 l/m 3,9 km/h (1 Bft) W 277 0 min 0,000 mm 0,5 UV-I 105 W/m 14,1 C 14,7 C 6,4 km/h (2 Bft) 100,00 %
13.06.2018 16:59 14,7 C 23,9 C 96 % 1008,1 hPa 0,2 l/m 2,2 km/h (1 Bft) W-NW 284 0 min 0,000 mm 0,5 UV-I 104 W/m 14,1 C 14,7 C 6,4 km/h (2 Bft) 100,00 %
13.06.2018 17:00 14,7 C 23,9 C 96 % 1008,1 hPa 0,0 l/m 3,5 km/h (1 Bft) NW 313 0 min 0,000 mm 0,5 UV-I 104 W/m 14,1 C 14,7 C 6,4 km/h (2 Bft) 100,00 %
13.06.2018 17:02 14,8 C 23,9 C 96 % 1008,1 hPa 0,0 l/m 0,6 km/h (0 Bft) NW 313 0 min 0,051 mm 0,5 UV-I 101 W/m 14,2 C 14,8 C 3,2 km/h (1 Bft) 98,11 %
13.06.2018 17:03 14,8 C 23,9 C 97 % 1008,1 hPa 0,0 l/m 0,0 km/h (0 Bft) NW 313 0 min 0,000 mm 0,5 UV-I 103 W/m 14,3 C 14,8 C 0,0 km/h (0 Bft) 100,00 %
13.06.2018 17:04 14,8 C 23,9 C 96 % 1008,1 hPa 0,0 l/m 1,5 km/h (1 Bft) N-NW 329 0 min 0,000 mm 0,5 UV-I 104 W/m 14,2 C 14,8 C 4,8 km/h (1 Bft) 100,00 %
13.06.2018 17:05 14,8 C 23,9 C 96 % 1008,1 hPa 0,0 l/m 2,8 km/h (1 Bft) N-NW 336 0 min 0,000 mm 0,5 UV-I 103 W/m 14,2 C 14,8 C 3,2 km/h (1 Bft) 100,00 %
13.06.2018 17:06 14,8 C 23,9 C 96 % 1008,1 hPa 0,2 l/m 1,2 km/h (1 Bft) N-NW 335 0 min 0,000 mm 0,5 UV-I 102 W/m 14,2 C 14,8 C 3,2 km/h (1 Bft) 95,65 %
13.06.2018 17:08 14,8 C 23,9 C 96 % 1008,1 hPa 0,0 l/m 2,3 km/h (1 Bft) N 355 0 min 0,000 mm 0,5 UV-I 97 W/m 14,2 C 14,8 C 6,4 km/h (2 Bft) 100,00 %
13.06.2018 17:09 14,8 C 23,9 C 96 % 1008,1 hPa 0,0 l/m 0,6 km/h (0 Bft) N 351 0 min 0,000 mm 0,5 UV-I 96 W/m 14,2 C 14,8 C 3,2 km/h (1 Bft) 100,00 %
13.06.2018 17:10 14,8 C 23,9 C 96 % 1008,1 hPa 0,0 l/m 2,4 km/h (1 Bft) NW 318 0 min 0,000 mm 0,5 UV-I 94 W/m 14,2 C 14,8 C 4,8 km/h (1 Bft) 100,00 %
13.06.2018 17:11 14,8 C 23,9 C 96 % 1008,1 hPa 0,0 l/m 1,1 km/h (1 Bft) NW 320 0 min 0,000 mm 0,2 UV-I 89 W/m 14,2 C 14,8 C 3,2 km/h (1 Bft) 100,00 %
13.06.2018 17:12 14,8 C 23,9 C 97 % 1008,1 hPa 0,0 l/m 2,2 km/h (1 Bft) N 11 0 min 0,000 mm 0,0 UV-I 84 W/m 14,3 C 14,8 C 4,8 km/h (1 Bft) 100,00 %
13.06.2018 17:13 14,8 C 23,9 C 96 % 1008,1 hPa 0,2 l/m 2,3 km/h (1 Bft) N 11 0 min 0,000 mm 0,0 UV-I 78 W/m 14,2 C 14,8 C 3,2 km/h (1 Bft) 100,00 %
13.06.2018 17:14 14,8 C 23,9 C 96 % 1008,2 hPa 0,0 l/m 1,5 km/h (1 Bft) NW 304 0 min 0,000 mm 0,0 UV-I 75 W/m 14,2 C 14,8 C 3,2 km/h (1 Bft) 100,00 %
13.06.2018 17:15 14,8 C 23,9 C 96 % 1008,2 hPa 0,0 l/m 2,0 km/h (1 Bft) NW 306 0 min 0,000 mm 0,0 UV-I 70 W/m 14,2 C 14,8 C 3,2 km/h (1 Bft) 100,00 %
13.06.2018 17:16 14,8 C 23,9 C 96 % 1008,2 hPa 0,0 l/m 0,5 km/h (0 Bft) NW 306 0 min 0,000 mm 0,0 UV-I 69 W/m 14,2 C 14,8 C 1,6 km/h (1 Bft) 100,00 %
13.06.2018 17:17 14,8 C 23,9 C 96 % 1008,1 hPa 0,0 l/m 0,3 km/h (0 Bft) NW 305 0 min 0,000 mm 0,0 UV-I 70 W/m 14,2 C 14,8 C 1,6 km/h (1 Bft) 100,00 %
13.06.2018 17:18 14,8 C 23,9 C 96 % 1008,1 hPa 0,0 l/m 0,0 km/h (0 Bft) NW 305 0 min 0,000 mm 0,0 UV-I 75 W/m 14,2 C 14,8 C 0,0 km/h (0 Bft) 100,00 %
13.06.2018 17:19 14,8 C 23,9 C 96 % 1008,2 hPa 0,0 l/m 2,3 km/h (1 Bft) NW 323 0 min 0,000 mm 0,0 UV-I 80 W/m 14,2 C 14,8 C 6,4 km/h (2 Bft) 100,00 %
13.06.2018 17:20 14,8 C 23,9 C 97 % 1008,1 hPa 0,2 l/m 2,2 km/h (1 Bft) NW 309 0 min 0,000 mm 0,0 UV-I 83 W/m 14,3 C 14,8 C 3,2 km/h (1 Bft) 100,00 %
13.06.2018 17:21 14,9 C 23,9 C 97 % 1008,1 hPa 0,0 l/m 2,0 km/h (1 Bft) NW 309 0 min 0,000 mm 0,0 UV-I 83 W/m 14,4 C 14,9 C 3,2 km/h (1 Bft) 100,00 %
13.06.2018 17:22 14,9 C 23,9 C 97 % 1008,2 hPa 0,0 l/m 3,1 km/h (1 Bft) N-NW 333 0 min 0,000 mm 0,0 UV-I 84 W/m 14,4 C 14,9 C 4,8 km/h (1 Bft) 100,00 %
13.06.2018 17:23 14,8 C 23,9 C 97 % 1008,1 hPa 0,0 l/m 0,6 km/h (0 Bft) N-NW 333 0 min 0,000 mm 0,0 UV-I 87 W/m 14,3 C 14,8 C 3,2 km/h (1 Bft) 100,00 %
13.06.2018 17:24 14,9 C 23,9 C 97 % 1008,2 hPa 0,0 l/m 0,3 km/h (0 Bft) N-NW 336 0 min 0,000 mm 0,0 UV-I 88 W/m 14,4 C 14,9 C 1,6 km/h (1 Bft) 100,00 %
13.06.2018 17:25 14,9 C 23,9 C 97 % 1008,2 hPa 0,0 l/m 0,1 km/h (0 Bft) N-NW 336 0 min 0,000 mm 0,0 UV-I 86 W/m 14,4 C 14,9 C 1,6 km/h (1 Bft) 100,00 %
13.06.2018 17:26 14,9 C 23,9 C 97 % 1008,2 hPa 0,0 l/m 0,0 km/h (0 Bft) N-NW 336 0 min 0,000 mm 0,0 UV-I 85 W/m 14,4 C 14,9 C 0,0 km/h (0 Bft) 95,65 %
13.06.2018 17:27 14,9 C 23,9 C 97 % 1008,2 hPa 0,0 l/m 0,7 km/h (0 Bft) N-NW 336 0 min 0,000 mm 0,0 UV-I 86 W/m 14,4 C 14,9 C 3,2 km/h (1 Bft) 100,00 %
13.06.2018 17:28 14,9 C 23,9 C 97 % 1008,2 hPa 0,0 l/m 0,9 km/h (0 Bft) N-NW 336 0 min 0,000 mm 0,0 UV-I 88 W/m 14,4 C 14,9 C 3,2 km/h (1 Bft) 100,00 %
13.06.2018 17:29 14,9 C 23,9 C 97 % 1008,2 hPa 0,0 l/m 1,6 km/h (1 Bft) N-NW 337 0 min 0,000 mm 0,0 UV-I 90 W/m 14,4 C 14,9 C 3,2 km/h (1 Bft) 100,00 %
13.06.2018 17:30 14,9 C 23,9 C 97 % 1008,3 hPa 0,0 l/m 0,4 km/h (0 Bft) N-NW 337 0 min 0,000 mm 0,0 UV-I 91 W/m 14,4 C 14,9 C 1,6 km/h (1 Bft) 100,00 %
13.06.2018 17:31 14,9 C 23,9 C 97 % 1008,3 hPa 0,2 l/m 2,7 km/h (1 Bft) W 279 0 min 0,000 mm 0,0 UV-I 91 W/m 14,4 C 14,9 C 4,8 km/h (1 Bft) 100,00 %
13.06.2018 17:32 15,0 C 23,9 C 97 % 1008,2 hPa 0,0 l/m 1,5 km/h (1 Bft) W 281 0 min 0,000 mm 0,0 UV-I 89 W/m 14,5 C 15,0 C 3,2 km/h (1 Bft) 100,00 %
13.06.2018 17:33 14,9 C 23,9 C 97 % 1008,3 hPa 0,0 l/m 0,1 km/h (0 Bft) W 281 0 min 0,000 mm 0,0 UV-I 87 W/m 14,4 C 14,9 C 1,6 km/h (1 Bft) 100,00 %
13.06.2018 17:34 14,9 C 23,9 C 97 % 1008,3 hPa 0,0 l/m 2,3 km/h (1 Bft) W-NW 286 0 min 0,000 mm 0,0 UV-I 85 W/m 14,4 C 14,9 C 3,2 km/h (1 Bft) 100,00 %
13.06.2018 17:35 14,9 C 23,9 C 97 % 1008,3 hPa 0,0 l/m 2,1 km/h (1 Bft) W-NW 292 0 min 0,000 mm 0,0 UV-I 81 W/m 14,4 C 14,9 C 3,2 km/h (1 Bft) 100,00 %
13.06.2018 17:36 14,8 C 23,9 C 96 % 1008,3 hPa 0,0 l/m 2,2 km/h (1 Bft) W-NW 289 0 min 0,000 mm 0,0 UV-I 79 W/m 14,2 C 14,8 C 3,2 km/h (1 Bft) 100,00 %
13.06.2018 17:37 14,9 C 23,9 C 96 % 1008,3 hPa 0,0 l/m 2,3 km/h (1 Bft) W-NW 291 0 min 0,000 mm 0,0 UV-I 76 W/m 14,3 C 14,9 C 4,8 km/h (1 Bft) 100,00 %
13.06.2018 17:38 14,9 C 23,9 C 96 % 1008,3 hPa 0,0 l/m 2,1 km/h (1 Bft) W-NW 291 0 min 0,000 mm 0,0 UV-I 73 W/m 14,3 C 14,9 C 4,8 km/h (1 Bft) 100,00 %
13.06.2018 17:39 14,9 C 23,9 C 96 % 1008,4 hPa 0,0 l/m 0,4 km/h (0 Bft) W-NW 291 0 min 0,000 mm 0,0 UV-I 71 W/m 14,3 C 14,9 C 3,2 km/h (1 Bft) 100,00 %
13.06.2018 17:40 14,9 C 23,9 C 96 % 1008,4 hPa 0,0 l/m 0,1 km/h (0 Bft) W 274 0 min 0,000 mm 0,0 UV-I 70 W/m 14,3 C 14,9 C 1,6 km/h (1 Bft) 100,00 %
13.06.2018 17:41 14,9 C 23,9 C 96 % 1008,3 hPa 0,0 l/m 2,1 km/h (1 Bft) W 276 0 min 0,000 mm 0,0 UV-I 69 W/m 14,3 C 14,9 C 4,8 km/h (1 Bft) 100,00 %
13.06.2018 17:42 14,9 C 23,9 C 96 % 1008,4 hPa 0,0 l/m 1,1 km/h (1 Bft) W 267 0 min 0,000 mm 0,0 UV-I 69 W/m 14,3 C 14,9 C 3,2 km/h (1 Bft) 100,00 %
13.06.2018 17:43 14,9 C 23,9 C 96 % 1008,4 hPa 0,0 l/m 0,9 km/h (0 Bft) W 263 0 min 0,000 mm 0,0 UV-I 69 W/m 14,3 C 14,9 C 3,2 km/h (1 Bft) 95,83 %
13.06.2018 17:44 14,9 C 23,9 C 96 % 1008,4 hPa 0,0 l/m 2,9 km/h (1 Bft) W 264 0 min 0,000 mm 0,0 UV-I 70 W/m 14,3 C 14,9 C 4,8 km/h (1 Bft) 95,65 %
13.06.2018 17:45 14,9 C 23,9 C 96 % 1008,4 hPa 0,0 l/m 2,8 km/h (1 Bft) W 264 0 min 0,000 mm 0,0 UV-I 71 W/m 14,3 C 14,9 C 4,8 km/h (1 Bft) 100,00 %
13.06.2018 17:46 14,9 C 23,9 C 96 % 1008,4 hPa 0,0 l/m 1,4 km/h (1 Bft) W 264 0 min 0,000 mm 0,0 UV-I 74 W/m 14,3 C 14,9 C 3,2 km/h (1 Bft) 96,15 %
13.06.2018 17:47 14,9 C 23,9 C 96 % 1008,4 hPa 0,0 l/m 2,3 km/h (1 Bft) W-SW 254 0 min 0,000 mm 0,0 UV-I 76 W/m 14,3 C 14,9 C 3,2 km/h (1 Bft) 95,83 %
13.06.2018 17:48 14,9 C 23,9 C 96 % 1008,4 hPa 0,0 l/m 2,2 km/h (1 Bft) W-SW 257 0 min 0,000 mm 0,0 UV-I 76 W/m 14,3 C 14,9 C 3,2 km/h (1 Bft) 100,00 %
13.06.2018 17:49 14,9 C 23,9 C 96 % 1008,4 hPa 0,0 l/m 0,4 km/h (0 Bft) W-SW 257 0 min 0,000 mm 0,0 UV-I 77 W/m 14,3 C 14,9 C 3,2 km/h (1 Bft) 100,00 %
13.06.2018 17:50 14,9 C 23,9 C 96 % 1008,4 hPa 0,0 l/m 0,8 km/h (0 Bft) W-SW 257 0 min 0,000 mm 0,0 UV-I 78 W/m 14,3 C 14,9 C 3,2 km/h (1 Bft) 100,00 %
13.06.2018 17:51 14,9 C 23,9 C 96 % 1008,4 hPa 0,0 l/m 2,5 km/h (1 Bft) W-SW 257 0 min 0,000 mm 0,0 UV-I 79 W/m 14,3 C 14,9 C 4,8 km/h (1 Bft) 100,00 %
13.06.2018 17:53 15,0 C 23,9 C 96 % 1008,5 hPa 0,0 l/m 0,2 km/h (0 Bft) W-SW 257 0 min 0,000 mm 0,0 UV-I 81 W/m 14,4 C 15,0 C 1,6 km/h (1 Bft) 100,00 %
13.06.2018 17:54 15,0 C 23,9 C 96 % 1008,5 hPa 0,0 l/m 1,0 km/h (0 Bft) W 259 0 min 0,000 mm 0,0 UV-I 83 W/m 14,4 C 15,0 C 1,6 km/h (1 Bft) 100,00 %
13.06.2018 17:55 15,0 C 23,9 C 96 % 1008,5 hPa 0,0 l/m 1,1 km/h (1 Bft) W 259 0 min 0,000 mm 0,0 UV-I 82 W/m 14,4 C 15,0 C 3,2 km/h (1 Bft) 96,30 %
13.06.2018 17:56 15,1 C 23,9 C 96 % 1008,5 hPa 0,0 l/m 1,3 km/h (1 Bft) W 259 0 min 0,000 mm 0,0 UV-I 80 W/m 14,5 C 15,1 C 3,2 km/h (1 Bft) 100,00 %
13.06.2018 17:57 15,0 C 23,9 C 96 % 1008,6 hPa 0,0 l/m 0,0 km/h (0 Bft) W 259 0 min 0,000 mm 0,0 UV-I 78 W/m 14,4 C 15,0 C 0,0 km/h (0 Bft) 100,00 %
13.06.2018 17:58 15,1 C 23,9 C 96 % 1008,6 hPa 0,0 l/m 0,0 km/h (0 Bft) W 259 0 min 0,000 mm 0,0 UV-I 75 W/m 14,5 C 15,1 C 0,0 km/h (0 Bft) 100,00 %
13.06.2018 17:59 15,1 C 23,9 C 96 % 1008,6 hPa 0,0 l/m 0,0 km/h (0 Bft) W 259 0 min 0,000 mm 0,0 UV-I 72 W/m 14,5 C 15,1 C 0,0 km/h (0 Bft) 100,00 %
13.06.2018 18:00 15,2 C 23,9 C 96 % 1008,6 hPa 0,0 l/m 0,0 km/h (0 Bft) W 259 0 min 0,000 mm 0,0 UV-I 69 W/m 14,6 C 15,2 C 0,0 km/h (0 Bft) 100,00 %
13.06.2018 18:02 15,1 C 23,9 C 96 % 1008,6 hPa 0,0 l/m 2,4 km/h (1 Bft) W 267 0 min 0,051 mm 0,0 UV-I 65 W/m 14,5 C 15,1 C 4,8 km/h (1 Bft) 100,00 %
13.06.2018 18:03 15,1 C 23,9 C 96 % 1008,6 hPa 0,0 l/m 0,9 km/h (0 Bft) W 267 0 min 0,000 mm 0,0 UV-I 61 W/m 14,5 C 15,1 C 1,6 km/h (1 Bft) 100,00 %
13.06.2018 18:04 15,1 C 23,9 C 96 % 1008,6 hPa 0,0 l/m 1,2 km/h (1 Bft) W 267 0 min 0,000 mm 0,0 UV-I 57 W/m 14,5 C 15,1 C 1,6 km/h (1 Bft) 100,00 %
13.06.2018 18:05 15,1 C 23,9 C 96 % 1008,6 hPa 0,0 l/m 0,3 km/h (0 Bft) W 267 0 min 0,000 mm 0,0 UV-I 53 W/m 14,5 C 15,1 C 1,6 km/h (1 Bft) 100,00 %
13.06.2018 18:06 15,1 C 23,9 C 96 % 1008,6 hPa 0,0 l/m 2,5 km/h (1 Bft) W 267 0 min 0,000 mm 0,0 UV-I 53 W/m 14,5 C 15,1 C 3,2 km/h (1 Bft) 100,00 %
13.06.2018 18:07 15,1 C 23,9 C 96 % 1008,6 hPa 0,0 l/m 1,8 km/h (1 Bft) W 268 0 min 0,000 mm 0,0 UV-I 51 W/m 14,5 C 15,1 C 3,2 km/h (1 Bft) 100,00 %
13.06.2018 18:08 15,1 C 23,9 C 96 % 1008,7 hPa 0,0 l/m 2,9 km/h (1 Bft) W 269 0 min 0,000 mm 0,0 UV-I 48 W/m 14,5 C 15,1 C 4,8 km/h (1 Bft) 100,00 %
13.06.2018 18:09 15,1 C 23,9 C 96 % 1008,7 hPa 0,0 l/m 2,9 km/h (1 Bft) W 268 0 min 0,000 mm 0,0 UV-I 47 W/m 14,5 C 15,1 C 4,8 km/h (1 Bft) 100,00 %
13.06.2018 18:10 15,1 C 23,9 C 96 % 1008,7 hPa 0,0 l/m 2,1 km/h (1 Bft) W 268 0 min 0,000 mm 0,0 UV-I 46 W/m 14,5 C 15,1 C 3,2 km/h (1 Bft) 100,00 %
13.06.2018 18:11 15,2 C 23,9 C 96 % 1008,7 hPa 0,0 l/m 1,9 km/h (1 Bft) W 267 0 min 0,000 mm 0,0 UV-I 44 W/m 14,6 C 15,2 C 3,2 km/h (1 Bft) 96,15 %
13.06.2018 18:12 15,2 C 23,9 C 96 % 1008,7 hPa 0,0 l/m 2,7 km/h (1 Bft) W 260 0 min 0,000 mm 0,0 UV-I 42 W/m 14,6 C 15,2 C 4,8 km/h (1 Bft) 100,00 %
13.06.2018 18:13 15,2 C 23,9 C 96 % 1008,7 hPa 0,0 l/m 3,4 km/h (1 Bft) W 266 0 min 0,000 mm 0,0 UV-I 41 W/m 14,6 C 15,2 C 4,8 km/h (1 Bft) 95,65 %
13.06.2018 18:14 15,2 C 23,9 C 96 % 1008,7 hPa 0,0 l/m 4,1 km/h (1 Bft) W 264 0 min 0,000 mm 0,0 UV-I 38 W/m 14,6 C 15,2 C 4,8 km/h (1 Bft) 100,00 %
13.06.2018 18:15 15,2 C 23,9 C 96 % 1008,7 hPa 0,0 l/m 2,9 km/h (1 Bft) W 261 0 min 0,000 mm 0,0 UV-I 36 W/m 14,6 C 15,2 C 4,8 km/h (1 Bft) 100,00 %
13.06.2018 18:16 15,2 C 23,9 C 96 % 1008,7 hPa 0,2 l/m 2,1 km/h (1 Bft) W 261 0 min 0,000 mm 0,0 UV-I 33 W/m 14,6 C 15,2 C 3,2 km/h (1 Bft) 100,00 %
13.06.2018 18:17 15,2 C 23,9 C 96 % 1008,7 hPa 0,0 l/m 3,4 km/h (1 Bft) W-SW 240 0 min 0,000 mm 0,0 UV-I 33 W/m 14,6 C 15,2 C 6,4 km/h (2 Bft) 96,15 %
13.06.2018 18:18 15,2 C 23,9 C 96 % 1008,7 hPa 0,0 l/m 3,1 km/h (1 Bft) W-SW 242 0 min 0,000 mm 0,0 UV-I 32 W/m 14,6 C 15,2 C 4,8 km/h (1 Bft) 95,83 %
13.06.2018 18:19 15,2 C 23,9 C 96 % 1008,6 hPa 0,0 l/m 3,4 km/h (1 Bft) W-SW 242 0 min 0,000 mm 0,0 UV-I 28 W/m 14,6 C 15,2 C 4,8 km/h (1 Bft) 100,00 %
13.06.2018 18:20 15,3 C 23,9 C 96 % 1008,7 hPa 0,0 l/m 2,3 km/h (1 Bft) W-SW 243 0 min 0,000 mm 0,0 UV-I 26 W/m 14,7 C 15,3 C 4,8 km/h (1 Bft) 100,00 %
13.06.2018 18:21 15,3 C 23,9 C 96 % 1008,7 hPa 0,0 l/m 1,3 km/h (1 Bft) NW 313 0 min 0,000 mm 0,0 UV-I 25 W/m 14,7 C 15,3 C 3,2 km/h (1 Bft) 96,30 %
13.06.2018 18:22 15,2 C 23,9 C 96 % 1008,8 hPa 0,2 l/m 4,8 km/h (1 Bft) W 265 0 min 0,000 mm 0,0 UV-I 26 W/m 14,6 C 15,2 C 8,0 km/h (2 Bft) 96,55 %
13.06.2018 18:23 15,2 C 23,9 C 96 % 1008,7 hPa 0,0 l/m 2,6 km/h (1 Bft) W-NW 295 0 min 0,000 mm 0,0 UV-I 32 W/m 14,6 C 15,2 C 4,8 km/h (1 Bft) 100,00 %
13.06.2018 18:24 15,1 C 23,9 C 96 % 1008,8 hPa 0,2 l/m 3,7 km/h (1 Bft) W-NW 286 0 min 0,000 mm 0,0 UV-I 34 W/m 14,5 C 15,1 C 9,7 km/h (2 Bft) 95,83 %
13.06.2018 18:25 15,1 C 23,9 C 96 % 1008,7 hPa 0,0 l/m 4,4 km/h (1 Bft) N 355 0 min 0,000 mm 0,0 UV-I 37 W/m 14,5 C 15,1 C 8,0 km/h (2 Bft) 100,00 %
13.06.2018 18:26 15,1 C 23,9 C 96 % 1008,8 hPa 0,0 l/m 4,2 km/h (1 Bft) N-NW 327 0 min 0,000 mm 0,0 UV-I 42 W/m 14,5 C 15,1 C 8,0 km/h (2 Bft) 87,50 %
13.06.2018 18:27 15,2 C 23,9 C 96 % 1008,8 hPa 0,0 l/m 6,6 km/h (2 Bft) W-SW 255 0 min 0,000 mm 0,0 UV-I 48 W/m 14,6 C 15,1 C 8,0 km/h (2 Bft) 95,83 %
13.06.2018 18:28 15,1 C 23,9 C 96 % 1008,8 hPa 0,0 l/m 3,6 km/h (1 Bft) W-NW 290 0 min 0,000 mm 0,0 UV-I 49 W/m 14,5 C 15,1 C 6,4 km/h (2 Bft) 100,00 %
13.06.2018 18:29 15,1 C 23,9 C 96 % 1008,8 hPa 0,2 l/m 2,5 km/h (1 Bft) N-NW 343 0 min 0,000 mm 0,0 UV-I 51 W/m 14,5 C 15,1 C 3,2 km/h (1 Bft) 100,00 %
13.06.2018 18:30 15,1 C 23,9 C 96 % 1008,9 hPa 0,0 l/m 3,3 km/h (1 Bft) NW 323 0 min 0,000 mm 0,0 UV-I 51 W/m 14,5 C 15,1 C 4,8 km/h (1 Bft) 96,15 %
13.06.2018 18:31 15,1 C 23,9 C 96 % 1008,9 hPa 0,0 l/m 3,0 km/h (1 Bft) W-NW 288 0 min 0,000 mm 0,0 UV-I 51 W/m 14,5 C 15,1 C 4,8 km/h (1 Bft) 95,83 %
13.06.2018 18:32 15,1 C 23,9 C 96 % 1008,9 hPa 0,0 l/m 2,3 km/h (1 Bft) W 265 0 min 0,000 mm 0,0 UV-I 50 W/m 14,5 C 15,1 C 4,8 km/h (1 Bft) 92,31 %
13.06.2018 18:33 15,0 C 23,9 C 96 % 1008,8 hPa 0,0 l/m 1,9 km/h (1 Bft) W-NW 290 0 min 0,000 mm 0,0 UV-I 49 W/m 14,4 C 15,0 C 4,8 km/h (1 Bft) 96,30 %
13.06.2018 18:34 15,1 C 23,9 C 96 % 1008,9 hPa 0,0 l/m 3,5 km/h (1 Bft) NW 323 0 min 0,000 mm 0,0 UV-I 46 W/m 14,5 C 15,1 C 6,4 km/h (2 Bft) 100,00 %
13.06.2018 18:35 15,1 C 23,9 C 96 % 1008,9 hPa 0,0 l/m 5,7 km/h (1 Bft) NW 311 0 min 0,000 mm 0,0 UV-I 42 W/m 14,5 C 15,1 C 9,7 km/h (2 Bft) 91,67 %
13.06.2018 18:36 15,0 C 23,9 C 96 % 1008,9 hPa 0,0 l/m 2,5 km/h (1 Bft) NW 319 0 min 0,000 mm 0,0 UV-I 40 W/m 14,4 C 15,0 C 8,0 km/h (2 Bft) 100,00 %
13.06.2018 18:37 15,0 C 23,9 C 96 % 1009,0 hPa 0,2 l/m 0,0 km/h (0 Bft) NW 319 0 min 0,000 mm 0,0 UV-I 39 W/m 14,4 C 15,0 C 0,0 km/h (0 Bft) 95,83 %
13.06.2018 18:38 15,0 C 23,9 C 96 % 1009,0 hPa 0,0 l/m 0,1 km/h (0 Bft) NW 319 0 min 0,000 mm 0,0 UV-I 39 W/m 14,4 C 15,0 C 1,6 km/h (1 Bft) 91,30 %
13.06.2018 18:39 15,0 C 23,9 C 96 % 1009,0 hPa 0,0 l/m 0,0 km/h (0 Bft) NW 320 0 min 0,000 mm 0,0 UV-I 39 W/m 14,4 C 15,0 C 0,0 km/h (0 Bft) 100,00 %
13.06.2018 18:40 15,1 C 23,9 C 96 % 1009,0 hPa 0,0 l/m 0,0 km/h (0 Bft) NW 321 0 min 0,000 mm 0,0 UV-I 39 W/m 14,5 C 15,1 C 0,0 km/h (0 Bft) 95,65 %
13.06.2018 18:41 15,1 C 23,9 C 96 % 1009,0 hPa 0,0 l/m 3,4 km/h (1 Bft) N 355 0 min 0,000 mm 0,0 UV-I 39 W/m 14,5 C 15,1 C 8,0 km/h (2 Bft) 100,00 %
13.06.2018 18:42 15,0 C 23,9 C 96 % 1009,0 hPa 0,0 l/m 1,9 km/h (1 Bft) W 280 0 min 0,000 mm 0,0 UV-I 38 W/m 14,4 C 15,0 C 4,8 km/h (1 Bft) 91,67 %
13.06.2018 18:43 14,9 C 23,9 C 96 % 1009,0 hPa 0,0 l/m 1,4 km/h (1 Bft) W-NW 282 0 min 0,000 mm 0,0 UV-I 38 W/m 14,3 C 14,9 C 3,2 km/h (1 Bft) 100,00 %
13.06.2018 18:44 14,9 C 23,9 C 96 % 1009,1 hPa 0,2 l/m 2,8 km/h (1 Bft) W-SW 244 0 min 0,000 mm 0,0 UV-I 40 W/m 14,3 C 14,9 C 4,8 km/h (1 Bft) 91,67 %
13.06.2018 18:45 14,9 C 23,9 C 96 % 1009,1 hPa 0,0 l/m 2,4 km/h (1 Bft) W-NW 286 0 min 0,000 mm 0,0 UV-I 42 W/m 14,3 C 14,9 C 4,8 km/h (1 Bft) 100,00 %
13.06.2018 18:46 14,9 C 23,9 C 96 % 1009,1 hPa 0,0 l/m 0,5 km/h (0 Bft) W-NW 286 0 min 0,000 mm 0,0 UV-I 42 W/m 14,3 C 14,9 C 3,2 km/h (1 Bft) 95,83 %
13.06.2018 18:47 14,8 C 23,9 C 96 % 1009,1 hPa 0,0 l/m 0,5 km/h (0 Bft) W-NW 287 0 min 0,000 mm 0,0 UV-I 44 W/m 14,2 C 14,8 C 1,6 km/h (1 Bft) 95,65 %
13.06.2018 18:48 14,9 C 23,9 C 96 % 1009,1 hPa 0,0 l/m 0,9 km/h (0 Bft) W-NW 288 0 min 0,000 mm 0,0 UV-I 46 W/m 14,3 C 14,9 C 3,2 km/h (1 Bft) 100,00 %
13.06.2018 18:49 14,9 C 23,9 C 96 % 1009,1 hPa 0,0 l/m 1,6 km/h (1 Bft) N 351 0 min 0,000 mm 0,0 UV-I 48 W/m 14,3 C 14,9 C 3,2 km/h (1 Bft) 95,65 %
13.06.2018 18:50 14,8 C 23,9 C 96 % 1009,2 hPa 0,0 l/m 1,1 km/h (1 Bft) N-NW 346 0 min 0,000 mm 0,0 UV-I 50 W/m 14,2 C 14,8 C 4,8 km/h (1 Bft) 100,00 %
13.06.2018 18:51 14,8 C 23,9 C 96 % 1009,2 hPa 0,0 l/m 4,9 km/h (1 Bft) N-NW 341 0 min 0,000 mm 0,0 UV-I 53 W/m 14,2 C 14,8 C 9,7 km/h (2 Bft) 100,00 %
13.06.2018 18:52 14,8 C 23,9 C 96 % 1009,2 hPa 0,0 l/m 5,4 km/h (1 Bft) N 355 0 min 0,000 mm 0,0 UV-I 54 W/m 14,2 C 14,8 C 6,4 km/h (2 Bft) 100,00 %
13.06.2018 18:53 14,8 C 23,9 C 96 % 1009,3 hPa 0,0 l/m 3,5 km/h (1 Bft) N 5 0 min 0,000 mm 0,0 UV-I 58 W/m 14,2 C 14,8 C 6,4 km/h (2 Bft) 92,86 %
13.06.2018 18:54 14,8 C 23,9 C 96 % 1009,3 hPa 0,0 l/m 1,9 km/h (1 Bft) N 9 0 min 0,000 mm 0,0 UV-I 59 W/m 14,2 C 14,8 C 3,2 km/h (1 Bft) 96,30 %
13.06.2018 18:55 14,8 C 23,9 C 96 % 1009,3 hPa 0,0 l/m 2,1 km/h (1 Bft) NW 322 0 min 0,000 mm 0,0 UV-I 60 W/m 14,2 C 14,8 C 6,4 km/h (2 Bft) 95,65 %
13.06.2018 18:56 14,9 C 23,9 C 96 % 1009,3 hPa 0,0 l/m 3,5 km/h (1 Bft) NO 38 0 min 0,000 mm 0,0 UV-I 61 W/m 14,3 C 14,9 C 4,8 km/h (1 Bft) 92,59 %
13.06.2018 18:57 14,9 C 23,9 C 96 % 1009,3 hPa 0,0 l/m 4,7 km/h (1 Bft) N-NO 13 0 min 0,000 mm 0,0 UV-I 62 W/m 14,3 C 14,9 C 6,4 km/h (2 Bft) 96,15 %
13.06.2018 18:58 14,9 C 23,9 C 96 % 1009,3 hPa 0,0 l/m 2,8 km/h (1 Bft) N-NO 14 0 min 0,000 mm 0,0 UV-I 62 W/m 14,3 C 14,9 C 4,8 km/h (1 Bft) 100,00 %
13.06.2018 18:59 14,9 C 23,9 C 96 % 1009,3 hPa 0,0 l/m 3,6 km/h (1 Bft) N 5 0 min 0,000 mm 0,0 UV-I 62 W/m 14,3 C 14,9 C 4,8 km/h (1 Bft) 95,65 %
13.06.2018 19:00 14,8 C 23,9 C 96 % 1009,3 hPa 0,0 l/m 4,1 km/h (1 Bft) N-NW 334 0 min 0,000 mm 0,0 UV-I 62 W/m 14,2 C 14,8 C 4,8 km/h (1 Bft) 100,00 %
13.06.2018 19:02 14,8 C 23,9 C 96 % 1009,4 hPa 0,0 l/m 1,8 km/h (1 Bft) N-NW 339 0 min 0,025 mm 0,0 UV-I 61 W/m 14,2 C 14,8 C 3,2 km/h (1 Bft) 94,74 %
13.06.2018 19:03 14,8 C 23,9 C 96 % 1009,4 hPa 0,0 l/m 2,2 km/h (1 Bft) N-NW 341 0 min 0,000 mm 0,0 UV-I 60 W/m 14,2 C 14,8 C 4,8 km/h (1 Bft) 95,83 %
13.06.2018 19:04 14,8 C 23,9 C 96 % 1009,4 hPa 0,0 l/m 4,3 km/h (1 Bft) N 350 0 min 0,000 mm 0,0 UV-I 60 W/m 14,2 C 14,8 C 6,4 km/h (2 Bft) 100,00 %
13.06.2018 19:05 14,8 C 23,9 C 96 % 1009,4 hPa 0,0 l/m 3,8 km/h (1 Bft) N 355 0 min 0,000 mm 0,0 UV-I 60 W/m 14,2 C 14,8 C 6,4 km/h (2 Bft) 96,30 %
13.06.2018 19:06 14,9 C 23,9 C 96 % 1009,4 hPa 0,0 l/m 2,4 km/h (1 Bft) N 355 0 min 0,000 mm 0,0 UV-I 60 W/m 14,3 C 14,9 C 3,2 km/h (1 Bft) 100,00 %
13.06.2018 19:08 14,9 C 23,9 C 96 % 1009,4 hPa 0,2 l/m 2,1 km/h (1 Bft) N 350 0 min 0,000 mm 0,0 UV-I 60 W/m 14,3 C 14,9 C 3,2 km/h (1 Bft) 96,23 %
13.06.2018 19:09 14,9 C 23,9 C 96 % 1009,4 hPa 0,0 l/m 2,9 km/h (1 Bft) N 355 0 min 0,000 mm 0,0 UV-I 60 W/m 14,3 C 14,9 C 3,2 km/h (1 Bft) 95,83 %
13.06.2018 19:10 15,0 C 23,9 C 96 % 1009,4 hPa 0,0 l/m 1,7 km/h (1 Bft) N 355 0 min 0,000 mm 0,0 UV-I 58 W/m 14,4 C 15,0 C 3,2 km/h (1 Bft) 96,15 %
13.06.2018 19:11 15,0 C 23,9 C 96 % 1009,4 hPa 0,0 l/m 2,0 km/h (1 Bft) N 355 0 min 0,000 mm 0,0 UV-I 55 W/m 14,4 C 15,0 C 3,2 km/h (1 Bft) 100,00 %
13.06.2018 19:13 14,9 C 23,9 C 96 % 1009,4 hPa 0,0 l/m 3,1 km/h (1 Bft) N-NO 15 0 min 0,000 mm 0,0 UV-I 51 W/m 14,3 C 14,9 C 4,8 km/h (1 Bft) 97,87 %
13.06.2018 19:14 14,9 C 23,9 C 96 % 1009,4 hPa 0,0 l/m 5,8 km/h (2 Bft) N-NO 17 0 min 0,000 mm 0,0 UV-I 49 W/m 14,3 C 14,9 C 8,0 km/h (2 Bft) 92,86 %
13.06.2018 19:15 14,9 C 23,9 C 96 % 1009,4 hPa 0,0 l/m 1,6 km/h (1 Bft) N-NO 17 0 min 0,000 mm 0,0 UV-I 46 W/m 14,3 C 14,9 C 3,2 km/h (1 Bft) 96,30 %
13.06.2018 19:16 15,0 C 23,9 C 96 % 1009,4 hPa 0,0 l/m 2,6 km/h (1 Bft) NO 51 0 min 0,000 mm 0,0 UV-I 44 W/m 14,4 C 15,0 C 4,8 km/h (1 Bft) 95,65 %
13.06.2018 19:18 15,1 C 23,9 C 96 % 1009,5 hPa 0,0 l/m 2,9 km/h (1 Bft) N-NO 17 0 min 0,000 mm 0,0 UV-I 41 W/m 14,5 C 15,1 C 4,8 km/h (1 Bft) 96,00 %
13.06.2018 19:19 15,0 C 23,9 C 96 % 1009,5 hPa 0,0 l/m 0,9 km/h (0 Bft) N-NO 17 0 min 0,000 mm 0,0 UV-I 39 W/m 14,4 C 15,0 C 3,2 km/h (1 Bft) 100,00 %
13.06.2018 19:20 15,1 C 23,9 C 96 % 1009,5 hPa 0,0 l/m 1,9 km/h (1 Bft) N-NW 345 0 min 0,000 mm 0,0 UV-I 40 W/m 14,5 C 15,1 C 3,2 km/h (1 Bft) 96,30 %
13.06.2018 19:21 15,1 C 23,9 C 96 % 1009,5 hPa 0,0 l/m 0,3 km/h (0 Bft) N-NW 346 0 min 0,000 mm 0,0 UV-I 42 W/m 14,5 C 15,1 C 1,6 km/h (1 Bft) 96,15 %
13.06.2018 19:22 15,1 C 23,9 C 96 % 1009,5 hPa 0,0 l/m 0,3 km/h (0 Bft) N-NW 346 0 min 0,000 mm 0,0 UV-I 41 W/m 14,5 C 15,1 C 1,6 km/h (1 Bft) 100,00 %
13.06.2018 19:23 15,0 C 23,9 C 96 % 1009,5 hPa 0,0 l/m 0,0 km/h (0 Bft) N-NW 346 0 min 0,000 mm 0,0 UV-I 38 W/m 14,4 C 15,0 C 0,0 km/h (0 Bft) 95,65 %
13.06.2018 19:24 15,1 C 23,9 C 96 % 1009,5 hPa 0,0 l/m 0,0 km/h (0 Bft) N-NW 346 0 min 0,000 mm 0,0 UV-I 35 W/m 14,5 C 15,1 C 0,0 km/h (0 Bft) 100,00 %
13.06.2018 19:25 15,1 C 23,9 C 96 % 1009,5 hPa 0,0 l/m 0,0 km/h (0 Bft) N-NW 346 0 min 0,000 mm 0,0 UV-I 35 W/m 14,5 C 15,1 C 0,0 km/h (0 Bft) 95,65 %
13.06.2018 19:26 15,1 C 23,9 C 96 % 1009,5 hPa 0,0 l/m 0,6 km/h (0 Bft) N-NW 346 0 min 0,000 mm 0,0 UV-I 33 W/m 14,5 C 15,1 C 1,6 km/h (1 Bft) 100,00 %
13.06.2018 19:27 15,1 C 23,9 C 96 % 1009,5 hPa 0,0 l/m 0,4 km/h (0 Bft) N-NW 346 0 min 0,000 mm 0,0 UV-I 30 W/m 14,5 C 15,1 C 1,6 km/h (1 Bft) 92,86 %
13.06.2018 19:28 15,1 C 23,9 C 96 % 1009,5 hPa 0,0 l/m 0,2 km/h (0 Bft) N-NW 345 0 min 0,000 mm 0,0 UV-I 26 W/m 14,5 C 15,1 C 1,6 km/h (1 Bft) 100,00 %
13.06.2018 19:29 15,1 C 23,9 C 96 % 1009,6 hPa 0,0 l/m 0,0 km/h (0 Bft) N-NW 346 0 min 0,000 mm 0,0 UV-I 24 W/m 14,5 C 15,1 C 0,0 km/h (0 Bft) 96,15 %
13.06.2018 19:30 15,1 C 23,9 C 97 % 1009,7 hPa 0,0 l/m 0,4 km/h (0 Bft) N-NW 346 0 min 0,000 mm 0,0 UV-I 22 W/m 14,6 C 15,1 C 1,6 km/h (1 Bft) 95,83 %
13.06.2018 19:31 15,1 C 23,9 C 97 % 1009,7 hPa 0,0 l/m 2,8 km/h (1 Bft) N-NO 12 0 min 0,000 mm 0,0 UV-I 20 W/m 14,6 C 15,1 C 4,8 km/h (1 Bft) 98,08 %
13.06.2018 19:33 15,1 C 23,9 C 96 % 1009,7 hPa 0,2 l/m 3,4 km/h (1 Bft) N-NO 16 0 min 0,000 mm 0,0 UV-I 18 W/m 14,5 C 15,1 C 4,8 km/h (1 Bft) 98,68 %
13.06.2018 19:34 15,0 C 23,9 C 96 % 1009,7 hPa 0,0 l/m 3,3 km/h (1 Bft) N 9 0 min 0,000 mm 0,0 UV-I 16 W/m 14,4 C 15,0 C 4,8 km/h (1 Bft) 91,67 %
13.06.2018 19:35 15,0 C 23,9 C 96 % 1009,7 hPa 0,0 l/m 3,7 km/h (1 Bft) N-NO 15 0 min 0,000 mm 0,0 UV-I 16 W/m 14,4 C 15,0 C 6,4 km/h (2 Bft) 100,00 %
13.06.2018 19:36 14,9 C 23,9 C 97 % 1009,8 hPa 0,2 l/m 5,0 km/h (1 Bft) N-NO 21 0 min 0,000 mm 0,0 UV-I 16 W/m 14,4 C 14,9 C 6,4 km/h (2 Bft) 95,83 %
13.06.2018 19:38 14,9 C 23,9 C 97 % 1009,7 hPa 0,2 l/m 2,2 km/h (1 Bft) N-NO 19 0 min 0,000 mm 0,0 UV-I 16 W/m 14,4 C 14,9 C 6,4 km/h (2 Bft) 98,00 %
13.06.2018 19:39 14,9 C 23,9 C 97 % 1009,7 hPa 0,0 l/m 1,3 km/h (1 Bft) W-NW 303 0 min 0,000 mm 0,0 UV-I 18 W/m 14,4 C 14,9 C 4,8 km/h (1 Bft) 95,83 %
13.06.2018 19:40 14,9 C 23,9 C 97 % 1009,8 hPa 0,2 l/m 3,2 km/h (1 Bft) N 355 0 min 0,000 mm 0,0 UV-I 18 W/m 14,4 C 14,9 C 8,0 km/h (2 Bft) 91,30 %
13.06.2018 19:41 14,8 C 23,9 C 97 % 1009,8 hPa 0,0 l/m 1,9 km/h (1 Bft) W 276 0 min 0,000 mm 0,0 UV-I 18 W/m 14,3 C 14,8 C 3,2 km/h (1 Bft) 96,30 %
13.06.2018 19:43 14,7 C 23,9 C 96 % 1009,8 hPa 0,2 l/m 1,5 km/h (1 Bft) NW 311 0 min 0,000 mm 0,0 UV-I 19 W/m 14,1 C 14,7 C 4,8 km/h (1 Bft) 95,74 %
13.06.2018 19:44 14,6 C 23,9 C 96 % 1009,8 hPa 0,0 l/m 2,2 km/h (1 Bft) N-NW 338 0 min 0,000 mm 0,0 UV-I 21 W/m 14,0 C 14,6 C 4,8 km/h (1 Bft) 98,06 %
13.06.2018 19:45 14,6 C 23,9 C 96 % 1009,8 hPa 0,0 l/m 1,4 km/h (1 Bft) W 265 0 min 0,000 mm 0,0 UV-I 21 W/m 14,0 C 14,6 C 3,2 km/h (1 Bft) 97,73 %
13.06.2018 19:46 14,6 C 23,9 C 96 % 1009,9 hPa 0,0 l/m 2,5 km/h (1 Bft) SW 224 0 min 0,000 mm 0,0 UV-I 23 W/m 14,0 C 14,6 C 4,8 km/h (1 Bft) 100,00 %
13.06.2018 19:47 14,6 C 23,9 C 96 % 1009,8 hPa 0,0 l/m 0,2 km/h (0 Bft) SW 224 0 min 0,000 mm 0,0 UV-I 23 W/m 14,0 C 14,6 C 1,6 km/h (1 Bft) 96,30 %
13.06.2018 19:48 14,6 C 23,9 C 97 % 1009,8 hPa 0,0 l/m 0,8 km/h (0 Bft) W-SW 255 0 min 0,000 mm 0,0 UV-I 23 W/m 14,1 C 14,6 C 3,2 km/h (1 Bft) 100,00 %
13.06.2018 19:49 14,6 C 23,9 C 97 % 1009,9 hPa 0,0 l/m 1,3 km/h (1 Bft) W-SW 255 0 min 0,000 mm 0,0 UV-I 22 W/m 14,1 C 14,6 C 3,2 km/h (1 Bft) 95,83 %
13.06.2018 19:50 14,6 C 23,9 C 97 % 1009,9 hPa 0,0 l/m 0,6 km/h (0 Bft) W-SW 255 0 min 0,000 mm 0,0 UV-I 21 W/m 14,1 C 14,6 C 1,6 km/h (1 Bft) 100,00 %
13.06.2018 19:51 14,6 C 23,9 C 97 % 1009,9 hPa 0,0 l/m 0,0 km/h (0 Bft) W-SW 255 0 min 0,000 mm 0,0 UV-I 21 W/m 14,1 C 14,6 C 0,0 km/h (0 Bft) 93,33 %
13.06.2018 19:52 14,5 C 23,9 C 97 % 1009,9 hPa 0,2 l/m 0,0 km/h (0 Bft) W-SW 255 0 min 0,000 mm 0,0 UV-I 21 W/m 14,0 C 14,5 C 0,0 km/h (0 Bft) 100,00 %
13.06.2018 19:53 14,6 C 23,9 C 97 % 1009,9 hPa 0,0 l/m 0,3 km/h (0 Bft) W-SW 256 0 min 0,000 mm 0,0 UV-I 21 W/m 14,1 C 14,6 C 1,6 km/h (1 Bft) 95,83 %
13.06.2018 19:54 14,6 C 23,9 C 97 % 1009,9 hPa 0,0 l/m 1,5 km/h (1 Bft) W-SW 256 0 min 0,000 mm 0,0 UV-I 21 W/m 14,1 C 14,6 C 3,2 km/h (1 Bft) 95,65 %
13.06.2018 19:55 14,5 C 23,9 C 97 % 1009,9 hPa 0,0 l/m 0,4 km/h (0 Bft) W-SW 255 0 min 0,000 mm 0,0 UV-I 22 W/m 14,0 C 14,5 C 1,6 km/h (1 Bft) 100,00 %
13.06.2018 19:56 14,6 C 23,9 C 97 % 1009,9 hPa 0,0 l/m 1,3 km/h (1 Bft) W-SW 255 0 min 0,000 mm 0,0 UV-I 23 W/m 14,1 C 14,6 C 3,2 km/h (1 Bft) 100,00 %
13.06.2018 19:58 14,6 C 23,9 C 97 % 1009,9 hPa 0,0 l/m 1,0 km/h (0 Bft) W-SW 255 0 min 0,000 mm 0,0 UV-I 23 W/m 14,1 C 14,6 C 3,2 km/h (1 Bft) 94,64 %
13.06.2018 19:59 14,6 C 23,9 C 97 % 1009,9 hPa 0,0 l/m 3,3 km/h (1 Bft) NW 313 0 min 0,000 mm 0,0 UV-I 23 W/m 14,1 C 14,6 C 4,8 km/h (1 Bft) 100,00 %
13.06.2018 20:00 14,5 C 23,9 C 97 % 1009,9 hPa 0,0 l/m 1,9 km/h (1 Bft) NW 314 0 min 0,000 mm 0,0 UV-I 23 W/m 14,0 C 14,5 C 3,2 km/h (1 Bft) 100,00 %
13.06.2018 20:01 14,5 C 23,9 C 97 % 1009,9 hPa 0,0 l/m 0,1 km/h (0 Bft) NW 314 0 min 0,026 mm 0,0 UV-I 23 W/m 14,0 C 14,5 C 1,6 km/h (1 Bft) 100,00 %
13.06.2018 20:03 14,6 C 23,9 C 97 % 1010,0 hPa 0,0 l/m 0,5 km/h (0 Bft) NW 313 0 min 0,000 mm 0,0 UV-I 23 W/m 14,1 C 14,6 C 1,6 km/h (1 Bft) 97,87 %
13.06.2018 20:04 14,6 C 23,9 C 97 % 1010,0 hPa 0,0 l/m 1,5 km/h (1 Bft) NW 313 0 min 0,000 mm 0,0 UV-I 23 W/m 14,1 C 14,6 C 3,2 km/h (1 Bft) 100,00 %
13.06.2018 20:05 14,6 C 23,9 C 97 % 1010,0 hPa 0,0 l/m 0,1 km/h (0 Bft) NW 313 0 min 0,000 mm 0,0 UV-I 23 W/m 14,1 C 14,6 C 1,6 km/h (1 Bft) 91,30 %
13.06.2018 20:06 14,5 C 23,9 C 97 % 1010,0 hPa 0,0 l/m 0,0 km/h (0 Bft) NW 313 0 min 0,000 mm 0,0 UV-I 23 W/m 14,0 C 14,5 C 0,0 km/h (0 Bft) 100,00 %
13.06.2018 20:07 14,5 C 23,9 C 97 % 1010,0 hPa 0,0 l/m 0,3 km/h (0 Bft) NW 313 0 min 0,000 mm 0,0 UV-I 21 W/m 14,0 C 14,5 C 3,2 km/h (1 Bft) 91,30 %
13.06.2018 20:08 14,4 C 23,9 C 97 % 1010,0 hPa 0,0 l/m 0,9 km/h (0 Bft) NW 313 0 min 0,000 mm 0,0 UV-I 21 W/m 13,9 C 14,4 C 4,8 km/h (1 Bft) 95,83 %
13.06.2018 20:09 14,4 C 23,9 C 97 % 1010,0 hPa 0,0 l/m 1,1 km/h (1 Bft) NW 313 0 min 0,000 mm 0,0 UV-I 21 W/m 13,9 C 14,4 C 3,2 km/h (1 Bft) 95,65 %
13.06.2018 20:10 14,4 C 23,9 C 97 % 1010,0 hPa 0,0 l/m 1,5 km/h (1 Bft) NW 307 0 min 0,000 mm 0,0 UV-I 21 W/m 13,9 C 14,4 C 3,2 km/h (1 Bft) 100,00 %
13.06.2018 20:11 14,4 C 23,9 C 97 % 1010,0 hPa 0,0 l/m 2,0 km/h (1 Bft) NW 306 0 min 0,000 mm 0,0 UV-I 21 W/m 13,9 C 14,4 C 3,2 km/h (1 Bft) 100,00 %
13.06.2018 20:12 14,4 C 23,9 C 97 % 1010,1 hPa 0,0 l/m 2,2 km/h (1 Bft) NW 307 0 min 0,000 mm 0,0 UV-I 21 W/m 13,9 C 14,4 C 3,2 km/h (1 Bft) 100,00 %
13.06.2018 20:13 14,4 C 23,9 C 97 % 1010,1 hPa 0,0 l/m 0,0 km/h (0 Bft) NW 307 0 min 0,000 mm 0,0 UV-I 19 W/m 13,9 C 14,4 C 0,0 km/h (0 Bft) 100,00 %
13.06.2018 20:14 14,4 C 23,9 C 97 % 1010,1 hPa 0,0 l/m 0,1 km/h (0 Bft) NW 307 0 min 0,000 mm 0,0 UV-I 19 W/m 13,9 C 14,4 C 1,6 km/h (1 Bft) 100,00 %
13.06.2018 20:15 14,4 C 23,9 C 97 % 1010,1 hPa 0,0 l/m 1,1 km/h (1 Bft) NW 306 0 min 0,000 mm 0,0 UV-I 18 W/m 13,9 C 14,4 C 3,2 km/h (1 Bft) 92,31 %
13.06.2018 20:16 14,5 C 23,9 C 97 % 1010,1 hPa 0,0 l/m 1,4 km/h (1 Bft) NW 306 0 min 0,000 mm 0,0 UV-I 18 W/m 14,0 C 14,5 C 3,2 km/h (1 Bft) 100,00 %
13.06.2018 20:17 14,5 C 23,9 C 97 % 1010,1 hPa 0,0 l/m 3,4 km/h (1 Bft) W 265 0 min 0,000 mm 0,0 UV-I 17 W/m 14,0 C 14,5 C 4,8 km/h (1 Bft) 100,00 %
13.06.2018 20:18 14,5 C 23,9 C 97 % 1010,1 hPa 0,0 l/m 1,6 km/h (1 Bft) W 265 0 min 0,000 mm 0,0 UV-I 16 W/m 14,0 C 14,5 C 3,2 km/h (1 Bft) 97,56 %
13.06.2018 20:19 14,5 C 23,9 C 97 % 1010,1 hPa 0,0 l/m 1,5 km/h (1 Bft) W 265 0 min 0,000 mm 0,0 UV-I 16 W/m 14,0 C 14,5 C 4,8 km/h (1 Bft) 95,83 %
13.06.2018 20:20 14,5 C 23,9 C 97 % 1010,1 hPa 0,0 l/m 1,6 km/h (1 Bft) W 265 0 min 0,000 mm 0,0 UV-I 14 W/m 14,0 C 14,5 C 3,2 km/h (1 Bft) 96,15 %
13.06.2018 20:21 14,5 C 23,9 C 97 % 1010,1 hPa 0,0 l/m 3,7 km/h (1 Bft) W 277 0 min 0,000 mm 0,0 UV-I 14 W/m 14,0 C 14,5 C 6,4 km/h (2 Bft) 100,00 %
13.06.2018 20:22 14,4 C 23,9 C 97 % 1010,0 hPa 0,0 l/m 3,8 km/h (1 Bft) W 275 0 min 0,000 mm 0,0 UV-I 13 W/m 13,9 C 14,4 C 6,4 km/h (2 Bft) 96,15 %
13.06.2018 20:23 14,4 C 23,9 C 97 % 1010,1 hPa 0,0 l/m 3,0 km/h (1 Bft) W-NW 284 0 min 0,000 mm 0,0 UV-I 12 W/m 13,9 C 14,4 C 6,4 km/h (2 Bft) 100,00 %
13.06.2018 20:24 14,5 C 23,9 C 97 % 1010,1 hPa 0,0 l/m 1,9 km/h (1 Bft) W 264 0 min 0,000 mm 0,0 UV-I 12 W/m 14,0 C 14,5 C 6,4 km/h (2 Bft) 95,65 %
13.06.2018 20:25 14,6 C 23,9 C 97 % 1010,1 hPa 0,0 l/m 0,6 km/h (0 Bft) W 264 0 min 0,000 mm 0,0 UV-I 12 W/m 14,1 C 14,6 C 3,2 km/h (1 Bft) 100,00 %
13.06.2018 20:26 14,6 C 23,9 C 97 % 1010,1 hPa 0,0 l/m 0,0 km/h (0 Bft) W 264 0 min 0,000 mm 0,0 UV-I 11 W/m 14,1 C 14,6 C 0,0 km/h (0 Bft) 95,65 %
13.06.2018 20:27 14,6 C 23,9 C 97 % 1010,1 hPa 0,0 l/m 0,0 km/h (0 Bft) W 264 0 min 0,000 mm 0,0 UV-I 11 W/m 14,1 C 14,6 C 0,0 km/h (0 Bft) 100,00 %
13.06.2018 20:28 14,5 C 23,9 C 97 % 1010,1 hPa 0,0 l/m 0,8 km/h (0 Bft) W 264 0 min 0,000 mm 0,0 UV-I 11 W/m 14,0 C 14,5 C 1,6 km/h (1 Bft) 96,15 %
13.06.2018 20:29 14,6 C 23,9 C 97 % 1010,1 hPa 0,0 l/m 2,1 km/h (1 Bft) N-NW 336 0 min 0,000 mm 0,0 UV-I 11 W/m 14,1 C 14,6 C 6,4 km/h (2 Bft) 95,83 %
13.06.2018 20:30 14,5 C 23,9 C 97 % 1010,1 hPa 0,0 l/m 0,9 km/h (0 Bft) N-NW 336 0 min 0,000 mm 0,0 UV-I 11 W/m 14,0 C 14,5 C 3,2 km/h (1 Bft) 100,00 %
13.06.2018 20:31 14,5 C 23,9 C 97 % 1010,1 hPa 0,0 l/m 2,5 km/h (1 Bft) N-NW 336 0 min 0,000 mm 0,0 UV-I 9 W/m 14,0 C 14,5 C 3,2 km/h (1 Bft) 100,00 %
13.06.2018 20:32 14,5 C 23,9 C 97 % 1010,1 hPa 0,0 l/m 1,7 km/h (1 Bft) N-NW 336 0 min 0,000 mm 0,0 UV-I 9 W/m 14,0 C 14,5 C 3,2 km/h (1 Bft) 96,30 %
13.06.2018 20:33 14,6 C 23,9 C 97 % 1010,2 hPa 0,0 l/m 1,0 km/h (0 Bft) N-NW 336 0 min 0,000 mm 0,0 UV-I 8 W/m 14,1 C 14,6 C 3,2 km/h (1 Bft) 96,15 %
13.06.2018 20:34 14,5 C 23,9 C 97 % 1010,2 hPa 0,0 l/m 4,1 km/h (1 Bft) NW 309 0 min 0,000 mm 0,0 UV-I 7 W/m 14,0 C 14,5 C 9,7 km/h (2 Bft) 100,00 %
13.06.2018 20:35 14,5 C 23,9 C 97 % 1010,2 hPa 0,0 l/m 3,8 km/h (1 Bft) W-NW 288 0 min 0,000 mm 0,0 UV-I 7 W/m 14,0 C 14,5 C 6,4 km/h (2 Bft) 96,15 %
13.06.2018 20:36 14,5 C 23,9 C 97 % 1010,2 hPa 0,0 l/m 2,5 km/h (1 Bft) W 278 0 min 0,000 mm 0,0 UV-I 7 W/m 14,0 C 14,5 C 3,2 km/h (1 Bft) 100,00 %
13.06.2018 20:38 14,4 C 23,9 C 97 % 1010,2 hPa 0,0 l/m 1,2 km/h (1 Bft) W 280 0 min 0,000 mm 0,0 UV-I 7 W/m 13,9 C 14,4 C 3,2 km/h (1 Bft) 94,00 %
13.06.2018 20:39 14,4 C 23,9 C 97 % 1010,2 hPa 0,0 l/m 2,5 km/h (1 Bft) W 267 0 min 0,000 mm 0,0 UV-I 7 W/m 13,9 C 14,4 C 4,8 km/h (1 Bft) 100,00 %
13.06.2018 20:40 14,5 C 23,9 C 97 % 1010,2 hPa 0,0 l/m 2,3 km/h (1 Bft) W 275 0 min 0,000 mm 0,0 UV-I 7 W/m 14,0 C 14,5 C 4,8 km/h (1 Bft) 95,83 %
13.06.2018 20:41 14,5 C 23,9 C 97 % 1010,2 hPa 0,0 l/m 3,2 km/h (1 Bft) W 266 0 min 0,000 mm 0,0 UV-I 7 W/m 14,0 C 14,5 C 6,4 km/h (2 Bft) 100,00 %
13.06.2018 20:42 14,4 C 23,9 C 97 % 1010,2 hPa 0,0 l/m 1,5 km/h (1 Bft) W 269 0 min 0,000 mm 0,0 UV-I 7 W/m 13,9 C 14,4 C 3,2 km/h (1 Bft) 93,33 %
13.06.2018 20:43 14,4 C 23,9 C 97 % 1010,2 hPa 0,0 l/m 0,9 km/h (0 Bft) W 270 0 min 0,000 mm 0,0 UV-I 7 W/m 13,9 C 14,4 C 1,6 km/h (1 Bft) 100,00 %
13.06.2018 20:44 14,5 C 23,9 C 97 % 1010,2 hPa 0,0 l/m 1,0 km/h (0 Bft) N-NW 329 0 min 0,000 mm 0,0 UV-I 5 W/m 14,0 C 14,5 C 3,2 km/h (1 Bft) 96,67 %
13.06.2018 20:45 14,5 C 23,9 C 97 % 1010,2 hPa 0,0 l/m 2,7 km/h (1 Bft) W-NW 298 0 min 0,000 mm 0,0 UV-I 5 W/m 14,0 C 14,5 C 4,8 km/h (1 Bft) 100,00 %
13.06.2018 20:46 14,5 C 23,9 C 97 % 1010,2 hPa 0,2 l/m 3,7 km/h (1 Bft) NW 324 0 min 0,000 mm 0,0 UV-I 5 W/m 14,0 C 14,5 C 6,4 km/h (2 Bft) 96,30 %
13.06.2018 20:48 14,4 C 23,9 C 97 % 1010,2 hPa 0,0 l/m 4,7 km/h (1 Bft) W-NW 285 0 min 0,000 mm 0,0 UV-I 5 W/m 13,9 C 14,4 C 9,7 km/h (2 Bft) 100,00 %
13.06.2018 20:49 14,4 C 23,9 C 97 % 1010,2 hPa 0,0 l/m 1,5 km/h (1 Bft) O-NO 57 0 min 0,000 mm 0,0 UV-I 5 W/m 13,9 C 14,4 C 4,8 km/h (1 Bft) 90,91 %
13.06.2018 20:50 14,4 C 23,9 C 97 % 1010,3 hPa 0,0 l/m 2,6 km/h (1 Bft) O-NO 57 0 min 0,000 mm 0,0 UV-I 5 W/m 13,9 C 14,4 C 3,2 km/h (1 Bft) 100,00 %
13.06.2018 20:51 14,4 C 23,9 C 97 % 1010,3 hPa 0,0 l/m 1,7 km/h (1 Bft) N 5 0 min 0,000 mm 0,0 UV-I 3 W/m 13,9 C 14,4 C 4,8 km/h (1 Bft) 95,83 %
13.06.2018 20:52 14,4 C 23,9 C 97 % 1010,3 hPa 0,0 l/m 3,2 km/h (1 Bft) N 9 0 min 0,000 mm 0,0 UV-I 0 W/m 13,9 C 14,4 C 6,4 km/h (2 Bft) 95,65 %
13.06.2018 20:53 14,4 C 23,9 C 97 % 1010,3 hPa 0,0 l/m 2,2 km/h (1 Bft) NW 325 0 min 0,000 mm 0,0 UV-I 0 W/m 13,9 C 14,4 C 4,8 km/h (1 Bft) 100,00 %
13.06.2018 20:54 14,4 C 23,9 C 97 % 1010,4 hPa 0,0 l/m 3,5 km/h (1 Bft) N-NW 340 0 min 0,000 mm 0,0 UV-I 0 W/m 13,9 C 14,4 C 8,0 km/h (2 Bft) 100,00 %
13.06.2018 20:55 14,4 C 23,9 C 97 % 1010,4 hPa 0,0 l/m 4,4 km/h (1 Bft) N-NW 337 0 min 0,000 mm 0,0 UV-I 0 W/m 13,9 C 14,4 C 6,4 km/h (2 Bft) 100,00 %
13.06.2018 20:56 14,4 C 23,9 C 97 % 1010,4 hPa 0,0 l/m 4,0 km/h (1 Bft) SW 223 0 min 0,000 mm 0,0 UV-I 1 W/m 13,9 C 14,4 C 6,4 km/h (2 Bft) 100,00 %
13.06.2018 20:57 14,4 C 23,9 C 97 % 1010,4 hPa 0,0 l/m 6,9 km/h (2 Bft) N-NW 346 0 min 0,000 mm 0,0 UV-I 3 W/m 13,9 C 14,1 C 12,9 km/h (3 Bft) 98,04 %
13.06.2018 20:58 14,4 C 23,9 C 97 % 1010,4 hPa 0,0 l/m 6,3 km/h (2 Bft) O-NO 57 0 min 0,000 mm 0,0 UV-I 0 W/m 13,9 C 14,4 C 8,0 km/h (2 Bft) 97,96 %
13.06.2018 20:59 14,3 C 23,9 C 97 % 1010,4 hPa 0,0 l/m 6,0 km/h (2 Bft) NW 306 0 min 0,000 mm 0,0 UV-I 0 W/m 13,8 C 14,3 C 11,3 km/h (2 Bft) 100,00 %
13.06.2018 21:00 14,4 C 23,9 C 97 % 1010,5 hPa 0,0 l/m 0,6 km/h (0 Bft) N-NW 333 0 min 0,000 mm 0,0 UV-I 0 W/m 13,9 C 14,4 C 3,2 km/h (1 Bft) 95,65 %
13.06.2018 21:02 14,5 C 23,9 C 97 % 1010,5 hPa 0,0 l/m 2,5 km/h (1 Bft) N-NW 329 0 min 0,000 mm 0,0 UV-I 0 W/m 14,0 C 14,5 C 6,4 km/h (2 Bft) 100,00 %
13.06.2018 21:03 14,4 C 23,9 C 97 % 1010,5 hPa 0,0 l/m 2,8 km/h (1 Bft) N-NW 339 0 min 0,000 mm 0,0 UV-I 0 W/m 13,9 C 14,4 C 6,4 km/h (2 Bft) 100,00 %
13.06.2018 21:04 14,4 C 23,9 C 97 % 1010,6 hPa 0,0 l/m 5,2 km/h (1 Bft) W-NW 301 0 min 0,000 mm 0,0 UV-I 0 W/m 13,9 C 14,4 C 8,0 km/h (2 Bft) 100,00 %
13.06.2018 21:05 14,3 C 23,9 C 97 % 1010,6 hPa 0,0 l/m 6,0 km/h (2 Bft) NW 307 0 min 0,000 mm 0,0 UV-I 0 W/m 13,8 C 14,3 C 11,3 km/h (2 Bft) 100,00 %
13.06.2018 21:06 14,3 C 23,9 C 97 % 1010,6 hPa 0,0 l/m 5,4 km/h (1 Bft) N-NW 331 0 min 0,000 mm 0,0 UV-I 0 W/m 13,8 C 14,3 C 9,7 km/h (2 Bft) 100,00 %
13.06.2018 21:07 14,3 C 23,9 C 97 % 1010,6 hPa 0,0 l/m 1,8 km/h (1 Bft) N 11 0 min 0,000 mm 0,0 UV-I 0 W/m 13,8 C 14,3 C 4,8 km/h (1 Bft) 100,00 %
13.06.2018 21:08 14,3 C 23,9 C 97 % 1010,6 hPa 0,0 l/m 4,3 km/h (1 Bft) N 9 0 min 0,000 mm 0,0 UV-I 0 W/m 13,8 C 14,3 C 8,0 km/h (2 Bft) 95,65 %
13.06.2018 21:09 14,3 C 23,9 C 97 % 1010,7 hPa 0,0 l/m 2,7 km/h (1 Bft) N 5 0 min 0,000 mm 0,0 UV-I 0 W/m 13,8 C 14,3 C 8,0 km/h (2 Bft) 100,00 %
13.06.2018 21:10 14,3 C 23,9 C 97 % 1010,7 hPa 0,0 l/m 13,1 km/h (3 Bft) N-NW 339 0 min 0,000 mm 0,0 UV-I 0 W/m 13,8 C 11,0 C 17,7 km/h (3 Bft) 100,00 %
13.06.2018 21:11 14,2 C 23,9 C 97 % 1010,7 hPa 0,2 l/m 8,1 km/h (2 Bft) N 9 0 min 0,000 mm 0,0 UV-I 0 W/m 13,7 C 13,2 C 14,5 km/h (3 Bft) 100,00 %
13.06.2018 21:12 14,2 C 23,9 C 97 % 1010,8 hPa 0,0 l/m 3,6 km/h (1 Bft) N-NO 23 0 min 0,000 mm 0,0 UV-I 0 W/m 13,7 C 14,2 C 6,4 km/h (2 Bft) 100,00 %
13.06.2018 21:13 14,2 C 23,9 C 97 % 1010,8 hPa 0,0 l/m 1,9 km/h (1 Bft) N 9 0 min 0,000 mm 0,0 UV-I 0 W/m 13,7 C 14,2 C 6,4 km/h (2 Bft) 100,00 %
13.06.2018 21:14 14,3 C 23,9 C 97 % 1010,8 hPa 0,0 l/m 2,1 km/h (1 Bft) NW 325 0 min 0,000 mm 0,0 UV-I 0 W/m 13,8 C 14,3 C 3,2 km/h (1 Bft) 100,00 %
13.06.2018 21:15 14,3 C 23,9 C 97 % 1010,9 hPa 0,0 l/m 0,5 km/h (0 Bft) N-NW 327 0 min 0,000 mm 0,0 UV-I 0 W/m 13,8 C 14,3 C 1,6 km/h (1 Bft) 100,00 %
13.06.2018 21:16 14,2 C 23,9 C 97 % 1010,9 hPa 0,0 l/m 3,8 km/h (1 Bft) N-NO 16 0 min 0,000 mm 0,0 UV-I 0 W/m 13,7 C 14,2 C 4,8 km/h (1 Bft) 100,00 %
13.06.2018 21:17 14,2 C 23,9 C 97 % 1010,9 hPa 0,0 l/m 3,3 km/h (1 Bft) N-NW 339 0 min 0,000 mm 0,0 UV-I 0 W/m 13,7 C 14,2 C 6,4 km/h (2 Bft) 96,55 %
13.06.2018 21:18 14,2 C 23,9 C 97 % 1011,0 hPa 0,0 l/m 0,0 km/h (0 Bft) N-NW 339 0 min 0,000 mm 0,0 UV-I 0 W/m 13,7 C 14,2 C 0,0 km/h (0 Bft) 100,00 %
13.06.2018 21:19 14,3 C 23,9 C 97 % 1011,0 hPa 0,0 l/m 0,3 km/h (0 Bft) W-NW 303 0 min 0,000 mm 0,0 UV-I 0 W/m 13,8 C 14,3 C 3,2 km/h (1 Bft) 100,00 %
13.06.2018 21:20 14,3 C 23,9 C 97 % 1011,0 hPa 0,0 l/m 2,1 km/h (1 Bft) W-NW 302 0 min 0,000 mm 0,0 UV-I 0 W/m 13,8 C 14,3 C 4,8 km/h (1 Bft) 95,83 %
13.06.2018 21:21 14,4 C 23,9 C 97 % 1011,0 hPa 0,0 l/m 1,6 km/h (1 Bft) W-NW 302 0 min 0,000 mm 0,0 UV-I 0 W/m 13,9 C 14,4 C 3,2 km/h (1 Bft) 100,00 %
13.06.2018 21:22 14,4 C 23,9 C 97 % 1011,1 hPa 0,0 l/m 2,0 km/h (1 Bft) W-SW 251 0 min 0,000 mm 0,0 UV-I 0 W/m 13,9 C 14,4 C 4,8 km/h (1 Bft) 100,00 %
13.06.2018 21:23 14,4 C 23,9 C 97 % 1011,1 hPa 0,0 l/m 3,2 km/h (1 Bft) W-SW 252 0 min 0,000 mm 0,0 UV-I 0 W/m 13,9 C 14,4 C 6,4 km/h (2 Bft) 95,65 %
13.06.2018 21:24 14,3 C 23,9 C 97 % 1011,0 hPa 0,0 l/m 1,4 km/h (1 Bft) W-SW 253 0 min 0,000 mm 0,0 UV-I 0 W/m 13,8 C 14,3 C 3,2 km/h (1 Bft) 100,00 %
13.06.2018 21:25 14,3 C 23,9 C 97 % 1011,1 hPa 0,0 l/m 0,8 km/h (0 Bft) W-NW 296 0 min 0,000 mm 0,0 UV-I 0 W/m 13,8 C 14,3 C 3,2 km/h (1 Bft) 100,00 %
13.06.2018 21:26 14,3 C 23,9 C 97 % 1011,1 hPa 0,0 l/m 1,9 km/h (1 Bft) NW 320 0 min 0,000 mm 0,0 UV-I 0 W/m 13,8 C 14,3 C 4,8 km/h (1 Bft) 96,30 %
13.06.2018 21:27 14,3 C 23,9 C 97 % 1011,1 hPa 0,0 l/m 1,3 km/h (1 Bft) NW 320 0 min 0,000 mm 0,0 UV-I 0 W/m 13,8 C 14,3 C 3,2 km/h (1 Bft) 100,00 %
13.06.2018 21:28 14,4 C 23,9 C 97 % 1011,1 hPa 0,0 l/m 0,9 km/h (0 Bft) NW 319 0 min 0,000 mm 0,0 UV-I 0 W/m 13,9 C 14,4 C 3,2 km/h (1 Bft) 100,00 %
13.06.2018 21:29 14,3 C 23,9 C 97 % 1011,1 hPa 0,0 l/m 2,4 km/h (1 Bft) SW 221 0 min 0,000 mm 0,0 UV-I 0 W/m 13,8 C 14,3 C 4,8 km/h (1 Bft) 100,00 %
13.06.2018 21:30 14,3 C 23,9 C 97 % 1011,2 hPa 0,0 l/m 1,3 km/h (1 Bft) N 355 0 min 0,000 mm 0,0 UV-I 0 W/m 13,8 C 14,3 C 1,6 km/h (1 Bft) 100,00 %
13.06.2018 21:31 14,3 C 23,9 C 97 % 1011,2 hPa 0,0 l/m 0,3 km/h (0 Bft) N 355 0 min 0,000 mm 0,0 UV-I 0 W/m 13,8 C 14,3 C 1,6 km/h (1 Bft) 100,00 %
13.06.2018 21:33 14,3 C 23,9 C 97 % 1011,3 hPa 0,2 l/m 1,9 km/h (1 Bft) N-NW 329 0 min 0,000 mm 0,0 UV-I 0 W/m 13,8 C 14,3 C 4,8 km/h (1 Bft) 98,00 %
13.06.2018 21:34 14,3 C 23,9 C 97 % 1011,3 hPa 0,0 l/m 0,2 km/h (0 Bft) N-NW 331 0 min 0,000 mm 0,0 UV-I 0 W/m 13,8 C 14,3 C 1,6 km/h (1 Bft) 100,00 %
13.06.2018 21:35 14,2 C 23,9 C 97 % 1011,3 hPa 0,0 l/m 0,4 km/h (0 Bft) N-NW 327 0 min 0,000 mm 0,0 UV-I 0 W/m 13,7 C 14,2 C 1,6 km/h (1 Bft) 100,00 %
13.06.2018 21:36 14,2 C 23,9 C 97 % 1011,3 hPa 0,0 l/m 0,7 km/h (0 Bft) N-NW 327 0 min 0,000 mm 0,0 UV-I 0 W/m 13,7 C 14,2 C 3,2 km/h (1 Bft) 100,00 %
13.06.2018 21:37 14,1 C 23,9 C 97 % 1011,4 hPa 0,0 l/m 2,7 km/h (1 Bft) W-NW 288 0 min 0,000 mm 0,0 UV-I 0 W/m 13,6 C 14,1 C 4,8 km/h (1 Bft) 95,83 %
13.06.2018 21:38 14,1 C 23,9 C 97 % 1011,4 hPa 0,0 l/m 3,4 km/h (1 Bft) W 273 0 min 0,000 mm 0,0 UV-I 0 W/m 13,6 C 14,1 C 6,4 km/h (2 Bft) 100,00 %
13.06.2018 21:39 14,1 C 23,9 C 97 % 1011,4 hPa 0,0 l/m 0,9 km/h (0 Bft) NW 311 0 min 0,000 mm 0,0 UV-I 0 W/m 13,6 C 14,1 C 3,2 km/h (1 Bft) 100,00 %
13.06.2018 21:40 14,1 C 23,9 C 97 % 1011,4 hPa 0,0 l/m 1,0 km/h (0 Bft) NW 311 0 min 0,000 mm 0,0 UV-I 0 W/m 13,6 C 14,1 C 3,2 km/h (1 Bft) 100,00 %
13.06.2018 21:41 14,2 C 23,9 C 97 % 1011,4 hPa 0,0 l/m 2,8 km/h (1 Bft) N-NO 22 0 min 0,000 mm 0,0 UV-I 0 W/m 13,7 C 14,2 C 6,4 km/h (2 Bft) 100,00 %
13.06.2018 21:43 14,1 C 23,9 C 97 % 1011,4 hPa 0,0 l/m 2,2 km/h (1 Bft) N 5 0 min 0,000 mm 0,0 UV-I 0 W/m 13,6 C 14,1 C 4,8 km/h (1 Bft) 100,00 %
13.06.2018 21:44 14,0 C 23,9 C 97 % 1011,4 hPa 0,0 l/m 0,1 km/h (0 Bft) N 5 0 min 0,000 mm 0,0 UV-I 0 W/m 13,5 C 14,0 C 1,6 km/h (1 Bft) 100,00 %
13.06.2018 21:45 14,1 C 23,9 C 97 % 1011,5 hPa 0,0 l/m 2,8 km/h (1 Bft) N-NW 348 0 min 0,000 mm 0,0 UV-I 0 W/m 13,6 C 14,1 C 6,4 km/h (2 Bft) 100,00 %
13.06.2018 21:46 14,0 C 23,9 C 97 % 1011,5 hPa 0,0 l/m 2,1 km/h (1 Bft) N-NW 338 0 min 0,000 mm 0,0 UV-I 0 W/m 13,5 C 14,0 C 6,4 km/h (2 Bft) 100,00 %
13.06.2018 21:47 14,0 C 23,9 C 97 % 1011,5 hPa 0,0 l/m 0,9 km/h (0 Bft) W-NW 283 0 min 0,000 mm 0,0 UV-I 0 W/m 13,5 C 14,0 C 3,2 km/h (1 Bft) 100,00 %
13.06.2018 21:48 13,9 C 23,9 C 97 % 1011,5 hPa 0,0 l/m 2,1 km/h (1 Bft) W 279 0 min 0,000 mm 0,0 UV-I 0 W/m 13,4 C 13,9 C 4,8 km/h (1 Bft) 100,00 %
13.06.2018 21:49 13,9 C 23,9 C 97 % 1011,5 hPa 0,0 l/m 0,2 km/h (0 Bft) W 280 0 min 0,000 mm 0,0 UV-I 0 W/m 13,4 C 13,9 C 1,6 km/h (1 Bft) 100,00 %
13.06.2018 21:50 13,9 C 23,9 C 97 % 1011,6 hPa 0,0 l/m 1,7 km/h (1 Bft) W-NW 296 0 min 0,000 mm 0,0 UV-I 0 W/m 13,4 C 13,9 C 3,2 km/h (1 Bft) 100,00 %
13.06.2018 21:51 13,9 C 23,9 C 97 % 1011,5 hPa 0,0 l/m 2,7 km/h (1 Bft) NW 317 0 min 0,000 mm 0,0 UV-I 0 W/m 13,4 C 13,9 C 8,0 km/h (2 Bft) 91,67 %
13.06.2018 21:52 13,9 C 23,9 C 97 % 1011,5 hPa 0,0 l/m 2,5 km/h (1 Bft) NW 324 0 min 0,000 mm 0,0 UV-I 0 W/m 13,4 C 13,9 C 6,4 km/h (2 Bft) 100,00 %
13.06.2018 21:53 13,9 C 23,9 C 97 % 1011,5 hPa 0,0 l/m 0,5 km/h (0 Bft) NW 325 0 min 0,000 mm 0,0 UV-I 0 W/m 13,4 C 13,9 C 1,6 km/h (1 Bft) 100,00 %
13.06.2018 21:54 13,9 C 23,9 C 97 % 1011,5 hPa 0,0 l/m 1,8 km/h (1 Bft) NW 324 0 min 0,000 mm 0,0 UV-I 0 W/m 13,4 C 13,9 C 3,2 km/h (1 Bft) 100,00 %
13.06.2018 21:55 13,9 C 23,9 C 97 % 1011,6 hPa 0,0 l/m 1,2 km/h (1 Bft) N-NO 29 0 min 0,000 mm 0,0 UV-I 0 W/m 13,4 C 13,9 C 4,8 km/h (1 Bft) 100,00 %
13.06.2018 21:56 13,9 C 23,9 C 97 % 1011,6 hPa 0,0 l/m 4,8 km/h (1 Bft) NW 308 0 min 0,000 mm 0,0 UV-I 0 W/m 13,4 C 13,9 C 11,3 km/h (2 Bft) 100,00 %
13.06.2018 21:57 13,8 C 23,9 C 97 % 1011,6 hPa 0,0 l/m 3,1 km/h (1 Bft) N 350 0 min 0,000 mm 0,0 UV-I 0 W/m 13,3 C 13,8 C 8,0 km/h (2 Bft) 100,00 %
13.06.2018 21:58 13,8 C 23,9 C 97 % 1011,6 hPa 0,0 l/m 2,8 km/h (1 Bft) N-NW 335 0 min 0,000 mm 0,0 UV-I 0 W/m 13,3 C 13,8 C 6,4 km/h (2 Bft) 100,00 %
13.06.2018 21:59 13,8 C 23,9 C 97 % 1011,6 hPa 0,0 l/m 2,9 km/h (1 Bft) NW 325 0 min 0,000 mm 0,0 UV-I 0 W/m 13,3 C 13,8 C 6,4 km/h (2 Bft) 96,15 %
13.06.2018 22:00 13,8 C 23,9 C 97 % 1011,6 hPa 0,0 l/m 6,6 km/h (2 Bft) NW 325 0 min 0,000 mm 0,0 UV-I 0 W/m 13,3 C 13,7 C 9,7 km/h (2 Bft) 100,00 %
13.06.2018 22:02 13,8 C 23,9 C 97 % 1011,6 hPa 0,0 l/m 4,7 km/h (1 Bft) W-NW 284 0 min 0,000 mm 0,0 UV-I 0 W/m 13,3 C 13,8 C 6,4 km/h (2 Bft) 100,00 %
13.06.2018 22:03 13,8 C 23,9 C 97 % 1011,6 hPa 0,0 l/m 4,7 km/h (1 Bft) N-NW 332 0 min 0,000 mm 0,0 UV-I 0 W/m 13,3 C 13,8 C 6,4 km/h (2 Bft) 100,00 %
13.06.2018 22:04 13,7 C 23,9 C 97 % 1011,7 hPa 0,0 l/m 4,4 km/h (1 Bft) N 10 0 min 0,000 mm 0,0 UV-I 0 W/m 13,2 C 13,7 C 6,4 km/h (2 Bft) 96,30 %
13.06.2018 22:05 13,7 C 23,9 C 97 % 1011,7 hPa 0,0 l/m 3,0 km/h (1 Bft) N 9 0 min 0,000 mm 0,0 UV-I 0 W/m 13,2 C 13,7 C 4,8 km/h (1 Bft) 100,00 %
13.06.2018 22:06 13,7 C 23,9 C 96 % 1011,7 hPa 0,0 l/m 4,7 km/h (1 Bft) N 350 0 min 0,000 mm 0,0 UV-I 0 W/m 13,1 C 13,7 C 8,0 km/h (2 Bft) 100,00 %
13.06.2018 22:07 13,7 C 23,9 C 96 % 1011,8 hPa 0,0 l/m 7,0 km/h (2 Bft) W 269 0 min 0,000 mm 0,0 UV-I 0 W/m 13,1 C 13,3 C 14,5 km/h (3 Bft) 100,00 %
13.06.2018 22:08 13,7 C 23,9 C 96 % 1011,8 hPa 0,0 l/m 6,5 km/h (2 Bft) N-NW 329 0 min 0,000 mm 0,0 UV-I 0 W/m 13,1 C 13,7 C 9,7 km/h (2 Bft) 100,00 %
13.06.2018 22:09 13,6 C 23,9 C 96 % 1011,8 hPa 0,0 l/m 7,2 km/h (2 Bft) N-NO 17 0 min 0,000 mm 0,0 UV-I 0 W/m 13,0 C 13,1 C 12,9 km/h (3 Bft) 100,00 %
13.06.2018 22:10 13,6 C 23,9 C 96 % 1011,8 hPa 0,0 l/m 6,7 km/h (2 Bft) N 5 0 min 0,000 mm 0,0 UV-I 0 W/m 13,0 C 13,4 C 12,9 km/h (3 Bft) 96,15 %
13.06.2018 22:11 13,6 C 23,9 C 96 % 1011,8 hPa 0,0 l/m 6,1 km/h (2 Bft) W-NW 297 0 min 0,000 mm 0,0 UV-I 0 W/m 13,0 C 13,6 C 12,9 km/h (3 Bft) 100,00 %
13.06.2018 22:12 13,6 C 23,9 C 95 % 1011,8 hPa 0,0 l/m 6,7 km/h (2 Bft) N-NW 332 0 min 0,000 mm 0,0 UV-I 0 W/m 12,8 C 13,4 C 14,5 km/h (3 Bft) 100,00 %
13.06.2018 22:13 13,6 C 23,9 C 96 % 1011,9 hPa 0,0 l/m 6,0 km/h (2 Bft) N 351 0 min 0,000 mm 0,0 UV-I 0 W/m 13,0 C 13,6 C 12,9 km/h (3 Bft) 100,00 %
13.06.2018 22:14 13,6 C 23,9 C 95 % 1011,9 hPa 0,0 l/m 7,3 km/h (2 Bft) N-NO 18 0 min 0,000 mm 0,0 UV-I 0 W/m 12,8 C 13,0 C 12,9 km/h (3 Bft) 96,55 %
13.06.2018 22:15 13,6 C 23,9 C 95 % 1011,9 hPa 0,0 l/m 8,7 km/h (2 Bft) NW 311 0 min 0,000 mm 0,0 UV-I 0 W/m 12,8 C 12,2 C 14,5 km/h (3 Bft) 95,83 %
13.06.2018 22:16 13,6 C 23,9 C 95 % 1011,9 hPa 0,0 l/m 6,9 km/h (2 Bft) N 355 0 min 0,000 mm 0,0 UV-I 0 W/m 12,8 C 13,3 C 9,7 km/h (2 Bft) 95,65 %
13.06.2018 22:17 13,6 C 23,9 C 95 % 1011,9 hPa 0,0 l/m 7,0 km/h (2 Bft) N-NO 18 0 min 0,000 mm 0,0 UV-I 0 W/m 12,8 C 13,2 C 9,7 km/h (2 Bft) 95,83 %
13.06.2018 22:18 13,5 C 23,9 C 95 % 1011,9 hPa 0,0 l/m 5,8 km/h (2 Bft) N 5 0 min 0,000 mm 0,0 UV-I 0 W/m 12,7 C 13,5 C 8,0 km/h (2 Bft) 100,00 %
13.06.2018 22:19 13,5 C 23,9 C 95 % 1012,0 hPa 0,0 l/m 5,0 km/h (1 Bft) N-NO 14 0 min 0,000 mm 0,0 UV-I 0 W/m 12,7 C 13,5 C 6,4 km/h (2 Bft) 95,83 %
13.06.2018 22:20 13,5 C 23,9 C 95 % 1012,0 hPa 0,0 l/m 5,1 km/h (1 Bft) N 5 0 min 0,000 mm 0,0 UV-I 0 W/m 12,7 C 13,5 C 8,0 km/h (2 Bft) 100,00 %
13.06.2018 22:21 13,5 C 23,9 C 95 % 1012,0 hPa 0,0 l/m 2,5 km/h (1 Bft) N 355 0 min 0,000 mm 0,0 UV-I 0 W/m 12,7 C 13,5 C 4,8 km/h (1 Bft) 95,83 %
13.06.2018 22:22 13,5 C 23,9 C 95 % 1012,0 hPa 0,0 l/m 7,2 km/h (2 Bft) N 355 0 min 0,000 mm 0,0 UV-I 0 W/m 12,7 C 13,0 C 16,1 km/h (3 Bft) 92,31 %
13.06.2018 22:23 13,4 C 23,9 C 95 % 1012,0 hPa 0,0 l/m 7,6 km/h (2 Bft) N 11 0 min 0,000 mm 0,0 UV-I 0 W/m 12,6 C 12,7 C 11,3 km/h (2 Bft) 100,00 %
13.06.2018 22:24 13,4 C 23,9 C 95 % 1012,0 hPa 0,0 l/m 4,2 km/h (1 Bft) N-NW 346 0 min 0,000 mm 0,0 UV-I 0 W/m 12,6 C 13,4 C 6,4 km/h (2 Bft) 92,31 %
13.06.2018 22:25 13,4 C 23,9 C 95 % 1012,0 hPa 0,0 l/m 5,3 km/h (1 Bft) NW 315 0 min 0,000 mm 0,0 UV-I 0 W/m 12,6 C 13,4 C 8,0 km/h (2 Bft) 96,67 %
13.06.2018 22:26 13,4 C 23,9 C 95 % 1012,0 hPa 0,2 l/m 3,2 km/h (1 Bft) N-NW 338 0 min 0,000 mm 0,0 UV-I 0 W/m 12,6 C 13,4 C 6,4 km/h (2 Bft) 96,15 %
13.06.2018 22:27 13,4 C 23,9 C 95 % 1012,0 hPa 0,0 l/m 3,7 km/h (1 Bft) N 5 0 min 0,000 mm 0,0 UV-I 0 W/m 12,6 C 13,4 C 6,4 km/h (2 Bft) 100,00 %
13.06.2018 22:28 13,4 C 23,9 C 95 % 1012,0 hPa 0,0 l/m 7,1 km/h (2 Bft) N 355 0 min 0,000 mm 0,0 UV-I 0 W/m 12,6 C 13,0 C 9,7 km/h (2 Bft) 96,30 %
13.06.2018 22:29 13,4 C 23,9 C 95 % 1012,0 hPa 0,0 l/m 6,2 km/h (2 Bft) N-NO 18 0 min 0,000 mm 0,0 UV-I 0 W/m 12,6 C 13,4 C 8,0 km/h (2 Bft) 95,65 %
13.06.2018 22:30 13,4 C 23,9 C 95 % 1012,0 hPa 0,0 l/m 6,1 km/h (2 Bft) N 5 0 min 0,000 mm 0,0 UV-I 0 W/m 12,6 C 13,4 C 9,7 km/h (2 Bft) 98,09 %
13.06.2018 22:31 13,3 C 23,9 C 95 % 1012,0 hPa 0,0 l/m 7,2 km/h (2 Bft) NW 324 0 min 0,000 mm 0,0 UV-I 0 W/m 12,5 C 12,8 C 12,9 km/h (3 Bft) 97,73 %
13.06.2018 22:32 13,3 C 23,9 C 95 % 1012,1 hPa 0,0 l/m 7,6 km/h (2 Bft) N-NO 15 0 min 0,000 mm 0,0 UV-I 0 W/m 12,5 C 12,6 C 11,3 km/h (2 Bft) 95,83 %
13.06.2018 22:33 13,3 C 23,9 C 95 % 1012,1 hPa 0,0 l/m 5,4 km/h (1 Bft) N 355 0 min 0,000 mm 0,0 UV-I 0 W/m 12,5 C 13,3 C 6,4 km/h (2 Bft) 96,15 %
13.06.2018 22:34 13,4 C 23,9 C 95 % 1012,1 hPa 0,0 l/m 4,7 km/h (1 Bft) N-NW 340 0 min 0,000 mm 0,0 UV-I 0 W/m 12,6 C 13,4 C 6,4 km/h (2 Bft) 100,00 %
13.06.2018 22:35 13,4 C 23,9 C 95 % 1012,1 hPa 0,0 l/m 5,9 km/h (2 Bft) N-NO 19 0 min 0,000 mm 0,0 UV-I 0 W/m 12,6 C 13,4 C 8,0 km/h (2 Bft) 95,65 %
13.06.2018 22:36 13,3 C 23,9 C 95 % 1012,2 hPa 0,0 l/m 5,3 km/h (1 Bft) N-NO 14 0 min 0,000 mm 0,0 UV-I 0 W/m 12,5 C 13,3 C 6,4 km/h (2 Bft) 100,00 %
13.06.2018 22:37 13,3 C 23,9 C 95 % 1012,1 hPa 0,0 l/m 4,6 km/h (1 Bft) N 9 0 min 0,000 mm 0,0 UV-I 0 W/m 12,5 C 13,3 C 6,4 km/h (2 Bft) 85,71 %
13.06.2018 22:38 13,3 C 23,9 C 95 % 1012,1 hPa 0,0 l/m 6,6 km/h (2 Bft) N-NO 27 0 min 0,000 mm 0,0 UV-I 0 W/m 12,5 C 13,2 C 11,3 km/h (2 Bft) 100,00 %
13.06.2018 22:39 13,3 C 23,9 C 95 % 1012,2 hPa 0,0 l/m 3,9 km/h (1 Bft) N-NO 15 0 min 0,000 mm 0,0 UV-I 0 W/m 12,5 C 13,3 C 6,4 km/h (2 Bft) 92,31 %
13.06.2018 22:40 13,3 C 23,9 C 95 % 1012,2 hPa 0,0 l/m 6,2 km/h (2 Bft) N 5 0 min 0,000 mm 0,0 UV-I 0 W/m 12,5 C 13,3 C 8,0 km/h (2 Bft) 96,30 %
13.06.2018 22:41 13,3 C 23,9 C 95 % 1012,2 hPa 0,0 l/m 6,4 km/h (2 Bft) N-NW 339 0 min 0,000 mm 0,0 UV-I 0 W/m 12,5 C 13,3 C 11,3 km/h (2 Bft) 92,31 %
13.06.2018 22:42 13,3 C 23,9 C 95 % 1012,2 hPa 0,0 l/m 7,2 km/h (2 Bft) N 355 0 min 0,000 mm 0,0 UV-I 0 W/m 12,5 C 12,8 C 11,3 km/h (2 Bft) 91,67 %
13.06.2018 22:43 13,3 C 23,9 C 95 % 1012,2 hPa 0,0 l/m 6,4 km/h (2 Bft) N-NW 348 0 min 0,000 mm 0,0 UV-I 0 W/m 12,5 C 13,3 C 8,0 km/h (2 Bft) 100,00 %
13.06.2018 22:44 13,3 C 23,9 C 95 % 1012,2 hPa 0,0 l/m 7,0 km/h (2 Bft) N-NO 26 0 min 0,000 mm 0,0 UV-I 0 W/m 12,5 C 12,9 C 11,3 km/h (2 Bft) 92,31 %
13.06.2018 22:45 13,3 C 23,3 C 95 % 1012,2 hPa 0,0 l/m 3,8 km/h (1 Bft) N 5 0 min 0,000 mm 0,0 UV-I 0 W/m 12,5 C 13,3 C 6,4 km/h (2 Bft) 100,00 %
13.06.2018 22:46 13,3 C 23,3 C 95 % 1012,3 hPa 0,0 l/m 2,0 km/h (1 Bft) N-NW 343 0 min 0,000 mm 0,0 UV-I 0 W/m 12,5 C 13,3 C 3,2 km/h (1 Bft) 86,96 %
13.06.2018 22:48 13,3 C 23,3 C 95 % 1012,3 hPa 0,0 l/m 0,4 km/h (0 Bft) N-NW 348 0 min 0,000 mm 0,0 UV-I 0 W/m 12,5 C 13,3 C 3,2 km/h (1 Bft) 96,23 %
13.06.2018 22:49 13,3 C 23,3 C 95 % 1012,3 hPa 0,0 l/m 0,0 km/h (0 Bft) N-NW 348 0 min 0,000 mm 0,0 UV-I 0 W/m 12,5 C 13,3 C 0,0 km/h (0 Bft) 100,00 %
13.06.2018 22:50 13,3 C 23,3 C 95 % 1012,3 hPa 0,0 l/m 1,6 km/h (1 Bft) N 5 0 min 0,000 mm 0,0 UV-I 0 W/m 12,5 C 13,3 C 4,8 km/h (1 Bft) 96,15 %
13.06.2018 22:51 13,3 C 23,3 C 95 % 1012,4 hPa 0,0 l/m 1,5 km/h (1 Bft) N 5 0 min 0,000 mm 0,0 UV-I 0 W/m 12,5 C 13,3 C 3,2 km/h (1 Bft) 100,00 %
13.06.2018 22:52 13,3 C 23,3 C 95 % 1012,3 hPa 0,0 l/m 1,0 km/h (0 Bft) NW 322 0 min 0,000 mm 0,0 UV-I 0 W/m 12,5 C 13,3 C 1,6 km/h (1 Bft) 96,55 %
13.06.2018 22:53 13,3 C 23,3 C 95 % 1012,3 hPa 0,0 l/m 3,4 km/h (1 Bft) N 355 0 min 0,000 mm 0,0 UV-I 0 W/m 12,5 C 13,3 C 4,8 km/h (1 Bft) 96,30 %
13.06.2018 22:54 13,3 C 23,3 C 95 % 1012,4 hPa 0,0 l/m 2,9 km/h (1 Bft) N-NW 336 0 min 0,000 mm 0,0 UV-I 0 W/m 12,5 C 13,3 C 4,8 km/h (1 Bft) 100,00 %
13.06.2018 22:55 13,4 C 23,3 C 95 % 1012,3 hPa 0,0 l/m 1,8 km/h (1 Bft) N-NW 337 0 min 0,000 mm 0,0 UV-I 0 W/m 12,6 C 13,4 C 3,2 km/h (1 Bft) 93,33 %
13.06.2018 22:56 13,4 C 23,3 C 95 % 1012,4 hPa 0,2 l/m 1,3 km/h (1 Bft) N-NW 338 0 min 0,000 mm 0,0 UV-I 0 W/m 12,6 C 13,4 C 3,2 km/h (1 Bft) 96,15 %
13.06.2018 22:58 13,4 C 23,3 C 95 % 1012,4 hPa 0,0 l/m 0,1 km/h (0 Bft) N-NW 338 0 min 0,000 mm 0,0 UV-I 0 W/m 12,6 C 13,4 C 1,6 km/h (1 Bft) 97,87 %
13.06.2018 22:59 13,4 C 23,3 C 95 % 1012,4 hPa 0,0 l/m 0,1 km/h (0 Bft) N-NW 338 0 min 0,000 mm 0,0 UV-I 0 W/m 12,6 C 13,4 C 1,6 km/h (1 Bft) 93,33 %
13.06.2018 23:00 13,4 C 23,3 C 95 % 1012,4 hPa 0,0 l/m 0,9 km/h (0 Bft) N-NW 338 0 min 0,000 mm 0,0 UV-I 0 W/m 12,6 C 13,4 C 1,6 km/h (1 Bft) 100,00 %
13.06.2018 23:02 13,5 C 23,3 C 95 % 1012,4 hPa 0,0 l/m 0,2 km/h (0 Bft) N-NW 338 0 min 0,000 mm 0,0 UV-I 0 W/m 12,7 C 13,5 C 1,6 km/h (1 Bft) 98,11 %
13.06.2018 23:03 13,5 C 23,3 C 96 % 1012,4 hPa 0,0 l/m 0,1 km/h (0 Bft) N-NW 338 0 min 0,000 mm 0,0 UV-I 0 W/m 12,9 C 13,5 C 1,6 km/h (1 Bft) 96,30 %
13.06.2018 23:04 13,5 C 23,3 C 96 % 1012,4 hPa 0,0 l/m 0,0 km/h (0 Bft) N-NW 338 0 min 0,000 mm 0,0 UV-I 0 W/m 12,9 C 13,5 C 0,0 km/h (0 Bft) 91,67 %
13.06.2018 23:05 13,5 C 23,3 C 96 % 1012,4 hPa 0,0 l/m 0,0 km/h (0 Bft) N-NW 338 0 min 0,000 mm 0,0 UV-I 0 W/m 12,9 C 13,5 C 0,0 km/h (0 Bft) 96,15 %
13.06.2018 23:06 13,5 C 23,3 C 96 % 1012,5 hPa 0,0 l/m 0,0 km/h (0 Bft) N-NW 338 0 min 0,000 mm 0,0 UV-I 0 W/m 12,9 C 13,5 C 0,0 km/h (0 Bft) 96,30 %
13.06.2018 23:07 13,4 C 23,3 C 96 % 1012,5 hPa 0,0 l/m 0,6 km/h (0 Bft) N-NW 338 0 min 0,000 mm 0,0 UV-I 0 W/m 12,8 C 13,4 C 3,2 km/h (1 Bft) 100,00 %
13.06.2018 23:08 13,4 C 23,3 C 96 % 1012,5 hPa 0,0 l/m 2,5 km/h (1 Bft) N-NW 338 0 min 0,000 mm 0,0 UV-I 0 W/m 12,8 C 13,4 C 3,2 km/h (1 Bft) 96,30 %
13.06.2018 23:09 13,4 C 23,3 C 96 % 1012,5 hPa 0,0 l/m 2,6 km/h (1 Bft) W 261 0 min 0,000 mm 0,0 UV-I 0 W/m 12,8 C 13,4 C 4,8 km/h (1 Bft) 94,12 %
13.06.2018 23:10 13,4 C 23,3 C 96 % 1012,5 hPa 0,0 l/m 3,8 km/h (1 Bft) W-SW 246 0 min 0,000 mm 0,0 UV-I 0 W/m 12,8 C 13,4 C 4,8 km/h (1 Bft) 95,83 %
13.06.2018 23:11 13,4 C 23,3 C 96 % 1012,5 hPa 0,0 l/m 2,6 km/h (1 Bft) W-SW 247 0 min 0,000 mm 0,0 UV-I 0 W/m 12,8 C 13,4 C 4,8 km/h (1 Bft) 100,00 %
13.06.2018 23:12 13,4 C 23,3 C 96 % 1012,5 hPa 0,0 l/m 4,0 km/h (1 Bft) W-SW 250 0 min 0,000 mm 0,0 UV-I 0 W/m 12,8 C 13,4 C 8,0 km/h (2 Bft) 96,30 %
13.06.2018 23:13 13,4 C 23,3 C 96 % 1012,5 hPa 0,0 l/m 6,7 km/h (2 Bft) W 261 0 min 0,000 mm 0,0 UV-I 0 W/m 12,8 C 13,2 C 9,7 km/h (2 Bft) 100,00 %
13.06.2018 23:14 13,4 C 23,3 C 96 % 1012,5 hPa 0,0 l/m 5,3 km/h (1 Bft) W-SW 248 0 min 0,000 mm 0,0 UV-I 0 W/m 12,8 C 13,4 C 6,4 km/h (2 Bft) 95,83 %
13.06.2018 23:15 13,4 C 23,3 C 96 % 1012,5 hPa 0,0 l/m 5,6 km/h (1 Bft) W-SW 250 0 min 0,000 mm 0,0 UV-I 0 W/m 12,8 C 13,4 C 8,0 km/h (2 Bft) 96,15 %
13.06.2018 23:16 13,4 C 23,3 C 96 % 1012,5 hPa 0,0 l/m 5,8 km/h (2 Bft) W-SW 255 0 min 0,000 mm 0,0 UV-I 0 W/m 12,8 C 13,4 C 8,0 km/h (2 Bft) 100,00 %
13.06.2018 23:17 13,5 C 23,3 C 96 % 1012,5 hPa 0,0 l/m 6,8 km/h (2 Bft) W 279 0 min 0,000 mm 0,0 UV-I 0 W/m 12,9 C 13,3 C 9,7 km/h (2 Bft) 95,65 %
13.06.2018 23:18 13,5 C 23,3 C 96 % 1012,5 hPa 0,0 l/m 3,8 km/h (1 Bft) W-SW 257 0 min 0,000 mm 0,0 UV-I 0 W/m 12,9 C 13,5 C 4,8 km/h (1 Bft) 100,00 %
13.06.2018 23:19 13,5 C 23,3 C 96 % 1012,5 hPa 0,0 l/m 4,4 km/h (1 Bft) W-SW 248 0 min 0,000 mm 0,0 UV-I 0 W/m 12,9 C 13,5 C 6,4 km/h (2 Bft) 97,37 %
13.06.2018 23:20 13,5 C 23,3 C 96 % 1012,5 hPa 0,0 l/m 6,3 km/h (2 Bft) W 261 0 min 0,000 mm 0,0 UV-I 0 W/m 12,9 C 13,5 C 8,0 km/h (2 Bft) 87,50 %
13.06.2018 23:21 13,6 C 23,3 C 96 % 1012,5 hPa 0,0 l/m 5,9 km/h (2 Bft) W-SW 240 0 min 0,000 mm 0,0 UV-I 0 W/m 13,0 C 13,6 C 8,0 km/h (2 Bft) 91,67 %
13.06.2018 23:22 13,6 C 23,3 C 96 % 1012,6 hPa 0,2 l/m 3,5 km/h (1 Bft) W-SW 254 0 min 0,000 mm 0,0 UV-I 0 W/m 13,0 C 13,6 C 8,0 km/h (2 Bft) 100,00 %
13.06.2018 23:23 13,6 C 23,3 C 96 % 1012,6 hPa 0,0 l/m 4,6 km/h (1 Bft) W 278 0 min 0,000 mm 0,0 UV-I 0 W/m 13,0 C 13,6 C 6,4 km/h (2 Bft) 95,65 %
13.06.2018 23:24 13,6 C 23,3 C 96 % 1012,6 hPa 0,0 l/m 4,3 km/h (1 Bft) W 273 0 min 0,000 mm 0,0 UV-I 0 W/m 13,0 C 13,6 C 4,8 km/h (1 Bft) 100,00 %
13.06.2018 23:25 13,6 C 23,3 C 96 % 1012,6 hPa 0,0 l/m 5,9 km/h (2 Bft) W-SW 254 0 min 0,000 mm 0,0 UV-I 0 W/m 13,0 C 13,6 C 9,7 km/h (2 Bft) 93,33 %
13.06.2018 23:26 13,6 C 23,3 C 96 % 1012,7 hPa 0,0 l/m 6,7 km/h (2 Bft) W 277 0 min 0,000 mm 0,0 UV-I 0 W/m 13,0 C 13,4 C 11,3 km/h (2 Bft) 100,00 %
13.06.2018 23:27 13,6 C 23,3 C 97 % 1012,6 hPa 0,0 l/m 7,4 km/h (2 Bft) W 260 0 min 0,000 mm 0,0 UV-I 0 W/m 13,1 C 13,0 C 11,3 km/h (2 Bft) 95,83 %
13.06.2018 23:28 13,6 C 23,3 C 97 % 1012,6 hPa 0,0 l/m 6,3 km/h (2 Bft) W-SW 250 0 min 0,000 mm 0,0 UV-I 0 W/m 13,1 C 13,6 C 12,9 km/h (3 Bft) 95,65 %
13.06.2018 23:29 13,6 C 23,3 C 97 % 1012,6 hPa 0,0 l/m 7,4 km/h (2 Bft) W 270 0 min 0,000 mm 0,0 UV-I 0 W/m 13,1 C 13,0 C 12,9 km/h (3 Bft) 100,00 %
13.06.2018 23:30 13,6 C 23,3 C 97 % 1012,6 hPa 0,0 l/m 6,7 km/h (2 Bft) W-SW 244 0 min 0,000 mm 0,0 UV-I 0 W/m 13,1 C 13,4 C 9,7 km/h (2 Bft) 91,30 %
13.06.2018 23:31 13,6 C 23,3 C 97 % 1012,6 hPa 0,0 l/m 6,6 km/h (2 Bft) W-SW 242 0 min 0,000 mm 0,0 UV-I 0 W/m 13,1 C 13,5 C 9,7 km/h (2 Bft) 100,00 %
13.06.2018 23:32 13,6 C 23,3 C 97 % 1012,7 hPa 0,0 l/m 7,9 km/h (2 Bft) W-SW 250 0 min 0,000 mm 0,0 UV-I 0 W/m 13,1 C 12,7 C 12,9 km/h (3 Bft) 92,31 %
13.06.2018 23:33 13,6 C 23,3 C 97 % 1012,6 hPa 0,0 l/m 5,6 km/h (1 Bft) SW 234 0 min 0,000 mm 0,0 UV-I 0 W/m 13,1 C 13,6 C 9,7 km/h (2 Bft) 100,00 %
13.06.2018 23:34 13,6 C 23,3 C 97 % 1012,7 hPa 0,0 l/m 5,6 km/h (1 Bft) W 261 0 min 0,000 mm 0,0 UV-I 0 W/m 13,1 C 13,6 C 8,0 km/h (2 Bft) 95,65 %
13.06.2018 23:35 13,6 C 23,3 C 97 % 1012,7 hPa 0,0 l/m 6,3 km/h (2 Bft) W 261 0 min 0,000 mm 0,0 UV-I 0 W/m 13,1 C 13,6 C 9,7 km/h (2 Bft) 100,00 %
13.06.2018 23:36 13,6 C 23,3 C 97 % 1012,7 hPa 0,0 l/m 5,6 km/h (1 Bft) W 277 0 min 0,000 mm 0,0 UV-I 0 W/m 13,1 C 13,6 C 9,7 km/h (2 Bft) 91,30 %
13.06.2018 23:37 13,6 C 23,3 C 97 % 1012,7 hPa 0,0 l/m 4,8 km/h (1 Bft) W 262 0 min 0,000 mm 0,0 UV-I 0 W/m 13,1 C 13,6 C 6,4 km/h (2 Bft) 100,00 %
13.06.2018 23:38 13,6 C 23,3 C 97 % 1012,7 hPa 0,0 l/m 5,6 km/h (1 Bft) W 271 0 min 0,000 mm 0,0 UV-I 0 W/m 13,1 C 13,6 C 9,7 km/h (2 Bft) 96,55 %
13.06.2018 23:39 13,6 C 23,3 C 97 % 1012,7 hPa 0,0 l/m 7,2 km/h (2 Bft) W 274 0 min 0,000 mm 0,0 UV-I 0 W/m 13,1 C 13,1 C 11,3 km/h (2 Bft) 100,00 %
13.06.2018 23:40 13,7 C 23,3 C 97 % 1012,8 hPa 0,0 l/m 4,9 km/h (1 Bft) W-SW 252 0 min 0,000 mm 0,0 UV-I 0 W/m 13,2 C 13,7 C 6,4 km/h (2 Bft) 100,00 %
13.06.2018 23:41 13,7 C 23,3 C 97 % 1012,8 hPa 0,0 l/m 5,2 km/h (1 Bft) W 267 0 min 0,000 mm 0,0 UV-I 0 W/m 13,2 C 13,7 C 9,7 km/h (2 Bft) 100,00 %
13.06.2018 23:42 13,7 C 23,3 C 97 % 1012,8 hPa 0,0 l/m 4,8 km/h (1 Bft) W-SW 256 0 min 0,000 mm 0,0 UV-I 0 W/m 13,2 C 13,7 C 6,4 km/h (2 Bft) 95,65 %
13.06.2018 23:43 13,6 C 23,3 C 97 % 1012,8 hPa 0,0 l/m 3,7 km/h (1 Bft) W 265 0 min 0,000 mm 0,0 UV-I 0 W/m 13,1 C 13,6 C 4,8 km/h (1 Bft) 100,00 %
13.06.2018 23:44 13,6 C 23,3 C 97 % 1012,8 hPa 0,0 l/m 5,5 km/h (1 Bft) W-NW 291 0 min 0,000 mm 0,0 UV-I 0 W/m 13,1 C 13,6 C 8,0 km/h (2 Bft) 100,00 %
13.06.2018 23:45 13,6 C 23,3 C 97 % 1012,8 hPa 0,0 l/m 2,5 km/h (1 Bft) W-NW 284 0 min 0,000 mm 0,0 UV-I 0 W/m 13,1 C 13,6 C 6,4 km/h (2 Bft) 100,00 %
13.06.2018 23:46 13,6 C 23,3 C 97 % 1012,8 hPa 0,0 l/m 1,8 km/h (1 Bft) W-NW 284 0 min 0,000 mm 0,0 UV-I 0 W/m 13,1 C 13,6 C 3,2 km/h (1 Bft) 100,00 %
13.06.2018 23:48 13,7 C 23,3 C 97 % 1012,9 hPa 0,0 l/m 1,3 km/h (1 Bft) W-NW 285 0 min 0,000 mm 0,0 UV-I 0 W/m 13,2 C 13,7 C 3,2 km/h (1 Bft) 100,00 %
13.06.2018 23:49 13,6 C 23,3 C 97 % 1012,9 hPa 0,0 l/m 0,6 km/h (0 Bft) W-NW 285 0 min 0,000 mm 0,0 UV-I 0 W/m 13,1 C 13,6 C 1,6 km/h (1 Bft) 100,00 %
13.06.2018 23:50 13,6 C 23,3 C 97 % 1012,9 hPa 0,0 l/m 0,7 km/h (0 Bft) W-NW 285 0 min 0,000 mm 0,0 UV-I 0 W/m 13,1 C 13,6 C 3,2 km/h (1 Bft) 100,00 %
13.06.2018 23:51 13,6 C 23,3 C 97 % 1012,9 hPa 0,0 l/m 1,6 km/h (1 Bft) W-NW 285 0 min 0,000 mm 0,0 UV-I 0 W/m 13,1 C 13,6 C 3,2 km/h (1 Bft) 100,00 %
13.06.2018 23:52 13,6 C 23,3 C 97 % 1012,9 hPa 0,0 l/m 1,3 km/h (1 Bft) NW 318 0 min 0,000 mm 0,0 UV-I 0 W/m 13,1 C 13,6 C 3,2 km/h (1 Bft) 100,00 %
13.06.2018 23:53 13,6 C 23,3 C 97 % 1013,0 hPa 0,0 l/m 0,4 km/h (0 Bft) NW 317 0 min 0,000 mm 0,0 UV-I 0 W/m 13,1 C 13,6 C 3,2 km/h (1 Bft) 100,00 %
13.06.2018 23:54 13,6 C 23,3 C 97 % 1012,9 hPa 0,0 l/m 0,0 km/h (0 Bft) NW 317 0 min 0,000 mm 0,0 UV-I 0 W/m 13,1 C 13,6 C 0,0 km/h (0 Bft) 100,00 %
13.06.2018 23:55 13,6 C 23,3 C 97 % 1013,0 hPa 0,0 l/m 1,1 km/h (1 Bft) NW 316 0 min 0,000 mm 0,0 UV-I 0 W/m 13,1 C 13,6 C 3,2 km/h (1 Bft) 100,00 %
13.06.2018 23:56 13,6 C 23,3 C 97 % 1013,0 hPa 0,0 l/m 0,5 km/h (0 Bft) NW 316 0 min 0,000 mm 0,0 UV-I 0 W/m 13,1 C 13,6 C 1,6 km/h (1 Bft) 100,00 %
13.06.2018 23:57 13,6 C 23,3 C 97 % 1012,9 hPa 0,0 l/m 1,5 km/h (1 Bft) NW 316 0 min 0,000 mm 0,0 UV-I 0 W/m 13,1 C 13,6 C 4,8 km/h (1 Bft) 100,00 %
13.06.2018 23:58 13,6 C 23,3 C 97 % 1013,0 hPa 0,0 l/m 2,5 km/h (1 Bft) NW 316 0 min 0,000 mm 0,0 UV-I 0 W/m 13,1 C 13,6 C 4,8 km/h (1 Bft) 100,00 %
13.06.2018 23:59 13,6 C 23,3 C 97 % 1013,0 hPa 0,0 l/m 1,7 km/h (1 Bft) NW 315 0 min 0,000 mm 0,0 UV-I 0 W/m 13,1 C 13,6 C 3,2 km/h (1 Bft) 100,00 %
_ Min-Zeit 22:31 22:45 12:52 06:21 - 00:56 - - - - - - 22:31 09:53 00:56 14:29
Minimum _ 13,3 C 23,3 C 93 % 1003,6 hPa - 0,0 km/h (0 Bft) - - - - - - 12,5 C 10,6 C 0,0 km/h (0 Bft) 81,82 %
_ Max-Zeit 00:22 00:00 01:11 23:53 00:18 09:36 - - 07:28 13:00 12:28 12:28 00:22 00:28 09:35 00:04
Maximum _ 17,8 C 26,1 C 97 % 1013,0 hPa 0,2 l/m 18,5 km/h
N-NO (3 Bft)
- - 2 min 0,102 mm 1,8 UV-I 237 W/m 17,2 C 17,8 C 22,5 km/h
N (4 Bft)
100,00 %
Durchschnitt _ 15,4 C 24,6 C 96 % 1006,5 hPa #19,8 l/m 4,3 km/h (1 Bft) N - #7 min. #0,737 mm 0,7 UV-I 84 W/m 14,8 C 15,0 C 6,9 km/h (2 Bft) 98,00 %